<?xml version="1.0" encoding="UTF-8" standalone="no" ?>
<gpx xmlns="http://www.topografix.com/GPX/1/1" xmlns:xsi="http://www.w3.org/2001/XMLSchema-instance" xsi:schemaLocation="http://www.topografix.com/GPX/1/1 http://www.topografix.com/GPX/1/1/gpx.xsd" version="1.1" creator="VisuGPX - https://www.visugpx.com">
  <metadata>
    <name>Orgeval en Raquettes</name>
    <desc><![CDATA[Une belle rando raquette à réserver à des personnes bien entraînées. J\\\'ai marché approximativement 8 heures pour faire cette boucle car la route de nant fourchu n%u2019était pas déneigé. Attention au passage avalancheux sur le chemin du gros Fayard. Ne partez pas seul en montagne (faites pas comme moi !) ]]></desc>
  </metadata>
  <trk>
    <name><![CDATA[Orgeval en Raquettes_1]]></name>
    <trkseg>
      <trkpt lat="45.63667" lon="6.19726">
        <ele>833.60034179688</ele>
        <time>2011-12-23T07:12:06Z</time>
      </trkpt>
      <trkpt lat="45.63666" lon="6.19728">
        <ele>834.0810546875</ele>
        <time>2011-12-23T07:12:07Z</time>
      </trkpt>
      <trkpt lat="45.63664" lon="6.19731">
        <ele>834.56176757812</ele>
        <time>2011-12-23T07:12:09Z</time>
      </trkpt>
      <trkpt lat="45.63665" lon="6.1974">
        <ele>843.21337890625</ele>
        <time>2011-12-23T07:12:14Z</time>
      </trkpt>
      <trkpt lat="45.63665" lon="6.19745">
        <ele>847.05883789062</ele>
        <time>2011-12-23T07:12:17Z</time>
      </trkpt>
      <trkpt lat="45.6367" lon="6.19752">
        <ele>855.71069335938</ele>
        <time>2011-12-23T07:12:20Z</time>
      </trkpt>
      <trkpt lat="45.63684" lon="6.19768">
        <ele>878.78247070312</ele>
        <time>2011-12-23T07:12:28Z</time>
      </trkpt>
      <trkpt lat="45.63686" lon="6.19778">
        <ele>887.91479492188</ele>
        <time>2011-12-23T07:12:34Z</time>
      </trkpt>
      <trkpt lat="45.63681" lon="6.19787">
        <ele>885.9921875</ele>
        <time>2011-12-23T07:12:41Z</time>
      </trkpt>
      <trkpt lat="45.63675" lon="6.19789">
        <ele>882.14697265625</ele>
        <time>2011-12-23T07:12:45Z</time>
      </trkpt>
      <trkpt lat="45.63675" lon="6.19793">
        <ele>881.18579101562</ele>
        <time>2011-12-23T07:12:48Z</time>
      </trkpt>
      <trkpt lat="45.63667" lon="6.19799">
        <ele>875.41748046875</ele>
        <time>2011-12-23T07:12:54Z</time>
      </trkpt>
      <trkpt lat="45.63658" lon="6.19805">
        <ele>865.8046875</ele>
        <time>2011-12-23T07:13:00Z</time>
      </trkpt>
      <trkpt lat="45.63653" lon="6.19811">
        <ele>858.11401367188</ele>
        <time>2011-12-23T07:13:06Z</time>
      </trkpt>
      <trkpt lat="45.63652" lon="6.19814">
        <ele>856.671875</ele>
        <time>2011-12-23T07:13:08Z</time>
      </trkpt>
      <trkpt lat="45.63647" lon="6.19827">
        <ele>850.42358398438</ele>
        <time>2011-12-23T07:13:18Z</time>
      </trkpt>
      <trkpt lat="45.63648" lon="6.19833">
        <ele>851.384765625</ele>
        <time>2011-12-23T07:13:23Z</time>
      </trkpt>
      <trkpt lat="45.63649" lon="6.1984">
        <ele>853.30737304688</ele>
        <time>2011-12-23T07:13:32Z</time>
      </trkpt>
      <trkpt lat="45.6365" lon="6.19842">
        <ele>852.82666015625</ele>
        <time>2011-12-23T07:13:34Z</time>
      </trkpt>
      <trkpt lat="45.63655" lon="6.1985">
        <ele>854.26879882812</ele>
        <time>2011-12-23T07:13:43Z</time>
      </trkpt>
      <trkpt lat="45.63661" lon="6.19855">
        <ele>856.671875</ele>
        <time>2011-12-23T07:13:51Z</time>
      </trkpt>
      <trkpt lat="45.63665" lon="6.19862">
        <ele>855.22998046875</ele>
        <time>2011-12-23T07:13:57Z</time>
      </trkpt>
      <trkpt lat="45.63667" lon="6.19867">
        <ele>852.34594726562</ele>
        <time>2011-12-23T07:14:01Z</time>
      </trkpt>
      <trkpt lat="45.63673" lon="6.19875">
        <ele>849.94287109375</ele>
        <time>2011-12-23T07:14:05Z</time>
      </trkpt>
      <trkpt lat="45.63676" lon="6.19885">
        <ele>846.57836914062</ele>
        <time>2011-12-23T07:14:11Z</time>
      </trkpt>
      <trkpt lat="45.6368" lon="6.19893">
        <ele>846.09765625</ele>
        <time>2011-12-23T07:14:15Z</time>
      </trkpt>
      <trkpt lat="45.6368" lon="6.19902">
        <ele>843.21337890625</ele>
        <time>2011-12-23T07:14:21Z</time>
      </trkpt>
      <trkpt lat="45.63681" lon="6.19912">
        <ele>842.25219726562</ele>
        <time>2011-12-23T07:14:28Z</time>
      </trkpt>
      <trkpt lat="45.63685" lon="6.19918">
        <ele>844.65551757812</ele>
        <time>2011-12-23T07:14:32Z</time>
      </trkpt>
      <trkpt lat="45.63688" lon="6.19924">
        <ele>846.09765625</ele>
        <time>2011-12-23T07:14:36Z</time>
      </trkpt>
      <trkpt lat="45.63691" lon="6.19935">
        <ele>847.05883789062</ele>
        <time>2011-12-23T07:14:43Z</time>
      </trkpt>
      <trkpt lat="45.63692" lon="6.19942">
        <ele>847.05883789062</ele>
        <time>2011-12-23T07:14:48Z</time>
      </trkpt>
      <trkpt lat="45.63692" lon="6.19947">
        <ele>846.09765625</ele>
        <time>2011-12-23T07:14:52Z</time>
      </trkpt>
      <trkpt lat="45.63698" lon="6.19956">
        <ele>847.53955078125</ele>
        <time>2011-12-23T07:14:58Z</time>
      </trkpt>
      <trkpt lat="45.637" lon="6.19963">
        <ele>849.94287109375</ele>
        <time>2011-12-23T07:15:04Z</time>
      </trkpt>
      <trkpt lat="45.63704" lon="6.19976">
        <ele>852.82666015625</ele>
        <time>2011-12-23T07:15:12Z</time>
      </trkpt>
      <trkpt lat="45.63709" lon="6.19983">
        <ele>858.11401367188</ele>
        <time>2011-12-23T07:15:16Z</time>
      </trkpt>
      <trkpt lat="45.63715" lon="6.19987">
        <ele>861.95947265625</ele>
        <time>2011-12-23T07:15:21Z</time>
      </trkpt>
      <trkpt lat="45.63721" lon="6.19996">
        <ele>870.13037109375</ele>
        <time>2011-12-23T07:15:27Z</time>
      </trkpt>
      <trkpt lat="45.63728" lon="6.20003">
        <ele>876.37915039062</ele>
        <time>2011-12-23T07:15:32Z</time>
      </trkpt>
      <trkpt lat="45.63732" lon="6.20009">
        <ele>879.26293945312</ele>
        <time>2011-12-23T07:15:37Z</time>
      </trkpt>
      <trkpt lat="45.63733" lon="6.20013">
        <ele>879.26293945312</ele>
        <time>2011-12-23T07:15:40Z</time>
      </trkpt>
      <trkpt lat="45.63733" lon="6.20021">
        <ele>874.45629882812</ele>
        <time>2011-12-23T07:15:44Z</time>
      </trkpt>
      <trkpt lat="45.63736" lon="6.20033">
        <ele>868.20776367188</ele>
        <time>2011-12-23T07:15:50Z</time>
      </trkpt>
      <trkpt lat="45.63736" lon="6.2004">
        <ele>862.43994140625</ele>
        <time>2011-12-23T07:15:55Z</time>
      </trkpt>
      <trkpt lat="45.63737" lon="6.20047">
        <ele>859.0751953125</ele>
        <time>2011-12-23T07:16:01Z</time>
      </trkpt>
      <trkpt lat="45.63745" lon="6.20057">
        <ele>859.55590820312</ele>
        <time>2011-12-23T07:16:08Z</time>
      </trkpt>
      <trkpt lat="45.63752" lon="6.20069">
        <ele>859.0751953125</ele>
        <time>2011-12-23T07:16:15Z</time>
      </trkpt>
      <trkpt lat="45.63758" lon="6.20078">
        <ele>859.0751953125</ele>
        <time>2011-12-23T07:16:20Z</time>
      </trkpt>
      <trkpt lat="45.63762" lon="6.20085">
        <ele>857.63330078125</ele>
        <time>2011-12-23T07:16:26Z</time>
      </trkpt>
      <trkpt lat="45.63768" lon="6.20089">
        <ele>864.84326171875</ele>
        <time>2011-12-23T07:16:32Z</time>
      </trkpt>
      <trkpt lat="45.63771" lon="6.20092">
        <ele>864.84326171875</ele>
        <time>2011-12-23T07:16:36Z</time>
      </trkpt>
      <trkpt lat="45.63774" lon="6.20099">
        <ele>866.28515625</ele>
        <time>2011-12-23T07:16:41Z</time>
      </trkpt>
      <trkpt lat="45.63777" lon="6.2011">
        <ele>862.92065429688</ele>
        <time>2011-12-23T07:16:48Z</time>
      </trkpt>
      <trkpt lat="45.63778" lon="6.2012">
        <ele>857.15258789062</ele>
        <time>2011-12-23T07:16:55Z</time>
      </trkpt>
      <trkpt lat="45.6378" lon="6.20129">
        <ele>856.19116210938</ele>
        <time>2011-12-23T07:17:00Z</time>
      </trkpt>
      <trkpt lat="45.63786" lon="6.20141">
        <ele>857.15258789062</ele>
        <time>2011-12-23T07:17:07Z</time>
      </trkpt>
      <trkpt lat="45.63792" lon="6.20149">
        <ele>858.59448242188</ele>
        <time>2011-12-23T07:17:12Z</time>
      </trkpt>
      <trkpt lat="45.63792" lon="6.2016">
        <ele>856.671875</ele>
        <time>2011-12-23T07:17:19Z</time>
      </trkpt>
      <trkpt lat="45.63792" lon="6.20162">
        <ele>857.15258789062</ele>
        <time>2011-12-23T07:17:20Z</time>
      </trkpt>
      <trkpt lat="45.63792" lon="6.20174">
        <ele>859.55590820312</ele>
        <time>2011-12-23T07:17:28Z</time>
      </trkpt>
      <trkpt lat="45.63792" lon="6.20183">
        <ele>855.22998046875</ele>
        <time>2011-12-23T07:17:36Z</time>
      </trkpt>
      <trkpt lat="45.63791" lon="6.20187">
        <ele>852.82666015625</ele>
        <time>2011-12-23T07:17:39Z</time>
      </trkpt>
      <trkpt lat="45.63791" lon="6.20191">
        <ele>851.384765625</ele>
        <time>2011-12-23T07:17:43Z</time>
      </trkpt>
      <trkpt lat="45.63791" lon="6.20192">
        <ele>850.90405273438</ele>
        <time>2011-12-23T07:17:44Z</time>
      </trkpt>
      <trkpt lat="45.63794" lon="6.20199">
        <ele>856.19116210938</ele>
        <time>2011-12-23T07:17:51Z</time>
      </trkpt>
      <trkpt lat="45.63798" lon="6.20205">
        <ele>859.55590820312</ele>
        <time>2011-12-23T07:17:58Z</time>
      </trkpt>
      <trkpt lat="45.638" lon="6.2021">
        <ele>860.03662109375</ele>
        <time>2011-12-23T07:18:02Z</time>
      </trkpt>
      <trkpt lat="45.63802" lon="6.20215">
        <ele>860.998046875</ele>
        <time>2011-12-23T07:18:07Z</time>
      </trkpt>
      <trkpt lat="45.63804" lon="6.20221">
        <ele>860.998046875</ele>
        <time>2011-12-23T07:18:13Z</time>
      </trkpt>
      <trkpt lat="45.63804" lon="6.20225">
        <ele>861.47875976562</ele>
        <time>2011-12-23T07:18:18Z</time>
      </trkpt>
      <trkpt lat="45.63805" lon="6.20229">
        <ele>861.95947265625</ele>
        <time>2011-12-23T07:18:22Z</time>
      </trkpt>
      <trkpt lat="45.63803" lon="6.20235">
        <ele>858.59448242188</ele>
        <time>2011-12-23T07:18:26Z</time>
      </trkpt>
      <trkpt lat="45.63804" lon="6.20241">
        <ele>859.0751953125</ele>
        <time>2011-12-23T07:18:30Z</time>
      </trkpt>
      <trkpt lat="45.63806" lon="6.20244">
        <ele>860.03662109375</ele>
        <time>2011-12-23T07:18:32Z</time>
      </trkpt>
      <trkpt lat="45.6381" lon="6.2025">
        <ele>862.43994140625</ele>
        <time>2011-12-23T07:18:37Z</time>
      </trkpt>
      <trkpt lat="45.63818" lon="6.20257">
        <ele>865.8046875</ele>
        <time>2011-12-23T07:18:42Z</time>
      </trkpt>
      <trkpt lat="45.63826" lon="6.20267">
        <ele>870.61108398438</ele>
        <time>2011-12-23T07:18:48Z</time>
      </trkpt>
      <trkpt lat="45.63829" lon="6.2027">
        <ele>871.091796875</ele>
        <time>2011-12-23T07:18:52Z</time>
      </trkpt>
      <trkpt lat="45.6383" lon="6.20276">
        <ele>873.01440429688</ele>
        <time>2011-12-23T07:18:59Z</time>
      </trkpt>
      <trkpt lat="45.63831" lon="6.20283">
        <ele>872.53369140625</ele>
        <time>2011-12-23T07:19:04Z</time>
      </trkpt>
      <trkpt lat="45.63836" lon="6.20288">
        <ele>876.37915039062</ele>
        <time>2011-12-23T07:19:08Z</time>
      </trkpt>
      <trkpt lat="45.63837" lon="6.20294">
        <ele>875.89819335938</ele>
        <time>2011-12-23T07:19:12Z</time>
      </trkpt>
      <trkpt lat="45.63836" lon="6.20298">
        <ele>871.091796875</ele>
        <time>2011-12-23T07:19:16Z</time>
      </trkpt>
      <trkpt lat="45.63836" lon="6.20305">
        <ele>869.16918945312</ele>
        <time>2011-12-23T07:19:21Z</time>
      </trkpt>
      <trkpt lat="45.63834" lon="6.20313">
        <ele>864.84326171875</ele>
        <time>2011-12-23T07:19:27Z</time>
      </trkpt>
      <trkpt lat="45.63834" lon="6.20322">
        <ele>863.8818359375</ele>
        <time>2011-12-23T07:19:33Z</time>
      </trkpt>
      <trkpt lat="45.63839" lon="6.2033">
        <ele>868.20776367188</ele>
        <time>2011-12-23T07:19:37Z</time>
      </trkpt>
      <trkpt lat="45.63844" lon="6.20342">
        <ele>873.01440429688</ele>
        <time>2011-12-23T07:19:44Z</time>
      </trkpt>
      <trkpt lat="45.63843" lon="6.20346">
        <ele>872.05297851562</ele>
        <time>2011-12-23T07:19:49Z</time>
      </trkpt>
      <trkpt lat="45.63842" lon="6.20352">
        <ele>871.091796875</ele>
        <time>2011-12-23T07:20:06Z</time>
      </trkpt>
      <trkpt lat="45.63842" lon="6.20355">
        <ele>870.61108398438</ele>
        <time>2011-12-23T07:20:10Z</time>
      </trkpt>
      <trkpt lat="45.63845" lon="6.2036">
        <ele>871.572265625</ele>
        <time>2011-12-23T07:20:14Z</time>
      </trkpt>
      <trkpt lat="45.63846" lon="6.20361">
        <ele>871.572265625</ele>
        <time>2011-12-23T07:20:15Z</time>
      </trkpt>
      <trkpt lat="45.63847" lon="6.20366">
        <ele>869.64990234375</ele>
        <time>2011-12-23T07:20:22Z</time>
      </trkpt>
      <trkpt lat="45.63843" lon="6.20365">
        <ele>866.76586914062</ele>
        <time>2011-12-23T07:20:26Z</time>
      </trkpt>
      <trkpt lat="45.63837" lon="6.2036">
        <ele>870.61108398438</ele>
        <time>2011-12-23T07:20:37Z</time>
      </trkpt>
      <trkpt lat="45.63839" lon="6.20369">
        <ele>866.76586914062</ele>
        <time>2011-12-23T07:20:45Z</time>
      </trkpt>
      <trkpt lat="45.6384" lon="6.20372">
        <ele>866.76586914062</ele>
        <time>2011-12-23T07:20:54Z</time>
      </trkpt>
      <trkpt lat="45.63841" lon="6.20373">
        <ele>867.72705078125</ele>
        <time>2011-12-23T07:20:55Z</time>
      </trkpt>
      <trkpt lat="45.63844" lon="6.20377">
        <ele>867.72705078125</ele>
        <time>2011-12-23T07:20:57Z</time>
      </trkpt>
      <trkpt lat="45.63852" lon="6.20387">
        <ele>870.61108398438</ele>
        <time>2011-12-23T07:21:03Z</time>
      </trkpt>
      <trkpt lat="45.63855" lon="6.2039">
        <ele>871.572265625</ele>
        <time>2011-12-23T07:21:08Z</time>
      </trkpt>
      <trkpt lat="45.63857" lon="6.20393">
        <ele>872.53369140625</ele>
        <time>2011-12-23T07:21:13Z</time>
      </trkpt>
      <trkpt lat="45.63861" lon="6.20396">
        <ele>875.41748046875</ele>
        <time>2011-12-23T07:21:16Z</time>
      </trkpt>
      <trkpt lat="45.63869" lon="6.20408">
        <ele>879.74365234375</ele>
        <time>2011-12-23T07:21:24Z</time>
      </trkpt>
      <trkpt lat="45.63866" lon="6.20406">
        <ele>877.34057617188</ele>
        <time>2011-12-23T07:21:29Z</time>
      </trkpt>
      <trkpt lat="45.63866" lon="6.20411">
        <ele>873.01440429688</ele>
        <time>2011-12-23T07:21:38Z</time>
      </trkpt>
      <trkpt lat="45.63866" lon="6.20413">
        <ele>876.37915039062</ele>
        <time>2011-12-23T07:21:43Z</time>
      </trkpt>
      <trkpt lat="45.63868" lon="6.20416">
        <ele>880.22436523438</ele>
        <time>2011-12-23T07:21:48Z</time>
      </trkpt>
      <trkpt lat="45.6387" lon="6.20418">
        <ele>885.9921875</ele>
        <time>2011-12-23T07:21:52Z</time>
      </trkpt>
      <trkpt lat="45.63873" lon="6.20422">
        <ele>887.91479492188</ele>
        <time>2011-12-23T07:21:55Z</time>
      </trkpt>
      <trkpt lat="45.63875" lon="6.20432">
        <ele>888.3955078125</ele>
        <time>2011-12-23T07:22:02Z</time>
      </trkpt>
      <trkpt lat="45.63877" lon="6.20438">
        <ele>885.03100585938</ele>
        <time>2011-12-23T07:22:05Z</time>
      </trkpt>
      <trkpt lat="45.63881" lon="6.20446">
        <ele>883.5888671875</ele>
        <time>2011-12-23T07:22:10Z</time>
      </trkpt>
      <trkpt lat="45.63885" lon="6.20462">
        <ele>876.37915039062</ele>
        <time>2011-12-23T07:22:19Z</time>
      </trkpt>
      <trkpt lat="45.63887" lon="6.20468">
        <ele>877.34057617188</ele>
        <time>2011-12-23T07:22:25Z</time>
      </trkpt>
      <trkpt lat="45.63885" lon="6.20469">
        <ele>880.22436523438</ele>
        <time>2011-12-23T07:22:28Z</time>
      </trkpt>
      <trkpt lat="45.63887" lon="6.20469">
        <ele>889.83740234375</ele>
        <time>2011-12-23T07:22:33Z</time>
      </trkpt>
      <trkpt lat="45.63888" lon="6.20471">
        <ele>890.31811523438</ele>
        <time>2011-12-23T07:22:34Z</time>
      </trkpt>
      <trkpt lat="45.63891" lon="6.20475">
        <ele>890.79858398438</ele>
        <time>2011-12-23T07:22:37Z</time>
      </trkpt>
      <trkpt lat="45.63895" lon="6.20482">
        <ele>891.279296875</ele>
        <time>2011-12-23T07:22:43Z</time>
      </trkpt>
      <trkpt lat="45.63898" lon="6.20488">
        <ele>892.24096679688</ele>
        <time>2011-12-23T07:22:48Z</time>
      </trkpt>
      <trkpt lat="45.63904" lon="6.20498">
        <ele>890.79858398438</ele>
        <time>2011-12-23T07:22:55Z</time>
      </trkpt>
      <trkpt lat="45.63908" lon="6.20507">
        <ele>887.91479492188</ele>
        <time>2011-12-23T07:23:00Z</time>
      </trkpt>
      <trkpt lat="45.63916" lon="6.2052">
        <ele>885.03100585938</ele>
        <time>2011-12-23T07:23:08Z</time>
      </trkpt>
      <trkpt lat="45.63922" lon="6.20525">
        <ele>890.31811523438</ele>
        <time>2011-12-23T07:23:16Z</time>
      </trkpt>
      <trkpt lat="45.63926" lon="6.20527">
        <ele>894.64404296875</ele>
        <time>2011-12-23T07:23:21Z</time>
      </trkpt>
      <trkpt lat="45.63932" lon="6.20532">
        <ele>896.56689453125</ele>
        <time>2011-12-23T07:23:27Z</time>
      </trkpt>
      <trkpt lat="45.63938" lon="6.20538">
        <ele>894.64404296875</ele>
        <time>2011-12-23T07:23:35Z</time>
      </trkpt>
      <trkpt lat="45.63944" lon="6.20547">
        <ele>888.87622070312</ele>
        <time>2011-12-23T07:23:41Z</time>
      </trkpt>
      <trkpt lat="45.63948" lon="6.20555">
        <ele>884.55029296875</ele>
        <time>2011-12-23T07:23:47Z</time>
      </trkpt>
      <trkpt lat="45.6395" lon="6.20557">
        <ele>884.06958007812</ele>
        <time>2011-12-23T07:23:49Z</time>
      </trkpt>
      <trkpt lat="45.63953" lon="6.20562">
        <ele>883.5888671875</ele>
        <time>2011-12-23T07:23:53Z</time>
      </trkpt>
      <trkpt lat="45.63956" lon="6.20566">
        <ele>883.10815429688</ele>
        <time>2011-12-23T07:23:58Z</time>
      </trkpt>
      <trkpt lat="45.63959" lon="6.20572">
        <ele>882.14697265625</ele>
        <time>2011-12-23T07:24:02Z</time>
      </trkpt>
      <trkpt lat="45.63964" lon="6.20578">
        <ele>882.62768554688</ele>
        <time>2011-12-23T07:24:07Z</time>
      </trkpt>
      <trkpt lat="45.63968" lon="6.20581">
        <ele>885.9921875</ele>
        <time>2011-12-23T07:24:10Z</time>
      </trkpt>
      <trkpt lat="45.63973" lon="6.2059">
        <ele>888.3955078125</ele>
        <time>2011-12-23T07:24:17Z</time>
      </trkpt>
      <trkpt lat="45.63977" lon="6.20599">
        <ele>889.83740234375</ele>
        <time>2011-12-23T07:24:23Z</time>
      </trkpt>
      <trkpt lat="45.6398" lon="6.20608">
        <ele>885.51147460938</ele>
        <time>2011-12-23T07:24:28Z</time>
      </trkpt>
      <trkpt lat="45.63983" lon="6.20614">
        <ele>883.10815429688</ele>
        <time>2011-12-23T07:24:33Z</time>
      </trkpt>
      <trkpt lat="45.63988" lon="6.2062">
        <ele>883.10815429688</ele>
        <time>2011-12-23T07:24:37Z</time>
      </trkpt>
      <trkpt lat="45.63991" lon="6.20628">
        <ele>884.55029296875</ele>
        <time>2011-12-23T07:24:43Z</time>
      </trkpt>
      <trkpt lat="45.63992" lon="6.20635">
        <ele>881.18579101562</ele>
        <time>2011-12-23T07:24:47Z</time>
      </trkpt>
      <trkpt lat="45.63991" lon="6.20642">
        <ele>878.3017578125</ele>
        <time>2011-12-23T07:24:52Z</time>
      </trkpt>
      <trkpt lat="45.63994" lon="6.20647">
        <ele>877.34057617188</ele>
        <time>2011-12-23T07:24:56Z</time>
      </trkpt>
      <trkpt lat="45.63992" lon="6.20651">
        <ele>876.37915039062</ele>
        <time>2011-12-23T07:25:00Z</time>
      </trkpt>
      <trkpt lat="45.63998" lon="6.20657">
        <ele>875.89819335938</ele>
        <time>2011-12-23T07:25:04Z</time>
      </trkpt>
      <trkpt lat="45.64005" lon="6.20665">
        <ele>876.85986328125</ele>
        <time>2011-12-23T07:25:10Z</time>
      </trkpt>
      <trkpt lat="45.64008" lon="6.20669">
        <ele>878.78247070312</ele>
        <time>2011-12-23T07:25:14Z</time>
      </trkpt>
      <trkpt lat="45.64011" lon="6.20675">
        <ele>878.3017578125</ele>
        <time>2011-12-23T07:25:18Z</time>
      </trkpt>
      <trkpt lat="45.64016" lon="6.2068">
        <ele>878.78247070312</ele>
        <time>2011-12-23T07:25:22Z</time>
      </trkpt>
      <trkpt lat="45.64018" lon="6.20682">
        <ele>878.78247070312</ele>
        <time>2011-12-23T07:25:24Z</time>
      </trkpt>
      <trkpt lat="45.64025" lon="6.20688">
        <ele>879.26293945312</ele>
        <time>2011-12-23T07:25:30Z</time>
      </trkpt>
      <trkpt lat="45.64037" lon="6.20698">
        <ele>878.3017578125</ele>
        <time>2011-12-23T07:25:41Z</time>
      </trkpt>
      <trkpt lat="45.64049" lon="6.2071">
        <ele>877.82104492188</ele>
        <time>2011-12-23T07:25:51Z</time>
      </trkpt>
      <trkpt lat="45.64057" lon="6.20721">
        <ele>876.85986328125</ele>
        <time>2011-12-23T07:26:00Z</time>
      </trkpt>
      <trkpt lat="45.64061" lon="6.20729">
        <ele>876.37915039062</ele>
        <time>2011-12-23T07:26:06Z</time>
      </trkpt>
      <trkpt lat="45.64064" lon="6.20739">
        <ele>874.45629882812</ele>
        <time>2011-12-23T07:26:13Z</time>
      </trkpt>
      <trkpt lat="45.64064" lon="6.20742">
        <ele>874.45629882812</ele>
        <time>2011-12-23T07:26:15Z</time>
      </trkpt>
      <trkpt lat="45.64067" lon="6.20755">
        <ele>872.53369140625</ele>
        <time>2011-12-23T07:26:24Z</time>
      </trkpt>
      <trkpt lat="45.64071" lon="6.20765">
        <ele>875.41748046875</ele>
        <time>2011-12-23T07:26:30Z</time>
      </trkpt>
      <trkpt lat="45.64075" lon="6.20772">
        <ele>877.34057617188</ele>
        <time>2011-12-23T07:26:35Z</time>
      </trkpt>
      <trkpt lat="45.6408" lon="6.20782">
        <ele>878.78247070312</ele>
        <time>2011-12-23T07:26:42Z</time>
      </trkpt>
      <trkpt lat="45.64085" lon="6.20788">
        <ele>878.78247070312</ele>
        <time>2011-12-23T07:26:49Z</time>
      </trkpt>
      <trkpt lat="45.64093" lon="6.20792">
        <ele>878.78247070312</ele>
        <time>2011-12-23T07:26:57Z</time>
      </trkpt>
      <trkpt lat="45.64098" lon="6.20796">
        <ele>879.74365234375</ele>
        <time>2011-12-23T07:27:02Z</time>
      </trkpt>
      <trkpt lat="45.64103" lon="6.20799">
        <ele>879.26293945312</ele>
        <time>2011-12-23T07:27:07Z</time>
      </trkpt>
      <trkpt lat="45.64107" lon="6.20802">
        <ele>878.78247070312</ele>
        <time>2011-12-23T07:27:12Z</time>
      </trkpt>
      <trkpt lat="45.64112" lon="6.20807">
        <ele>877.82104492188</ele>
        <time>2011-12-23T07:27:19Z</time>
      </trkpt>
      <trkpt lat="45.64117" lon="6.20811">
        <ele>877.34057617188</ele>
        <time>2011-12-23T07:27:24Z</time>
      </trkpt>
      <trkpt lat="45.6412" lon="6.20815">
        <ele>877.34057617188</ele>
        <time>2011-12-23T07:27:28Z</time>
      </trkpt>
      <trkpt lat="45.64124" lon="6.20821">
        <ele>877.82104492188</ele>
        <time>2011-12-23T07:27:34Z</time>
      </trkpt>
      <trkpt lat="45.64126" lon="6.20825">
        <ele>876.85986328125</ele>
        <time>2011-12-23T07:27:38Z</time>
      </trkpt>
      <trkpt lat="45.64129" lon="6.20831">
        <ele>877.82104492188</ele>
        <time>2011-12-23T07:27:44Z</time>
      </trkpt>
      <trkpt lat="45.64134" lon="6.20839">
        <ele>880.705078125</ele>
        <time>2011-12-23T07:27:51Z</time>
      </trkpt>
      <trkpt lat="45.64136" lon="6.20842">
        <ele>881.18579101562</ele>
        <time>2011-12-23T07:27:55Z</time>
      </trkpt>
      <trkpt lat="45.64142" lon="6.20851">
        <ele>883.5888671875</ele>
        <time>2011-12-23T07:28:02Z</time>
      </trkpt>
      <trkpt lat="45.64141" lon="6.20858">
        <ele>883.10815429688</ele>
        <time>2011-12-23T07:28:07Z</time>
      </trkpt>
      <trkpt lat="45.64144" lon="6.20867">
        <ele>886.47290039062</ele>
        <time>2011-12-23T07:28:13Z</time>
      </trkpt>
      <trkpt lat="45.64156" lon="6.20873">
        <ele>896.08618164062</ele>
        <time>2011-12-23T07:28:19Z</time>
      </trkpt>
      <trkpt lat="45.64156" lon="6.2088">
        <ele>896.56689453125</ele>
        <time>2011-12-23T07:28:24Z</time>
      </trkpt>
      <trkpt lat="45.64157" lon="6.20885">
        <ele>898.4892578125</ele>
        <time>2011-12-23T07:28:28Z</time>
      </trkpt>
      <trkpt lat="45.64162" lon="6.20892">
        <ele>901.85400390625</ele>
        <time>2011-12-23T07:28:33Z</time>
      </trkpt>
      <trkpt lat="45.64162" lon="6.20898">
        <ele>901.85400390625</ele>
        <time>2011-12-23T07:28:39Z</time>
      </trkpt>
      <trkpt lat="45.64169" lon="6.20902">
        <ele>905.69921875</ele>
        <time>2011-12-23T07:28:41Z</time>
      </trkpt>
      <trkpt lat="45.64177" lon="6.20913">
        <ele>913.87036132812</ele>
        <time>2011-12-23T07:28:49Z</time>
      </trkpt>
      <trkpt lat="45.64187" lon="6.20921">
        <ele>919.63842773438</ele>
        <time>2011-12-23T07:28:55Z</time>
      </trkpt>
      <trkpt lat="45.64194" lon="6.20925">
        <ele>917.71557617188</ele>
        <time>2011-12-23T07:29:01Z</time>
      </trkpt>
      <trkpt lat="45.64195" lon="6.20929">
        <ele>914.83178710938</ele>
        <time>2011-12-23T07:29:05Z</time>
      </trkpt>
      <trkpt lat="45.64192" lon="6.20931">
        <ele>909.54467773438</ele>
        <time>2011-12-23T07:29:09Z</time>
      </trkpt>
      <trkpt lat="45.64191" lon="6.20936">
        <ele>899.45068359375</ele>
        <time>2011-12-23T07:29:17Z</time>
      </trkpt>
      <trkpt lat="45.64186" lon="6.2094">
        <ele>894.16357421875</ele>
        <time>2011-12-23T07:29:22Z</time>
      </trkpt>
      <trkpt lat="45.64186" lon="6.20944">
        <ele>893.68286132812</ele>
        <time>2011-12-23T07:29:26Z</time>
      </trkpt>
      <trkpt lat="45.64195" lon="6.20955">
        <ele>898.0087890625</ele>
        <time>2011-12-23T07:29:35Z</time>
      </trkpt>
      <trkpt lat="45.64198" lon="6.20962">
        <ele>901.37329101562</ele>
        <time>2011-12-23T07:29:41Z</time>
      </trkpt>
      <trkpt lat="45.642" lon="6.20966">
        <ele>906.66040039062</ele>
        <time>2011-12-23T07:29:45Z</time>
      </trkpt>
      <trkpt lat="45.64207" lon="6.20973">
        <ele>910.02514648438</ele>
        <time>2011-12-23T07:29:50Z</time>
      </trkpt>
      <trkpt lat="45.64211" lon="6.20977">
        <ele>912.9091796875</ele>
        <time>2011-12-23T07:29:52Z</time>
      </trkpt>
      <trkpt lat="45.64213" lon="6.20983">
        <ele>910.98657226562</ele>
        <time>2011-12-23T07:29:58Z</time>
      </trkpt>
      <trkpt lat="45.64214" lon="6.20987">
        <ele>910.98657226562</ele>
        <time>2011-12-23T07:30:02Z</time>
      </trkpt>
      <trkpt lat="45.64215" lon="6.20992">
        <ele>908.58325195312</ele>
        <time>2011-12-23T07:30:07Z</time>
      </trkpt>
      <trkpt lat="45.64219" lon="6.20998">
        <ele>912.9091796875</ele>
        <time>2011-12-23T07:30:11Z</time>
      </trkpt>
      <trkpt lat="45.64224" lon="6.21006">
        <ele>915.79321289062</ele>
        <time>2011-12-23T07:30:16Z</time>
      </trkpt>
      <trkpt lat="45.64225" lon="6.21011">
        <ele>913.87036132812</ele>
        <time>2011-12-23T07:30:24Z</time>
      </trkpt>
      <trkpt lat="45.64226" lon="6.21014">
        <ele>914.83178710938</ele>
        <time>2011-12-23T07:30:26Z</time>
      </trkpt>
      <trkpt lat="45.64229" lon="6.21022">
        <ele>916.75439453125</ele>
        <time>2011-12-23T07:30:34Z</time>
      </trkpt>
      <trkpt lat="45.64229" lon="6.21023">
        <ele>917.23510742188</ele>
        <time>2011-12-23T07:30:36Z</time>
      </trkpt>
      <trkpt lat="45.64231" lon="6.21033">
        <ele>916.75439453125</ele>
        <time>2011-12-23T07:30:44Z</time>
      </trkpt>
      <trkpt lat="45.64229" lon="6.2104">
        <ele>911.94799804688</ele>
        <time>2011-12-23T07:30:51Z</time>
      </trkpt>
      <trkpt lat="45.6423" lon="6.21044">
        <ele>910.505859375</ele>
        <time>2011-12-23T07:30:55Z</time>
      </trkpt>
      <trkpt lat="45.64227" lon="6.2105">
        <ele>904.73779296875</ele>
        <time>2011-12-23T07:31:02Z</time>
      </trkpt>
      <trkpt lat="45.64227" lon="6.21054">
        <ele>903.77661132812</ele>
        <time>2011-12-23T07:31:06Z</time>
      </trkpt>
      <trkpt lat="45.64229" lon="6.21062">
        <ele>904.73779296875</ele>
        <time>2011-12-23T07:31:12Z</time>
      </trkpt>
      <trkpt lat="45.64229" lon="6.21069">
        <ele>902.81518554688</ele>
        <time>2011-12-23T07:31:18Z</time>
      </trkpt>
      <trkpt lat="45.64231" lon="6.21071">
        <ele>903.77661132812</ele>
        <time>2011-12-23T07:31:20Z</time>
      </trkpt>
      <trkpt lat="45.64233" lon="6.21078">
        <ele>904.25732421875</ele>
        <time>2011-12-23T07:31:26Z</time>
      </trkpt>
      <trkpt lat="45.64227" lon="6.2108">
        <ele>901.37329101562</ele>
        <time>2011-12-23T07:31:37Z</time>
      </trkpt>
      <trkpt lat="45.64227" lon="6.21089">
        <ele>896.56689453125</ele>
        <time>2011-12-23T07:31:45Z</time>
      </trkpt>
      <trkpt lat="45.6423" lon="6.21095">
        <ele>897.04736328125</ele>
        <time>2011-12-23T07:31:49Z</time>
      </trkpt>
      <trkpt lat="45.6423" lon="6.21099">
        <ele>895.12475585938</ele>
        <time>2011-12-23T07:31:53Z</time>
      </trkpt>
      <trkpt lat="45.64232" lon="6.21105">
        <ele>896.56689453125</ele>
        <time>2011-12-23T07:31:57Z</time>
      </trkpt>
      <trkpt lat="45.64234" lon="6.21109">
        <ele>897.52807617188</ele>
        <time>2011-12-23T07:32:00Z</time>
      </trkpt>
      <trkpt lat="45.64238" lon="6.21114">
        <ele>899.45068359375</ele>
        <time>2011-12-23T07:32:04Z</time>
      </trkpt>
      <trkpt lat="45.64237" lon="6.21119">
        <ele>899.93139648438</ele>
        <time>2011-12-23T07:32:08Z</time>
      </trkpt>
      <trkpt lat="45.64238" lon="6.21123">
        <ele>898.96997070312</ele>
        <time>2011-12-23T07:32:12Z</time>
      </trkpt>
      <trkpt lat="45.6424" lon="6.21127">
        <ele>899.45068359375</ele>
        <time>2011-12-23T07:32:15Z</time>
      </trkpt>
      <trkpt lat="45.64244" lon="6.21136">
        <ele>902.81518554688</ele>
        <time>2011-12-23T07:32:22Z</time>
      </trkpt>
      <trkpt lat="45.64249" lon="6.21144">
        <ele>905.21850585938</ele>
        <time>2011-12-23T07:32:28Z</time>
      </trkpt>
      <trkpt lat="45.64252" lon="6.21154">
        <ele>903.77661132812</ele>
        <time>2011-12-23T07:32:35Z</time>
      </trkpt>
      <trkpt lat="45.64254" lon="6.21162">
        <ele>901.85400390625</ele>
        <time>2011-12-23T07:32:41Z</time>
      </trkpt>
      <trkpt lat="45.64256" lon="6.21168">
        <ele>905.21850585938</ele>
        <time>2011-12-23T07:32:45Z</time>
      </trkpt>
      <trkpt lat="45.6426" lon="6.21169">
        <ele>906.66040039062</ele>
        <time>2011-12-23T07:33:01Z</time>
      </trkpt>
      <trkpt lat="45.64263" lon="6.21169">
        <ele>913.87036132812</ele>
        <time>2011-12-23T07:33:16Z</time>
      </trkpt>
      <trkpt lat="45.64264" lon="6.21178">
        <ele>915.3125</ele>
        <time>2011-12-23T07:33:22Z</time>
      </trkpt>
      <trkpt lat="45.64265" lon="6.21184">
        <ele>914.35107421875</ele>
        <time>2011-12-23T07:33:27Z</time>
      </trkpt>
      <trkpt lat="45.64258" lon="6.21185">
        <ele>911.46728515625</ele>
        <time>2011-12-23T07:33:34Z</time>
      </trkpt>
      <trkpt lat="45.6424" lon="6.21184">
        <ele>904.73779296875</ele>
        <time>2011-12-23T07:33:39Z</time>
      </trkpt>
      <trkpt lat="45.64231" lon="6.21186">
        <ele>903.2958984375</ele>
        <time>2011-12-23T07:33:45Z</time>
      </trkpt>
      <trkpt lat="45.64238" lon="6.21189">
        <ele>905.69921875</ele>
        <time>2011-12-23T07:33:56Z</time>
      </trkpt>
      <trkpt lat="45.64244" lon="6.21195">
        <ele>908.58325195312</ele>
        <time>2011-12-23T07:34:00Z</time>
      </trkpt>
      <trkpt lat="45.64249" lon="6.21198">
        <ele>910.98657226562</ele>
        <time>2011-12-23T07:34:06Z</time>
      </trkpt>
      <trkpt lat="45.64248" lon="6.212">
        <ele>910.505859375</ele>
        <time>2011-12-23T07:34:08Z</time>
      </trkpt>
      <trkpt lat="45.64252" lon="6.2121">
        <ele>910.505859375</ele>
        <time>2011-12-23T07:34:14Z</time>
      </trkpt>
      <trkpt lat="45.64255" lon="6.21214">
        <ele>911.94799804688</ele>
        <time>2011-12-23T07:34:16Z</time>
      </trkpt>
      <trkpt lat="45.6426" lon="6.21225">
        <ele>914.83178710938</ele>
        <time>2011-12-23T07:34:23Z</time>
      </trkpt>
      <trkpt lat="45.64264" lon="6.21232">
        <ele>912.42846679688</ele>
        <time>2011-12-23T07:34:29Z</time>
      </trkpt>
      <trkpt lat="45.64268" lon="6.21237">
        <ele>910.98657226562</ele>
        <time>2011-12-23T07:34:33Z</time>
      </trkpt>
      <trkpt lat="45.64268" lon="6.21241">
        <ele>909.54467773438</ele>
        <time>2011-12-23T07:34:36Z</time>
      </trkpt>
      <trkpt lat="45.64268" lon="6.21246">
        <ele>905.69921875</ele>
        <time>2011-12-23T07:34:41Z</time>
      </trkpt>
      <trkpt lat="45.64268" lon="6.21246">
        <ele>905.21850585938</ele>
        <time>2011-12-23T07:34:47Z</time>
      </trkpt>
      <trkpt lat="45.6426" lon="6.21235">
        <ele>915.3125</ele>
        <time>2011-12-23T07:35:00Z</time>
      </trkpt>
      <trkpt lat="45.64254" lon="6.21229">
        <ele>918.67700195312</ele>
        <time>2011-12-23T07:35:05Z</time>
      </trkpt>
      <trkpt lat="45.6426" lon="6.21237">
        <ele>914.83178710938</ele>
        <time>2011-12-23T07:35:10Z</time>
      </trkpt>
      <trkpt lat="45.64262" lon="6.21242">
        <ele>910.505859375</ele>
        <time>2011-12-23T07:35:12Z</time>
      </trkpt>
      <trkpt lat="45.64267" lon="6.21253">
        <ele>905.21850585938</ele>
        <time>2011-12-23T07:35:16Z</time>
      </trkpt>
      <trkpt lat="45.64269" lon="6.21269">
        <ele>899.45068359375</ele>
        <time>2011-12-23T07:35:25Z</time>
      </trkpt>
      <trkpt lat="45.64269" lon="6.21273">
        <ele>898.96997070312</ele>
        <time>2011-12-23T07:35:27Z</time>
      </trkpt>
      <trkpt lat="45.6427" lon="6.21276">
        <ele>898.4892578125</ele>
        <time>2011-12-23T07:35:29Z</time>
      </trkpt>
      <trkpt lat="45.6427" lon="6.21282">
        <ele>897.52807617188</ele>
        <time>2011-12-23T07:35:33Z</time>
      </trkpt>
      <trkpt lat="45.64269" lon="6.21292">
        <ele>897.04736328125</ele>
        <time>2011-12-23T07:35:40Z</time>
      </trkpt>
      <trkpt lat="45.64268" lon="6.21301">
        <ele>898.4892578125</ele>
        <time>2011-12-23T07:35:46Z</time>
      </trkpt>
      <trkpt lat="45.6426" lon="6.21306">
        <ele>900.892578125</ele>
        <time>2011-12-23T07:35:55Z</time>
      </trkpt>
      <trkpt lat="45.64259" lon="6.21308">
        <ele>899.45068359375</ele>
        <time>2011-12-23T07:35:58Z</time>
      </trkpt>
      <trkpt lat="45.64263" lon="6.21316">
        <ele>901.37329101562</ele>
        <time>2011-12-23T07:36:04Z</time>
      </trkpt>
      <trkpt lat="45.64264" lon="6.21322">
        <ele>901.37329101562</ele>
        <time>2011-12-23T07:36:09Z</time>
      </trkpt>
      <trkpt lat="45.64264" lon="6.21327">
        <ele>900.412109375</ele>
        <time>2011-12-23T07:36:14Z</time>
      </trkpt>
      <trkpt lat="45.64264" lon="6.21334">
        <ele>899.45068359375</ele>
        <time>2011-12-23T07:36:20Z</time>
      </trkpt>
      <trkpt lat="45.64265" lon="6.21349">
        <ele>899.45068359375</ele>
        <time>2011-12-23T07:36:30Z</time>
      </trkpt>
      <trkpt lat="45.64267" lon="6.21355">
        <ele>899.93139648438</ele>
        <time>2011-12-23T07:36:34Z</time>
      </trkpt>
      <trkpt lat="45.64269" lon="6.21364">
        <ele>900.892578125</ele>
        <time>2011-12-23T07:36:42Z</time>
      </trkpt>
      <trkpt lat="45.6427" lon="6.21369">
        <ele>900.412109375</ele>
        <time>2011-12-23T07:36:46Z</time>
      </trkpt>
      <trkpt lat="45.64273" lon="6.2138">
        <ele>900.412109375</ele>
        <time>2011-12-23T07:36:54Z</time>
      </trkpt>
      <trkpt lat="45.64273" lon="6.21382">
        <ele>900.892578125</ele>
        <time>2011-12-23T07:36:55Z</time>
      </trkpt>
      <trkpt lat="45.64277" lon="6.21388">
        <ele>900.892578125</ele>
        <time>2011-12-23T07:36:59Z</time>
      </trkpt>
      <trkpt lat="45.6428" lon="6.21396">
        <ele>902.33447265625</ele>
        <time>2011-12-23T07:37:05Z</time>
      </trkpt>
      <trkpt lat="45.64281" lon="6.21399">
        <ele>904.25732421875</ele>
        <time>2011-12-23T07:37:08Z</time>
      </trkpt>
      <trkpt lat="45.64286" lon="6.21408">
        <ele>905.69921875</ele>
        <time>2011-12-23T07:37:14Z</time>
      </trkpt>
      <trkpt lat="45.64291" lon="6.21416">
        <ele>905.69921875</ele>
        <time>2011-12-23T07:37:20Z</time>
      </trkpt>
      <trkpt lat="45.64296" lon="6.21424">
        <ele>905.21850585938</ele>
        <time>2011-12-23T07:37:25Z</time>
      </trkpt>
      <trkpt lat="45.64302" lon="6.2143">
        <ele>903.77661132812</ele>
        <time>2011-12-23T07:37:31Z</time>
      </trkpt>
      <trkpt lat="45.64306" lon="6.21434">
        <ele>903.2958984375</ele>
        <time>2011-12-23T07:37:36Z</time>
      </trkpt>
      <trkpt lat="45.6431" lon="6.21437">
        <ele>902.33447265625</ele>
        <time>2011-12-23T07:37:41Z</time>
      </trkpt>
      <trkpt lat="45.64316" lon="6.2144">
        <ele>902.81518554688</ele>
        <time>2011-12-23T07:37:46Z</time>
      </trkpt>
      <trkpt lat="45.64323" lon="6.21445">
        <ele>902.33447265625</ele>
        <time>2011-12-23T07:37:52Z</time>
      </trkpt>
      <trkpt lat="45.6433" lon="6.21451">
        <ele>901.85400390625</ele>
        <time>2011-12-23T07:37:58Z</time>
      </trkpt>
      <trkpt lat="45.64334" lon="6.21456">
        <ele>902.81518554688</ele>
        <time>2011-12-23T07:38:03Z</time>
      </trkpt>
      <trkpt lat="45.64338" lon="6.21462">
        <ele>902.81518554688</ele>
        <time>2011-12-23T07:38:08Z</time>
      </trkpt>
      <trkpt lat="45.64341" lon="6.21471">
        <ele>902.81518554688</ele>
        <time>2011-12-23T07:38:15Z</time>
      </trkpt>
      <trkpt lat="45.64346" lon="6.21475">
        <ele>902.81518554688</ele>
        <time>2011-12-23T07:38:18Z</time>
      </trkpt>
      <trkpt lat="45.64348" lon="6.2148">
        <ele>901.85400390625</ele>
        <time>2011-12-23T07:38:22Z</time>
      </trkpt>
      <trkpt lat="45.64351" lon="6.21487">
        <ele>900.892578125</ele>
        <time>2011-12-23T07:38:28Z</time>
      </trkpt>
      <trkpt lat="45.64353" lon="6.21494">
        <ele>901.37329101562</ele>
        <time>2011-12-23T07:38:33Z</time>
      </trkpt>
      <trkpt lat="45.64359" lon="6.215">
        <ele>901.85400390625</ele>
        <time>2011-12-23T07:38:39Z</time>
      </trkpt>
      <trkpt lat="45.64363" lon="6.21508">
        <ele>906.1796875</ele>
        <time>2011-12-23T07:38:46Z</time>
      </trkpt>
      <trkpt lat="45.64366" lon="6.21513">
        <ele>913.38989257812</ele>
        <time>2011-12-23T07:38:50Z</time>
      </trkpt>
      <trkpt lat="45.64371" lon="6.21519">
        <ele>919.15771484375</ele>
        <time>2011-12-23T07:38:56Z</time>
      </trkpt>
      <trkpt lat="45.64375" lon="6.21532">
        <ele>919.15771484375</ele>
        <time>2011-12-23T07:39:04Z</time>
      </trkpt>
      <trkpt lat="45.64376" lon="6.21539">
        <ele>917.23510742188</ele>
        <time>2011-12-23T07:39:08Z</time>
      </trkpt>
      <trkpt lat="45.64381" lon="6.2155">
        <ele>921.08032226562</ele>
        <time>2011-12-23T07:39:15Z</time>
      </trkpt>
      <trkpt lat="45.64381" lon="6.21558">
        <ele>919.63842773438</ele>
        <time>2011-12-23T07:39:21Z</time>
      </trkpt>
      <trkpt lat="45.64384" lon="6.21563">
        <ele>922.04150390625</ele>
        <time>2011-12-23T07:39:26Z</time>
      </trkpt>
      <trkpt lat="45.64386" lon="6.21568">
        <ele>923.0029296875</ele>
        <time>2011-12-23T07:39:29Z</time>
      </trkpt>
      <trkpt lat="45.64391" lon="6.21578">
        <ele>927.8095703125</ele>
        <time>2011-12-23T07:39:36Z</time>
      </trkpt>
      <trkpt lat="45.64391" lon="6.21579">
        <ele>928.29028320312</ele>
        <time>2011-12-23T07:39:37Z</time>
      </trkpt>
      <trkpt lat="45.64394" lon="6.21585">
        <ele>930.69360351562</ele>
        <time>2011-12-23T07:39:41Z</time>
      </trkpt>
      <trkpt lat="45.64398" lon="6.21593">
        <ele>932.13549804688</ele>
        <time>2011-12-23T07:39:48Z</time>
      </trkpt>
      <trkpt lat="45.64399" lon="6.21599">
        <ele>931.17431640625</ele>
        <time>2011-12-23T07:39:52Z</time>
      </trkpt>
      <trkpt lat="45.64401" lon="6.21604">
        <ele>931.65478515625</ele>
        <time>2011-12-23T07:39:56Z</time>
      </trkpt>
      <trkpt lat="45.64407" lon="6.21609">
        <ele>937.42260742188</ele>
        <time>2011-12-23T07:40:01Z</time>
      </trkpt>
      <trkpt lat="45.64409" lon="6.21611">
        <ele>938.38403320312</ele>
        <time>2011-12-23T07:40:04Z</time>
      </trkpt>
      <trkpt lat="45.6441" lon="6.21621">
        <ele>941.26806640625</ele>
        <time>2011-12-23T07:40:10Z</time>
      </trkpt>
      <trkpt lat="45.64413" lon="6.21627">
        <ele>945.11328125</ele>
        <time>2011-12-23T07:40:15Z</time>
      </trkpt>
      <trkpt lat="45.64416" lon="6.21632">
        <ele>946.55541992188</ele>
        <time>2011-12-23T07:40:20Z</time>
      </trkpt>
      <trkpt lat="45.6442" lon="6.21635">
        <ele>947.03588867188</ele>
        <time>2011-12-23T07:40:23Z</time>
      </trkpt>
      <trkpt lat="45.64425" lon="6.21639">
        <ele>944.63256835938</ele>
        <time>2011-12-23T07:40:29Z</time>
      </trkpt>
      <trkpt lat="45.64428" lon="6.21643">
        <ele>944.63256835938</ele>
        <time>2011-12-23T07:40:33Z</time>
      </trkpt>
      <trkpt lat="45.64431" lon="6.21646">
        <ele>944.63256835938</ele>
        <time>2011-12-23T07:40:37Z</time>
      </trkpt>
      <trkpt lat="45.64434" lon="6.21649">
        <ele>942.71020507812</ele>
        <time>2011-12-23T07:40:41Z</time>
      </trkpt>
      <trkpt lat="45.64436" lon="6.21652">
        <ele>938.38403320312</ele>
        <time>2011-12-23T07:40:45Z</time>
      </trkpt>
      <trkpt lat="45.64439" lon="6.21656">
        <ele>936.94189453125</ele>
        <time>2011-12-23T07:40:50Z</time>
      </trkpt>
      <trkpt lat="45.64444" lon="6.21664">
        <ele>934.05810546875</ele>
        <time>2011-12-23T07:40:58Z</time>
      </trkpt>
      <trkpt lat="45.64447" lon="6.21673">
        <ele>933.57739257812</ele>
        <time>2011-12-23T07:41:05Z</time>
      </trkpt>
      <trkpt lat="45.6445" lon="6.21684">
        <ele>935.5</ele>
        <time>2011-12-23T07:41:13Z</time>
      </trkpt>
      <trkpt lat="45.6445" lon="6.21689">
        <ele>936.46142578125</ele>
        <time>2011-12-23T07:41:17Z</time>
      </trkpt>
      <trkpt lat="45.6445" lon="6.21694">
        <ele>935.98071289062</ele>
        <time>2011-12-23T07:41:21Z</time>
      </trkpt>
      <trkpt lat="45.6445" lon="6.21701">
        <ele>934.53881835938</ele>
        <time>2011-12-23T07:41:26Z</time>
      </trkpt>
      <trkpt lat="45.64447" lon="6.21707">
        <ele>928.29028320312</ele>
        <time>2011-12-23T07:41:31Z</time>
      </trkpt>
      <trkpt lat="45.64445" lon="6.21712">
        <ele>923.0029296875</ele>
        <time>2011-12-23T07:41:36Z</time>
      </trkpt>
      <trkpt lat="45.64443" lon="6.21715">
        <ele>919.15771484375</ele>
        <time>2011-12-23T07:41:40Z</time>
      </trkpt>
      <trkpt lat="45.64441" lon="6.21722">
        <ele>915.79321289062</ele>
        <time>2011-12-23T07:41:46Z</time>
      </trkpt>
      <trkpt lat="45.64443" lon="6.21731">
        <ele>917.23510742188</ele>
        <time>2011-12-23T07:41:53Z</time>
      </trkpt>
      <trkpt lat="45.64445" lon="6.21737">
        <ele>918.67700195312</ele>
        <time>2011-12-23T07:41:58Z</time>
      </trkpt>
      <trkpt lat="45.64446" lon="6.2174">
        <ele>919.15771484375</ele>
        <time>2011-12-23T07:42:00Z</time>
      </trkpt>
      <trkpt lat="45.64448" lon="6.21747">
        <ele>923.0029296875</ele>
        <time>2011-12-23T07:42:05Z</time>
      </trkpt>
      <trkpt lat="45.64449" lon="6.21751">
        <ele>926.84838867188</ele>
        <time>2011-12-23T07:42:09Z</time>
      </trkpt>
      <trkpt lat="45.6445" lon="6.21754">
        <ele>926.84838867188</ele>
        <time>2011-12-23T07:42:13Z</time>
      </trkpt>
      <trkpt lat="45.64452" lon="6.21759">
        <ele>928.29028320312</ele>
        <time>2011-12-23T07:42:17Z</time>
      </trkpt>
      <trkpt lat="45.64452" lon="6.21764">
        <ele>928.29028320312</ele>
        <time>2011-12-23T07:42:21Z</time>
      </trkpt>
      <trkpt lat="45.64451" lon="6.2177">
        <ele>929.73217773438</ele>
        <time>2011-12-23T07:42:25Z</time>
      </trkpt>
      <trkpt lat="45.64453" lon="6.21777">
        <ele>933.0966796875</ele>
        <time>2011-12-23T07:42:30Z</time>
      </trkpt>
      <trkpt lat="45.64454" lon="6.21779">
        <ele>934.05810546875</ele>
        <time>2011-12-23T07:42:31Z</time>
      </trkpt>
      <trkpt lat="45.64457" lon="6.21784">
        <ele>932.13549804688</ele>
        <time>2011-12-23T07:42:36Z</time>
      </trkpt>
      <trkpt lat="45.6446" lon="6.2179">
        <ele>932.13549804688</ele>
        <time>2011-12-23T07:42:41Z</time>
      </trkpt>
      <trkpt lat="45.64459" lon="6.21795">
        <ele>929.73217773438</ele>
        <time>2011-12-23T07:42:45Z</time>
      </trkpt>
      <trkpt lat="45.6446" lon="6.218">
        <ele>928.77099609375</ele>
        <time>2011-12-23T07:42:50Z</time>
      </trkpt>
      <trkpt lat="45.64462" lon="6.21805">
        <ele>928.77099609375</ele>
        <time>2011-12-23T07:42:54Z</time>
      </trkpt>
      <trkpt lat="45.64463" lon="6.2181">
        <ele>931.17431640625</ele>
        <time>2011-12-23T07:42:59Z</time>
      </trkpt>
      <trkpt lat="45.64465" lon="6.21817">
        <ele>930.69360351562</ele>
        <time>2011-12-23T07:43:04Z</time>
      </trkpt>
      <trkpt lat="45.64465" lon="6.21823">
        <ele>929.25146484375</ele>
        <time>2011-12-23T07:43:11Z</time>
      </trkpt>
      <trkpt lat="45.64472" lon="6.2183">
        <ele>929.25146484375</ele>
        <time>2011-12-23T07:43:16Z</time>
      </trkpt>
      <trkpt lat="45.64474" lon="6.21836">
        <ele>930.69360351562</ele>
        <time>2011-12-23T07:43:21Z</time>
      </trkpt>
      <trkpt lat="45.64473" lon="6.21844">
        <ele>931.65478515625</ele>
        <time>2011-12-23T07:43:28Z</time>
      </trkpt>
      <trkpt lat="45.64477" lon="6.2185">
        <ele>931.65478515625</ele>
        <time>2011-12-23T07:43:33Z</time>
      </trkpt>
      <trkpt lat="45.64479" lon="6.21857">
        <ele>931.65478515625</ele>
        <time>2011-12-23T07:43:38Z</time>
      </trkpt>
      <trkpt lat="45.64483" lon="6.21863">
        <ele>932.13549804688</ele>
        <time>2011-12-23T07:43:42Z</time>
      </trkpt>
      <trkpt lat="45.64482" lon="6.21871">
        <ele>934.53881835938</ele>
        <time>2011-12-23T07:43:47Z</time>
      </trkpt>
      <trkpt lat="45.64483" lon="6.21877">
        <ele>933.0966796875</ele>
        <time>2011-12-23T07:43:52Z</time>
      </trkpt>
      <trkpt lat="45.64482" lon="6.21885">
        <ele>930.212890625</ele>
        <time>2011-12-23T07:43:58Z</time>
      </trkpt>
      <trkpt lat="45.64487" lon="6.21893">
        <ele>932.13549804688</ele>
        <time>2011-12-23T07:44:03Z</time>
      </trkpt>
      <trkpt lat="45.64487" lon="6.21899">
        <ele>933.57739257812</ele>
        <time>2011-12-23T07:44:06Z</time>
      </trkpt>
      <trkpt lat="45.64486" lon="6.21907">
        <ele>935.5</ele>
        <time>2011-12-23T07:44:11Z</time>
      </trkpt>
      <trkpt lat="45.64486" lon="6.21915">
        <ele>934.05810546875</ele>
        <time>2011-12-23T07:44:17Z</time>
      </trkpt>
      <trkpt lat="45.64483" lon="6.21922">
        <ele>929.73217773438</ele>
        <time>2011-12-23T07:44:24Z</time>
      </trkpt>
      <trkpt lat="45.64482" lon="6.21927">
        <ele>927.3291015625</ele>
        <time>2011-12-23T07:44:29Z</time>
      </trkpt>
      <trkpt lat="45.64482" lon="6.21933">
        <ele>926.84838867188</ele>
        <time>2011-12-23T07:44:33Z</time>
      </trkpt>
      <trkpt lat="45.64483" lon="6.21942">
        <ele>928.29028320312</ele>
        <time>2011-12-23T07:44:39Z</time>
      </trkpt>
      <trkpt lat="45.64484" lon="6.21947">
        <ele>928.77099609375</ele>
        <time>2011-12-23T07:44:46Z</time>
      </trkpt>
      <trkpt lat="45.64483" lon="6.21946">
        <ele>931.65478515625</ele>
        <time>2011-12-23T07:44:51Z</time>
      </trkpt>
      <trkpt lat="45.64481" lon="6.21943">
        <ele>931.17431640625</ele>
        <time>2011-12-23T07:44:53Z</time>
      </trkpt>
      <trkpt lat="45.64478" lon="6.21937">
        <ele>929.73217773438</ele>
        <time>2011-12-23T07:45:00Z</time>
      </trkpt>
      <trkpt lat="45.64481" lon="6.21938">
        <ele>935.01953125</ele>
        <time>2011-12-23T07:45:07Z</time>
      </trkpt>
      <trkpt lat="45.64478" lon="6.21943">
        <ele>941.26806640625</ele>
        <time>2011-12-23T07:45:13Z</time>
      </trkpt>
      <trkpt lat="45.6448" lon="6.21946">
        <ele>937.42260742188</ele>
        <time>2011-12-23T07:45:18Z</time>
      </trkpt>
      <trkpt lat="45.64482" lon="6.21949">
        <ele>935.01953125</ele>
        <time>2011-12-23T07:45:22Z</time>
      </trkpt>
      <trkpt lat="45.64484" lon="6.21955">
        <ele>934.53881835938</ele>
        <time>2011-12-23T07:45:27Z</time>
      </trkpt>
      <trkpt lat="45.64487" lon="6.21959">
        <ele>933.57739257812</ele>
        <time>2011-12-23T07:45:31Z</time>
      </trkpt>
      <trkpt lat="45.64488" lon="6.21962">
        <ele>934.05810546875</ele>
        <time>2011-12-23T07:45:34Z</time>
      </trkpt>
      <trkpt lat="45.64488" lon="6.21974">
        <ele>935.98071289062</ele>
        <time>2011-12-23T07:45:43Z</time>
      </trkpt>
      <trkpt lat="45.64488" lon="6.2198">
        <ele>938.38403320312</ele>
        <time>2011-12-23T07:45:47Z</time>
      </trkpt>
      <trkpt lat="45.64491" lon="6.21983">
        <ele>938.38403320312</ele>
        <time>2011-12-23T07:45:51Z</time>
      </trkpt>
      <trkpt lat="45.64492" lon="6.21989">
        <ele>940.78735351562</ele>
        <time>2011-12-23T07:45:56Z</time>
      </trkpt>
      <trkpt lat="45.64494" lon="6.21994">
        <ele>946.07470703125</ele>
        <time>2011-12-23T07:46:01Z</time>
      </trkpt>
      <trkpt lat="45.64494" lon="6.22001">
        <ele>946.55541992188</ele>
        <time>2011-12-23T07:46:10Z</time>
      </trkpt>
      <trkpt lat="45.64495" lon="6.22008">
        <ele>952.32299804688</ele>
        <time>2011-12-23T07:46:15Z</time>
      </trkpt>
      <trkpt lat="45.64496" lon="6.22013">
        <ele>956.16845703125</ele>
        <time>2011-12-23T07:46:19Z</time>
      </trkpt>
      <trkpt lat="45.64497" lon="6.22017">
        <ele>957.1298828125</ele>
        <time>2011-12-23T07:46:22Z</time>
      </trkpt>
      <trkpt lat="45.64497" lon="6.22023">
        <ele>957.1298828125</ele>
        <time>2011-12-23T07:46:27Z</time>
      </trkpt>
      <trkpt lat="45.64499" lon="6.22026">
        <ele>960.97509765625</ele>
        <time>2011-12-23T07:46:31Z</time>
      </trkpt>
      <trkpt lat="45.64499" lon="6.22029">
        <ele>962.89770507812</ele>
        <time>2011-12-23T07:46:35Z</time>
      </trkpt>
      <trkpt lat="45.64495" lon="6.22038">
        <ele>952.32299804688</ele>
        <time>2011-12-23T07:46:41Z</time>
      </trkpt>
      <trkpt lat="45.6449" lon="6.22048">
        <ele>946.07470703125</ele>
        <time>2011-12-23T07:46:49Z</time>
      </trkpt>
      <trkpt lat="45.64489" lon="6.22049">
        <ele>945.59399414062</ele>
        <time>2011-12-23T07:46:50Z</time>
      </trkpt>
      <trkpt lat="45.64486" lon="6.22056">
        <ele>948.95849609375</ele>
        <time>2011-12-23T07:46:57Z</time>
      </trkpt>
      <trkpt lat="45.64483" lon="6.22062">
        <ele>947.99731445312</ele>
        <time>2011-12-23T07:47:02Z</time>
      </trkpt>
      <trkpt lat="45.64481" lon="6.2207">
        <ele>947.5166015625</ele>
        <time>2011-12-23T07:47:07Z</time>
      </trkpt>
      <trkpt lat="45.64477" lon="6.22079">
        <ele>944.63256835938</ele>
        <time>2011-12-23T07:47:12Z</time>
      </trkpt>
      <trkpt lat="45.64476" lon="6.22089">
        <ele>942.2294921875</ele>
        <time>2011-12-23T07:47:19Z</time>
      </trkpt>
      <trkpt lat="45.64474" lon="6.22099">
        <ele>939.82592773438</ele>
        <time>2011-12-23T07:47:25Z</time>
      </trkpt>
      <trkpt lat="45.64473" lon="6.22107">
        <ele>941.26806640625</ele>
        <time>2011-12-23T07:47:31Z</time>
      </trkpt>
      <trkpt lat="45.64473" lon="6.22115">
        <ele>942.2294921875</ele>
        <time>2011-12-23T07:47:37Z</time>
      </trkpt>
      <trkpt lat="45.64476" lon="6.22122">
        <ele>949.43920898438</ele>
        <time>2011-12-23T07:47:43Z</time>
      </trkpt>
      <trkpt lat="45.6448" lon="6.22128">
        <ele>958.57177734375</ele>
        <time>2011-12-23T07:47:49Z</time>
      </trkpt>
      <trkpt lat="45.64482" lon="6.22131">
        <ele>964.8203125</ele>
        <time>2011-12-23T07:47:55Z</time>
      </trkpt>
      <trkpt lat="45.64485" lon="6.22131">
        <ele>965.30102539062</ele>
        <time>2011-12-23T07:48:10Z</time>
      </trkpt>
      <trkpt lat="45.64486" lon="6.22127">
        <ele>972.0302734375</ele>
        <time>2011-12-23T07:48:18Z</time>
      </trkpt>
      <trkpt lat="45.64486" lon="6.22124">
        <ele>974.91430664062</ele>
        <time>2011-12-23T07:48:26Z</time>
      </trkpt>
      <trkpt lat="45.64484" lon="6.22126">
        <ele>967.2236328125</ele>
        <time>2011-12-23T07:48:31Z</time>
      </trkpt>
      <trkpt lat="45.64482" lon="6.22129">
        <ele>958.57177734375</ele>
        <time>2011-12-23T07:48:37Z</time>
      </trkpt>
      <trkpt lat="45.64479" lon="6.22133">
        <ele>950.40063476562</ele>
        <time>2011-12-23T07:48:45Z</time>
      </trkpt>
      <trkpt lat="45.64473" lon="6.22135">
        <ele>944.63256835938</ele>
        <time>2011-12-23T07:48:51Z</time>
      </trkpt>
      <trkpt lat="45.64466" lon="6.2214">
        <ele>926.84838867188</ele>
        <time>2011-12-23T07:49:01Z</time>
      </trkpt>
      <trkpt lat="45.64465" lon="6.22139">
        <ele>923.96411132812</ele>
        <time>2011-12-23T07:49:07Z</time>
      </trkpt>
      <trkpt lat="45.64482" lon="6.22131">
        <ele>969.14624023438</ele>
        <time>2011-12-23T07:49:42Z</time>
      </trkpt>
      <trkpt lat="45.64489" lon="6.22146">
        <ele>971.54931640625</ele>
        <time>2011-12-23T07:49:52Z</time>
      </trkpt>
      <trkpt lat="45.64491" lon="6.22153">
        <ele>968.66552734375</ele>
        <time>2011-12-23T07:49:57Z</time>
      </trkpt>
      <trkpt lat="45.64498" lon="6.22165">
        <ele>969.626953125</ele>
        <time>2011-12-23T07:50:06Z</time>
      </trkpt>
      <trkpt lat="45.64499" lon="6.22168">
        <ele>969.626953125</ele>
        <time>2011-12-23T07:50:08Z</time>
      </trkpt>
      <trkpt lat="45.64502" lon="6.22178">
        <ele>965.30102539062</ele>
        <time>2011-12-23T07:50:14Z</time>
      </trkpt>
      <trkpt lat="45.64508" lon="6.22186">
        <ele>966.74291992188</ele>
        <time>2011-12-23T07:50:21Z</time>
      </trkpt>
      <trkpt lat="45.64515" lon="6.22193">
        <ele>971.54931640625</ele>
        <time>2011-12-23T07:50:29Z</time>
      </trkpt>
      <trkpt lat="45.6452" lon="6.22202">
        <ele>965.30102539062</ele>
        <time>2011-12-23T07:50:36Z</time>
      </trkpt>
      <trkpt lat="45.64521" lon="6.22208">
        <ele>963.85888671875</ele>
        <time>2011-12-23T07:50:41Z</time>
      </trkpt>
      <trkpt lat="45.64521" lon="6.22214">
        <ele>959.05249023438</ele>
        <time>2011-12-23T07:50:45Z</time>
      </trkpt>
      <trkpt lat="45.64521" lon="6.22218">
        <ele>955.68774414062</ele>
        <time>2011-12-23T07:50:48Z</time>
      </trkpt>
      <trkpt lat="45.6452" lon="6.22222">
        <ele>954.24584960938</ele>
        <time>2011-12-23T07:50:50Z</time>
      </trkpt>
      <trkpt lat="45.6452" lon="6.22227">
        <ele>951.36181640625</ele>
        <time>2011-12-23T07:50:54Z</time>
      </trkpt>
      <trkpt lat="45.64519" lon="6.22234">
        <ele>947.99731445312</ele>
        <time>2011-12-23T07:50:59Z</time>
      </trkpt>
      <trkpt lat="45.64518" lon="6.22241">
        <ele>950.88110351562</ele>
        <time>2011-12-23T07:51:04Z</time>
      </trkpt>
      <trkpt lat="45.64521" lon="6.2224">
        <ele>961.9365234375</ele>
        <time>2011-12-23T07:51:22Z</time>
      </trkpt>
      <trkpt lat="45.64528" lon="6.22242">
        <ele>971.06884765625</ele>
        <time>2011-12-23T07:51:38Z</time>
      </trkpt>
      <trkpt lat="45.64531" lon="6.2224">
        <ele>967.7041015625</ele>
        <time>2011-12-23T07:51:44Z</time>
      </trkpt>
      <trkpt lat="45.64527" lon="6.22236">
        <ele>966.26220703125</ele>
        <time>2011-12-23T07:51:58Z</time>
      </trkpt>
      <trkpt lat="45.64526" lon="6.22235">
        <ele>967.7041015625</ele>
        <time>2011-12-23T07:52:02Z</time>
      </trkpt>
      <trkpt lat="45.64523" lon="6.22235">
        <ele>963.37841796875</ele>
        <time>2011-12-23T07:52:07Z</time>
      </trkpt>
      <trkpt lat="45.64522" lon="6.22235">
        <ele>962.89770507812</ele>
        <time>2011-12-23T07:52:08Z</time>
      </trkpt>
      <trkpt lat="45.64524" lon="6.22236">
        <ele>961.45581054688</ele>
        <time>2011-12-23T07:52:10Z</time>
      </trkpt>
      <trkpt lat="45.64525" lon="6.22236">
        <ele>961.9365234375</ele>
        <time>2011-12-23T07:52:11Z</time>
      </trkpt>
      <trkpt lat="45.64526" lon="6.22236">
        <ele>962.4169921875</ele>
        <time>2011-12-23T07:52:12Z</time>
      </trkpt>
      <trkpt lat="45.6452" lon="6.22245">
        <ele>978.27880859375</ele>
        <time>2011-12-23T07:52:34Z</time>
      </trkpt>
      <trkpt lat="45.64516" lon="6.22242">
        <ele>966.26220703125</ele>
        <time>2011-12-23T07:52:48Z</time>
      </trkpt>
      <trkpt lat="45.64519" lon="6.22245">
        <ele>968.18481445312</ele>
        <time>2011-12-23T07:52:55Z</time>
      </trkpt>
      <trkpt lat="45.64523" lon="6.22245">
        <ele>968.18481445312</ele>
        <time>2011-12-23T07:52:58Z</time>
      </trkpt>
      <trkpt lat="45.64519" lon="6.22247">
        <ele>972.0302734375</ele>
        <time>2011-12-23T07:53:01Z</time>
      </trkpt>
      <trkpt lat="45.64518" lon="6.2225">
        <ele>955.68774414062</ele>
        <time>2011-12-23T07:53:20Z</time>
      </trkpt>
      <trkpt lat="45.6452" lon="6.2225">
        <ele>955.20703125</ele>
        <time>2011-12-23T07:53:23Z</time>
      </trkpt>
      <trkpt lat="45.64521" lon="6.2225">
        <ele>954.72631835938</ele>
        <time>2011-12-23T07:53:24Z</time>
      </trkpt>
      <trkpt lat="45.64521" lon="6.2225">
        <ele>954.72631835938</ele>
        <time>2011-12-23T07:53:25Z</time>
      </trkpt>
      <trkpt lat="45.64519" lon="6.22249">
        <ele>949.43920898438</ele>
        <time>2011-12-23T07:53:32Z</time>
      </trkpt>
      <trkpt lat="45.64523" lon="6.22248">
        <ele>947.03588867188</ele>
        <time>2011-12-23T07:53:37Z</time>
      </trkpt>
      <trkpt lat="45.64519" lon="6.22245">
        <ele>946.07470703125</ele>
        <time>2011-12-23T07:53:44Z</time>
      </trkpt>
      <trkpt lat="45.64518" lon="6.22243">
        <ele>946.55541992188</ele>
        <time>2011-12-23T07:53:49Z</time>
      </trkpt>
      <trkpt lat="45.6452" lon="6.22239">
        <ele>951.84252929688</ele>
        <time>2011-12-23T07:54:02Z</time>
      </trkpt>
      <trkpt lat="45.6452" lon="6.22238">
        <ele>949.919921875</ele>
        <time>2011-12-23T07:54:13Z</time>
      </trkpt>
      <trkpt lat="45.64521" lon="6.22241">
        <ele>950.40063476562</ele>
        <time>2011-12-23T07:54:28Z</time>
      </trkpt>
      <trkpt lat="45.64521" lon="6.22243">
        <ele>949.919921875</ele>
        <time>2011-12-23T07:54:32Z</time>
      </trkpt>
      <trkpt lat="45.64523" lon="6.22244">
        <ele>957.1298828125</ele>
        <time>2011-12-23T07:54:36Z</time>
      </trkpt>
      <trkpt lat="45.64521" lon="6.22247">
        <ele>960.49438476562</ele>
        <time>2011-12-23T07:54:40Z</time>
      </trkpt>
      <trkpt lat="45.64522" lon="6.22255">
        <ele>964.33959960938</ele>
        <time>2011-12-23T07:54:47Z</time>
      </trkpt>
      <trkpt lat="45.64525" lon="6.22262">
        <ele>966.26220703125</ele>
        <time>2011-12-23T07:54:53Z</time>
      </trkpt>
      <trkpt lat="45.6453" lon="6.22267">
        <ele>967.2236328125</ele>
        <time>2011-12-23T07:54:59Z</time>
      </trkpt>
      <trkpt lat="45.64532" lon="6.2227">
        <ele>968.66552734375</ele>
        <time>2011-12-23T07:55:03Z</time>
      </trkpt>
      <trkpt lat="45.64534" lon="6.22273">
        <ele>970.107421875</ele>
        <time>2011-12-23T07:55:07Z</time>
      </trkpt>
      <trkpt lat="45.64537" lon="6.22277">
        <ele>974.91430664062</ele>
        <time>2011-12-23T07:55:12Z</time>
      </trkpt>
      <trkpt lat="45.64539" lon="6.22282">
        <ele>977.31762695312</ele>
        <time>2011-12-23T07:55:18Z</time>
      </trkpt>
      <trkpt lat="45.64542" lon="6.22288">
        <ele>979.23999023438</ele>
        <time>2011-12-23T07:55:24Z</time>
      </trkpt>
      <trkpt lat="45.64545" lon="6.22293">
        <ele>979.720703125</ele>
        <time>2011-12-23T07:55:30Z</time>
      </trkpt>
      <trkpt lat="45.6455" lon="6.22299">
        <ele>987.4111328125</ele>
        <time>2011-12-23T07:55:38Z</time>
      </trkpt>
      <trkpt lat="45.64553" lon="6.22304">
        <ele>989.81469726562</ele>
        <time>2011-12-23T07:55:44Z</time>
      </trkpt>
      <trkpt lat="45.64555" lon="6.22311">
        <ele>987.89184570312</ele>
        <time>2011-12-23T07:55:50Z</time>
      </trkpt>
      <trkpt lat="45.64556" lon="6.22318">
        <ele>985.48852539062</ele>
        <time>2011-12-23T07:55:55Z</time>
      </trkpt>
      <trkpt lat="45.64558" lon="6.22325">
        <ele>982.60473632812</ele>
        <time>2011-12-23T07:56:01Z</time>
      </trkpt>
      <trkpt lat="45.6456" lon="6.22331">
        <ele>985.00805664062</ele>
        <time>2011-12-23T07:56:07Z</time>
      </trkpt>
      <trkpt lat="45.64561" lon="6.22339">
        <ele>981.64331054688</ele>
        <time>2011-12-23T07:56:13Z</time>
      </trkpt>
      <trkpt lat="45.64563" lon="6.22346">
        <ele>978.27880859375</ele>
        <time>2011-12-23T07:56:19Z</time>
      </trkpt>
      <trkpt lat="45.64564" lon="6.22353">
        <ele>975.39477539062</ele>
        <time>2011-12-23T07:56:24Z</time>
      </trkpt>
      <trkpt lat="45.64564" lon="6.22358">
        <ele>972.51098632812</ele>
        <time>2011-12-23T07:56:28Z</time>
      </trkpt>
      <trkpt lat="45.64563" lon="6.22363">
        <ele>968.66552734375</ele>
        <time>2011-12-23T07:56:32Z</time>
      </trkpt>
      <trkpt lat="45.64563" lon="6.22369">
        <ele>964.33959960938</ele>
        <time>2011-12-23T07:56:36Z</time>
      </trkpt>
      <trkpt lat="45.64564" lon="6.22376">
        <ele>960.97509765625</ele>
        <time>2011-12-23T07:56:41Z</time>
      </trkpt>
      <trkpt lat="45.64565" lon="6.22381">
        <ele>957.1298828125</ele>
        <time>2011-12-23T07:56:45Z</time>
      </trkpt>
      <trkpt lat="45.64566" lon="6.22386">
        <ele>953.76513671875</ele>
        <time>2011-12-23T07:56:49Z</time>
      </trkpt>
      <trkpt lat="45.64568" lon="6.22393">
        <ele>951.84252929688</ele>
        <time>2011-12-23T07:56:55Z</time>
      </trkpt>
      <trkpt lat="45.64569" lon="6.22398">
        <ele>950.40063476562</ele>
        <time>2011-12-23T07:57:00Z</time>
      </trkpt>
      <trkpt lat="45.64571" lon="6.22403">
        <ele>948.95849609375</ele>
        <time>2011-12-23T07:57:04Z</time>
      </trkpt>
      <trkpt lat="45.64571" lon="6.22407">
        <ele>949.43920898438</ele>
        <time>2011-12-23T07:57:07Z</time>
      </trkpt>
      <trkpt lat="45.64571" lon="6.2241">
        <ele>963.85888671875</ele>
        <time>2011-12-23T07:57:14Z</time>
      </trkpt>
      <trkpt lat="45.64569" lon="6.22413">
        <ele>956.16845703125</ele>
        <time>2011-12-23T07:57:21Z</time>
      </trkpt>
      <trkpt lat="45.6457" lon="6.22416">
        <ele>956.16845703125</ele>
        <time>2011-12-23T07:57:33Z</time>
      </trkpt>
      <trkpt lat="45.64566" lon="6.2242">
        <ele>925.40625</ele>
        <time>2011-12-23T07:57:46Z</time>
      </trkpt>
      <trkpt lat="45.64566" lon="6.22423">
        <ele>917.71557617188</ele>
        <time>2011-12-23T07:57:50Z</time>
      </trkpt>
      <trkpt lat="45.64566" lon="6.22419">
        <ele>909.06396484375</ele>
        <time>2011-12-23T07:57:58Z</time>
      </trkpt>
      <trkpt lat="45.64573" lon="6.2242">
        <ele>911.46728515625</ele>
        <time>2011-12-23T07:58:08Z</time>
      </trkpt>
      <trkpt lat="45.64573" lon="6.22424">
        <ele>919.63842773438</ele>
        <time>2011-12-23T07:58:20Z</time>
      </trkpt>
      <trkpt lat="45.64574" lon="6.22427">
        <ele>923.0029296875</ele>
        <time>2011-12-23T07:58:24Z</time>
      </trkpt>
      <trkpt lat="45.64575" lon="6.22429">
        <ele>928.77099609375</ele>
        <time>2011-12-23T07:58:28Z</time>
      </trkpt>
      <trkpt lat="45.64579" lon="6.22429">
        <ele>943.67138671875</ele>
        <time>2011-12-23T07:58:32Z</time>
      </trkpt>
      <trkpt lat="45.64579" lon="6.22437">
        <ele>946.07470703125</ele>
        <time>2011-12-23T07:58:41Z</time>
      </trkpt>
      <trkpt lat="45.64579" lon="6.22444">
        <ele>944.15209960938</ele>
        <time>2011-12-23T07:58:46Z</time>
      </trkpt>
      <trkpt lat="45.6458" lon="6.22446">
        <ele>944.63256835938</ele>
        <time>2011-12-23T07:58:49Z</time>
      </trkpt>
      <trkpt lat="45.6458" lon="6.22452">
        <ele>945.11328125</ele>
        <time>2011-12-23T07:58:55Z</time>
      </trkpt>
      <trkpt lat="45.64578" lon="6.2245">
        <ele>946.55541992188</ele>
        <time>2011-12-23T07:59:01Z</time>
      </trkpt>
      <trkpt lat="45.64574" lon="6.22464">
        <ele>936.94189453125</ele>
        <time>2011-12-23T07:59:11Z</time>
      </trkpt>
      <trkpt lat="45.64575" lon="6.22469">
        <ele>941.74877929688</ele>
        <time>2011-12-23T07:59:15Z</time>
      </trkpt>
      <trkpt lat="45.64575" lon="6.22474">
        <ele>954.24584960938</ele>
        <time>2011-12-23T07:59:20Z</time>
      </trkpt>
      <trkpt lat="45.64576" lon="6.22478">
        <ele>958.57177734375</ele>
        <time>2011-12-23T07:59:25Z</time>
      </trkpt>
      <trkpt lat="45.64574" lon="6.22483">
        <ele>955.68774414062</ele>
        <time>2011-12-23T07:59:30Z</time>
      </trkpt>
      <trkpt lat="45.64573" lon="6.22488">
        <ele>953.28442382812</ele>
        <time>2011-12-23T07:59:36Z</time>
      </trkpt>
      <trkpt lat="45.64573" lon="6.22491">
        <ele>952.32299804688</ele>
        <time>2011-12-23T07:59:40Z</time>
      </trkpt>
      <trkpt lat="45.64572" lon="6.22494">
        <ele>954.24584960938</ele>
        <time>2011-12-23T07:59:44Z</time>
      </trkpt>
      <trkpt lat="45.64572" lon="6.22499">
        <ele>954.24584960938</ele>
        <time>2011-12-23T07:59:49Z</time>
      </trkpt>
      <trkpt lat="45.64571" lon="6.22503">
        <ele>955.20703125</ele>
        <time>2011-12-23T07:59:53Z</time>
      </trkpt>
      <trkpt lat="45.6457" lon="6.22507">
        <ele>955.20703125</ele>
        <time>2011-12-23T07:59:57Z</time>
      </trkpt>
      <trkpt lat="45.64569" lon="6.22511">
        <ele>955.20703125</ele>
        <time>2011-12-23T08:00:01Z</time>
      </trkpt>
      <trkpt lat="45.64571" lon="6.22515">
        <ele>955.20703125</ele>
        <time>2011-12-23T08:00:05Z</time>
      </trkpt>
      <trkpt lat="45.64572" lon="6.22519">
        <ele>955.20703125</ele>
        <time>2011-12-23T08:00:09Z</time>
      </trkpt>
      <trkpt lat="45.64571" lon="6.22523">
        <ele>954.24584960938</ele>
        <time>2011-12-23T08:00:13Z</time>
      </trkpt>
      <trkpt lat="45.64569" lon="6.22527">
        <ele>952.8037109375</ele>
        <time>2011-12-23T08:00:17Z</time>
      </trkpt>
      <trkpt lat="45.6457" lon="6.22531">
        <ele>952.32299804688</ele>
        <time>2011-12-23T08:00:21Z</time>
      </trkpt>
      <trkpt lat="45.6457" lon="6.22535">
        <ele>951.84252929688</ele>
        <time>2011-12-23T08:00:25Z</time>
      </trkpt>
      <trkpt lat="45.64569" lon="6.22539">
        <ele>951.36181640625</ele>
        <time>2011-12-23T08:00:29Z</time>
      </trkpt>
      <trkpt lat="45.64569" lon="6.22545">
        <ele>955.20703125</ele>
        <time>2011-12-23T08:00:35Z</time>
      </trkpt>
      <trkpt lat="45.64569" lon="6.22552">
        <ele>956.16845703125</ele>
        <time>2011-12-23T08:00:41Z</time>
      </trkpt>
      <trkpt lat="45.64568" lon="6.22557">
        <ele>957.1298828125</ele>
        <time>2011-12-23T08:00:46Z</time>
      </trkpt>
      <trkpt lat="45.64566" lon="6.22564">
        <ele>957.61059570312</ele>
        <time>2011-12-23T08:00:52Z</time>
      </trkpt>
      <trkpt lat="45.64564" lon="6.22571">
        <ele>957.61059570312</ele>
        <time>2011-12-23T08:00:59Z</time>
      </trkpt>
      <trkpt lat="45.64561" lon="6.22575">
        <ele>957.1298828125</ele>
        <time>2011-12-23T08:01:04Z</time>
      </trkpt>
      <trkpt lat="45.64558" lon="6.22578">
        <ele>955.68774414062</ele>
        <time>2011-12-23T08:01:09Z</time>
      </trkpt>
      <trkpt lat="45.64556" lon="6.22581">
        <ele>956.16845703125</ele>
        <time>2011-12-23T08:01:13Z</time>
      </trkpt>
      <trkpt lat="45.64553" lon="6.22584">
        <ele>955.68774414062</ele>
        <time>2011-12-23T08:01:18Z</time>
      </trkpt>
      <trkpt lat="45.64549" lon="6.22588">
        <ele>956.16845703125</ele>
        <time>2011-12-23T08:01:23Z</time>
      </trkpt>
      <trkpt lat="45.64547" lon="6.22591">
        <ele>957.61059570312</ele>
        <time>2011-12-23T08:01:28Z</time>
      </trkpt>
      <trkpt lat="45.64544" lon="6.22594">
        <ele>958.57177734375</ele>
        <time>2011-12-23T08:01:32Z</time>
      </trkpt>
      <trkpt lat="45.6454" lon="6.22598">
        <ele>961.45581054688</ele>
        <time>2011-12-23T08:01:39Z</time>
      </trkpt>
      <trkpt lat="45.64537" lon="6.226">
        <ele>961.9365234375</ele>
        <time>2011-12-23T08:01:43Z</time>
      </trkpt>
      <trkpt lat="45.64535" lon="6.22603">
        <ele>957.1298828125</ele>
        <time>2011-12-23T08:01:49Z</time>
      </trkpt>
      <trkpt lat="45.6453" lon="6.22608">
        <ele>959.533203125</ele>
        <time>2011-12-23T08:01:55Z</time>
      </trkpt>
      <trkpt lat="45.64524" lon="6.22612">
        <ele>963.37841796875</ele>
        <time>2011-12-23T08:02:01Z</time>
      </trkpt>
      <trkpt lat="45.6452" lon="6.22617">
        <ele>966.74291992188</ele>
        <time>2011-12-23T08:02:06Z</time>
      </trkpt>
      <trkpt lat="45.64517" lon="6.22621">
        <ele>970.58813476562</ele>
        <time>2011-12-23T08:02:10Z</time>
      </trkpt>
      <trkpt lat="45.64517" lon="6.22626">
        <ele>970.107421875</ele>
        <time>2011-12-23T08:02:14Z</time>
      </trkpt>
      <trkpt lat="45.64516" lon="6.22629">
        <ele>965.78173828125</ele>
        <time>2011-12-23T08:02:18Z</time>
      </trkpt>
      <trkpt lat="45.64518" lon="6.22633">
        <ele>957.61059570312</ele>
        <time>2011-12-23T08:02:23Z</time>
      </trkpt>
      <trkpt lat="45.64519" lon="6.22638">
        <ele>951.36181640625</ele>
        <time>2011-12-23T08:02:28Z</time>
      </trkpt>
      <trkpt lat="45.64516" lon="6.22641">
        <ele>948.47778320312</ele>
        <time>2011-12-23T08:02:33Z</time>
      </trkpt>
      <trkpt lat="45.64514" lon="6.22645">
        <ele>949.919921875</ele>
        <time>2011-12-23T08:02:37Z</time>
      </trkpt>
      <trkpt lat="45.64515" lon="6.22651">
        <ele>950.40063476562</ele>
        <time>2011-12-23T08:02:41Z</time>
      </trkpt>
      <trkpt lat="45.64515" lon="6.22652">
        <ele>950.40063476562</ele>
        <time>2011-12-23T08:02:42Z</time>
      </trkpt>
      <trkpt lat="45.64515" lon="6.22654">
        <ele>949.43920898438</ele>
        <time>2011-12-23T08:02:44Z</time>
      </trkpt>
      <trkpt lat="45.64509" lon="6.22659">
        <ele>950.40063476562</ele>
        <time>2011-12-23T08:02:51Z</time>
      </trkpt>
      <trkpt lat="45.64507" lon="6.22663">
        <ele>950.40063476562</ele>
        <time>2011-12-23T08:02:55Z</time>
      </trkpt>
      <trkpt lat="45.64509" lon="6.2267">
        <ele>951.36181640625</ele>
        <time>2011-12-23T08:02:59Z</time>
      </trkpt>
      <trkpt lat="45.64508" lon="6.22675">
        <ele>952.8037109375</ele>
        <time>2011-12-23T08:03:03Z</time>
      </trkpt>
      <trkpt lat="45.64509" lon="6.22681">
        <ele>953.76513671875</ele>
        <time>2011-12-23T08:03:08Z</time>
      </trkpt>
      <trkpt lat="45.6451" lon="6.22687">
        <ele>954.24584960938</ele>
        <time>2011-12-23T08:03:13Z</time>
      </trkpt>
      <trkpt lat="45.64511" lon="6.22693">
        <ele>959.533203125</ele>
        <time>2011-12-23T08:03:17Z</time>
      </trkpt>
      <trkpt lat="45.64511" lon="6.227">
        <ele>960.97509765625</ele>
        <time>2011-12-23T08:03:22Z</time>
      </trkpt>
      <trkpt lat="45.64513" lon="6.22705">
        <ele>963.37841796875</ele>
        <time>2011-12-23T08:03:27Z</time>
      </trkpt>
      <trkpt lat="45.64515" lon="6.2271">
        <ele>968.18481445312</ele>
        <time>2011-12-23T08:03:31Z</time>
      </trkpt>
      <trkpt lat="45.64515" lon="6.22718">
        <ele>971.54931640625</ele>
        <time>2011-12-23T08:03:37Z</time>
      </trkpt>
      <trkpt lat="45.64514" lon="6.22719">
        <ele>971.06884765625</ele>
        <time>2011-12-23T08:03:38Z</time>
      </trkpt>
      <trkpt lat="45.64516" lon="6.22727">
        <ele>980.68212890625</ele>
        <time>2011-12-23T08:03:44Z</time>
      </trkpt>
      <trkpt lat="45.64516" lon="6.22731">
        <ele>982.60473632812</ele>
        <time>2011-12-23T08:03:47Z</time>
      </trkpt>
      <trkpt lat="45.64517" lon="6.22736">
        <ele>989.81469726562</ele>
        <time>2011-12-23T08:03:51Z</time>
      </trkpt>
      <trkpt lat="45.64517" lon="6.22746">
        <ele>997.50512695312</ele>
        <time>2011-12-23T08:03:57Z</time>
      </trkpt>
      <trkpt lat="45.64517" lon="6.22752">
        <ele>993.65991210938</ele>
        <time>2011-12-23T08:04:02Z</time>
      </trkpt>
      <trkpt lat="45.64517" lon="6.22758">
        <ele>988.37280273438</ele>
        <time>2011-12-23T08:04:06Z</time>
      </trkpt>
      <trkpt lat="45.64517" lon="6.22762">
        <ele>988.853515625</ele>
        <time>2011-12-23T08:04:09Z</time>
      </trkpt>
      <trkpt lat="45.64517" lon="6.22768">
        <ele>989.333984375</ele>
        <time>2011-12-23T08:04:13Z</time>
      </trkpt>
      <trkpt lat="45.6452" lon="6.22773">
        <ele>985.48852539062</ele>
        <time>2011-12-23T08:04:17Z</time>
      </trkpt>
      <trkpt lat="45.64521" lon="6.22779">
        <ele>980.20141601562</ele>
        <time>2011-12-23T08:04:21Z</time>
      </trkpt>
      <trkpt lat="45.64522" lon="6.22788">
        <ele>977.31762695312</ele>
        <time>2011-12-23T08:04:27Z</time>
      </trkpt>
      <trkpt lat="45.64522" lon="6.22796">
        <ele>971.06884765625</ele>
        <time>2011-12-23T08:04:32Z</time>
      </trkpt>
      <trkpt lat="45.64521" lon="6.22802">
        <ele>967.7041015625</ele>
        <time>2011-12-23T08:04:36Z</time>
      </trkpt>
      <trkpt lat="45.64519" lon="6.22808">
        <ele>967.2236328125</ele>
        <time>2011-12-23T08:04:41Z</time>
      </trkpt>
      <trkpt lat="45.64516" lon="6.22816">
        <ele>967.7041015625</ele>
        <time>2011-12-23T08:04:47Z</time>
      </trkpt>
      <trkpt lat="45.64516" lon="6.2282">
        <ele>969.14624023438</ele>
        <time>2011-12-23T08:04:51Z</time>
      </trkpt>
      <trkpt lat="45.64517" lon="6.22828">
        <ele>970.58813476562</ele>
        <time>2011-12-23T08:04:56Z</time>
      </trkpt>
      <trkpt lat="45.64517" lon="6.22834">
        <ele>970.58813476562</ele>
        <time>2011-12-23T08:05:00Z</time>
      </trkpt>
      <trkpt lat="45.64516" lon="6.22838">
        <ele>968.66552734375</ele>
        <time>2011-12-23T08:05:03Z</time>
      </trkpt>
      <trkpt lat="45.64515" lon="6.22844">
        <ele>961.9365234375</ele>
        <time>2011-12-23T08:05:08Z</time>
      </trkpt>
      <trkpt lat="45.64513" lon="6.22848">
        <ele>954.24584960938</ele>
        <time>2011-12-23T08:05:13Z</time>
      </trkpt>
      <trkpt lat="45.64512" lon="6.22854">
        <ele>957.1298828125</ele>
        <time>2011-12-23T08:05:17Z</time>
      </trkpt>
      <trkpt lat="45.64511" lon="6.22863">
        <ele>959.533203125</ele>
        <time>2011-12-23T08:05:23Z</time>
      </trkpt>
      <trkpt lat="45.64511" lon="6.22868">
        <ele>958.57177734375</ele>
        <time>2011-12-23T08:05:27Z</time>
      </trkpt>
      <trkpt lat="45.6451" lon="6.22874">
        <ele>959.533203125</ele>
        <time>2011-12-23T08:05:31Z</time>
      </trkpt>
      <trkpt lat="45.64507" lon="6.22878">
        <ele>960.49438476562</ele>
        <time>2011-12-23T08:05:35Z</time>
      </trkpt>
      <trkpt lat="45.64507" lon="6.22882">
        <ele>958.57177734375</ele>
        <time>2011-12-23T08:05:39Z</time>
      </trkpt>
      <trkpt lat="45.64504" lon="6.22891">
        <ele>960.49438476562</ele>
        <time>2011-12-23T08:05:45Z</time>
      </trkpt>
      <trkpt lat="45.64502" lon="6.22895">
        <ele>961.45581054688</ele>
        <time>2011-12-23T08:05:48Z</time>
      </trkpt>
      <trkpt lat="45.64502" lon="6.22899">
        <ele>959.05249023438</ele>
        <time>2011-12-23T08:05:51Z</time>
      </trkpt>
      <trkpt lat="45.64502" lon="6.22909">
        <ele>960.013671875</ele>
        <time>2011-12-23T08:05:57Z</time>
      </trkpt>
      <trkpt lat="45.64503" lon="6.22913">
        <ele>960.013671875</ele>
        <time>2011-12-23T08:06:00Z</time>
      </trkpt>
      <trkpt lat="45.64503" lon="6.22916">
        <ele>959.533203125</ele>
        <time>2011-12-23T08:06:02Z</time>
      </trkpt>
      <trkpt lat="45.64503" lon="6.22923">
        <ele>959.533203125</ele>
        <time>2011-12-23T08:06:07Z</time>
      </trkpt>
      <trkpt lat="45.64505" lon="6.22926">
        <ele>960.97509765625</ele>
        <time>2011-12-23T08:06:09Z</time>
      </trkpt>
      <trkpt lat="45.64505" lon="6.22929">
        <ele>962.89770507812</ele>
        <time>2011-12-23T08:06:12Z</time>
      </trkpt>
      <trkpt lat="45.64511" lon="6.22934">
        <ele>974.43359375</ele>
        <time>2011-12-23T08:06:18Z</time>
      </trkpt>
      <trkpt lat="45.64513" lon="6.22937">
        <ele>977.79809570312</ele>
        <time>2011-12-23T08:06:21Z</time>
      </trkpt>
      <trkpt lat="45.64513" lon="6.22942">
        <ele>978.27880859375</ele>
        <time>2011-12-23T08:06:28Z</time>
      </trkpt>
      <trkpt lat="45.64512" lon="6.2294">
        <ele>980.20141601562</ele>
        <time>2011-12-23T08:06:41Z</time>
      </trkpt>
      <trkpt lat="45.6451" lon="6.22937">
        <ele>985.00805664062</ele>
        <time>2011-12-23T08:06:48Z</time>
      </trkpt>
      <trkpt lat="45.64507" lon="6.2294">
        <ele>972.99169921875</ele>
        <time>2011-12-23T08:06:58Z</time>
      </trkpt>
      <trkpt lat="45.64507" lon="6.2294">
        <ele>971.06884765625</ele>
        <time>2011-12-23T08:07:01Z</time>
      </trkpt>
      <trkpt lat="45.64507" lon="6.22939">
        <ele>970.58813476562</ele>
        <time>2011-12-23T08:07:13Z</time>
      </trkpt>
      <trkpt lat="45.64508" lon="6.22939">
        <ele>967.2236328125</ele>
        <time>2011-12-23T08:07:23Z</time>
      </trkpt>
      <trkpt lat="45.6451" lon="6.2294">
        <ele>971.06884765625</ele>
        <time>2011-12-23T08:07:31Z</time>
      </trkpt>
      <trkpt lat="45.64512" lon="6.22941">
        <ele>973.95288085938</ele>
        <time>2011-12-23T08:07:37Z</time>
      </trkpt>
      <trkpt lat="45.64513" lon="6.22942">
        <ele>972.0302734375</ele>
        <time>2011-12-23T08:07:45Z</time>
      </trkpt>
      <trkpt lat="45.64511" lon="6.22943">
        <ele>972.0302734375</ele>
        <time>2011-12-23T08:07:54Z</time>
      </trkpt>
      <trkpt lat="45.64513" lon="6.22948">
        <ele>969.626953125</ele>
        <time>2011-12-23T08:08:00Z</time>
      </trkpt>
      <trkpt lat="45.64515" lon="6.22951">
        <ele>971.54931640625</ele>
        <time>2011-12-23T08:08:03Z</time>
      </trkpt>
      <trkpt lat="45.64516" lon="6.22956">
        <ele>972.51098632812</ele>
        <time>2011-12-23T08:08:07Z</time>
      </trkpt>
      <trkpt lat="45.64517" lon="6.2296">
        <ele>972.99169921875</ele>
        <time>2011-12-23T08:08:11Z</time>
      </trkpt>
      <trkpt lat="45.64518" lon="6.22964">
        <ele>971.54931640625</ele>
        <time>2011-12-23T08:08:15Z</time>
      </trkpt>
      <trkpt lat="45.6452" lon="6.2297">
        <ele>971.06884765625</ele>
        <time>2011-12-23T08:08:20Z</time>
      </trkpt>
      <trkpt lat="45.64519" lon="6.22974">
        <ele>969.14624023438</ele>
        <time>2011-12-23T08:08:24Z</time>
      </trkpt>
      <trkpt lat="45.6452" lon="6.22979">
        <ele>968.18481445312</ele>
        <time>2011-12-23T08:08:29Z</time>
      </trkpt>
      <trkpt lat="45.64521" lon="6.22984">
        <ele>967.2236328125</ele>
        <time>2011-12-23T08:08:34Z</time>
      </trkpt>
      <trkpt lat="45.6452" lon="6.2299">
        <ele>966.74291992188</ele>
        <time>2011-12-23T08:08:40Z</time>
      </trkpt>
      <trkpt lat="45.6452" lon="6.22995">
        <ele>967.7041015625</ele>
        <time>2011-12-23T08:08:45Z</time>
      </trkpt>
      <trkpt lat="45.6452" lon="6.22998">
        <ele>967.7041015625</ele>
        <time>2011-12-23T08:08:48Z</time>
      </trkpt>
      <trkpt lat="45.6452" lon="6.23003">
        <ele>969.626953125</ele>
        <time>2011-12-23T08:08:52Z</time>
      </trkpt>
      <trkpt lat="45.6452" lon="6.23007">
        <ele>970.107421875</ele>
        <time>2011-12-23T08:08:57Z</time>
      </trkpt>
      <trkpt lat="45.6452" lon="6.23012">
        <ele>971.06884765625</ele>
        <time>2011-12-23T08:09:02Z</time>
      </trkpt>
      <trkpt lat="45.6452" lon="6.23017">
        <ele>971.54931640625</ele>
        <time>2011-12-23T08:09:06Z</time>
      </trkpt>
      <trkpt lat="45.64521" lon="6.23021">
        <ele>972.51098632812</ele>
        <time>2011-12-23T08:09:10Z</time>
      </trkpt>
      <trkpt lat="45.64522" lon="6.23026">
        <ele>973.47241210938</ele>
        <time>2011-12-23T08:09:14Z</time>
      </trkpt>
      <trkpt lat="45.64523" lon="6.23031">
        <ele>972.51098632812</ele>
        <time>2011-12-23T08:09:19Z</time>
      </trkpt>
      <trkpt lat="45.64523" lon="6.23036">
        <ele>974.43359375</ele>
        <time>2011-12-23T08:09:23Z</time>
      </trkpt>
      <trkpt lat="45.64521" lon="6.23042">
        <ele>975.87548828125</ele>
        <time>2011-12-23T08:09:28Z</time>
      </trkpt>
      <trkpt lat="45.6452" lon="6.23045">
        <ele>974.43359375</ele>
        <time>2011-12-23T08:09:32Z</time>
      </trkpt>
      <trkpt lat="45.6452" lon="6.23049">
        <ele>974.91430664062</ele>
        <time>2011-12-23T08:09:36Z</time>
      </trkpt>
      <trkpt lat="45.6452" lon="6.23053">
        <ele>972.99169921875</ele>
        <time>2011-12-23T08:09:40Z</time>
      </trkpt>
      <trkpt lat="45.6452" lon="6.23058">
        <ele>972.99169921875</ele>
        <time>2011-12-23T08:09:44Z</time>
      </trkpt>
      <trkpt lat="45.64519" lon="6.23062">
        <ele>973.47241210938</ele>
        <time>2011-12-23T08:09:47Z</time>
      </trkpt>
      <trkpt lat="45.64519" lon="6.23065">
        <ele>975.87548828125</ele>
        <time>2011-12-23T08:09:49Z</time>
      </trkpt>
      <trkpt lat="45.64518" lon="6.23074">
        <ele>977.79809570312</ele>
        <time>2011-12-23T08:09:56Z</time>
      </trkpt>
      <trkpt lat="45.64516" lon="6.23077">
        <ele>976.8369140625</ele>
        <time>2011-12-23T08:10:00Z</time>
      </trkpt>
      <trkpt lat="45.64516" lon="6.23081">
        <ele>977.79809570312</ele>
        <time>2011-12-23T08:10:04Z</time>
      </trkpt>
      <trkpt lat="45.64518" lon="6.23088">
        <ele>981.16284179688</ele>
        <time>2011-12-23T08:10:08Z</time>
      </trkpt>
      <trkpt lat="45.64519" lon="6.23093">
        <ele>983.08520507812</ele>
        <time>2011-12-23T08:10:12Z</time>
      </trkpt>
      <trkpt lat="45.6452" lon="6.23097">
        <ele>984.04663085938</ele>
        <time>2011-12-23T08:10:16Z</time>
      </trkpt>
      <trkpt lat="45.64519" lon="6.23102">
        <ele>990.77587890625</ele>
        <time>2011-12-23T08:10:19Z</time>
      </trkpt>
      <trkpt lat="45.6452" lon="6.23109">
        <ele>990.77587890625</ele>
        <time>2011-12-23T08:10:26Z</time>
      </trkpt>
      <trkpt lat="45.64518" lon="6.23111">
        <ele>988.37280273438</ele>
        <time>2011-12-23T08:10:33Z</time>
      </trkpt>
      <trkpt lat="45.64515" lon="6.23111">
        <ele>979.720703125</ele>
        <time>2011-12-23T08:10:38Z</time>
      </trkpt>
      <trkpt lat="45.64515" lon="6.23115">
        <ele>978.27880859375</ele>
        <time>2011-12-23T08:10:43Z</time>
      </trkpt>
      <trkpt lat="45.64514" lon="6.23119">
        <ele>975.87548828125</ele>
        <time>2011-12-23T08:10:47Z</time>
      </trkpt>
      <trkpt lat="45.64511" lon="6.23121">
        <ele>971.54931640625</ele>
        <time>2011-12-23T08:10:52Z</time>
      </trkpt>
      <trkpt lat="45.64511" lon="6.23131">
        <ele>976.35620117188</ele>
        <time>2011-12-23T08:10:59Z</time>
      </trkpt>
      <trkpt lat="45.64511" lon="6.23136">
        <ele>977.79809570312</ele>
        <time>2011-12-23T08:11:04Z</time>
      </trkpt>
      <trkpt lat="45.64511" lon="6.23144">
        <ele>978.75952148438</ele>
        <time>2011-12-23T08:11:10Z</time>
      </trkpt>
      <trkpt lat="45.6451" lon="6.23148">
        <ele>978.27880859375</ele>
        <time>2011-12-23T08:11:14Z</time>
      </trkpt>
      <trkpt lat="45.64509" lon="6.23152">
        <ele>978.27880859375</ele>
        <time>2011-12-23T08:11:18Z</time>
      </trkpt>
      <trkpt lat="45.64508" lon="6.23156">
        <ele>976.35620117188</ele>
        <time>2011-12-23T08:11:23Z</time>
      </trkpt>
      <trkpt lat="45.64507" lon="6.23159">
        <ele>975.87548828125</ele>
        <time>2011-12-23T08:11:26Z</time>
      </trkpt>
      <trkpt lat="45.64507" lon="6.23164">
        <ele>977.79809570312</ele>
        <time>2011-12-23T08:11:30Z</time>
      </trkpt>
      <trkpt lat="45.64506" lon="6.23171">
        <ele>979.720703125</ele>
        <time>2011-12-23T08:11:35Z</time>
      </trkpt>
      <trkpt lat="45.64505" lon="6.23177">
        <ele>980.20141601562</ele>
        <time>2011-12-23T08:11:40Z</time>
      </trkpt>
      <trkpt lat="45.64505" lon="6.23181">
        <ele>980.20141601562</ele>
        <time>2011-12-23T08:11:44Z</time>
      </trkpt>
      <trkpt lat="45.64505" lon="6.23185">
        <ele>981.16284179688</ele>
        <time>2011-12-23T08:11:47Z</time>
      </trkpt>
      <trkpt lat="45.64505" lon="6.23192">
        <ele>982.60473632812</ele>
        <time>2011-12-23T08:11:53Z</time>
      </trkpt>
      <trkpt lat="45.64505" lon="6.23197">
        <ele>984.04663085938</ele>
        <time>2011-12-23T08:11:58Z</time>
      </trkpt>
      <trkpt lat="45.64506" lon="6.23204">
        <ele>983.08520507812</ele>
        <time>2011-12-23T08:12:03Z</time>
      </trkpt>
      <trkpt lat="45.64507" lon="6.23209">
        <ele>982.60473632812</ele>
        <time>2011-12-23T08:12:07Z</time>
      </trkpt>
      <trkpt lat="45.64507" lon="6.23213">
        <ele>980.68212890625</ele>
        <time>2011-12-23T08:12:11Z</time>
      </trkpt>
      <trkpt lat="45.64508" lon="6.23218">
        <ele>978.75952148438</ele>
        <time>2011-12-23T08:12:15Z</time>
      </trkpt>
      <trkpt lat="45.64508" lon="6.23223">
        <ele>977.79809570312</ele>
        <time>2011-12-23T08:12:20Z</time>
      </trkpt>
      <trkpt lat="45.64508" lon="6.23228">
        <ele>978.27880859375</ele>
        <time>2011-12-23T08:12:24Z</time>
      </trkpt>
      <trkpt lat="45.64509" lon="6.23232">
        <ele>977.31762695312</ele>
        <time>2011-12-23T08:12:28Z</time>
      </trkpt>
      <trkpt lat="45.64507" lon="6.23235">
        <ele>975.39477539062</ele>
        <time>2011-12-23T08:12:32Z</time>
      </trkpt>
      <trkpt lat="45.64508" lon="6.23244">
        <ele>981.16284179688</ele>
        <time>2011-12-23T08:12:37Z</time>
      </trkpt>
      <trkpt lat="45.64508" lon="6.23251">
        <ele>984.04663085938</ele>
        <time>2011-12-23T08:12:41Z</time>
      </trkpt>
      <trkpt lat="45.64508" lon="6.23255">
        <ele>984.52734375</ele>
        <time>2011-12-23T08:12:44Z</time>
      </trkpt>
      <trkpt lat="45.64508" lon="6.23266">
        <ele>983.56591796875</ele>
        <time>2011-12-23T08:12:51Z</time>
      </trkpt>
      <trkpt lat="45.64507" lon="6.23272">
        <ele>985.00805664062</ele>
        <time>2011-12-23T08:12:56Z</time>
      </trkpt>
      <trkpt lat="45.64507" lon="6.23276">
        <ele>985.00805664062</ele>
        <time>2011-12-23T08:13:00Z</time>
      </trkpt>
      <trkpt lat="45.64509" lon="6.23282">
        <ele>984.52734375</ele>
        <time>2011-12-23T08:13:04Z</time>
      </trkpt>
      <trkpt lat="45.6451" lon="6.23288">
        <ele>985.48852539062</ele>
        <time>2011-12-23T08:13:08Z</time>
      </trkpt>
      <trkpt lat="45.6451" lon="6.23294">
        <ele>988.37280273438</ele>
        <time>2011-12-23T08:13:11Z</time>
      </trkpt>
      <trkpt lat="45.64511" lon="6.23298">
        <ele>990.29541015625</ele>
        <time>2011-12-23T08:13:14Z</time>
      </trkpt>
      <trkpt lat="45.64512" lon="6.23302">
        <ele>990.77587890625</ele>
        <time>2011-12-23T08:13:18Z</time>
      </trkpt>
      <trkpt lat="45.64515" lon="6.23307">
        <ele>994.140625</ele>
        <time>2011-12-23T08:13:23Z</time>
      </trkpt>
      <trkpt lat="45.64517" lon="6.23313">
        <ele>996.06323242188</ele>
        <time>2011-12-23T08:13:27Z</time>
      </trkpt>
      <trkpt lat="45.64521" lon="6.23321">
        <ele>999.427734375</ele>
        <time>2011-12-23T08:13:32Z</time>
      </trkpt>
      <trkpt lat="45.6452" lon="6.23327">
        <ele>1000.3891601562</ele>
        <time>2011-12-23T08:13:37Z</time>
      </trkpt>
      <trkpt lat="45.64521" lon="6.23329">
        <ele>995.58251953125</ele>
        <time>2011-12-23T08:13:43Z</time>
      </trkpt>
      <trkpt lat="45.64517" lon="6.23334">
        <ele>987.89184570312</ele>
        <time>2011-12-23T08:14:11Z</time>
      </trkpt>
      <trkpt lat="45.64518" lon="6.23339">
        <ele>990.77587890625</ele>
        <time>2011-12-23T08:14:20Z</time>
      </trkpt>
      <trkpt lat="45.64518" lon="6.23345">
        <ele>991.7373046875</ele>
        <time>2011-12-23T08:14:24Z</time>
      </trkpt>
      <trkpt lat="45.64519" lon="6.2335">
        <ele>991.25659179688</ele>
        <time>2011-12-23T08:14:29Z</time>
      </trkpt>
      <trkpt lat="45.6452" lon="6.23355">
        <ele>993.17919921875</ele>
        <time>2011-12-23T08:14:33Z</time>
      </trkpt>
      <trkpt lat="45.6452" lon="6.23359">
        <ele>993.65991210938</ele>
        <time>2011-12-23T08:14:37Z</time>
      </trkpt>
      <trkpt lat="45.64521" lon="6.23366">
        <ele>996.06323242188</ele>
        <time>2011-12-23T08:14:42Z</time>
      </trkpt>
      <trkpt lat="45.64521" lon="6.23371">
        <ele>997.98583984375</ele>
        <time>2011-12-23T08:14:46Z</time>
      </trkpt>
      <trkpt lat="45.64521" lon="6.23375">
        <ele>1006.6376953125</ele>
        <time>2011-12-23T08:14:50Z</time>
      </trkpt>
      <trkpt lat="45.64513" lon="6.23388">
        <ele>1044.6096191406</ele>
        <time>2011-12-23T08:15:04Z</time>
      </trkpt>
      <trkpt lat="45.6451" lon="6.23386">
        <ele>1041.7258300781</ele>
        <time>2011-12-23T08:15:16Z</time>
      </trkpt>
      <trkpt lat="45.64517" lon="6.23388">
        <ele>1033.0737304688</ele>
        <time>2011-12-23T08:15:30Z</time>
      </trkpt>
      <trkpt lat="45.64519" lon="6.23391">
        <ele>1016.2507324219</ele>
        <time>2011-12-23T08:15:37Z</time>
      </trkpt>
      <trkpt lat="45.6452" lon="6.23395">
        <ele>1009.5217285156</ele>
        <time>2011-12-23T08:15:41Z</time>
      </trkpt>
      <trkpt lat="45.64523" lon="6.23399">
        <ele>1004.7150878906</ele>
        <time>2011-12-23T08:15:46Z</time>
      </trkpt>
      <trkpt lat="45.64524" lon="6.23404">
        <ele>1003.7536621094</ele>
        <time>2011-12-23T08:15:49Z</time>
      </trkpt>
      <trkpt lat="45.64527" lon="6.23407">
        <ele>1000.8696289062</ele>
        <time>2011-12-23T08:15:51Z</time>
      </trkpt>
      <trkpt lat="45.6453" lon="6.23413">
        <ele>993.65991210938</ele>
        <time>2011-12-23T08:15:56Z</time>
      </trkpt>
      <trkpt lat="45.64531" lon="6.23418">
        <ele>987.89184570312</ele>
        <time>2011-12-23T08:16:01Z</time>
      </trkpt>
      <trkpt lat="45.64532" lon="6.23423">
        <ele>985.48852539062</ele>
        <time>2011-12-23T08:16:05Z</time>
      </trkpt>
      <trkpt lat="45.64534" lon="6.23431">
        <ele>982.60473632812</ele>
        <time>2011-12-23T08:16:13Z</time>
      </trkpt>
      <trkpt lat="45.64539" lon="6.23439">
        <ele>978.27880859375</ele>
        <time>2011-12-23T08:16:18Z</time>
      </trkpt>
      <trkpt lat="45.64541" lon="6.23444">
        <ele>978.75952148438</ele>
        <time>2011-12-23T08:16:22Z</time>
      </trkpt>
      <trkpt lat="45.64542" lon="6.23447">
        <ele>978.27880859375</ele>
        <time>2011-12-23T08:16:24Z</time>
      </trkpt>
      <trkpt lat="45.64543" lon="6.23453">
        <ele>983.56591796875</ele>
        <time>2011-12-23T08:16:29Z</time>
      </trkpt>
      <trkpt lat="45.64544" lon="6.23458">
        <ele>987.4111328125</ele>
        <time>2011-12-23T08:16:33Z</time>
      </trkpt>
      <trkpt lat="45.64543" lon="6.23465">
        <ele>991.7373046875</ele>
        <time>2011-12-23T08:16:38Z</time>
      </trkpt>
      <trkpt lat="45.64543" lon="6.23467">
        <ele>993.17919921875</ele>
        <time>2011-12-23T08:16:39Z</time>
      </trkpt>
      <trkpt lat="45.64545" lon="6.23474">
        <ele>995.10180664062</ele>
        <time>2011-12-23T08:16:45Z</time>
      </trkpt>
      <trkpt lat="45.64547" lon="6.23481">
        <ele>998.94702148438</ele>
        <time>2011-12-23T08:16:52Z</time>
      </trkpt>
      <trkpt lat="45.64546" lon="6.23484">
        <ele>997.50512695312</ele>
        <time>2011-12-23T08:16:57Z</time>
      </trkpt>
      <trkpt lat="45.6455" lon="6.23494">
        <ele>997.50512695312</ele>
        <time>2011-12-23T08:17:02Z</time>
      </trkpt>
      <trkpt lat="45.64553" lon="6.23502">
        <ele>999.427734375</ele>
        <time>2011-12-23T08:17:07Z</time>
      </trkpt>
      <trkpt lat="45.64555" lon="6.2351">
        <ele>1004.7150878906</ele>
        <time>2011-12-23T08:17:11Z</time>
      </trkpt>
      <trkpt lat="45.64555" lon="6.23516">
        <ele>998.94702148438</ele>
        <time>2011-12-23T08:17:18Z</time>
      </trkpt>
      <trkpt lat="45.64552" lon="6.2352">
        <ele>988.37280273438</ele>
        <time>2011-12-23T08:17:26Z</time>
      </trkpt>
      <trkpt lat="45.64552" lon="6.23523">
        <ele>987.89184570312</ele>
        <time>2011-12-23T08:17:30Z</time>
      </trkpt>
      <trkpt lat="45.64551" lon="6.23528">
        <ele>991.25659179688</ele>
        <time>2011-12-23T08:17:34Z</time>
      </trkpt>
      <trkpt lat="45.64555" lon="6.23538">
        <ele>995.58251953125</ele>
        <time>2011-12-23T08:17:42Z</time>
      </trkpt>
      <trkpt lat="45.64557" lon="6.23544">
        <ele>999.427734375</ele>
        <time>2011-12-23T08:17:46Z</time>
      </trkpt>
      <trkpt lat="45.64558" lon="6.23555">
        <ele>1007.5991210938</ele>
        <time>2011-12-23T08:17:52Z</time>
      </trkpt>
      <trkpt lat="45.6456" lon="6.23562">
        <ele>1006.1569824219</ele>
        <time>2011-12-23T08:17:57Z</time>
      </trkpt>
      <trkpt lat="45.6456" lon="6.23563">
        <ele>1005.1958007812</ele>
        <time>2011-12-23T08:17:58Z</time>
      </trkpt>
      <trkpt lat="45.6456" lon="6.23568">
        <ele>1007.5991210938</ele>
        <time>2011-12-23T08:18:03Z</time>
      </trkpt>
      <trkpt lat="45.64559" lon="6.2357">
        <ele>1004.7150878906</ele>
        <time>2011-12-23T08:18:07Z</time>
      </trkpt>
      <trkpt lat="45.64559" lon="6.23573">
        <ele>1002.7922363281</ele>
        <time>2011-12-23T08:18:11Z</time>
      </trkpt>
      <trkpt lat="45.64559" lon="6.2358">
        <ele>1002.7922363281</ele>
        <time>2011-12-23T08:18:16Z</time>
      </trkpt>
      <trkpt lat="45.64559" lon="6.23585">
        <ele>997.50512695312</ele>
        <time>2011-12-23T08:18:20Z</time>
      </trkpt>
      <trkpt lat="45.6456" lon="6.2359">
        <ele>996.06323242188</ele>
        <time>2011-12-23T08:18:24Z</time>
      </trkpt>
      <trkpt lat="45.64561" lon="6.23594">
        <ele>992.69873046875</ele>
        <time>2011-12-23T08:18:28Z</time>
      </trkpt>
      <trkpt lat="45.64561" lon="6.23599">
        <ele>993.65991210938</ele>
        <time>2011-12-23T08:18:32Z</time>
      </trkpt>
      <trkpt lat="45.64561" lon="6.23604">
        <ele>996.5439453125</ele>
        <time>2011-12-23T08:18:35Z</time>
      </trkpt>
      <trkpt lat="45.64561" lon="6.23614">
        <ele>998.46630859375</ele>
        <time>2011-12-23T08:18:42Z</time>
      </trkpt>
      <trkpt lat="45.64561" lon="6.23621">
        <ele>1004.7150878906</ele>
        <time>2011-12-23T08:18:47Z</time>
      </trkpt>
      <trkpt lat="45.64561" lon="6.23629">
        <ele>1002.7922363281</ele>
        <time>2011-12-23T08:18:53Z</time>
      </trkpt>
      <trkpt lat="45.64561" lon="6.23637">
        <ele>1001.3503417969</ele>
        <time>2011-12-23T08:19:00Z</time>
      </trkpt>
      <trkpt lat="45.64561" lon="6.23642">
        <ele>1000.3891601562</ele>
        <time>2011-12-23T08:19:04Z</time>
      </trkpt>
      <trkpt lat="45.6456" lon="6.23652">
        <ele>1001.8310546875</ele>
        <time>2011-12-23T08:19:12Z</time>
      </trkpt>
      <trkpt lat="45.64562" lon="6.23661">
        <ele>1002.3115234375</ele>
        <time>2011-12-23T08:19:18Z</time>
      </trkpt>
      <trkpt lat="45.64563" lon="6.23666">
        <ele>1002.3115234375</ele>
        <time>2011-12-23T08:19:22Z</time>
      </trkpt>
      <trkpt lat="45.64565" lon="6.23676">
        <ele>1002.7922363281</ele>
        <time>2011-12-23T08:19:29Z</time>
      </trkpt>
      <trkpt lat="45.64565" lon="6.23686">
        <ele>1010.4829101562</ele>
        <time>2011-12-23T08:19:35Z</time>
      </trkpt>
      <trkpt lat="45.64567" lon="6.23694">
        <ele>1017.2121582031</ele>
        <time>2011-12-23T08:19:41Z</time>
      </trkpt>
      <trkpt lat="45.64568" lon="6.23701">
        <ele>1018.1733398438</ele>
        <time>2011-12-23T08:19:46Z</time>
      </trkpt>
      <trkpt lat="45.6457" lon="6.23706">
        <ele>1017.2121582031</ele>
        <time>2011-12-23T08:19:51Z</time>
      </trkpt>
      <trkpt lat="45.64573" lon="6.23712">
        <ele>1014.328125</ele>
        <time>2011-12-23T08:19:58Z</time>
      </trkpt>
      <trkpt lat="45.64576" lon="6.23714">
        <ele>1012.8862304688</ele>
        <time>2011-12-23T08:20:02Z</time>
      </trkpt>
      <trkpt lat="45.64578" lon="6.23718">
        <ele>1013.8474121094</ele>
        <time>2011-12-23T08:20:06Z</time>
      </trkpt>
      <trkpt lat="45.64581" lon="6.23722">
        <ele>1013.3669433594</ele>
        <time>2011-12-23T08:20:11Z</time>
      </trkpt>
      <trkpt lat="45.64584" lon="6.23725">
        <ele>1012.8862304688</ele>
        <time>2011-12-23T08:20:16Z</time>
      </trkpt>
      <trkpt lat="45.64586" lon="6.23729">
        <ele>1013.8474121094</ele>
        <time>2011-12-23T08:20:21Z</time>
      </trkpt>
      <trkpt lat="45.64589" lon="6.23733">
        <ele>1015.2895507812</ele>
        <time>2011-12-23T08:20:27Z</time>
      </trkpt>
      <trkpt lat="45.64592" lon="6.23735">
        <ele>1017.2121582031</ele>
        <time>2011-12-23T08:20:32Z</time>
      </trkpt>
      <trkpt lat="45.6459" lon="6.23735">
        <ele>1018.6540527344</ele>
        <time>2011-12-23T08:20:37Z</time>
      </trkpt>
      <trkpt lat="45.6459" lon="6.23735">
        <ele>1025.3833007812</ele>
        <time>2011-12-23T08:20:51Z</time>
      </trkpt>
      <trkpt lat="45.64592" lon="6.23736">
        <ele>1024.9028320312</ele>
        <time>2011-12-23T08:20:58Z</time>
      </trkpt>
      <trkpt lat="45.64591" lon="6.23734">
        <ele>1018.1733398438</ele>
        <time>2011-12-23T08:21:04Z</time>
      </trkpt>
      <trkpt lat="45.64591" lon="6.23737">
        <ele>1023.4609375</ele>
        <time>2011-12-23T08:21:09Z</time>
      </trkpt>
      <trkpt lat="45.646" lon="6.23742">
        <ele>1018.1733398438</ele>
        <time>2011-12-23T08:21:25Z</time>
      </trkpt>
      <trkpt lat="45.64603" lon="6.23743">
        <ele>1014.8088378906</ele>
        <time>2011-12-23T08:21:29Z</time>
      </trkpt>
      <trkpt lat="45.64605" lon="6.23745">
        <ele>1016.7314453125</ele>
        <time>2011-12-23T08:21:33Z</time>
      </trkpt>
      <trkpt lat="45.64606" lon="6.23747">
        <ele>1019.6154785156</ele>
        <time>2011-12-23T08:21:37Z</time>
      </trkpt>
      <trkpt lat="45.64609" lon="6.23749">
        <ele>1013.3669433594</ele>
        <time>2011-12-23T08:21:44Z</time>
      </trkpt>
      <trkpt lat="45.64609" lon="6.23752">
        <ele>1014.328125</ele>
        <time>2011-12-23T08:21:48Z</time>
      </trkpt>
      <trkpt lat="45.64609" lon="6.23756">
        <ele>1013.8474121094</ele>
        <time>2011-12-23T08:21:53Z</time>
      </trkpt>
      <trkpt lat="45.64611" lon="6.23759">
        <ele>1014.8088378906</ele>
        <time>2011-12-23T08:21:57Z</time>
      </trkpt>
      <trkpt lat="45.64612" lon="6.23762">
        <ele>1016.2507324219</ele>
        <time>2011-12-23T08:22:02Z</time>
      </trkpt>
      <trkpt lat="45.64613" lon="6.23764">
        <ele>1013.8474121094</ele>
        <time>2011-12-23T08:22:08Z</time>
      </trkpt>
      <trkpt lat="45.64612" lon="6.23769">
        <ele>1017.6926269531</ele>
        <time>2011-12-23T08:22:12Z</time>
      </trkpt>
      <trkpt lat="45.64613" lon="6.23774">
        <ele>1024.4221191406</ele>
        <time>2011-12-23T08:22:16Z</time>
      </trkpt>
      <trkpt lat="45.64615" lon="6.23779">
        <ele>1027.3061523438</ele>
        <time>2011-12-23T08:22:22Z</time>
      </trkpt>
      <trkpt lat="45.64616" lon="6.23785">
        <ele>1036.4387207031</ele>
        <time>2011-12-23T08:22:27Z</time>
      </trkpt>
      <trkpt lat="45.64618" lon="6.23789">
        <ele>1039.8032226562</ele>
        <time>2011-12-23T08:22:31Z</time>
      </trkpt>
      <trkpt lat="45.64619" lon="6.23793">
        <ele>1046.0517578125</ele>
        <time>2011-12-23T08:22:35Z</time>
      </trkpt>
      <trkpt lat="45.64621" lon="6.23797">
        <ele>1050.3776855469</ele>
        <time>2011-12-23T08:22:39Z</time>
      </trkpt>
      <trkpt lat="45.64621" lon="6.23803">
        <ele>1058.548828125</ele>
        <time>2011-12-23T08:22:43Z</time>
      </trkpt>
      <trkpt lat="45.64623" lon="6.23804">
        <ele>1056.6262207031</ele>
        <time>2011-12-23T08:22:47Z</time>
      </trkpt>
      <trkpt lat="45.64627" lon="6.23808">
        <ele>1058.068359375</ele>
        <time>2011-12-23T08:22:53Z</time>
      </trkpt>
      <trkpt lat="45.64629" lon="6.23808">
        <ele>1053.7424316406</ele>
        <time>2011-12-23T08:22:57Z</time>
      </trkpt>
      <trkpt lat="45.64633" lon="6.23811">
        <ele>1048.935546875</ele>
        <time>2011-12-23T08:23:03Z</time>
      </trkpt>
      <trkpt lat="45.64636" lon="6.23811">
        <ele>1042.6872558594</ele>
        <time>2011-12-23T08:23:07Z</time>
      </trkpt>
      <trkpt lat="45.64639" lon="6.23814">
        <ele>1048.4548339844</ele>
        <time>2011-12-23T08:23:11Z</time>
      </trkpt>
      <trkpt lat="45.64643" lon="6.23815">
        <ele>1043.6484375</ele>
        <time>2011-12-23T08:23:16Z</time>
      </trkpt>
      <trkpt lat="45.64645" lon="6.23816">
        <ele>1042.2065429688</ele>
        <time>2011-12-23T08:23:20Z</time>
      </trkpt>
      <trkpt lat="45.64647" lon="6.23822">
        <ele>1057.5876464844</ele>
        <time>2011-12-23T08:23:27Z</time>
      </trkpt>
      <trkpt lat="45.64651" lon="6.23824">
        <ele>1060.9521484375</ele>
        <time>2011-12-23T08:23:32Z</time>
      </trkpt>
      <trkpt lat="45.64652" lon="6.23828">
        <ele>1065.7587890625</ele>
        <time>2011-12-23T08:23:36Z</time>
      </trkpt>
      <trkpt lat="45.64655" lon="6.2383">
        <ele>1068.162109375</ele>
        <time>2011-12-23T08:23:40Z</time>
      </trkpt>
      <trkpt lat="45.64658" lon="6.23831">
        <ele>1064.3166503906</ele>
        <time>2011-12-23T08:23:44Z</time>
      </trkpt>
      <trkpt lat="45.64661" lon="6.23832">
        <ele>1066.7199707031</ele>
        <time>2011-12-23T08:23:48Z</time>
      </trkpt>
      <trkpt lat="45.64665" lon="6.23834">
        <ele>1066.2392578125</ele>
        <time>2011-12-23T08:23:54Z</time>
      </trkpt>
      <trkpt lat="45.64668" lon="6.23835">
        <ele>1060.9521484375</ele>
        <time>2011-12-23T08:23:58Z</time>
      </trkpt>
      <trkpt lat="45.64671" lon="6.23836">
        <ele>1058.548828125</ele>
        <time>2011-12-23T08:24:02Z</time>
      </trkpt>
      <trkpt lat="45.64675" lon="6.23836">
        <ele>1049.8969726562</ele>
        <time>2011-12-23T08:24:06Z</time>
      </trkpt>
      <trkpt lat="45.64678" lon="6.23837">
        <ele>1043.6484375</ele>
        <time>2011-12-23T08:24:10Z</time>
      </trkpt>
      <trkpt lat="45.64681" lon="6.23833">
        <ele>1023.94140625</ele>
        <time>2011-12-23T08:24:24Z</time>
      </trkpt>
      <trkpt lat="45.64683" lon="6.23834">
        <ele>1020.0961914062</ele>
        <time>2011-12-23T08:24:36Z</time>
      </trkpt>
      <trkpt lat="45.64685" lon="6.23838">
        <ele>1022.4995117188</ele>
        <time>2011-12-23T08:24:40Z</time>
      </trkpt>
      <trkpt lat="45.64687" lon="6.23841">
        <ele>1023.4609375</ele>
        <time>2011-12-23T08:24:44Z</time>
      </trkpt>
      <trkpt lat="45.64689" lon="6.23845">
        <ele>1022.4995117188</ele>
        <time>2011-12-23T08:24:49Z</time>
      </trkpt>
      <trkpt lat="45.64691" lon="6.23849">
        <ele>1022.9802246094</ele>
        <time>2011-12-23T08:24:54Z</time>
      </trkpt>
      <trkpt lat="45.64694" lon="6.23854">
        <ele>1022.9802246094</ele>
        <time>2011-12-23T08:25:00Z</time>
      </trkpt>
      <trkpt lat="45.64696" lon="6.23857">
        <ele>1022.9802246094</ele>
        <time>2011-12-23T08:25:04Z</time>
      </trkpt>
      <trkpt lat="45.64698" lon="6.2386">
        <ele>1023.94140625</ele>
        <time>2011-12-23T08:25:10Z</time>
      </trkpt>
      <trkpt lat="45.64698" lon="6.23861">
        <ele>1025.3833007812</ele>
        <time>2011-12-23T08:25:20Z</time>
      </trkpt>
      <trkpt lat="45.64698" lon="6.23861">
        <ele>1025.8640136719</ele>
        <time>2011-12-23T08:25:30Z</time>
      </trkpt>
      <trkpt lat="45.64698" lon="6.23859">
        <ele>1027.7866210938</ele>
        <time>2011-12-23T08:25:35Z</time>
      </trkpt>
      <trkpt lat="45.64698" lon="6.2386">
        <ele>1026.8254394531</ele>
        <time>2011-12-23T08:25:43Z</time>
      </trkpt>
      <trkpt lat="45.64697" lon="6.2386">
        <ele>1025.8640136719</ele>
        <time>2011-12-23T08:25:55Z</time>
      </trkpt>
      <trkpt lat="45.64696" lon="6.23859">
        <ele>1028.2673339844</ele>
        <time>2011-12-23T08:26:01Z</time>
      </trkpt>
      <trkpt lat="45.64696" lon="6.23858">
        <ele>1027.7866210938</ele>
        <time>2011-12-23T08:26:09Z</time>
      </trkpt>
      <trkpt lat="45.64693" lon="6.23853">
        <ele>1035.4770507812</ele>
        <time>2011-12-23T08:26:26Z</time>
      </trkpt>
      <trkpt lat="45.64694" lon="6.23857">
        <ele>1032.1125488281</ele>
        <time>2011-12-23T08:26:40Z</time>
      </trkpt>
      <trkpt lat="45.64694" lon="6.23859">
        <ele>1030.1899414062</ele>
        <time>2011-12-23T08:26:54Z</time>
      </trkpt>
      <trkpt lat="45.64695" lon="6.2386">
        <ele>1027.7866210938</ele>
        <time>2011-12-23T08:27:17Z</time>
      </trkpt>
      <trkpt lat="45.64698" lon="6.2386">
        <ele>1025.8640136719</ele>
        <time>2011-12-23T08:27:40Z</time>
      </trkpt>
      <trkpt lat="45.64699" lon="6.23861">
        <ele>1035.4770507812</ele>
        <time>2011-12-23T08:27:48Z</time>
      </trkpt>
      <trkpt lat="45.64699" lon="6.23861">
        <ele>1033.5544433594</ele>
        <time>2011-12-23T08:28:00Z</time>
      </trkpt>
      <trkpt lat="45.64698" lon="6.23861">
        <ele>1027.3061523438</ele>
        <time>2011-12-23T08:28:16Z</time>
      </trkpt>
      <trkpt lat="45.64695" lon="6.23862">
        <ele>1028.748046875</ele>
        <time>2011-12-23T08:28:42Z</time>
      </trkpt>
      <trkpt lat="45.64696" lon="6.23861">
        <ele>1025.3833007812</ele>
        <time>2011-12-23T08:28:43Z</time>
      </trkpt>
      <trkpt lat="45.64696" lon="6.23858">
        <ele>1019.6154785156</ele>
        <time>2011-12-23T08:28:55Z</time>
      </trkpt>
      <trkpt lat="45.64696" lon="6.23857">
        <ele>1021.5380859375</ele>
        <time>2011-12-23T08:29:01Z</time>
      </trkpt>
      <trkpt lat="45.64696" lon="6.23855">
        <ele>1021.0576171875</ele>
        <time>2011-12-23T08:29:08Z</time>
      </trkpt>
      <trkpt lat="45.64697" lon="6.23856">
        <ele>1025.3833007812</ele>
        <time>2011-12-23T08:29:28Z</time>
      </trkpt>
      <trkpt lat="45.64695" lon="6.23853">
        <ele>1003.7536621094</ele>
        <time>2011-12-23T08:29:48Z</time>
      </trkpt>
      <trkpt lat="45.64692" lon="6.23849">
        <ele>1006.6376953125</ele>
        <time>2011-12-23T08:29:59Z</time>
      </trkpt>
      <trkpt lat="45.64693" lon="6.23851">
        <ele>1012.8862304688</ele>
        <time>2011-12-23T08:30:08Z</time>
      </trkpt>
      <trkpt lat="45.64692" lon="6.23854">
        <ele>1025.3833007812</ele>
        <time>2011-12-23T08:30:18Z</time>
      </trkpt>
      <trkpt lat="45.64694" lon="6.23855">
        <ele>1020.0961914062</ele>
        <time>2011-12-23T08:30:35Z</time>
      </trkpt>
      <trkpt lat="45.64695" lon="6.23855">
        <ele>1019.6154785156</ele>
        <time>2011-12-23T08:30:41Z</time>
      </trkpt>
      <trkpt lat="45.64695" lon="6.23855">
        <ele>1017.2121582031</ele>
        <time>2011-12-23T08:30:58Z</time>
      </trkpt>
      <trkpt lat="45.64695" lon="6.23855">
        <ele>1017.6926269531</ele>
        <time>2011-12-23T08:31:07Z</time>
      </trkpt>
      <trkpt lat="45.64695" lon="6.23858">
        <ele>1021.5380859375</ele>
        <time>2011-12-23T08:31:19Z</time>
      </trkpt>
      <trkpt lat="45.64695" lon="6.23861">
        <ele>1024.4221191406</ele>
        <time>2011-12-23T08:31:28Z</time>
      </trkpt>
      <trkpt lat="45.64697" lon="6.23864">
        <ele>1024.4221191406</ele>
        <time>2011-12-23T08:31:33Z</time>
      </trkpt>
      <trkpt lat="45.647" lon="6.23869">
        <ele>1025.8640136719</ele>
        <time>2011-12-23T08:31:39Z</time>
      </trkpt>
      <trkpt lat="45.64702" lon="6.23872">
        <ele>1026.3447265625</ele>
        <time>2011-12-23T08:31:45Z</time>
      </trkpt>
      <trkpt lat="45.64704" lon="6.23875">
        <ele>1026.8254394531</ele>
        <time>2011-12-23T08:31:50Z</time>
      </trkpt>
      <trkpt lat="45.64705" lon="6.23878">
        <ele>1028.2673339844</ele>
        <time>2011-12-23T08:31:57Z</time>
      </trkpt>
      <trkpt lat="45.64705" lon="6.23879">
        <ele>1030.1899414062</ele>
        <time>2011-12-23T08:32:02Z</time>
      </trkpt>
      <trkpt lat="45.64707" lon="6.2388">
        <ele>1034.5158691406</ele>
        <time>2011-12-23T08:32:13Z</time>
      </trkpt>
      <trkpt lat="45.64708" lon="6.23882">
        <ele>1035.4770507812</ele>
        <time>2011-12-23T08:32:19Z</time>
      </trkpt>
      <trkpt lat="45.64708" lon="6.23884">
        <ele>1040.2839355469</ele>
        <time>2011-12-23T08:32:21Z</time>
      </trkpt>
      <trkpt lat="45.6471" lon="6.23885">
        <ele>1037.8806152344</ele>
        <time>2011-12-23T08:32:30Z</time>
      </trkpt>
      <trkpt lat="45.64711" lon="6.23883">
        <ele>1032.5932617188</ele>
        <time>2011-12-23T08:32:42Z</time>
      </trkpt>
      <trkpt lat="45.64713" lon="6.23884">
        <ele>1031.1513671875</ele>
        <time>2011-12-23T08:32:47Z</time>
      </trkpt>
      <trkpt lat="45.64715" lon="6.23888">
        <ele>1030.6706542969</ele>
        <time>2011-12-23T08:32:52Z</time>
      </trkpt>
      <trkpt lat="45.64717" lon="6.23892">
        <ele>1033.5544433594</ele>
        <time>2011-12-23T08:32:58Z</time>
      </trkpt>
      <trkpt lat="45.6472" lon="6.23899">
        <ele>1038.361328125</ele>
        <time>2011-12-23T08:33:06Z</time>
      </trkpt>
      <trkpt lat="45.64721" lon="6.23904">
        <ele>1045.5710449219</ele>
        <time>2011-12-23T08:33:10Z</time>
      </trkpt>
      <trkpt lat="45.64721" lon="6.23909">
        <ele>1055.6650390625</ele>
        <time>2011-12-23T08:33:14Z</time>
      </trkpt>
      <trkpt lat="45.64722" lon="6.23914">
        <ele>1064.3166503906</ele>
        <time>2011-12-23T08:33:18Z</time>
      </trkpt>
      <trkpt lat="45.64722" lon="6.23914">
        <ele>1064.7973632812</ele>
        <time>2011-12-23T08:33:23Z</time>
      </trkpt>
      <trkpt lat="45.64722" lon="6.23913">
        <ele>1064.3166503906</ele>
        <time>2011-12-23T08:33:30Z</time>
      </trkpt>
      <trkpt lat="45.64721" lon="6.23918">
        <ele>1077.2946777344</ele>
        <time>2011-12-23T08:33:38Z</time>
      </trkpt>
      <trkpt lat="45.64722" lon="6.23916">
        <ele>1070.5654296875</ele>
        <time>2011-12-23T08:33:45Z</time>
      </trkpt>
      <trkpt lat="45.64724" lon="6.2392">
        <ele>1074.4106445312</ele>
        <time>2011-12-23T08:33:51Z</time>
      </trkpt>
      <trkpt lat="45.64726" lon="6.23921">
        <ele>1072.4880371094</ele>
        <time>2011-12-23T08:33:57Z</time>
      </trkpt>
      <trkpt lat="45.6473" lon="6.2392">
        <ele>1060.9521484375</ele>
        <time>2011-12-23T08:34:02Z</time>
      </trkpt>
      <trkpt lat="45.64736" lon="6.23923">
        <ele>1048.935546875</ele>
        <time>2011-12-23T08:34:12Z</time>
      </trkpt>
      <trkpt lat="45.64739" lon="6.23926">
        <ele>1048.935546875</ele>
        <time>2011-12-23T08:34:17Z</time>
      </trkpt>
      <trkpt lat="45.64743" lon="6.23929">
        <ele>1047.4936523438</ele>
        <time>2011-12-23T08:34:23Z</time>
      </trkpt>
      <trkpt lat="45.64745" lon="6.23934">
        <ele>1050.8581542969</ele>
        <time>2011-12-23T08:34:29Z</time>
      </trkpt>
      <trkpt lat="45.64749" lon="6.23936">
        <ele>1047.0129394531</ele>
        <time>2011-12-23T08:34:35Z</time>
      </trkpt>
      <trkpt lat="45.64753" lon="6.23942">
        <ele>1046.5324707031</ele>
        <time>2011-12-23T08:34:43Z</time>
      </trkpt>
      <trkpt lat="45.64755" lon="6.23945">
        <ele>1042.2065429688</ele>
        <time>2011-12-23T08:34:48Z</time>
      </trkpt>
      <trkpt lat="45.64756" lon="6.23949">
        <ele>1039.3225097656</ele>
        <time>2011-12-23T08:34:53Z</time>
      </trkpt>
      <trkpt lat="45.64758" lon="6.23954">
        <ele>1038.8420410156</ele>
        <time>2011-12-23T08:34:58Z</time>
      </trkpt>
      <trkpt lat="45.64758" lon="6.23962">
        <ele>1039.8032226562</ele>
        <time>2011-12-23T08:35:06Z</time>
      </trkpt>
      <trkpt lat="45.64758" lon="6.23967">
        <ele>1039.8032226562</ele>
        <time>2011-12-23T08:35:12Z</time>
      </trkpt>
      <trkpt lat="45.64759" lon="6.23971">
        <ele>1040.7644042969</ele>
        <time>2011-12-23T08:35:16Z</time>
      </trkpt>
      <trkpt lat="45.6476" lon="6.23977">
        <ele>1041.2451171875</ele>
        <time>2011-12-23T08:35:23Z</time>
      </trkpt>
      <trkpt lat="45.64761" lon="6.2398">
        <ele>1040.7644042969</ele>
        <time>2011-12-23T08:35:28Z</time>
      </trkpt>
      <trkpt lat="45.64763" lon="6.23983">
        <ele>1040.7644042969</ele>
        <time>2011-12-23T08:35:34Z</time>
      </trkpt>
      <trkpt lat="45.64767" lon="6.23985">
        <ele>1040.7644042969</ele>
        <time>2011-12-23T08:35:41Z</time>
      </trkpt>
      <trkpt lat="45.64766" lon="6.23986">
        <ele>1038.8420410156</ele>
        <time>2011-12-23T08:35:48Z</time>
      </trkpt>
      <trkpt lat="45.64766" lon="6.23985">
        <ele>1037.8806152344</ele>
        <time>2011-12-23T08:35:51Z</time>
      </trkpt>
      <trkpt lat="45.64765" lon="6.23985">
        <ele>1036.4387207031</ele>
        <time>2011-12-23T08:36:01Z</time>
      </trkpt>
      <trkpt lat="45.64765" lon="6.23985">
        <ele>1035.9577636719</ele>
        <time>2011-12-23T08:36:04Z</time>
      </trkpt>
      <trkpt lat="45.64766" lon="6.23984">
        <ele>1033.0737304688</ele>
        <time>2011-12-23T08:36:18Z</time>
      </trkpt>
      <trkpt lat="45.64765" lon="6.23984">
        <ele>1031.6318359375</ele>
        <time>2011-12-23T08:36:23Z</time>
      </trkpt>
      <trkpt lat="45.64765" lon="6.23985">
        <ele>1031.1513671875</ele>
        <time>2011-12-23T08:36:25Z</time>
      </trkpt>
      <trkpt lat="45.64765" lon="6.23985">
        <ele>1030.6706542969</ele>
        <time>2011-12-23T08:36:29Z</time>
      </trkpt>
      <trkpt lat="45.64767" lon="6.23984">
        <ele>1030.1899414062</ele>
        <time>2011-12-23T08:36:36Z</time>
      </trkpt>
      <trkpt lat="45.64768" lon="6.23984">
        <ele>1030.1899414062</ele>
        <time>2011-12-23T08:36:39Z</time>
      </trkpt>
      <trkpt lat="45.64771" lon="6.23984">
        <ele>1030.6706542969</ele>
        <time>2011-12-23T08:36:45Z</time>
      </trkpt>
      <trkpt lat="45.64771" lon="6.23987">
        <ele>1036.9191894531</ele>
        <time>2011-12-23T08:36:51Z</time>
      </trkpt>
      <trkpt lat="45.64772" lon="6.23985">
        <ele>1039.8032226562</ele>
        <time>2011-12-23T08:37:00Z</time>
      </trkpt>
      <trkpt lat="45.64772" lon="6.23983">
        <ele>1039.8032226562</ele>
        <time>2011-12-23T08:37:07Z</time>
      </trkpt>
      <trkpt lat="45.64773" lon="6.23983">
        <ele>1043.6484375</ele>
        <time>2011-12-23T08:37:16Z</time>
      </trkpt>
      <trkpt lat="45.64772" lon="6.23988">
        <ele>1059.5102539062</ele>
        <time>2011-12-23T08:37:25Z</time>
      </trkpt>
      <trkpt lat="45.64774" lon="6.23988">
        <ele>1059.9907226562</ele>
        <time>2011-12-23T08:37:29Z</time>
      </trkpt>
      <trkpt lat="45.64774" lon="6.23989">
        <ele>1060.9521484375</ele>
        <time>2011-12-23T08:37:31Z</time>
      </trkpt>
      <trkpt lat="45.64771" lon="6.23999">
        <ele>1083.54296875</ele>
        <time>2011-12-23T08:37:39Z</time>
      </trkpt>
      <trkpt lat="45.64774" lon="6.24">
        <ele>1084.0239257812</ele>
        <time>2011-12-23T08:37:47Z</time>
      </trkpt>
      <trkpt lat="45.64775" lon="6.23994">
        <ele>1068.6428222656</ele>
        <time>2011-12-23T08:38:03Z</time>
      </trkpt>
      <trkpt lat="45.64777" lon="6.23992">
        <ele>1062.3940429688</ele>
        <time>2011-12-23T08:38:07Z</time>
      </trkpt>
      <trkpt lat="45.64778" lon="6.2399">
        <ele>1053.26171875</ele>
        <time>2011-12-23T08:38:14Z</time>
      </trkpt>
      <trkpt lat="45.6478" lon="6.23985">
        <ele>1036.4387207031</ele>
        <time>2011-12-23T08:38:32Z</time>
      </trkpt>
      <trkpt lat="45.64781" lon="6.23985">
        <ele>1034.9965820312</ele>
        <time>2011-12-23T08:38:43Z</time>
      </trkpt>
      <trkpt lat="45.64782" lon="6.23988">
        <ele>1043.6484375</ele>
        <time>2011-12-23T08:38:51Z</time>
      </trkpt>
      <trkpt lat="45.64784" lon="6.23988">
        <ele>1045.0903320312</ele>
        <time>2011-12-23T08:38:56Z</time>
      </trkpt>
      <trkpt lat="45.64786" lon="6.23988">
        <ele>1045.0903320312</ele>
        <time>2011-12-23T08:39:01Z</time>
      </trkpt>
      <trkpt lat="45.64786" lon="6.23987">
        <ele>1044.1291503906</ele>
        <time>2011-12-23T08:39:08Z</time>
      </trkpt>
      <trkpt lat="45.64788" lon="6.23985">
        <ele>1041.2451171875</ele>
        <time>2011-12-23T08:39:14Z</time>
      </trkpt>
      <trkpt lat="45.64791" lon="6.23986">
        <ele>1037.8806152344</ele>
        <time>2011-12-23T08:39:20Z</time>
      </trkpt>
      <trkpt lat="45.64794" lon="6.23989">
        <ele>1035.9577636719</ele>
        <time>2011-12-23T08:39:26Z</time>
      </trkpt>
      <trkpt lat="45.64797" lon="6.23991">
        <ele>1038.361328125</ele>
        <time>2011-12-23T08:39:33Z</time>
      </trkpt>
      <trkpt lat="45.64799" lon="6.23993">
        <ele>1041.7258300781</ele>
        <time>2011-12-23T08:39:39Z</time>
      </trkpt>
      <trkpt lat="45.64797" lon="6.24001">
        <ele>1053.26171875</ele>
        <time>2011-12-23T08:39:56Z</time>
      </trkpt>
      <trkpt lat="45.64799" lon="6.24003">
        <ele>1055.6650390625</ele>
        <time>2011-12-23T08:40:02Z</time>
      </trkpt>
      <trkpt lat="45.64802" lon="6.24002">
        <ele>1052.7810058594</ele>
        <time>2011-12-23T08:40:09Z</time>
      </trkpt>
      <trkpt lat="45.64804" lon="6.24006">
        <ele>1057.5876464844</ele>
        <time>2011-12-23T08:40:14Z</time>
      </trkpt>
      <trkpt lat="45.64806" lon="6.24006">
        <ele>1059.9907226562</ele>
        <time>2011-12-23T08:40:20Z</time>
      </trkpt>
      <trkpt lat="45.64808" lon="6.24006">
        <ele>1058.548828125</ele>
        <time>2011-12-23T08:40:25Z</time>
      </trkpt>
      <trkpt lat="45.64812" lon="6.24006">
        <ele>1050.3776855469</ele>
        <time>2011-12-23T08:40:31Z</time>
      </trkpt>
      <trkpt lat="45.64817" lon="6.24009">
        <ele>1054.7036132812</ele>
        <time>2011-12-23T08:40:41Z</time>
      </trkpt>
      <trkpt lat="45.64818" lon="6.24012">
        <ele>1059.5102539062</ele>
        <time>2011-12-23T08:40:49Z</time>
      </trkpt>
      <trkpt lat="45.64819" lon="6.24015">
        <ele>1065.7587890625</ele>
        <time>2011-12-23T08:40:54Z</time>
      </trkpt>
      <trkpt lat="45.64819" lon="6.24018">
        <ele>1072.96875</ele>
        <time>2011-12-23T08:41:01Z</time>
      </trkpt>
      <trkpt lat="45.6482" lon="6.24021">
        <ele>1075.3718261719</ele>
        <time>2011-12-23T08:41:09Z</time>
      </trkpt>
      <trkpt lat="45.64825" lon="6.2402">
        <ele>1071.0461425781</ele>
        <time>2011-12-23T08:41:20Z</time>
      </trkpt>
      <trkpt lat="45.64827" lon="6.24021">
        <ele>1071.0461425781</ele>
        <time>2011-12-23T08:41:26Z</time>
      </trkpt>
      <trkpt lat="45.64832" lon="6.2402">
        <ele>1075.8525390625</ele>
        <time>2011-12-23T08:41:36Z</time>
      </trkpt>
      <trkpt lat="45.64839" lon="6.24019">
        <ele>1074.4106445312</ele>
        <time>2011-12-23T08:42:01Z</time>
      </trkpt>
      <trkpt lat="45.64839" lon="6.24019">
        <ele>1070.5654296875</ele>
        <time>2011-12-23T08:42:06Z</time>
      </trkpt>
      <trkpt lat="45.64843" lon="6.2402">
        <ele>1069.1235351562</ele>
        <time>2011-12-23T08:42:15Z</time>
      </trkpt>
      <trkpt lat="45.64847" lon="6.24024">
        <ele>1077.2946777344</ele>
        <time>2011-12-23T08:42:26Z</time>
      </trkpt>
      <trkpt lat="45.64848" lon="6.24028">
        <ele>1084.9853515625</ele>
        <time>2011-12-23T08:42:36Z</time>
      </trkpt>
      <trkpt lat="45.64848" lon="6.24033">
        <ele>1093.6369628906</ele>
        <time>2011-12-23T08:42:44Z</time>
      </trkpt>
      <trkpt lat="45.64867" lon="6.24042">
        <ele>1088.8305664062</ele>
        <time>2011-12-23T08:43:22Z</time>
      </trkpt>
      <trkpt lat="45.64872" lon="6.2404">
        <ele>1079.6977539062</ele>
        <time>2011-12-23T08:43:34Z</time>
      </trkpt>
      <trkpt lat="45.64874" lon="6.24041">
        <ele>1081.6203613281</ele>
        <time>2011-12-23T08:43:40Z</time>
      </trkpt>
      <trkpt lat="45.64877" lon="6.24042">
        <ele>1080.1784667969</ele>
        <time>2011-12-23T08:43:47Z</time>
      </trkpt>
      <trkpt lat="45.64878" lon="6.24045">
        <ele>1080.6591796875</ele>
        <time>2011-12-23T08:43:53Z</time>
      </trkpt>
      <trkpt lat="45.6488" lon="6.24047">
        <ele>1084.0239257812</ele>
        <time>2011-12-23T08:43:59Z</time>
      </trkpt>
      <trkpt lat="45.64881" lon="6.24047">
        <ele>1084.0239257812</ele>
        <time>2011-12-23T08:44:04Z</time>
      </trkpt>
      <trkpt lat="45.64884" lon="6.2405">
        <ele>1082.5817871094</ele>
        <time>2011-12-23T08:44:10Z</time>
      </trkpt>
      <trkpt lat="45.64884" lon="6.24052">
        <ele>1101.3276367188</ele>
        <time>2011-12-23T08:44:25Z</time>
      </trkpt>
      <trkpt lat="45.64885" lon="6.24055">
        <ele>1120.0732421875</ele>
        <time>2011-12-23T08:44:35Z</time>
      </trkpt>
      <trkpt lat="45.64884" lon="6.24059">
        <ele>1127.763671875</ele>
        <time>2011-12-23T08:44:42Z</time>
      </trkpt>
      <trkpt lat="45.64883" lon="6.24058">
        <ele>1124.8798828125</ele>
        <time>2011-12-23T08:44:49Z</time>
      </trkpt>
      <trkpt lat="45.64884" lon="6.24054">
        <ele>1114.3051757812</ele>
        <time>2011-12-23T08:44:56Z</time>
      </trkpt>
      <trkpt lat="45.64885" lon="6.24051">
        <ele>1106.6147460938</ele>
        <time>2011-12-23T08:45:02Z</time>
      </trkpt>
      <trkpt lat="45.64885" lon="6.24043">
        <ele>1085.9465332031</ele>
        <time>2011-12-23T08:45:16Z</time>
      </trkpt>
      <trkpt lat="45.64886" lon="6.24045">
        <ele>1082.1010742188</ele>
        <time>2011-12-23T08:45:22Z</time>
      </trkpt>
      <trkpt lat="45.6489" lon="6.24048">
        <ele>1080.1784667969</ele>
        <time>2011-12-23T08:45:28Z</time>
      </trkpt>
      <trkpt lat="45.64891" lon="6.24051">
        <ele>1079.6977539062</ele>
        <time>2011-12-23T08:45:33Z</time>
      </trkpt>
      <trkpt lat="45.64893" lon="6.24052">
        <ele>1084.0239257812</ele>
        <time>2011-12-23T08:45:39Z</time>
      </trkpt>
      <trkpt lat="45.64894" lon="6.24052">
        <ele>1084.5046386719</ele>
        <time>2011-12-23T08:45:45Z</time>
      </trkpt>
      <trkpt lat="45.64896" lon="6.24055">
        <ele>1084.9853515625</ele>
        <time>2011-12-23T08:45:55Z</time>
      </trkpt>
      <trkpt lat="45.64901" lon="6.24063">
        <ele>1095.5595703125</ele>
        <time>2011-12-23T08:46:07Z</time>
      </trkpt>
      <trkpt lat="45.64905" lon="6.24068">
        <ele>1105.6535644531</ele>
        <time>2011-12-23T08:46:14Z</time>
      </trkpt>
      <trkpt lat="45.64909" lon="6.24069">
        <ele>1101.8083496094</ele>
        <time>2011-12-23T08:46:22Z</time>
      </trkpt>
      <trkpt lat="45.64911" lon="6.24073">
        <ele>1102.76953125</ele>
        <time>2011-12-23T08:46:29Z</time>
      </trkpt>
      <trkpt lat="45.64916" lon="6.24071">
        <ele>1096.0402832031</ele>
        <time>2011-12-23T08:46:39Z</time>
      </trkpt>
      <trkpt lat="45.64928" lon="6.24077">
        <ele>1099.4047851562</ele>
        <time>2011-12-23T08:47:06Z</time>
      </trkpt>
      <trkpt lat="45.6493" lon="6.24074">
        <ele>1097.4821777344</ele>
        <time>2011-12-23T08:47:11Z</time>
      </trkpt>
      <trkpt lat="45.64933" lon="6.24072">
        <ele>1097.0014648438</ele>
        <time>2011-12-23T08:47:18Z</time>
      </trkpt>
      <trkpt lat="45.64937" lon="6.24076">
        <ele>1097.962890625</ele>
        <time>2011-12-23T08:47:32Z</time>
      </trkpt>
      <trkpt lat="45.64943" lon="6.24075">
        <ele>1091.7143554688</ele>
        <time>2011-12-23T08:47:42Z</time>
      </trkpt>
      <trkpt lat="45.64946" lon="6.2408">
        <ele>1093.6369628906</ele>
        <time>2011-12-23T08:47:48Z</time>
      </trkpt>
      <trkpt lat="45.64949" lon="6.24085">
        <ele>1098.443359375</ele>
        <time>2011-12-23T08:47:53Z</time>
      </trkpt>
      <trkpt lat="45.64955" lon="6.24099">
        <ele>1121.9958496094</ele>
        <time>2011-12-23T08:48:07Z</time>
      </trkpt>
      <trkpt lat="45.64957" lon="6.24102">
        <ele>1121.0346679688</ele>
        <time>2011-12-23T08:48:17Z</time>
      </trkpt>
      <trkpt lat="45.64959" lon="6.24103">
        <ele>1119.1120605469</ele>
        <time>2011-12-23T08:48:22Z</time>
      </trkpt>
      <trkpt lat="45.64964" lon="6.24102">
        <ele>1111.9020996094</ele>
        <time>2011-12-23T08:48:28Z</time>
      </trkpt>
      <trkpt lat="45.64966" lon="6.24105">
        <ele>1109.0180664062</ele>
        <time>2011-12-23T08:48:33Z</time>
      </trkpt>
      <trkpt lat="45.64971" lon="6.24105">
        <ele>1101.3276367188</ele>
        <time>2011-12-23T08:48:40Z</time>
      </trkpt>
      <trkpt lat="45.64973" lon="6.24104">
        <ele>1098.9240722656</ele>
        <time>2011-12-23T08:48:52Z</time>
      </trkpt>
      <trkpt lat="45.64974" lon="6.24103">
        <ele>1097.962890625</ele>
        <time>2011-12-23T08:48:56Z</time>
      </trkpt>
      <trkpt lat="45.64976" lon="6.241">
        <ele>1094.5981445312</ele>
        <time>2011-12-23T08:49:10Z</time>
      </trkpt>
      <trkpt lat="45.64978" lon="6.24099">
        <ele>1093.15625</ele>
        <time>2011-12-23T08:49:14Z</time>
      </trkpt>
      <trkpt lat="45.64984" lon="6.24098">
        <ele>1094.1176757812</ele>
        <time>2011-12-23T08:49:25Z</time>
      </trkpt>
      <trkpt lat="45.64989" lon="6.24097">
        <ele>1091.2336425781</ele>
        <time>2011-12-23T08:49:33Z</time>
      </trkpt>
      <trkpt lat="45.64992" lon="6.24096">
        <ele>1091.7143554688</ele>
        <time>2011-12-23T08:49:37Z</time>
      </trkpt>
      <trkpt lat="45.64996" lon="6.24095">
        <ele>1092.67578125</ele>
        <time>2011-12-23T08:49:42Z</time>
      </trkpt>
      <trkpt lat="45.64999" lon="6.24096">
        <ele>1093.6369628906</ele>
        <time>2011-12-23T08:49:48Z</time>
      </trkpt>
      <trkpt lat="45.65003" lon="6.24095">
        <ele>1095.5595703125</ele>
        <time>2011-12-23T08:49:54Z</time>
      </trkpt>
      <trkpt lat="45.65007" lon="6.24095">
        <ele>1097.4821777344</ele>
        <time>2011-12-23T08:50:04Z</time>
      </trkpt>
      <trkpt lat="45.65008" lon="6.24095">
        <ele>1096.0402832031</ele>
        <time>2011-12-23T08:50:07Z</time>
      </trkpt>
      <trkpt lat="45.6501" lon="6.24095">
        <ele>1095.0788574219</ele>
        <time>2011-12-23T08:50:13Z</time>
      </trkpt>
      <trkpt lat="45.6501" lon="6.24096">
        <ele>1101.8083496094</ele>
        <time>2011-12-23T08:50:18Z</time>
      </trkpt>
      <trkpt lat="45.65012" lon="6.24095">
        <ele>1108.0568847656</ele>
        <time>2011-12-23T08:50:26Z</time>
      </trkpt>
      <trkpt lat="45.65015" lon="6.24093">
        <ele>1107.0954589844</ele>
        <time>2011-12-23T08:50:33Z</time>
      </trkpt>
      <trkpt lat="45.65018" lon="6.24092">
        <ele>1109.0180664062</ele>
        <time>2011-12-23T08:50:38Z</time>
      </trkpt>
      <trkpt lat="45.65021" lon="6.24088">
        <ele>1106.6147460938</ele>
        <time>2011-12-23T08:50:44Z</time>
      </trkpt>
      <trkpt lat="45.65023" lon="6.24085">
        <ele>1106.1340332031</ele>
        <time>2011-12-23T08:50:48Z</time>
      </trkpt>
      <trkpt lat="45.65026" lon="6.24083">
        <ele>1105.1728515625</ele>
        <time>2011-12-23T08:50:53Z</time>
      </trkpt>
      <trkpt lat="45.65028" lon="6.24082">
        <ele>1105.6535644531</ele>
        <time>2011-12-23T08:50:56Z</time>
      </trkpt>
      <trkpt lat="45.65031" lon="6.2408">
        <ele>1106.6147460938</ele>
        <time>2011-12-23T08:50:59Z</time>
      </trkpt>
      <trkpt lat="45.65031" lon="6.24079">
        <ele>1110.4599609375</ele>
        <time>2011-12-23T08:51:05Z</time>
      </trkpt>
      <trkpt lat="45.65034" lon="6.24079">
        <ele>1106.1340332031</ele>
        <time>2011-12-23T08:51:18Z</time>
      </trkpt>
      <trkpt lat="45.65036" lon="6.24075">
        <ele>1099.4047851562</ele>
        <time>2011-12-23T08:51:28Z</time>
      </trkpt>
      <trkpt lat="45.65038" lon="6.24072">
        <ele>1096.0402832031</ele>
        <time>2011-12-23T08:51:34Z</time>
      </trkpt>
      <trkpt lat="45.6504" lon="6.24068">
        <ele>1088.8305664062</ele>
        <time>2011-12-23T08:51:39Z</time>
      </trkpt>
      <trkpt lat="45.65043" lon="6.24067">
        <ele>1086.9077148438</ele>
        <time>2011-12-23T08:51:44Z</time>
      </trkpt>
      <trkpt lat="45.65046" lon="6.24069">
        <ele>1089.7917480469</ele>
        <time>2011-12-23T08:51:49Z</time>
      </trkpt>
      <trkpt lat="45.6505" lon="6.24071">
        <ele>1092.1950683594</ele>
        <time>2011-12-23T08:51:55Z</time>
      </trkpt>
      <trkpt lat="45.65053" lon="6.24075">
        <ele>1090.2724609375</ele>
        <time>2011-12-23T08:51:59Z</time>
      </trkpt>
      <trkpt lat="45.65056" lon="6.24079">
        <ele>1093.6369628906</ele>
        <time>2011-12-23T08:52:04Z</time>
      </trkpt>
      <trkpt lat="45.65059" lon="6.24083">
        <ele>1101.8083496094</ele>
        <time>2011-12-23T08:52:10Z</time>
      </trkpt>
      <trkpt lat="45.65062" lon="6.24089">
        <ele>1111.4213867188</ele>
        <time>2011-12-23T08:52:17Z</time>
      </trkpt>
      <trkpt lat="45.65068" lon="6.24089">
        <ele>1107.0954589844</ele>
        <time>2011-12-23T08:52:25Z</time>
      </trkpt>
      <trkpt lat="45.6507" lon="6.24091">
        <ele>1109.4987792969</ele>
        <time>2011-12-23T08:52:31Z</time>
      </trkpt>
      <trkpt lat="45.65073" lon="6.24092">
        <ele>1107.0954589844</ele>
        <time>2011-12-23T08:52:35Z</time>
      </trkpt>
      <trkpt lat="45.65074" lon="6.24096">
        <ele>1107.576171875</ele>
        <time>2011-12-23T08:52:40Z</time>
      </trkpt>
      <trkpt lat="45.65077" lon="6.24099">
        <ele>1107.0954589844</ele>
        <time>2011-12-23T08:52:48Z</time>
      </trkpt>
      <trkpt lat="45.6508" lon="6.24106">
        <ele>1109.9792480469</ele>
        <time>2011-12-23T08:52:56Z</time>
      </trkpt>
      <trkpt lat="45.65083" lon="6.24109">
        <ele>1111.9020996094</ele>
        <time>2011-12-23T08:53:01Z</time>
      </trkpt>
      <trkpt lat="45.65089" lon="6.24115">
        <ele>1118.1506347656</ele>
        <time>2011-12-23T08:53:12Z</time>
      </trkpt>
      <trkpt lat="45.65091" lon="6.2412">
        <ele>1114.7858886719</ele>
        <time>2011-12-23T08:53:21Z</time>
      </trkpt>
      <trkpt lat="45.65094" lon="6.24118">
        <ele>1117.669921875</ele>
        <time>2011-12-23T08:53:34Z</time>
      </trkpt>
      <trkpt lat="45.65102" lon="6.2412">
        <ele>1121.9958496094</ele>
        <time>2011-12-23T08:53:48Z</time>
      </trkpt>
      <trkpt lat="45.65106" lon="6.24123">
        <ele>1122.4765625</ele>
        <time>2011-12-23T08:53:54Z</time>
      </trkpt>
      <trkpt lat="45.65109" lon="6.24121">
        <ele>1118.1506347656</ele>
        <time>2011-12-23T08:53:58Z</time>
      </trkpt>
      <trkpt lat="45.65112" lon="6.24119">
        <ele>1114.7858886719</ele>
        <time>2011-12-23T08:54:02Z</time>
      </trkpt>
      <trkpt lat="45.65118" lon="6.24119">
        <ele>1109.0180664062</ele>
        <time>2011-12-23T08:54:10Z</time>
      </trkpt>
      <trkpt lat="45.65121" lon="6.24117">
        <ele>1109.0180664062</ele>
        <time>2011-12-23T08:54:16Z</time>
      </trkpt>
      <trkpt lat="45.65123" lon="6.24117">
        <ele>1107.576171875</ele>
        <time>2011-12-23T08:54:30Z</time>
      </trkpt>
      <trkpt lat="45.65121" lon="6.24121">
        <ele>1112.86328125</ele>
        <time>2011-12-23T08:54:40Z</time>
      </trkpt>
      <trkpt lat="45.65121" lon="6.24121">
        <ele>1119.1120605469</ele>
        <time>2011-12-23T08:54:46Z</time>
      </trkpt>
      <trkpt lat="45.65123" lon="6.24119">
        <ele>1121.0346679688</ele>
        <time>2011-12-23T08:54:50Z</time>
      </trkpt>
      <trkpt lat="45.65124" lon="6.24114">
        <ele>1121.5151367188</ele>
        <time>2011-12-23T08:54:55Z</time>
      </trkpt>
      <trkpt lat="45.65127" lon="6.24112">
        <ele>1119.5927734375</ele>
        <time>2011-12-23T08:54:59Z</time>
      </trkpt>
      <trkpt lat="45.65135" lon="6.24113">
        <ele>1118.1506347656</ele>
        <time>2011-12-23T08:55:12Z</time>
      </trkpt>
      <trkpt lat="45.65138" lon="6.24114">
        <ele>1118.6313476562</ele>
        <time>2011-12-23T08:55:17Z</time>
      </trkpt>
      <trkpt lat="45.65141" lon="6.24115">
        <ele>1119.1120605469</ele>
        <time>2011-12-23T08:55:21Z</time>
      </trkpt>
      <trkpt lat="45.65142" lon="6.24117">
        <ele>1119.1120605469</ele>
        <time>2011-12-23T08:55:25Z</time>
      </trkpt>
      <trkpt lat="45.65145" lon="6.24119">
        <ele>1118.6313476562</ele>
        <time>2011-12-23T08:55:29Z</time>
      </trkpt>
      <trkpt lat="45.6515" lon="6.24121">
        <ele>1116.7087402344</ele>
        <time>2011-12-23T08:55:35Z</time>
      </trkpt>
      <trkpt lat="45.65153" lon="6.24124">
        <ele>1115.7473144531</ele>
        <time>2011-12-23T08:55:40Z</time>
      </trkpt>
      <trkpt lat="45.65156" lon="6.24126">
        <ele>1115.7473144531</ele>
        <time>2011-12-23T08:55:44Z</time>
      </trkpt>
      <trkpt lat="45.65159" lon="6.24128">
        <ele>1117.189453125</ele>
        <time>2011-12-23T08:55:49Z</time>
      </trkpt>
      <trkpt lat="45.65163" lon="6.24129">
        <ele>1116.2280273438</ele>
        <time>2011-12-23T08:55:54Z</time>
      </trkpt>
      <trkpt lat="45.65165" lon="6.24132">
        <ele>1117.669921875</ele>
        <time>2011-12-23T08:55:59Z</time>
      </trkpt>
      <trkpt lat="45.65168" lon="6.24133">
        <ele>1117.189453125</ele>
        <time>2011-12-23T08:56:06Z</time>
      </trkpt>
      <trkpt lat="45.65171" lon="6.24134">
        <ele>1118.1506347656</ele>
        <time>2011-12-23T08:56:14Z</time>
      </trkpt>
      <trkpt lat="45.65173" lon="6.24134">
        <ele>1117.669921875</ele>
        <time>2011-12-23T08:56:20Z</time>
      </trkpt>
      <trkpt lat="45.65175" lon="6.24134">
        <ele>1118.1506347656</ele>
        <time>2011-12-23T08:56:25Z</time>
      </trkpt>
      <trkpt lat="45.65177" lon="6.24134">
        <ele>1119.5927734375</ele>
        <time>2011-12-23T08:56:31Z</time>
      </trkpt>
      <trkpt lat="45.65179" lon="6.24133">
        <ele>1120.5539550781</ele>
        <time>2011-12-23T08:56:37Z</time>
      </trkpt>
      <trkpt lat="45.65181" lon="6.24132">
        <ele>1121.0346679688</ele>
        <time>2011-12-23T08:56:42Z</time>
      </trkpt>
      <trkpt lat="45.65184" lon="6.2413">
        <ele>1121.5151367188</ele>
        <time>2011-12-23T08:56:47Z</time>
      </trkpt>
      <trkpt lat="45.65184" lon="6.24132">
        <ele>1120.5539550781</ele>
        <time>2011-12-23T08:57:06Z</time>
      </trkpt>
      <trkpt lat="45.65184" lon="6.24132">
        <ele>1121.5151367188</ele>
        <time>2011-12-23T08:57:19Z</time>
      </trkpt>
      <trkpt lat="45.65184" lon="6.24131">
        <ele>1121.0346679688</ele>
        <time>2011-12-23T08:57:26Z</time>
      </trkpt>
      <trkpt lat="45.65185" lon="6.24131">
        <ele>1120.0732421875</ele>
        <time>2011-12-23T08:57:31Z</time>
      </trkpt>
      <trkpt lat="45.65186" lon="6.2413">
        <ele>1121.0346679688</ele>
        <time>2011-12-23T08:57:38Z</time>
      </trkpt>
      <trkpt lat="45.65189" lon="6.24129">
        <ele>1121.0346679688</ele>
        <time>2011-12-23T08:57:43Z</time>
      </trkpt>
      <trkpt lat="45.65191" lon="6.24127">
        <ele>1121.9958496094</ele>
        <time>2011-12-23T08:57:49Z</time>
      </trkpt>
      <trkpt lat="45.65194" lon="6.24124">
        <ele>1122.4765625</ele>
        <time>2011-12-23T08:57:55Z</time>
      </trkpt>
      <trkpt lat="45.65196" lon="6.24122">
        <ele>1122.4765625</ele>
        <time>2011-12-23T08:58:00Z</time>
      </trkpt>
      <trkpt lat="45.65199" lon="6.2412">
        <ele>1122.4765625</ele>
        <time>2011-12-23T08:58:07Z</time>
      </trkpt>
      <trkpt lat="45.652" lon="6.24117">
        <ele>1122.4765625</ele>
        <time>2011-12-23T08:58:12Z</time>
      </trkpt>
      <trkpt lat="45.65202" lon="6.24117">
        <ele>1122.9572753906</ele>
        <time>2011-12-23T08:58:17Z</time>
      </trkpt>
      <trkpt lat="45.65202" lon="6.24117">
        <ele>1121.5151367188</ele>
        <time>2011-12-23T08:58:26Z</time>
      </trkpt>
      <trkpt lat="45.65203" lon="6.2412">
        <ele>1122.4765625</ele>
        <time>2011-12-23T08:58:40Z</time>
      </trkpt>
      <trkpt lat="45.65203" lon="6.24123">
        <ele>1129.2055664062</ele>
        <time>2011-12-23T08:58:51Z</time>
      </trkpt>
      <trkpt lat="45.65205" lon="6.24125">
        <ele>1137.8576660156</ele>
        <time>2011-12-23T08:58:56Z</time>
      </trkpt>
      <trkpt lat="45.65207" lon="6.24124">
        <ele>1142.18359375</ele>
        <time>2011-12-23T08:59:02Z</time>
      </trkpt>
      <trkpt lat="45.65208" lon="6.24122">
        <ele>1139.7802734375</ele>
        <time>2011-12-23T08:59:07Z</time>
      </trkpt>
      <trkpt lat="45.6521" lon="6.24118">
        <ele>1136.8962402344</ele>
        <time>2011-12-23T08:59:13Z</time>
      </trkpt>
      <trkpt lat="45.65213" lon="6.24115">
        <ele>1133.5317382812</ele>
        <time>2011-12-23T08:59:18Z</time>
      </trkpt>
      <trkpt lat="45.65215" lon="6.24115">
        <ele>1132.08984375</ele>
        <time>2011-12-23T08:59:22Z</time>
      </trkpt>
      <trkpt lat="45.65219" lon="6.24112">
        <ele>1130.1669921875</ele>
        <time>2011-12-23T08:59:30Z</time>
      </trkpt>
      <trkpt lat="45.65222" lon="6.24108">
        <ele>1126.3217773438</ele>
        <time>2011-12-23T08:59:36Z</time>
      </trkpt>
      <trkpt lat="45.65225" lon="6.24108">
        <ele>1126.8024902344</ele>
        <time>2011-12-23T08:59:43Z</time>
      </trkpt>
      <trkpt lat="45.6523" lon="6.24104">
        <ele>1130.1669921875</ele>
        <time>2011-12-23T08:59:52Z</time>
      </trkpt>
      <trkpt lat="45.65232" lon="6.24103">
        <ele>1131.1284179688</ele>
        <time>2011-12-23T08:59:56Z</time>
      </trkpt>
      <trkpt lat="45.65234" lon="6.24101">
        <ele>1131.1284179688</ele>
        <time>2011-12-23T09:00:00Z</time>
      </trkpt>
      <trkpt lat="45.65236" lon="6.24099">
        <ele>1129.2055664062</ele>
        <time>2011-12-23T09:00:21Z</time>
      </trkpt>
      <trkpt lat="45.65237" lon="6.241">
        <ele>1133.5317382812</ele>
        <time>2011-12-23T09:00:31Z</time>
      </trkpt>
      <trkpt lat="45.65238" lon="6.24102">
        <ele>1139.7802734375</ele>
        <time>2011-12-23T09:00:34Z</time>
      </trkpt>
      <trkpt lat="45.65237" lon="6.24103">
        <ele>1144.5866699219</ele>
        <time>2011-12-23T09:00:43Z</time>
      </trkpt>
      <trkpt lat="45.65237" lon="6.241">
        <ele>1143.6254882812</ele>
        <time>2011-12-23T09:00:50Z</time>
      </trkpt>
      <trkpt lat="45.6524" lon="6.24096">
        <ele>1139.7802734375</ele>
        <time>2011-12-23T09:00:55Z</time>
      </trkpt>
      <trkpt lat="45.65242" lon="6.24095">
        <ele>1138.3383789062</ele>
        <time>2011-12-23T09:00:59Z</time>
      </trkpt>
      <trkpt lat="45.65244" lon="6.24093">
        <ele>1137.8576660156</ele>
        <time>2011-12-23T09:01:04Z</time>
      </trkpt>
      <trkpt lat="45.65247" lon="6.2409">
        <ele>1136.8962402344</ele>
        <time>2011-12-23T09:01:12Z</time>
      </trkpt>
      <trkpt lat="45.65252" lon="6.24086">
        <ele>1138.8190917969</ele>
        <time>2011-12-23T09:01:23Z</time>
      </trkpt>
      <trkpt lat="45.65254" lon="6.24084">
        <ele>1138.3383789062</ele>
        <time>2011-12-23T09:01:27Z</time>
      </trkpt>
      <trkpt lat="45.65258" lon="6.24084">
        <ele>1137.376953125</ele>
        <time>2011-12-23T09:01:32Z</time>
      </trkpt>
      <trkpt lat="45.65259" lon="6.24086">
        <ele>1139.7802734375</ele>
        <time>2011-12-23T09:02:03Z</time>
      </trkpt>
      <trkpt lat="45.6526" lon="6.24085">
        <ele>1139.2995605469</ele>
        <time>2011-12-23T09:02:07Z</time>
      </trkpt>
      <trkpt lat="45.65261" lon="6.24083">
        <ele>1138.8190917969</ele>
        <time>2011-12-23T09:02:11Z</time>
      </trkpt>
      <trkpt lat="45.65264" lon="6.2408">
        <ele>1137.8576660156</ele>
        <time>2011-12-23T09:02:18Z</time>
      </trkpt>
      <trkpt lat="45.65266" lon="6.2408">
        <ele>1137.376953125</ele>
        <time>2011-12-23T09:02:23Z</time>
      </trkpt>
      <trkpt lat="45.65268" lon="6.2408">
        <ele>1138.3383789062</ele>
        <time>2011-12-23T09:02:29Z</time>
      </trkpt>
      <trkpt lat="45.65267" lon="6.2408">
        <ele>1141.2221679688</ele>
        <time>2011-12-23T09:02:38Z</time>
      </trkpt>
      <trkpt lat="45.65268" lon="6.24078">
        <ele>1134.0124511719</ele>
        <time>2011-12-23T09:02:46Z</time>
      </trkpt>
      <trkpt lat="45.65269" lon="6.24073">
        <ele>1128.2443847656</ele>
        <time>2011-12-23T09:02:58Z</time>
      </trkpt>
      <trkpt lat="45.65269" lon="6.24076">
        <ele>1132.5705566406</ele>
        <time>2011-12-23T09:03:05Z</time>
      </trkpt>
      <trkpt lat="45.6527" lon="6.24076">
        <ele>1134.0124511719</ele>
        <time>2011-12-23T09:03:19Z</time>
      </trkpt>
      <trkpt lat="45.65269" lon="6.24077">
        <ele>1140.7414550781</ele>
        <time>2011-12-23T09:03:31Z</time>
      </trkpt>
      <trkpt lat="45.65271" lon="6.24076">
        <ele>1140.2609863281</ele>
        <time>2011-12-23T09:03:37Z</time>
      </trkpt>
      <trkpt lat="45.65274" lon="6.24076">
        <ele>1139.7802734375</ele>
        <time>2011-12-23T09:03:43Z</time>
      </trkpt>
      <trkpt lat="45.65276" lon="6.24076">
        <ele>1141.7028808594</ele>
        <time>2011-12-23T09:04:00Z</time>
      </trkpt>
      <trkpt lat="45.65278" lon="6.24077">
        <ele>1143.1447753906</ele>
        <time>2011-12-23T09:04:05Z</time>
      </trkpt>
      <trkpt lat="45.65278" lon="6.24077">
        <ele>1142.6643066406</ele>
        <time>2011-12-23T09:04:07Z</time>
      </trkpt>
      <trkpt lat="45.65279" lon="6.24077">
        <ele>1142.6643066406</ele>
        <time>2011-12-23T09:04:08Z</time>
      </trkpt>
      <trkpt lat="45.65281" lon="6.24074">
        <ele>1137.376953125</ele>
        <time>2011-12-23T09:04:30Z</time>
      </trkpt>
      <trkpt lat="45.65283" lon="6.24073">
        <ele>1136.4157714844</ele>
        <time>2011-12-23T09:04:34Z</time>
      </trkpt>
      <trkpt lat="45.65285" lon="6.24076">
        <ele>1134.4931640625</ele>
        <time>2011-12-23T09:04:38Z</time>
      </trkpt>
      <trkpt lat="45.65287" lon="6.24078">
        <ele>1134.4931640625</ele>
        <time>2011-12-23T09:04:42Z</time>
      </trkpt>
      <trkpt lat="45.65289" lon="6.2408">
        <ele>1134.4931640625</ele>
        <time>2011-12-23T09:04:50Z</time>
      </trkpt>
      <trkpt lat="45.6529" lon="6.24079">
        <ele>1136.4157714844</ele>
        <time>2011-12-23T09:04:56Z</time>
      </trkpt>
      <trkpt lat="45.65292" lon="6.24079">
        <ele>1138.3383789062</ele>
        <time>2011-12-23T09:05:03Z</time>
      </trkpt>
      <trkpt lat="45.65294" lon="6.24079">
        <ele>1138.8190917969</ele>
        <time>2011-12-23T09:05:08Z</time>
      </trkpt>
      <trkpt lat="45.65296" lon="6.24078">
        <ele>1141.2221679688</ele>
        <time>2011-12-23T09:05:15Z</time>
      </trkpt>
      <trkpt lat="45.65298" lon="6.24078">
        <ele>1142.6643066406</ele>
        <time>2011-12-23T09:05:21Z</time>
      </trkpt>
      <trkpt lat="45.65298" lon="6.24077">
        <ele>1145.0673828125</ele>
        <time>2011-12-23T09:05:26Z</time>
      </trkpt>
      <trkpt lat="45.653" lon="6.24076">
        <ele>1145.0673828125</ele>
        <time>2011-12-23T09:05:31Z</time>
      </trkpt>
      <trkpt lat="45.653" lon="6.24077">
        <ele>1146.5095214844</ele>
        <time>2011-12-23T09:05:46Z</time>
      </trkpt>
      <trkpt lat="45.65298" lon="6.24077">
        <ele>1143.6254882812</ele>
        <time>2011-12-23T09:06:04Z</time>
      </trkpt>
      <trkpt lat="45.65299" lon="6.24076">
        <ele>1143.6254882812</ele>
        <time>2011-12-23T09:06:16Z</time>
      </trkpt>
      <trkpt lat="45.653" lon="6.24075">
        <ele>1144.5866699219</ele>
        <time>2011-12-23T09:06:29Z</time>
      </trkpt>
      <trkpt lat="45.653" lon="6.24072">
        <ele>1148.4321289062</ele>
        <time>2011-12-23T09:06:36Z</time>
      </trkpt>
      <trkpt lat="45.653" lon="6.24072">
        <ele>1147.9514160156</ele>
        <time>2011-12-23T09:06:44Z</time>
      </trkpt>
      <trkpt lat="45.65302" lon="6.24072">
        <ele>1147.470703125</ele>
        <time>2011-12-23T09:06:51Z</time>
      </trkpt>
      <trkpt lat="45.65303" lon="6.2407">
        <ele>1147.9514160156</ele>
        <time>2011-12-23T09:06:57Z</time>
      </trkpt>
      <trkpt lat="45.65305" lon="6.24069">
        <ele>1148.9128417969</ele>
        <time>2011-12-23T09:07:02Z</time>
      </trkpt>
      <trkpt lat="45.65306" lon="6.24069">
        <ele>1149.3935546875</ele>
        <time>2011-12-23T09:07:07Z</time>
      </trkpt>
      <trkpt lat="45.65308" lon="6.24069">
        <ele>1150.3549804688</ele>
        <time>2011-12-23T09:07:13Z</time>
      </trkpt>
      <trkpt lat="45.65309" lon="6.24069">
        <ele>1151.3161621094</ele>
        <time>2011-12-23T09:07:20Z</time>
      </trkpt>
      <trkpt lat="45.65311" lon="6.24069">
        <ele>1151.796875</ele>
        <time>2011-12-23T09:07:25Z</time>
      </trkpt>
      <trkpt lat="45.65312" lon="6.2407">
        <ele>1152.7580566406</ele>
        <time>2011-12-23T09:07:30Z</time>
      </trkpt>
      <trkpt lat="45.65314" lon="6.24071">
        <ele>1151.796875</ele>
        <time>2011-12-23T09:07:36Z</time>
      </trkpt>
      <trkpt lat="45.65315" lon="6.24071">
        <ele>1152.27734375</ele>
        <time>2011-12-23T09:07:43Z</time>
      </trkpt>
      <trkpt lat="45.65316" lon="6.24071">
        <ele>1151.796875</ele>
        <time>2011-12-23T09:07:49Z</time>
      </trkpt>
      <trkpt lat="45.65318" lon="6.24072">
        <ele>1152.27734375</ele>
        <time>2011-12-23T09:07:56Z</time>
      </trkpt>
      <trkpt lat="45.6532" lon="6.24073">
        <ele>1152.27734375</ele>
        <time>2011-12-23T09:08:03Z</time>
      </trkpt>
      <trkpt lat="45.65321" lon="6.24073">
        <ele>1154.6806640625</ele>
        <time>2011-12-23T09:08:09Z</time>
      </trkpt>
      <trkpt lat="45.65324" lon="6.24073">
        <ele>1153.2387695312</ele>
        <time>2011-12-23T09:08:16Z</time>
      </trkpt>
      <trkpt lat="45.65327" lon="6.24074">
        <ele>1154.6806640625</ele>
        <time>2011-12-23T09:08:25Z</time>
      </trkpt>
      <trkpt lat="45.65331" lon="6.24076">
        <ele>1155.6420898438</ele>
        <time>2011-12-23T09:08:33Z</time>
      </trkpt>
      <trkpt lat="45.65334" lon="6.24078">
        <ele>1159.0065917969</ele>
        <time>2011-12-23T09:08:42Z</time>
      </trkpt>
      <trkpt lat="45.65337" lon="6.24078">
        <ele>1165.7360839844</ele>
        <time>2011-12-23T09:08:55Z</time>
      </trkpt>
      <trkpt lat="45.6534" lon="6.24077">
        <ele>1165.2553710938</ele>
        <time>2011-12-23T09:08:59Z</time>
      </trkpt>
      <trkpt lat="45.65343" lon="6.24073">
        <ele>1165.7360839844</ele>
        <time>2011-12-23T09:09:04Z</time>
      </trkpt>
      <trkpt lat="45.65348" lon="6.2407">
        <ele>1161.890625</ele>
        <time>2011-12-23T09:09:12Z</time>
      </trkpt>
      <trkpt lat="45.65364" lon="6.24072">
        <ele>1169.1005859375</ele>
        <time>2011-12-23T09:09:38Z</time>
      </trkpt>
      <trkpt lat="45.65359" lon="6.24071">
        <ele>1165.2553710938</ele>
        <time>2011-12-23T09:09:53Z</time>
      </trkpt>
      <trkpt lat="45.65365" lon="6.24066">
        <ele>1160.4484863281</ele>
        <time>2011-12-23T09:10:01Z</time>
      </trkpt>
      <trkpt lat="45.65366" lon="6.24068">
        <ele>1162.37109375</ele>
        <time>2011-12-23T09:10:05Z</time>
      </trkpt>
      <trkpt lat="45.65371" lon="6.24073">
        <ele>1163.8129882812</ele>
        <time>2011-12-23T09:10:17Z</time>
      </trkpt>
      <trkpt lat="45.65374" lon="6.24075">
        <ele>1164.7746582031</ele>
        <time>2011-12-23T09:10:23Z</time>
      </trkpt>
      <trkpt lat="45.65376" lon="6.24077">
        <ele>1164.7746582031</ele>
        <time>2011-12-23T09:10:30Z</time>
      </trkpt>
      <trkpt lat="45.65378" lon="6.24079">
        <ele>1166.697265625</ele>
        <time>2011-12-23T09:10:34Z</time>
      </trkpt>
      <trkpt lat="45.6538" lon="6.24082">
        <ele>1170.5424804688</ele>
        <time>2011-12-23T09:10:39Z</time>
      </trkpt>
      <trkpt lat="45.65385" lon="6.24086">
        <ele>1171.5036621094</ele>
        <time>2011-12-23T09:10:53Z</time>
      </trkpt>
      <trkpt lat="45.65387" lon="6.24089">
        <ele>1173.4265136719</ele>
        <time>2011-12-23T09:11:01Z</time>
      </trkpt>
      <trkpt lat="45.6539" lon="6.24091">
        <ele>1173.9069824219</ele>
        <time>2011-12-23T09:11:07Z</time>
      </trkpt>
      <trkpt lat="45.65392" lon="6.24093">
        <ele>1174.3876953125</ele>
        <time>2011-12-23T09:11:11Z</time>
      </trkpt>
      <trkpt lat="45.65393" lon="6.24092">
        <ele>1175.3488769531</ele>
        <time>2011-12-23T09:11:17Z</time>
      </trkpt>
      <trkpt lat="45.65397" lon="6.24091">
        <ele>1174.3876953125</ele>
        <time>2011-12-23T09:11:23Z</time>
      </trkpt>
      <trkpt lat="45.65401" lon="6.24093">
        <ele>1173.9069824219</ele>
        <time>2011-12-23T09:11:30Z</time>
      </trkpt>
      <trkpt lat="45.65405" lon="6.24092">
        <ele>1174.8684082031</ele>
        <time>2011-12-23T09:11:35Z</time>
      </trkpt>
      <trkpt lat="45.65406" lon="6.24094">
        <ele>1175.3488769531</ele>
        <time>2011-12-23T09:11:39Z</time>
      </trkpt>
      <trkpt lat="45.65407" lon="6.24094">
        <ele>1175.3488769531</ele>
        <time>2011-12-23T09:11:47Z</time>
      </trkpt>
      <trkpt lat="45.65408" lon="6.24093">
        <ele>1170.5424804688</ele>
        <time>2011-12-23T09:11:57Z</time>
      </trkpt>
      <trkpt lat="45.65407" lon="6.24093">
        <ele>1171.984375</ele>
        <time>2011-12-23T09:12:04Z</time>
      </trkpt>
      <trkpt lat="45.65408" lon="6.24092">
        <ele>1173.9069824219</ele>
        <time>2011-12-23T09:12:08Z</time>
      </trkpt>
      <trkpt lat="45.65409" lon="6.24094">
        <ele>1178.2329101562</ele>
        <time>2011-12-23T09:12:15Z</time>
      </trkpt>
      <trkpt lat="45.65413" lon="6.24095">
        <ele>1180.1557617188</ele>
        <time>2011-12-23T09:12:21Z</time>
      </trkpt>
      <trkpt lat="45.65419" lon="6.24093">
        <ele>1178.7136230469</ele>
        <time>2011-12-23T09:12:32Z</time>
      </trkpt>
      <trkpt lat="45.65424" lon="6.24097">
        <ele>1183.5202636719</ele>
        <time>2011-12-23T09:12:44Z</time>
      </trkpt>
      <trkpt lat="45.65427" lon="6.24099">
        <ele>1186.884765625</ele>
        <time>2011-12-23T09:12:53Z</time>
      </trkpt>
      <trkpt lat="45.65427" lon="6.241">
        <ele>1189.2880859375</ele>
        <time>2011-12-23T09:13:01Z</time>
      </trkpt>
      <trkpt lat="45.65427" lon="6.241">
        <ele>1188.3269042969</ele>
        <time>2011-12-23T09:13:06Z</time>
      </trkpt>
      <trkpt lat="45.65426" lon="6.241">
        <ele>1187.3654785156</ele>
        <time>2011-12-23T09:13:15Z</time>
      </trkpt>
      <trkpt lat="45.65427" lon="6.24102">
        <ele>1188.8076171875</ele>
        <time>2011-12-23T09:13:22Z</time>
      </trkpt>
      <trkpt lat="45.65429" lon="6.24102">
        <ele>1187.3654785156</ele>
        <time>2011-12-23T09:13:29Z</time>
      </trkpt>
      <trkpt lat="45.65431" lon="6.24101">
        <ele>1185.9235839844</ele>
        <time>2011-12-23T09:13:35Z</time>
      </trkpt>
      <trkpt lat="45.65433" lon="6.24102">
        <ele>1187.8461914062</ele>
        <time>2011-12-23T09:13:45Z</time>
      </trkpt>
      <trkpt lat="45.65434" lon="6.24099">
        <ele>1184.0009765625</ele>
        <time>2011-12-23T09:13:52Z</time>
      </trkpt>
      <trkpt lat="45.65434" lon="6.24099">
        <ele>1187.8461914062</ele>
        <time>2011-12-23T09:14:00Z</time>
      </trkpt>
      <trkpt lat="45.65431" lon="6.24094">
        <ele>1198.9013671875</ele>
        <time>2011-12-23T09:14:11Z</time>
      </trkpt>
      <trkpt lat="45.65432" lon="6.24093">
        <ele>1197.4594726562</ele>
        <time>2011-12-23T09:14:12Z</time>
      </trkpt>
      <trkpt lat="45.65434" lon="6.24094">
        <ele>1196.017578125</ele>
        <time>2011-12-23T09:14:23Z</time>
      </trkpt>
      <trkpt lat="45.6544" lon="6.24099">
        <ele>1187.3654785156</ele>
        <time>2011-12-23T09:14:44Z</time>
      </trkpt>
      <trkpt lat="45.65441" lon="6.241">
        <ele>1187.8461914062</ele>
        <time>2011-12-23T09:14:50Z</time>
      </trkpt>
      <trkpt lat="45.65444" lon="6.24098">
        <ele>1186.884765625</ele>
        <time>2011-12-23T09:14:55Z</time>
      </trkpt>
      <trkpt lat="45.65446" lon="6.241">
        <ele>1187.3654785156</ele>
        <time>2011-12-23T09:15:03Z</time>
      </trkpt>
      <trkpt lat="45.65449" lon="6.24102">
        <ele>1187.8461914062</ele>
        <time>2011-12-23T09:15:11Z</time>
      </trkpt>
      <trkpt lat="45.65451" lon="6.24101">
        <ele>1189.2880859375</ele>
        <time>2011-12-23T09:15:19Z</time>
      </trkpt>
      <trkpt lat="45.65453" lon="6.24101">
        <ele>1190.7299804688</ele>
        <time>2011-12-23T09:15:25Z</time>
      </trkpt>
      <trkpt lat="45.65453" lon="6.24102">
        <ele>1197.4594726562</ele>
        <time>2011-12-23T09:15:35Z</time>
      </trkpt>
      <trkpt lat="45.65457" lon="6.24096">
        <ele>1187.3654785156</ele>
        <time>2011-12-23T09:15:46Z</time>
      </trkpt>
      <trkpt lat="45.6546" lon="6.24092">
        <ele>1180.6364746094</ele>
        <time>2011-12-23T09:15:50Z</time>
      </trkpt>
      <trkpt lat="45.6546" lon="6.24088">
        <ele>1173.9069824219</ele>
        <time>2011-12-23T09:15:56Z</time>
      </trkpt>
      <trkpt lat="45.65459" lon="6.24091">
        <ele>1176.3103027344</ele>
        <time>2011-12-23T09:16:00Z</time>
      </trkpt>
      <trkpt lat="45.65456" lon="6.24096">
        <ele>1182.5590820312</ele>
        <time>2011-12-23T09:16:06Z</time>
      </trkpt>
      <trkpt lat="45.65458" lon="6.24096">
        <ele>1179.6748046875</ele>
        <time>2011-12-23T09:16:17Z</time>
      </trkpt>
      <trkpt lat="45.6546" lon="6.24093">
        <ele>1174.3876953125</ele>
        <time>2011-12-23T09:16:26Z</time>
      </trkpt>
      <trkpt lat="45.65461" lon="6.24095">
        <ele>1179.1940917969</ele>
        <time>2011-12-23T09:16:30Z</time>
      </trkpt>
      <trkpt lat="45.65462" lon="6.24097">
        <ele>1184.4816894531</ele>
        <time>2011-12-23T09:16:35Z</time>
      </trkpt>
      <trkpt lat="45.65462" lon="6.24097">
        <ele>1188.3269042969</ele>
        <time>2011-12-23T09:16:41Z</time>
      </trkpt>
      <trkpt lat="45.65463" lon="6.24096">
        <ele>1189.2880859375</ele>
        <time>2011-12-23T09:16:49Z</time>
      </trkpt>
      <trkpt lat="45.65463" lon="6.24098">
        <ele>1190.7299804688</ele>
        <time>2011-12-23T09:16:58Z</time>
      </trkpt>
      <trkpt lat="45.65462" lon="6.24101">
        <ele>1198.4206542969</ele>
        <time>2011-12-23T09:17:15Z</time>
      </trkpt>
      <trkpt lat="45.65462" lon="6.24099">
        <ele>1193.1333007812</ele>
        <time>2011-12-23T09:17:25Z</time>
      </trkpt>
      <trkpt lat="45.65463" lon="6.24103">
        <ele>1201.7854003906</ele>
        <time>2011-12-23T09:17:35Z</time>
      </trkpt>
      <trkpt lat="45.65466" lon="6.24101">
        <ele>1201.3046875</ele>
        <time>2011-12-23T09:17:44Z</time>
      </trkpt>
      <trkpt lat="45.65467" lon="6.24102">
        <ele>1201.7854003906</ele>
        <time>2011-12-23T09:17:53Z</time>
      </trkpt>
      <trkpt lat="45.65467" lon="6.24101">
        <ele>1203.7080078125</ele>
        <time>2011-12-23T09:17:59Z</time>
      </trkpt>
      <trkpt lat="45.65472" lon="6.24097">
        <ele>1201.7854003906</ele>
        <time>2011-12-23T09:18:09Z</time>
      </trkpt>
      <trkpt lat="45.65474" lon="6.24097">
        <ele>1202.2658691406</ele>
        <time>2011-12-23T09:18:14Z</time>
      </trkpt>
      <trkpt lat="45.65477" lon="6.24096">
        <ele>1203.7080078125</ele>
        <time>2011-12-23T09:18:22Z</time>
      </trkpt>
      <trkpt lat="45.65478" lon="6.24095">
        <ele>1206.1110839844</ele>
        <time>2011-12-23T09:18:27Z</time>
      </trkpt>
      <trkpt lat="45.6548" lon="6.24095">
        <ele>1206.591796875</ele>
        <time>2011-12-23T09:18:32Z</time>
      </trkpt>
      <trkpt lat="45.65483" lon="6.24087">
        <ele>1197.4594726562</ele>
        <time>2011-12-23T09:18:44Z</time>
      </trkpt>
      <trkpt lat="45.65486" lon="6.24088">
        <ele>1200.8239746094</ele>
        <time>2011-12-23T09:18:56Z</time>
      </trkpt>
      <trkpt lat="45.65488" lon="6.24085">
        <ele>1205.6306152344</ele>
        <time>2011-12-23T09:19:08Z</time>
      </trkpt>
      <trkpt lat="45.65488" lon="6.24082">
        <ele>1210.4370117188</ele>
        <time>2011-12-23T09:19:15Z</time>
      </trkpt>
      <trkpt lat="45.65491" lon="6.24086">
        <ele>1218.1276855469</ele>
        <time>2011-12-23T09:19:25Z</time>
      </trkpt>
      <trkpt lat="45.65492" lon="6.24086">
        <ele>1222.9343261719</ele>
        <time>2011-12-23T09:19:31Z</time>
      </trkpt>
      <trkpt lat="45.65493" lon="6.24086">
        <ele>1221.4921875</ele>
        <time>2011-12-23T09:19:36Z</time>
      </trkpt>
      <trkpt lat="45.65496" lon="6.24082">
        <ele>1225.3374023438</ele>
        <time>2011-12-23T09:19:46Z</time>
      </trkpt>
      <trkpt lat="45.65499" lon="6.24078">
        <ele>1226.7795410156</ele>
        <time>2011-12-23T09:19:53Z</time>
      </trkpt>
      <trkpt lat="45.65508" lon="6.24062">
        <ele>1221.01171875</ele>
        <time>2011-12-23T09:20:11Z</time>
      </trkpt>
      <trkpt lat="45.65504" lon="6.24064">
        <ele>1223.4150390625</ele>
        <time>2011-12-23T09:20:17Z</time>
      </trkpt>
      <trkpt lat="45.65503" lon="6.24063">
        <ele>1216.6857910156</ele>
        <time>2011-12-23T09:20:25Z</time>
      </trkpt>
      <trkpt lat="45.65504" lon="6.24061">
        <ele>1212.3598632812</ele>
        <time>2011-12-23T09:20:28Z</time>
      </trkpt>
      <trkpt lat="45.65504" lon="6.24061">
        <ele>1211.8791503906</ele>
        <time>2011-12-23T09:20:29Z</time>
      </trkpt>
      <trkpt lat="45.65504" lon="6.24068">
        <ele>1219.0891113281</ele>
        <time>2011-12-23T09:20:41Z</time>
      </trkpt>
      <trkpt lat="45.65507" lon="6.24069">
        <ele>1216.6857910156</ele>
        <time>2011-12-23T09:20:45Z</time>
      </trkpt>
      <trkpt lat="45.65512" lon="6.24066">
        <ele>1219.0891113281</ele>
        <time>2011-12-23T09:20:53Z</time>
      </trkpt>
      <trkpt lat="45.65513" lon="6.24068">
        <ele>1222.9343261719</ele>
        <time>2011-12-23T09:21:01Z</time>
      </trkpt>
      <trkpt lat="45.65516" lon="6.24069">
        <ele>1218.6083984375</ele>
        <time>2011-12-23T09:21:16Z</time>
      </trkpt>
      <trkpt lat="45.6552" lon="6.24065">
        <ele>1217.1665039062</ele>
        <time>2011-12-23T09:21:23Z</time>
      </trkpt>
      <trkpt lat="45.65522" lon="6.24065">
        <ele>1214.7631835938</ele>
        <time>2011-12-23T09:21:27Z</time>
      </trkpt>
      <trkpt lat="45.65524" lon="6.2406">
        <ele>1215.2438964844</ele>
        <time>2011-12-23T09:21:32Z</time>
      </trkpt>
      <trkpt lat="45.65527" lon="6.24059">
        <ele>1216.6857910156</ele>
        <time>2011-12-23T09:21:39Z</time>
      </trkpt>
      <trkpt lat="45.65531" lon="6.24062">
        <ele>1225.8181152344</ele>
        <time>2011-12-23T09:21:52Z</time>
      </trkpt>
      <trkpt lat="45.65534" lon="6.24059">
        <ele>1224.3762207031</ele>
        <time>2011-12-23T09:21:58Z</time>
      </trkpt>
      <trkpt lat="45.65536" lon="6.24055">
        <ele>1223.8955078125</ele>
        <time>2011-12-23T09:22:11Z</time>
      </trkpt>
      <trkpt lat="45.65542" lon="6.24048">
        <ele>1225.3374023438</ele>
        <time>2011-12-23T09:22:24Z</time>
      </trkpt>
      <trkpt lat="45.65543" lon="6.24053">
        <ele>1232.5476074219</ele>
        <time>2011-12-23T09:22:41Z</time>
      </trkpt>
      <trkpt lat="45.65543" lon="6.24055">
        <ele>1234.9509277344</ele>
        <time>2011-12-23T09:22:58Z</time>
      </trkpt>
      <trkpt lat="45.65543" lon="6.24056">
        <ele>1234.9509277344</ele>
        <time>2011-12-23T09:23:00Z</time>
      </trkpt>
      <trkpt lat="45.65543" lon="6.24056">
        <ele>1235.4313964844</ele>
        <time>2011-12-23T09:23:04Z</time>
      </trkpt>
      <trkpt lat="45.65545" lon="6.24053">
        <ele>1240.7185058594</ele>
        <time>2011-12-23T09:23:13Z</time>
      </trkpt>
      <trkpt lat="45.65548" lon="6.2405">
        <ele>1238.3154296875</ele>
        <time>2011-12-23T09:23:20Z</time>
      </trkpt>
      <trkpt lat="45.65549" lon="6.24046">
        <ele>1237.3540039062</ele>
        <time>2011-12-23T09:23:26Z</time>
      </trkpt>
      <trkpt lat="45.65554" lon="6.24047">
        <ele>1237.8347167969</ele>
        <time>2011-12-23T09:23:38Z</time>
      </trkpt>
      <trkpt lat="45.65557" lon="6.24045">
        <ele>1235.912109375</ele>
        <time>2011-12-23T09:23:45Z</time>
      </trkpt>
      <trkpt lat="45.65561" lon="6.24043">
        <ele>1235.4313964844</ele>
        <time>2011-12-23T09:23:51Z</time>
      </trkpt>
      <trkpt lat="45.65563" lon="6.24043">
        <ele>1234.4702148438</ele>
        <time>2011-12-23T09:23:57Z</time>
      </trkpt>
      <trkpt lat="45.65567" lon="6.24041">
        <ele>1232.0668945312</ele>
        <time>2011-12-23T09:24:05Z</time>
      </trkpt>
      <trkpt lat="45.65569" lon="6.24041">
        <ele>1231.5861816406</ele>
        <time>2011-12-23T09:24:11Z</time>
      </trkpt>
      <trkpt lat="45.65571" lon="6.24041">
        <ele>1233.0280761719</ele>
        <time>2011-12-23T09:24:18Z</time>
      </trkpt>
      <trkpt lat="45.65573" lon="6.2404">
        <ele>1233.5087890625</ele>
        <time>2011-12-23T09:24:22Z</time>
      </trkpt>
      <trkpt lat="45.65575" lon="6.24038">
        <ele>1232.5476074219</ele>
        <time>2011-12-23T09:24:30Z</time>
      </trkpt>
      <trkpt lat="45.65574" lon="6.24039">
        <ele>1232.5476074219</ele>
        <time>2011-12-23T09:24:43Z</time>
      </trkpt>
      <trkpt lat="45.65575" lon="6.24039">
        <ele>1233.0280761719</ele>
        <time>2011-12-23T09:24:52Z</time>
      </trkpt>
      <trkpt lat="45.65576" lon="6.24039">
        <ele>1236.3928222656</ele>
        <time>2011-12-23T09:25:00Z</time>
      </trkpt>
      <trkpt lat="45.65577" lon="6.2404">
        <ele>1237.3540039062</ele>
        <time>2011-12-23T09:25:06Z</time>
      </trkpt>
      <trkpt lat="45.65578" lon="6.24042">
        <ele>1238.7961425781</ele>
        <time>2011-12-23T09:25:11Z</time>
      </trkpt>
      <trkpt lat="45.65574" lon="6.24043">
        <ele>1233.0280761719</ele>
        <time>2011-12-23T09:25:18Z</time>
      </trkpt>
      <trkpt lat="45.65572" lon="6.24042">
        <ele>1229.1828613281</ele>
        <time>2011-12-23T09:25:23Z</time>
      </trkpt>
      <trkpt lat="45.65571" lon="6.24045">
        <ele>1231.5861816406</ele>
        <time>2011-12-23T09:25:24Z</time>
      </trkpt>
      <trkpt lat="45.65573" lon="6.24038">
        <ele>1230.1442871094</ele>
        <time>2011-12-23T09:25:44Z</time>
      </trkpt>
      <trkpt lat="45.65573" lon="6.24035">
        <ele>1236.3928222656</ele>
        <time>2011-12-23T09:25:57Z</time>
      </trkpt>
      <trkpt lat="45.65574" lon="6.24034">
        <ele>1235.912109375</ele>
        <time>2011-12-23T09:26:00Z</time>
      </trkpt>
      <trkpt lat="45.65579" lon="6.24031">
        <ele>1230.625</ele>
        <time>2011-12-23T09:26:13Z</time>
      </trkpt>
      <trkpt lat="45.6558" lon="6.2403">
        <ele>1230.1442871094</ele>
        <time>2011-12-23T09:26:18Z</time>
      </trkpt>
      <trkpt lat="45.6558" lon="6.2403">
        <ele>1231.1057128906</ele>
        <time>2011-12-23T09:26:35Z</time>
      </trkpt>
      <trkpt lat="45.65581" lon="6.2403">
        <ele>1231.5861816406</ele>
        <time>2011-12-23T09:26:43Z</time>
      </trkpt>
      <trkpt lat="45.65582" lon="6.24029">
        <ele>1233.5087890625</ele>
        <time>2011-12-23T09:27:06Z</time>
      </trkpt>
      <trkpt lat="45.65583" lon="6.24028">
        <ele>1234.4702148438</ele>
        <time>2011-12-23T09:27:16Z</time>
      </trkpt>
      <trkpt lat="45.65583" lon="6.24028">
        <ele>1233.9895019531</ele>
        <time>2011-12-23T09:27:36Z</time>
      </trkpt>
      <trkpt lat="45.65586" lon="6.24026">
        <ele>1233.9895019531</ele>
        <time>2011-12-23T09:28:09Z</time>
      </trkpt>
      <trkpt lat="45.65587" lon="6.24026">
        <ele>1234.4702148438</ele>
        <time>2011-12-23T09:28:12Z</time>
      </trkpt>
      <trkpt lat="45.65588" lon="6.24026">
        <ele>1234.4702148438</ele>
        <time>2011-12-23T09:28:14Z</time>
      </trkpt>
      <trkpt lat="45.6559" lon="6.24026">
        <ele>1234.4702148438</ele>
        <time>2011-12-23T09:28:17Z</time>
      </trkpt>
      <trkpt lat="45.65591" lon="6.24026">
        <ele>1234.9509277344</ele>
        <time>2011-12-23T09:28:19Z</time>
      </trkpt>
      <trkpt lat="45.65591" lon="6.24025">
        <ele>1234.9509277344</ele>
        <time>2011-12-23T09:28:20Z</time>
      </trkpt>
      <trkpt lat="45.65593" lon="6.24026">
        <ele>1234.9509277344</ele>
        <time>2011-12-23T09:28:23Z</time>
      </trkpt>
      <trkpt lat="45.65596" lon="6.24028">
        <ele>1234.4702148438</ele>
        <time>2011-12-23T09:28:26Z</time>
      </trkpt>
      <trkpt lat="45.65597" lon="6.24029">
        <ele>1234.4702148438</ele>
        <time>2011-12-23T09:28:29Z</time>
      </trkpt>
      <trkpt lat="45.65597" lon="6.24029">
        <ele>1234.9509277344</ele>
        <time>2011-12-23T09:28:30Z</time>
      </trkpt>
      <trkpt lat="45.65601" lon="6.24031">
        <ele>1235.4313964844</ele>
        <time>2011-12-23T09:28:35Z</time>
      </trkpt>
      <trkpt lat="45.65604" lon="6.24032">
        <ele>1233.9895019531</ele>
        <time>2011-12-23T09:28:39Z</time>
      </trkpt>
      <trkpt lat="45.65605" lon="6.24033">
        <ele>1235.4313964844</ele>
        <time>2011-12-23T09:28:45Z</time>
      </trkpt>
      <trkpt lat="45.65609" lon="6.24035">
        <ele>1237.3540039062</ele>
        <time>2011-12-23T09:28:54Z</time>
      </trkpt>
      <trkpt lat="45.65612" lon="6.24034">
        <ele>1236.8732910156</ele>
        <time>2011-12-23T09:28:59Z</time>
      </trkpt>
      <trkpt lat="45.65616" lon="6.24034">
        <ele>1237.3540039062</ele>
        <time>2011-12-23T09:29:06Z</time>
      </trkpt>
      <trkpt lat="45.65619" lon="6.24031">
        <ele>1237.3540039062</ele>
        <time>2011-12-23T09:29:10Z</time>
      </trkpt>
      <trkpt lat="45.65621" lon="6.24032">
        <ele>1237.8347167969</ele>
        <time>2011-12-23T09:29:14Z</time>
      </trkpt>
      <trkpt lat="45.65625" lon="6.24033">
        <ele>1238.3154296875</ele>
        <time>2011-12-23T09:29:24Z</time>
      </trkpt>
      <trkpt lat="45.65627" lon="6.24033">
        <ele>1241.6799316406</ele>
        <time>2011-12-23T09:29:29Z</time>
      </trkpt>
      <trkpt lat="45.65629" lon="6.24036">
        <ele>1244.5639648438</ele>
        <time>2011-12-23T09:29:37Z</time>
      </trkpt>
      <trkpt lat="45.65634" lon="6.24035">
        <ele>1242.6413574219</ele>
        <time>2011-12-23T09:29:42Z</time>
      </trkpt>
      <trkpt lat="45.65635" lon="6.24036">
        <ele>1242.6413574219</ele>
        <time>2011-12-23T09:29:43Z</time>
      </trkpt>
      <trkpt lat="45.6564" lon="6.24036">
        <ele>1242.1606445312</ele>
        <time>2011-12-23T09:29:49Z</time>
      </trkpt>
      <trkpt lat="45.65641" lon="6.24039">
        <ele>1243.6025390625</ele>
        <time>2011-12-23T09:29:52Z</time>
      </trkpt>
      <trkpt lat="45.65647" lon="6.24037">
        <ele>1241.6799316406</ele>
        <time>2011-12-23T09:29:58Z</time>
      </trkpt>
      <trkpt lat="45.65652" lon="6.24039">
        <ele>1242.6413574219</ele>
        <time>2011-12-23T09:30:08Z</time>
      </trkpt>
      <trkpt lat="45.65654" lon="6.24036">
        <ele>1246.4868164062</ele>
        <time>2011-12-23T09:30:21Z</time>
      </trkpt>
      <trkpt lat="45.65651" lon="6.24038">
        <ele>1256.5803222656</ele>
        <time>2011-12-23T09:30:29Z</time>
      </trkpt>
      <trkpt lat="45.6565" lon="6.24042">
        <ele>1257.0610351562</ele>
        <time>2011-12-23T09:30:38Z</time>
      </trkpt>
      <trkpt lat="45.65649" lon="6.2404">
        <ele>1258.9836425781</ele>
        <time>2011-12-23T09:30:46Z</time>
      </trkpt>
      <trkpt lat="45.65655" lon="6.24042">
        <ele>1252.2543945312</ele>
        <time>2011-12-23T09:30:50Z</time>
      </trkpt>
      <trkpt lat="45.65658" lon="6.24043">
        <ele>1249.8513183594</ele>
        <time>2011-12-23T09:30:54Z</time>
      </trkpt>
      <trkpt lat="45.65662" lon="6.24046">
        <ele>1247.9287109375</ele>
        <time>2011-12-23T09:31:00Z</time>
      </trkpt>
      <trkpt lat="45.65665" lon="6.24047">
        <ele>1248.4091796875</ele>
        <time>2011-12-23T09:31:05Z</time>
      </trkpt>
      <trkpt lat="45.65668" lon="6.24048">
        <ele>1249.3706054688</ele>
        <time>2011-12-23T09:31:10Z</time>
      </trkpt>
      <trkpt lat="45.65669" lon="6.24049">
        <ele>1250.8125</ele>
        <time>2011-12-23T09:31:15Z</time>
      </trkpt>
      <trkpt lat="45.65675" lon="6.24051">
        <ele>1253.2158203125</ele>
        <time>2011-12-23T09:31:25Z</time>
      </trkpt>
      <trkpt lat="45.65678" lon="6.24052">
        <ele>1255.619140625</ele>
        <time>2011-12-23T09:31:30Z</time>
      </trkpt>
      <trkpt lat="45.65681" lon="6.24053">
        <ele>1256.099609375</ele>
        <time>2011-12-23T09:31:34Z</time>
      </trkpt>
      <trkpt lat="45.65686" lon="6.24052">
        <ele>1256.5803222656</ele>
        <time>2011-12-23T09:31:39Z</time>
      </trkpt>
      <trkpt lat="45.65689" lon="6.24051">
        <ele>1254.6577148438</ele>
        <time>2011-12-23T09:31:44Z</time>
      </trkpt>
      <trkpt lat="45.65693" lon="6.24051">
        <ele>1251.7739257812</ele>
        <time>2011-12-23T09:31:48Z</time>
      </trkpt>
      <trkpt lat="45.65695" lon="6.2405">
        <ele>1253.6965332031</ele>
        <time>2011-12-23T09:31:52Z</time>
      </trkpt>
      <trkpt lat="45.65696" lon="6.24049">
        <ele>1252.7351074219</ele>
        <time>2011-12-23T09:31:54Z</time>
      </trkpt>
      <trkpt lat="45.65695" lon="6.24047">
        <ele>1254.6577148438</ele>
        <time>2011-12-23T09:32:05Z</time>
      </trkpt>
      <trkpt lat="45.65691" lon="6.24057">
        <ele>1261.8679199219</ele>
        <time>2011-12-23T09:32:11Z</time>
      </trkpt>
      <trkpt lat="45.65695" lon="6.24054">
        <ele>1258.0224609375</ele>
        <time>2011-12-23T09:32:22Z</time>
      </trkpt>
      <trkpt lat="45.65699" lon="6.24055">
        <ele>1256.099609375</ele>
        <time>2011-12-23T09:32:28Z</time>
      </trkpt>
      <trkpt lat="45.65701" lon="6.24054">
        <ele>1256.5803222656</ele>
        <time>2011-12-23T09:32:34Z</time>
      </trkpt>
      <trkpt lat="45.65703" lon="6.24056">
        <ele>1258.5029296875</ele>
        <time>2011-12-23T09:32:38Z</time>
      </trkpt>
      <trkpt lat="45.65705" lon="6.24058">
        <ele>1258.9836425781</ele>
        <time>2011-12-23T09:32:42Z</time>
      </trkpt>
      <trkpt lat="45.65709" lon="6.24059">
        <ele>1260.42578125</ele>
        <time>2011-12-23T09:32:47Z</time>
      </trkpt>
      <trkpt lat="45.6571" lon="6.24061">
        <ele>1261.8679199219</ele>
        <time>2011-12-23T09:32:50Z</time>
      </trkpt>
      <trkpt lat="45.65713" lon="6.24062">
        <ele>1263.3098144531</ele>
        <time>2011-12-23T09:32:55Z</time>
      </trkpt>
      <trkpt lat="45.65718" lon="6.24062">
        <ele>1263.3098144531</ele>
        <time>2011-12-23T09:32:59Z</time>
      </trkpt>
      <trkpt lat="45.6572" lon="6.24062">
        <ele>1262.8291015625</ele>
        <time>2011-12-23T09:33:01Z</time>
      </trkpt>
      <trkpt lat="45.65725" lon="6.24062">
        <ele>1261.8679199219</ele>
        <time>2011-12-23T09:33:06Z</time>
      </trkpt>
      <trkpt lat="45.65728" lon="6.24061">
        <ele>1260.9064941406</ele>
        <time>2011-12-23T09:33:10Z</time>
      </trkpt>
      <trkpt lat="45.65729" lon="6.24065">
        <ele>1262.8291015625</ele>
        <time>2011-12-23T09:33:16Z</time>
      </trkpt>
      <trkpt lat="45.65731" lon="6.24066">
        <ele>1260.9064941406</ele>
        <time>2011-12-23T09:33:26Z</time>
      </trkpt>
      <trkpt lat="45.65733" lon="6.24063">
        <ele>1258.9836425781</ele>
        <time>2011-12-23T09:33:36Z</time>
      </trkpt>
      <trkpt lat="45.6573" lon="6.24069">
        <ele>1265.232421875</ele>
        <time>2011-12-23T09:33:43Z</time>
      </trkpt>
      <trkpt lat="45.6573" lon="6.2407">
        <ele>1264.7517089844</ele>
        <time>2011-12-23T09:33:46Z</time>
      </trkpt>
      <trkpt lat="45.6573" lon="6.2407">
        <ele>1262.8291015625</ele>
        <time>2011-12-23T09:33:50Z</time>
      </trkpt>
      <trkpt lat="45.65729" lon="6.24067">
        <ele>1260.42578125</ele>
        <time>2011-12-23T09:33:55Z</time>
      </trkpt>
      <trkpt lat="45.65729" lon="6.24066">
        <ele>1258.9836425781</ele>
        <time>2011-12-23T09:33:58Z</time>
      </trkpt>
      <trkpt lat="45.65729" lon="6.24064">
        <ele>1252.2543945312</ele>
        <time>2011-12-23T09:34:08Z</time>
      </trkpt>
      <trkpt lat="45.6573" lon="6.24061">
        <ele>1260.42578125</ele>
        <time>2011-12-23T09:34:18Z</time>
      </trkpt>
      <trkpt lat="45.65729" lon="6.24067">
        <ele>1265.7131347656</ele>
        <time>2011-12-23T09:34:31Z</time>
      </trkpt>
      <trkpt lat="45.65733" lon="6.24067">
        <ele>1265.232421875</ele>
        <time>2011-12-23T09:34:39Z</time>
      </trkpt>
      <trkpt lat="45.65736" lon="6.24067">
        <ele>1265.7131347656</ele>
        <time>2011-12-23T09:34:43Z</time>
      </trkpt>
      <trkpt lat="45.65738" lon="6.24067">
        <ele>1265.7131347656</ele>
        <time>2011-12-23T09:34:47Z</time>
      </trkpt>
      <trkpt lat="45.65742" lon="6.24066">
        <ele>1265.232421875</ele>
        <time>2011-12-23T09:34:52Z</time>
      </trkpt>
      <trkpt lat="45.65745" lon="6.24066">
        <ele>1266.1936035156</ele>
        <time>2011-12-23T09:34:57Z</time>
      </trkpt>
      <trkpt lat="45.65747" lon="6.24065">
        <ele>1267.6354980469</ele>
        <time>2011-12-23T09:35:01Z</time>
      </trkpt>
      <trkpt lat="45.6575" lon="6.24066">
        <ele>1267.6354980469</ele>
        <time>2011-12-23T09:35:05Z</time>
      </trkpt>
      <trkpt lat="45.65752" lon="6.24067">
        <ele>1269.0776367188</ele>
        <time>2011-12-23T09:35:09Z</time>
      </trkpt>
      <trkpt lat="45.65755" lon="6.24066">
        <ele>1270.0388183594</ele>
        <time>2011-12-23T09:35:14Z</time>
      </trkpt>
      <trkpt lat="45.65759" lon="6.24065">
        <ele>1271.0002441406</ele>
        <time>2011-12-23T09:35:18Z</time>
      </trkpt>
      <trkpt lat="45.65761" lon="6.24066">
        <ele>1271.0002441406</ele>
        <time>2011-12-23T09:35:22Z</time>
      </trkpt>
      <trkpt lat="45.65762" lon="6.24063">
        <ele>1271.0002441406</ele>
        <time>2011-12-23T09:35:28Z</time>
      </trkpt>
      <trkpt lat="45.65761" lon="6.24061">
        <ele>1276.7683105469</ele>
        <time>2011-12-23T09:35:40Z</time>
      </trkpt>
      <trkpt lat="45.65761" lon="6.24059">
        <ele>1276.7683105469</ele>
        <time>2011-12-23T09:35:48Z</time>
      </trkpt>
      <trkpt lat="45.65764" lon="6.24058">
        <ele>1276.2875976562</ele>
        <time>2011-12-23T09:35:54Z</time>
      </trkpt>
      <trkpt lat="45.65767" lon="6.2406">
        <ele>1275.3259277344</ele>
        <time>2011-12-23T09:36:02Z</time>
      </trkpt>
      <trkpt lat="45.65769" lon="6.24059">
        <ele>1275.3259277344</ele>
        <time>2011-12-23T09:36:08Z</time>
      </trkpt>
      <trkpt lat="45.65771" lon="6.24058">
        <ele>1273.8840332031</ele>
        <time>2011-12-23T09:36:15Z</time>
      </trkpt>
      <trkpt lat="45.65773" lon="6.24058">
        <ele>1273.4035644531</ele>
        <time>2011-12-23T09:36:19Z</time>
      </trkpt>
      <trkpt lat="45.65775" lon="6.24058">
        <ele>1272.4421386719</ele>
        <time>2011-12-23T09:36:26Z</time>
      </trkpt>
      <trkpt lat="45.65777" lon="6.24058">
        <ele>1273.4035644531</ele>
        <time>2011-12-23T09:36:32Z</time>
      </trkpt>
      <trkpt lat="45.65781" lon="6.24058">
        <ele>1271.4807128906</ele>
        <time>2011-12-23T09:36:37Z</time>
      </trkpt>
      <trkpt lat="45.65782" lon="6.24059">
        <ele>1271.4807128906</ele>
        <time>2011-12-23T09:36:41Z</time>
      </trkpt>
      <trkpt lat="45.65784" lon="6.2406">
        <ele>1277.7294921875</ele>
        <time>2011-12-23T09:37:06Z</time>
      </trkpt>
      <trkpt lat="45.65786" lon="6.24061">
        <ele>1277.2490234375</ele>
        <time>2011-12-23T09:37:13Z</time>
      </trkpt>
      <trkpt lat="45.65787" lon="6.24062">
        <ele>1277.2490234375</ele>
        <time>2011-12-23T09:37:18Z</time>
      </trkpt>
      <trkpt lat="45.65789" lon="6.24062">
        <ele>1276.7683105469</ele>
        <time>2011-12-23T09:37:23Z</time>
      </trkpt>
      <trkpt lat="45.65791" lon="6.24061">
        <ele>1277.7294921875</ele>
        <time>2011-12-23T09:37:29Z</time>
      </trkpt>
      <trkpt lat="45.65793" lon="6.24062">
        <ele>1279.1713867188</ele>
        <time>2011-12-23T09:37:41Z</time>
      </trkpt>
      <trkpt lat="45.65794" lon="6.24063">
        <ele>1278.6909179688</ele>
        <time>2011-12-23T09:37:49Z</time>
      </trkpt>
      <trkpt lat="45.65796" lon="6.24062">
        <ele>1281.0942382812</ele>
        <time>2011-12-23T09:37:52Z</time>
      </trkpt>
      <trkpt lat="45.65799" lon="6.2406">
        <ele>1280.1328125</ele>
        <time>2011-12-23T09:37:57Z</time>
      </trkpt>
      <trkpt lat="45.65799" lon="6.2406">
        <ele>1281.0942382812</ele>
        <time>2011-12-23T09:38:01Z</time>
      </trkpt>
      <trkpt lat="45.65804" lon="6.24062">
        <ele>1284.939453125</ele>
        <time>2011-12-23T09:38:14Z</time>
      </trkpt>
      <trkpt lat="45.65804" lon="6.24062">
        <ele>1283.9780273438</ele>
        <time>2011-12-23T09:38:19Z</time>
      </trkpt>
      <trkpt lat="45.65805" lon="6.24062">
        <ele>1283.0166015625</ele>
        <time>2011-12-23T09:38:26Z</time>
      </trkpt>
      <trkpt lat="45.65806" lon="6.24059">
        <ele>1284.939453125</ele>
        <time>2011-12-23T09:38:34Z</time>
      </trkpt>
      <trkpt lat="45.65808" lon="6.24059">
        <ele>1285.419921875</ele>
        <time>2011-12-23T09:38:40Z</time>
      </trkpt>
      <trkpt lat="45.65809" lon="6.24059">
        <ele>1284.939453125</ele>
        <time>2011-12-23T09:38:45Z</time>
      </trkpt>
      <trkpt lat="45.65811" lon="6.24061">
        <ele>1286.3813476562</ele>
        <time>2011-12-23T09:38:51Z</time>
      </trkpt>
      <trkpt lat="45.65813" lon="6.24061">
        <ele>1284.939453125</ele>
        <time>2011-12-23T09:38:57Z</time>
      </trkpt>
      <trkpt lat="45.65816" lon="6.24061">
        <ele>1283.4973144531</ele>
        <time>2011-12-23T09:39:05Z</time>
      </trkpt>
      <trkpt lat="45.65817" lon="6.24062">
        <ele>1284.939453125</ele>
        <time>2011-12-23T09:39:09Z</time>
      </trkpt>
      <trkpt lat="45.65816" lon="6.24067">
        <ele>1290.2265625</ele>
        <time>2011-12-23T09:39:20Z</time>
      </trkpt>
      <trkpt lat="45.65818" lon="6.24066">
        <ele>1290.2265625</ele>
        <time>2011-12-23T09:39:25Z</time>
      </trkpt>
      <trkpt lat="45.65821" lon="6.24066">
        <ele>1290.2265625</ele>
        <time>2011-12-23T09:39:31Z</time>
      </trkpt>
      <trkpt lat="45.65823" lon="6.24065">
        <ele>1289.2651367188</ele>
        <time>2011-12-23T09:39:37Z</time>
      </trkpt>
      <trkpt lat="45.65825" lon="6.24063">
        <ele>1287.8232421875</ele>
        <time>2011-12-23T09:39:42Z</time>
      </trkpt>
      <trkpt lat="45.65829" lon="6.2406">
        <ele>1285.419921875</ele>
        <time>2011-12-23T09:39:47Z</time>
      </trkpt>
      <trkpt lat="45.65831" lon="6.24059">
        <ele>1285.419921875</ele>
        <time>2011-12-23T09:39:50Z</time>
      </trkpt>
      <trkpt lat="45.65836" lon="6.24058">
        <ele>1286.3813476562</ele>
        <time>2011-12-23T09:39:56Z</time>
      </trkpt>
      <trkpt lat="45.6584" lon="6.24057">
        <ele>1287.3425292969</ele>
        <time>2011-12-23T09:40:05Z</time>
      </trkpt>
      <trkpt lat="45.65841" lon="6.24058">
        <ele>1288.7846679688</ele>
        <time>2011-12-23T09:40:10Z</time>
      </trkpt>
      <trkpt lat="45.65841" lon="6.24062">
        <ele>1290.70703125</ele>
        <time>2011-12-23T09:40:14Z</time>
      </trkpt>
      <trkpt lat="45.65843" lon="6.24061">
        <ele>1291.6684570312</ele>
        <time>2011-12-23T09:40:20Z</time>
      </trkpt>
      <trkpt lat="45.65845" lon="6.2406">
        <ele>1292.1494140625</ele>
        <time>2011-12-23T09:40:23Z</time>
      </trkpt>
      <trkpt lat="45.6585" lon="6.24057">
        <ele>1289.2651367188</ele>
        <time>2011-12-23T09:40:32Z</time>
      </trkpt>
      <trkpt lat="45.65854" lon="6.24055">
        <ele>1286.8618164062</ele>
        <time>2011-12-23T09:40:41Z</time>
      </trkpt>
      <trkpt lat="45.65853" lon="6.24054">
        <ele>1285.419921875</ele>
        <time>2011-12-23T09:40:49Z</time>
      </trkpt>
      <trkpt lat="45.65851" lon="6.24056">
        <ele>1288.3039550781</ele>
        <time>2011-12-23T09:41:01Z</time>
      </trkpt>
      <trkpt lat="45.65851" lon="6.24055">
        <ele>1290.70703125</ele>
        <time>2011-12-23T09:41:05Z</time>
      </trkpt>
      <trkpt lat="45.65847" lon="6.24058">
        <ele>1296.4753417969</ele>
        <time>2011-12-23T09:41:14Z</time>
      </trkpt>
      <trkpt lat="45.65847" lon="6.24059">
        <ele>1294.0720214844</ele>
        <time>2011-12-23T09:41:22Z</time>
      </trkpt>
      <trkpt lat="45.65846" lon="6.24063">
        <ele>1293.5913085938</ele>
        <time>2011-12-23T09:41:31Z</time>
      </trkpt>
      <trkpt lat="45.65845" lon="6.24066">
        <ele>1295.5139160156</ele>
        <time>2011-12-23T09:41:35Z</time>
      </trkpt>
      <trkpt lat="45.65847" lon="6.24065">
        <ele>1296.4753417969</ele>
        <time>2011-12-23T09:41:43Z</time>
      </trkpt>
      <trkpt lat="45.6585" lon="6.2406">
        <ele>1295.5139160156</ele>
        <time>2011-12-23T09:41:58Z</time>
      </trkpt>
      <trkpt lat="45.65849" lon="6.24056">
        <ele>1291.6684570312</ele>
        <time>2011-12-23T09:42:08Z</time>
      </trkpt>
      <trkpt lat="45.65849" lon="6.24055">
        <ele>1291.1877441406</ele>
        <time>2011-12-23T09:42:13Z</time>
      </trkpt>
      <trkpt lat="45.65846" lon="6.24057">
        <ele>1293.1105957031</ele>
        <time>2011-12-23T09:42:19Z</time>
      </trkpt>
      <trkpt lat="45.65846" lon="6.24054">
        <ele>1292.6301269531</ele>
        <time>2011-12-23T09:42:27Z</time>
      </trkpt>
      <trkpt lat="45.65848" lon="6.24053">
        <ele>1290.70703125</ele>
        <time>2011-12-23T09:42:32Z</time>
      </trkpt>
      <trkpt lat="45.65849" lon="6.24056">
        <ele>1295.033203125</ele>
        <time>2011-12-23T09:42:48Z</time>
      </trkpt>
      <trkpt lat="45.65852" lon="6.24058">
        <ele>1294.0720214844</ele>
        <time>2011-12-23T09:42:58Z</time>
      </trkpt>
      <trkpt lat="45.65851" lon="6.24059">
        <ele>1291.6684570312</ele>
        <time>2011-12-23T09:43:02Z</time>
      </trkpt>
      <trkpt lat="45.65851" lon="6.24059">
        <ele>1291.6684570312</ele>
        <time>2011-12-23T09:43:03Z</time>
      </trkpt>
      <trkpt lat="45.65854" lon="6.24058">
        <ele>1286.8618164062</ele>
        <time>2011-12-23T09:43:11Z</time>
      </trkpt>
      <trkpt lat="45.65854" lon="6.24064">
        <ele>1292.6301269531</ele>
        <time>2011-12-23T09:43:36Z</time>
      </trkpt>
      <trkpt lat="45.65852" lon="6.24067">
        <ele>1297.4365234375</ele>
        <time>2011-12-23T09:43:43Z</time>
      </trkpt>
      <trkpt lat="45.65852" lon="6.24068">
        <ele>1297.9172363281</ele>
        <time>2011-12-23T09:43:53Z</time>
      </trkpt>
      <trkpt lat="45.65849" lon="6.24064">
        <ele>1296.4753417969</ele>
        <time>2011-12-23T09:44:11Z</time>
      </trkpt>
      <trkpt lat="45.65849" lon="6.24063">
        <ele>1295.9946289062</ele>
        <time>2011-12-23T09:44:16Z</time>
      </trkpt>
      <trkpt lat="45.65849" lon="6.2406">
        <ele>1291.6684570312</ele>
        <time>2011-12-23T09:44:23Z</time>
      </trkpt>
      <trkpt lat="45.6585" lon="6.24062">
        <ele>1285.419921875</ele>
        <time>2011-12-23T09:44:43Z</time>
      </trkpt>
      <trkpt lat="45.65849" lon="6.24064">
        <ele>1286.8618164062</ele>
        <time>2011-12-23T09:44:45Z</time>
      </trkpt>
      <trkpt lat="45.65849" lon="6.24065">
        <ele>1287.3425292969</ele>
        <time>2011-12-23T09:44:46Z</time>
      </trkpt>
      <trkpt lat="45.65846" lon="6.24066">
        <ele>1292.6301269531</ele>
        <time>2011-12-23T09:44:57Z</time>
      </trkpt>
      <trkpt lat="45.65851" lon="6.24065">
        <ele>1290.2265625</ele>
        <time>2011-12-23T09:45:56Z</time>
      </trkpt>
      <trkpt lat="45.65848" lon="6.24062">
        <ele>1297.4365234375</ele>
        <time>2011-12-23T09:46:10Z</time>
      </trkpt>
      <trkpt lat="45.65845" lon="6.24059">
        <ele>1299.83984375</ele>
        <time>2011-12-23T09:46:17Z</time>
      </trkpt>
      <trkpt lat="45.65844" lon="6.24058">
        <ele>1297.9172363281</ele>
        <time>2011-12-23T09:46:26Z</time>
      </trkpt>
      <trkpt lat="45.65847" lon="6.24056">
        <ele>1295.9946289062</ele>
        <time>2011-12-23T09:46:43Z</time>
      </trkpt>
      <trkpt lat="45.65848" lon="6.24059">
        <ele>1296.9558105469</ele>
        <time>2011-12-23T09:47:02Z</time>
      </trkpt>
      <trkpt lat="45.65846" lon="6.24057">
        <ele>1296.9558105469</ele>
        <time>2011-12-23T09:47:05Z</time>
      </trkpt>
      <trkpt lat="45.65847" lon="6.24056">
        <ele>1295.9946289062</ele>
        <time>2011-12-23T09:47:08Z</time>
      </trkpt>
      <trkpt lat="45.65849" lon="6.24053">
        <ele>1293.5913085938</ele>
        <time>2011-12-23T09:47:13Z</time>
      </trkpt>
      <trkpt lat="45.65849" lon="6.24051">
        <ele>1297.9172363281</ele>
        <time>2011-12-23T09:47:31Z</time>
      </trkpt>
      <trkpt lat="45.65851" lon="6.24051">
        <ele>1298.3977050781</ele>
        <time>2011-12-23T09:47:35Z</time>
      </trkpt>
      <trkpt lat="45.65852" lon="6.24052">
        <ele>1299.83984375</ele>
        <time>2011-12-23T09:47:40Z</time>
      </trkpt>
      <trkpt lat="45.65854" lon="6.24053">
        <ele>1298.8784179688</ele>
        <time>2011-12-23T09:47:44Z</time>
      </trkpt>
      <trkpt lat="45.65857" lon="6.24056">
        <ele>1300.3205566406</ele>
        <time>2011-12-23T09:47:48Z</time>
      </trkpt>
      <trkpt lat="45.65859" lon="6.24057">
        <ele>1302.2429199219</ele>
        <time>2011-12-23T09:47:52Z</time>
      </trkpt>
      <trkpt lat="45.65861" lon="6.24057">
        <ele>1301.7624511719</ele>
        <time>2011-12-23T09:47:56Z</time>
      </trkpt>
      <trkpt lat="45.65866" lon="6.24057">
        <ele>1300.8010253906</ele>
        <time>2011-12-23T09:48:01Z</time>
      </trkpt>
      <trkpt lat="45.65868" lon="6.24057">
        <ele>1300.3205566406</ele>
        <time>2011-12-23T09:48:06Z</time>
      </trkpt>
      <trkpt lat="45.65871" lon="6.24059">
        <ele>1298.8784179688</ele>
        <time>2011-12-23T09:48:13Z</time>
      </trkpt>
      <trkpt lat="45.65873" lon="6.24059">
        <ele>1297.9172363281</ele>
        <time>2011-12-23T09:48:18Z</time>
      </trkpt>
      <trkpt lat="45.65874" lon="6.24059">
        <ele>1298.3977050781</ele>
        <time>2011-12-23T09:48:23Z</time>
      </trkpt>
      <trkpt lat="45.65877" lon="6.24058">
        <ele>1299.3591308594</ele>
        <time>2011-12-23T09:48:33Z</time>
      </trkpt>
      <trkpt lat="45.65881" lon="6.24057">
        <ele>1299.3591308594</ele>
        <time>2011-12-23T09:48:42Z</time>
      </trkpt>
      <trkpt lat="45.65884" lon="6.24057">
        <ele>1299.83984375</ele>
        <time>2011-12-23T09:48:49Z</time>
      </trkpt>
      <trkpt lat="45.65886" lon="6.2406">
        <ele>1303.6850585938</ele>
        <time>2011-12-23T09:48:55Z</time>
      </trkpt>
      <trkpt lat="45.65887" lon="6.24059">
        <ele>1305.6076660156</ele>
        <time>2011-12-23T09:49:00Z</time>
      </trkpt>
      <trkpt lat="45.65889" lon="6.24057">
        <ele>1303.6850585938</ele>
        <time>2011-12-23T09:49:07Z</time>
      </trkpt>
      <trkpt lat="45.65891" lon="6.24057">
        <ele>1303.2043457031</ele>
        <time>2011-12-23T09:49:13Z</time>
      </trkpt>
      <trkpt lat="45.65894" lon="6.24058">
        <ele>1302.2429199219</ele>
        <time>2011-12-23T09:49:17Z</time>
      </trkpt>
      <trkpt lat="45.65897" lon="6.24058">
        <ele>1301.2817382812</ele>
        <time>2011-12-23T09:49:22Z</time>
      </trkpt>
      <trkpt lat="45.659" lon="6.24058">
        <ele>1299.3591308594</ele>
        <time>2011-12-23T09:49:27Z</time>
      </trkpt>
      <trkpt lat="45.65905" lon="6.2406">
        <ele>1300.3205566406</ele>
        <time>2011-12-23T09:49:33Z</time>
      </trkpt>
      <trkpt lat="45.65908" lon="6.24061">
        <ele>1300.3205566406</ele>
        <time>2011-12-23T09:49:38Z</time>
      </trkpt>
      <trkpt lat="45.65911" lon="6.24064">
        <ele>1304.1657714844</ele>
        <time>2011-12-23T09:49:46Z</time>
      </trkpt>
      <trkpt lat="45.65914" lon="6.24065">
        <ele>1306.0881347656</ele>
        <time>2011-12-23T09:49:50Z</time>
      </trkpt>
      <trkpt lat="45.65917" lon="6.24066">
        <ele>1306.5688476562</ele>
        <time>2011-12-23T09:49:55Z</time>
      </trkpt>
      <trkpt lat="45.65919" lon="6.2407">
        <ele>1305.6076660156</ele>
        <time>2011-12-23T09:50:00Z</time>
      </trkpt>
      <trkpt lat="45.65922" lon="6.24069">
        <ele>1302.7236328125</ele>
        <time>2011-12-23T09:50:04Z</time>
      </trkpt>
      <trkpt lat="45.65923" lon="6.24069">
        <ele>1304.1657714844</ele>
        <time>2011-12-23T09:50:08Z</time>
      </trkpt>
      <trkpt lat="45.65926" lon="6.24072">
        <ele>1309.453125</ele>
        <time>2011-12-23T09:50:20Z</time>
      </trkpt>
      <trkpt lat="45.6593" lon="6.24075">
        <ele>1310.4143066406</ele>
        <time>2011-12-23T09:50:24Z</time>
      </trkpt>
      <trkpt lat="45.6593" lon="6.24078">
        <ele>1309.453125</ele>
        <time>2011-12-23T09:50:29Z</time>
      </trkpt>
      <trkpt lat="45.65931" lon="6.24081">
        <ele>1308.9724121094</ele>
        <time>2011-12-23T09:50:33Z</time>
      </trkpt>
      <trkpt lat="45.65936" lon="6.24083">
        <ele>1310.4143066406</ele>
        <time>2011-12-23T09:50:38Z</time>
      </trkpt>
      <trkpt lat="45.65942" lon="6.24085">
        <ele>1310.8950195312</ele>
        <time>2011-12-23T09:50:44Z</time>
      </trkpt>
      <trkpt lat="45.65944" lon="6.24087">
        <ele>1309.93359375</ele>
        <time>2011-12-23T09:50:50Z</time>
      </trkpt>
      <trkpt lat="45.65944" lon="6.24089">
        <ele>1309.93359375</ele>
        <time>2011-12-23T09:50:51Z</time>
      </trkpt>
      <trkpt lat="45.65945" lon="6.24094">
        <ele>1310.8950195312</ele>
        <time>2011-12-23T09:50:57Z</time>
      </trkpt>
      <trkpt lat="45.65947" lon="6.24094">
        <ele>1308.9724121094</ele>
        <time>2011-12-23T09:51:02Z</time>
      </trkpt>
      <trkpt lat="45.65949" lon="6.24095">
        <ele>1309.453125</ele>
        <time>2011-12-23T09:51:07Z</time>
      </trkpt>
      <trkpt lat="45.65952" lon="6.24096">
        <ele>1308.4916992188</ele>
        <time>2011-12-23T09:51:11Z</time>
      </trkpt>
      <trkpt lat="45.65953" lon="6.241">
        <ele>1308.9724121094</ele>
        <time>2011-12-23T09:51:16Z</time>
      </trkpt>
      <trkpt lat="45.65956" lon="6.24102">
        <ele>1308.4916992188</ele>
        <time>2011-12-23T09:51:21Z</time>
      </trkpt>
      <trkpt lat="45.65958" lon="6.24103">
        <ele>1308.4916992188</ele>
        <time>2011-12-23T09:51:26Z</time>
      </trkpt>
      <trkpt lat="45.6596" lon="6.24105">
        <ele>1307.5302734375</ele>
        <time>2011-12-23T09:51:32Z</time>
      </trkpt>
      <trkpt lat="45.65961" lon="6.24105">
        <ele>1306.0881347656</ele>
        <time>2011-12-23T09:51:38Z</time>
      </trkpt>
      <trkpt lat="45.65964" lon="6.24108">
        <ele>1307.0495605469</ele>
        <time>2011-12-23T09:51:45Z</time>
      </trkpt>
      <trkpt lat="45.65966" lon="6.24111">
        <ele>1308.4916992188</ele>
        <time>2011-12-23T09:51:50Z</time>
      </trkpt>
      <trkpt lat="45.65969" lon="6.2411">
        <ele>1311.3757324219</ele>
        <time>2011-12-23T09:52:02Z</time>
      </trkpt>
      <trkpt lat="45.6597" lon="6.24111">
        <ele>1312.3369140625</ele>
        <time>2011-12-23T09:52:05Z</time>
      </trkpt>
      <trkpt lat="45.6597" lon="6.24114">
        <ele>1311.8564453125</ele>
        <time>2011-12-23T09:52:10Z</time>
      </trkpt>
      <trkpt lat="45.6597" lon="6.2411">
        <ele>1314.740234375</ele>
        <time>2011-12-23T09:52:17Z</time>
      </trkpt>
      <trkpt lat="45.65969" lon="6.24111">
        <ele>1315.2209472656</ele>
        <time>2011-12-23T09:52:23Z</time>
      </trkpt>
      <trkpt lat="45.65969" lon="6.24117">
        <ele>1317.1435546875</ele>
        <time>2011-12-23T09:52:31Z</time>
      </trkpt>
      <trkpt lat="45.65968" lon="6.24121">
        <ele>1314.740234375</ele>
        <time>2011-12-23T09:52:53Z</time>
      </trkpt>
      <trkpt lat="45.65968" lon="6.24121">
        <ele>1314.2595214844</ele>
        <time>2011-12-23T09:52:57Z</time>
      </trkpt>
      <trkpt lat="45.65967" lon="6.24121">
        <ele>1313.7788085938</ele>
        <time>2011-12-23T09:53:11Z</time>
      </trkpt>
      <trkpt lat="45.65963" lon="6.2412">
        <ele>1320.9887695312</ele>
        <time>2011-12-23T09:53:27Z</time>
      </trkpt>
      <trkpt lat="45.65962" lon="6.2412">
        <ele>1322.4306640625</ele>
        <time>2011-12-23T09:53:29Z</time>
      </trkpt>
      <trkpt lat="45.6596" lon="6.24122">
        <ele>1327.2375488281</ele>
        <time>2011-12-23T09:53:39Z</time>
      </trkpt>
      <trkpt lat="45.65961" lon="6.24124">
        <ele>1324.8342285156</ele>
        <time>2011-12-23T09:53:45Z</time>
      </trkpt>
      <trkpt lat="45.65965" lon="6.24127">
        <ele>1318.1047363281</ele>
        <time>2011-12-23T09:53:57Z</time>
      </trkpt>
      <trkpt lat="45.6597" lon="6.24125">
        <ele>1313.7788085938</ele>
        <time>2011-12-23T09:54:03Z</time>
      </trkpt>
      <trkpt lat="45.65971" lon="6.2413">
        <ele>1313.2983398438</ele>
        <time>2011-12-23T09:54:11Z</time>
      </trkpt>
      <trkpt lat="45.65974" lon="6.24132">
        <ele>1315.7016601562</ele>
        <time>2011-12-23T09:54:19Z</time>
      </trkpt>
      <trkpt lat="45.6598" lon="6.24134">
        <ele>1317.1435546875</ele>
        <time>2011-12-23T09:54:27Z</time>
      </trkpt>
      <trkpt lat="45.65987" lon="6.24133">
        <ele>1312.8176269531</ele>
        <time>2011-12-23T09:54:36Z</time>
      </trkpt>
      <trkpt lat="45.65992" lon="6.24134">
        <ele>1311.3757324219</ele>
        <time>2011-12-23T09:54:42Z</time>
      </trkpt>
      <trkpt lat="45.65993" lon="6.24136">
        <ele>1309.453125</ele>
        <time>2011-12-23T09:54:46Z</time>
      </trkpt>
      <trkpt lat="45.65994" lon="6.24143">
        <ele>1310.8950195312</ele>
        <time>2011-12-23T09:54:51Z</time>
      </trkpt>
      <trkpt lat="45.65997" lon="6.24143">
        <ele>1310.4143066406</ele>
        <time>2011-12-23T09:54:55Z</time>
      </trkpt>
      <trkpt lat="45.66" lon="6.24145">
        <ele>1311.3757324219</ele>
        <time>2011-12-23T09:54:59Z</time>
      </trkpt>
      <trkpt lat="45.66004" lon="6.24148">
        <ele>1314.740234375</ele>
        <time>2011-12-23T09:55:09Z</time>
      </trkpt>
      <trkpt lat="45.66006" lon="6.24148">
        <ele>1315.7016601562</ele>
        <time>2011-12-23T09:55:14Z</time>
      </trkpt>
      <trkpt lat="45.66008" lon="6.24148">
        <ele>1314.740234375</ele>
        <time>2011-12-23T09:55:19Z</time>
      </trkpt>
      <trkpt lat="45.6601" lon="6.24149">
        <ele>1315.2209472656</ele>
        <time>2011-12-23T09:55:24Z</time>
      </trkpt>
      <trkpt lat="45.66009" lon="6.24147">
        <ele>1316.1821289062</ele>
        <time>2011-12-23T09:55:33Z</time>
      </trkpt>
      <trkpt lat="45.66012" lon="6.24147">
        <ele>1315.7016601562</ele>
        <time>2011-12-23T09:55:47Z</time>
      </trkpt>
      <trkpt lat="45.66013" lon="6.24144">
        <ele>1316.1821289062</ele>
        <time>2011-12-23T09:55:51Z</time>
      </trkpt>
      <trkpt lat="45.66013" lon="6.24143">
        <ele>1316.6628417969</ele>
        <time>2011-12-23T09:55:53Z</time>
      </trkpt>
      <trkpt lat="45.66013" lon="6.24143">
        <ele>1316.6628417969</ele>
        <time>2011-12-23T09:55:54Z</time>
      </trkpt>
      <trkpt lat="45.66013" lon="6.24146">
        <ele>1323.8725585938</ele>
        <time>2011-12-23T09:56:11Z</time>
      </trkpt>
      <trkpt lat="45.66015" lon="6.24148">
        <ele>1318.5854492188</ele>
        <time>2011-12-23T09:56:30Z</time>
      </trkpt>
      <trkpt lat="45.66019" lon="6.24149">
        <ele>1319.546875</ele>
        <time>2011-12-23T09:56:36Z</time>
      </trkpt>
      <trkpt lat="45.66019" lon="6.24146">
        <ele>1316.6628417969</ele>
        <time>2011-12-23T09:56:46Z</time>
      </trkpt>
      <trkpt lat="45.66013" lon="6.2414">
        <ele>1328.1987304688</ele>
        <time>2011-12-23T09:57:03Z</time>
      </trkpt>
      <trkpt lat="45.6601" lon="6.24142">
        <ele>1326.2761230469</ele>
        <time>2011-12-23T09:57:25Z</time>
      </trkpt>
      <trkpt lat="45.66011" lon="6.24146">
        <ele>1323.8725585938</ele>
        <time>2011-12-23T09:57:36Z</time>
      </trkpt>
      <trkpt lat="45.66014" lon="6.24147">
        <ele>1322.4306640625</ele>
        <time>2011-12-23T09:57:40Z</time>
      </trkpt>
      <trkpt lat="45.66016" lon="6.24148">
        <ele>1321.4692382812</ele>
        <time>2011-12-23T09:57:44Z</time>
      </trkpt>
      <trkpt lat="45.66019" lon="6.24151">
        <ele>1316.1821289062</ele>
        <time>2011-12-23T09:57:49Z</time>
      </trkpt>
      <trkpt lat="45.66022" lon="6.24153">
        <ele>1313.2983398438</ele>
        <time>2011-12-23T09:57:53Z</time>
      </trkpt>
      <trkpt lat="45.66024" lon="6.24155">
        <ele>1313.2983398438</ele>
        <time>2011-12-23T09:57:57Z</time>
      </trkpt>
      <trkpt lat="45.66026" lon="6.24156">
        <ele>1314.740234375</ele>
        <time>2011-12-23T09:58:02Z</time>
      </trkpt>
      <trkpt lat="45.66029" lon="6.24155">
        <ele>1312.8176269531</ele>
        <time>2011-12-23T09:58:12Z</time>
      </trkpt>
      <trkpt lat="45.66032" lon="6.24158">
        <ele>1310.8950195312</ele>
        <time>2011-12-23T09:58:17Z</time>
      </trkpt>
      <trkpt lat="45.66034" lon="6.24159">
        <ele>1309.93359375</ele>
        <time>2011-12-23T09:58:21Z</time>
      </trkpt>
      <trkpt lat="45.66037" lon="6.24162">
        <ele>1309.93359375</ele>
        <time>2011-12-23T09:58:26Z</time>
      </trkpt>
      <trkpt lat="45.66039" lon="6.24163">
        <ele>1310.8950195312</ele>
        <time>2011-12-23T09:58:30Z</time>
      </trkpt>
      <trkpt lat="45.66042" lon="6.24165">
        <ele>1310.8950195312</ele>
        <time>2011-12-23T09:58:36Z</time>
      </trkpt>
      <trkpt lat="45.66044" lon="6.24166">
        <ele>1310.8950195312</ele>
        <time>2011-12-23T09:58:41Z</time>
      </trkpt>
      <trkpt lat="45.66047" lon="6.24168">
        <ele>1309.453125</ele>
        <time>2011-12-23T09:58:48Z</time>
      </trkpt>
      <trkpt lat="45.66049" lon="6.24169">
        <ele>1308.9724121094</ele>
        <time>2011-12-23T09:58:53Z</time>
      </trkpt>
      <trkpt lat="45.66053" lon="6.24169">
        <ele>1308.4916992188</ele>
        <time>2011-12-23T09:59:00Z</time>
      </trkpt>
      <trkpt lat="45.66053" lon="6.24169">
        <ele>1308.0112304688</ele>
        <time>2011-12-23T09:59:06Z</time>
      </trkpt>
      <trkpt lat="45.66054" lon="6.24167">
        <ele>1309.453125</ele>
        <time>2011-12-23T09:59:25Z</time>
      </trkpt>
      <trkpt lat="45.66054" lon="6.24167">
        <ele>1309.93359375</ele>
        <time>2011-12-23T09:59:30Z</time>
      </trkpt>
      <trkpt lat="45.66056" lon="6.24168">
        <ele>1310.4143066406</ele>
        <time>2011-12-23T09:59:42Z</time>
      </trkpt>
      <trkpt lat="45.66058" lon="6.24168">
        <ele>1309.453125</ele>
        <time>2011-12-23T09:59:51Z</time>
      </trkpt>
      <trkpt lat="45.6606" lon="6.2417">
        <ele>1309.453125</ele>
        <time>2011-12-23T09:59:57Z</time>
      </trkpt>
      <trkpt lat="45.66062" lon="6.24172">
        <ele>1310.8950195312</ele>
        <time>2011-12-23T10:00:03Z</time>
      </trkpt>
      <trkpt lat="45.66067" lon="6.24171">
        <ele>1316.1821289062</ele>
        <time>2011-12-23T10:00:20Z</time>
      </trkpt>
      <trkpt lat="45.66069" lon="6.24172">
        <ele>1315.7016601562</ele>
        <time>2011-12-23T10:00:23Z</time>
      </trkpt>
      <trkpt lat="45.66071" lon="6.24175">
        <ele>1315.2209472656</ele>
        <time>2011-12-23T10:00:31Z</time>
      </trkpt>
      <trkpt lat="45.66072" lon="6.24176">
        <ele>1314.740234375</ele>
        <time>2011-12-23T10:00:37Z</time>
      </trkpt>
      <trkpt lat="45.66075" lon="6.24177">
        <ele>1313.7788085938</ele>
        <time>2011-12-23T10:00:43Z</time>
      </trkpt>
      <trkpt lat="45.66077" lon="6.24178">
        <ele>1312.8176269531</ele>
        <time>2011-12-23T10:00:49Z</time>
      </trkpt>
      <trkpt lat="45.66079" lon="6.24178">
        <ele>1311.3757324219</ele>
        <time>2011-12-23T10:00:55Z</time>
      </trkpt>
      <trkpt lat="45.66082" lon="6.24179">
        <ele>1311.3757324219</ele>
        <time>2011-12-23T10:01:03Z</time>
      </trkpt>
      <trkpt lat="45.66085" lon="6.24181">
        <ele>1310.8950195312</ele>
        <time>2011-12-23T10:01:09Z</time>
      </trkpt>
      <trkpt lat="45.66088" lon="6.24182">
        <ele>1309.453125</ele>
        <time>2011-12-23T10:01:17Z</time>
      </trkpt>
      <trkpt lat="45.66091" lon="6.24183">
        <ele>1308.9724121094</ele>
        <time>2011-12-23T10:01:22Z</time>
      </trkpt>
      <trkpt lat="45.66093" lon="6.24184">
        <ele>1308.0112304688</ele>
        <time>2011-12-23T10:01:27Z</time>
      </trkpt>
      <trkpt lat="45.66095" lon="6.24185">
        <ele>1308.4916992188</ele>
        <time>2011-12-23T10:01:32Z</time>
      </trkpt>
      <trkpt lat="45.66097" lon="6.24185">
        <ele>1309.453125</ele>
        <time>2011-12-23T10:01:41Z</time>
      </trkpt>
      <trkpt lat="45.66101" lon="6.24183">
        <ele>1309.93359375</ele>
        <time>2011-12-23T10:01:56Z</time>
      </trkpt>
      <trkpt lat="45.66105" lon="6.24183">
        <ele>1309.453125</ele>
        <time>2011-12-23T10:02:01Z</time>
      </trkpt>
      <trkpt lat="45.66105" lon="6.24185">
        <ele>1308.9724121094</ele>
        <time>2011-12-23T10:02:08Z</time>
      </trkpt>
      <trkpt lat="45.66107" lon="6.24186">
        <ele>1309.453125</ele>
        <time>2011-12-23T10:02:18Z</time>
      </trkpt>
      <trkpt lat="45.6611" lon="6.24188">
        <ele>1308.9724121094</ele>
        <time>2011-12-23T10:02:25Z</time>
      </trkpt>
      <trkpt lat="45.66112" lon="6.2419">
        <ele>1308.4916992188</ele>
        <time>2011-12-23T10:02:31Z</time>
      </trkpt>
      <trkpt lat="45.66116" lon="6.24194">
        <ele>1309.93359375</ele>
        <time>2011-12-23T10:02:44Z</time>
      </trkpt>
      <trkpt lat="45.66117" lon="6.24194">
        <ele>1308.9724121094</ele>
        <time>2011-12-23T10:02:49Z</time>
      </trkpt>
      <trkpt lat="45.66119" lon="6.24195">
        <ele>1308.4916992188</ele>
        <time>2011-12-23T10:02:56Z</time>
      </trkpt>
      <trkpt lat="45.66121" lon="6.24195">
        <ele>1307.5302734375</ele>
        <time>2011-12-23T10:03:02Z</time>
      </trkpt>
      <trkpt lat="45.66124" lon="6.24196">
        <ele>1308.4916992188</ele>
        <time>2011-12-23T10:03:08Z</time>
      </trkpt>
      <trkpt lat="45.66126" lon="6.24197">
        <ele>1307.5302734375</ele>
        <time>2011-12-23T10:03:16Z</time>
      </trkpt>
      <trkpt lat="45.66128" lon="6.24197">
        <ele>1308.0112304688</ele>
        <time>2011-12-23T10:03:23Z</time>
      </trkpt>
      <trkpt lat="45.6613" lon="6.24198">
        <ele>1308.4916992188</ele>
        <time>2011-12-23T10:03:29Z</time>
      </trkpt>
      <trkpt lat="45.66132" lon="6.242">
        <ele>1308.9724121094</ele>
        <time>2011-12-23T10:03:35Z</time>
      </trkpt>
      <trkpt lat="45.66133" lon="6.24199">
        <ele>1308.9724121094</ele>
        <time>2011-12-23T10:03:41Z</time>
      </trkpt>
      <trkpt lat="45.66133" lon="6.242">
        <ele>1310.8950195312</ele>
        <time>2011-12-23T10:03:52Z</time>
      </trkpt>
      <trkpt lat="45.66132" lon="6.24199">
        <ele>1319.0661621094</ele>
        <time>2011-12-23T10:04:14Z</time>
      </trkpt>
      <trkpt lat="45.66132" lon="6.242">
        <ele>1318.1047363281</ele>
        <time>2011-12-23T10:04:22Z</time>
      </trkpt>
      <trkpt lat="45.66133" lon="6.242">
        <ele>1317.6240234375</ele>
        <time>2011-12-23T10:04:26Z</time>
      </trkpt>
      <trkpt lat="45.66134" lon="6.24199">
        <ele>1315.7016601562</ele>
        <time>2011-12-23T10:04:41Z</time>
      </trkpt>
      <trkpt lat="45.66134" lon="6.24197">
        <ele>1308.9724121094</ele>
        <time>2011-12-23T10:04:57Z</time>
      </trkpt>
      <trkpt lat="45.66134" lon="6.24198">
        <ele>1311.3757324219</ele>
        <time>2011-12-23T10:05:02Z</time>
      </trkpt>
      <trkpt lat="45.66134" lon="6.24197">
        <ele>1312.3369140625</ele>
        <time>2011-12-23T10:05:05Z</time>
      </trkpt>
      <trkpt lat="45.66137" lon="6.24198">
        <ele>1313.7788085938</ele>
        <time>2011-12-23T10:05:11Z</time>
      </trkpt>
      <trkpt lat="45.66139" lon="6.242">
        <ele>1314.2595214844</ele>
        <time>2011-12-23T10:05:16Z</time>
      </trkpt>
      <trkpt lat="45.66142" lon="6.242">
        <ele>1313.7788085938</ele>
        <time>2011-12-23T10:05:21Z</time>
      </trkpt>
      <trkpt lat="45.66142" lon="6.242">
        <ele>1311.8564453125</ele>
        <time>2011-12-23T10:05:29Z</time>
      </trkpt>
      <trkpt lat="45.66142" lon="6.242">
        <ele>1311.8564453125</ele>
        <time>2011-12-23T10:05:34Z</time>
      </trkpt>
      <trkpt lat="45.66142" lon="6.24199">
        <ele>1313.2983398438</ele>
        <time>2011-12-23T10:05:47Z</time>
      </trkpt>
      <trkpt lat="45.66142" lon="6.24199">
        <ele>1313.2983398438</ele>
        <time>2011-12-23T10:05:54Z</time>
      </trkpt>
      <trkpt lat="45.66143" lon="6.242">
        <ele>1313.7788085938</ele>
        <time>2011-12-23T10:06:01Z</time>
      </trkpt>
      <trkpt lat="45.66145" lon="6.24202">
        <ele>1313.7788085938</ele>
        <time>2011-12-23T10:06:08Z</time>
      </trkpt>
      <trkpt lat="45.66146" lon="6.24203">
        <ele>1312.8176269531</ele>
        <time>2011-12-23T10:06:15Z</time>
      </trkpt>
      <trkpt lat="45.66148" lon="6.24204">
        <ele>1312.8176269531</ele>
        <time>2011-12-23T10:06:29Z</time>
      </trkpt>
      <trkpt lat="45.6615" lon="6.24204">
        <ele>1313.2983398438</ele>
        <time>2011-12-23T10:06:35Z</time>
      </trkpt>
      <trkpt lat="45.66153" lon="6.24205">
        <ele>1312.3369140625</ele>
        <time>2011-12-23T10:06:40Z</time>
      </trkpt>
      <trkpt lat="45.66154" lon="6.24206">
        <ele>1311.3757324219</ele>
        <time>2011-12-23T10:06:46Z</time>
      </trkpt>
      <trkpt lat="45.66158" lon="6.24207">
        <ele>1311.3757324219</ele>
        <time>2011-12-23T10:07:06Z</time>
      </trkpt>
      <trkpt lat="45.66159" lon="6.24208">
        <ele>1311.3757324219</ele>
        <time>2011-12-23T10:07:10Z</time>
      </trkpt>
      <trkpt lat="45.66161" lon="6.24209">
        <ele>1314.740234375</ele>
        <time>2011-12-23T10:07:22Z</time>
      </trkpt>
      <trkpt lat="45.66161" lon="6.24209">
        <ele>1314.740234375</ele>
        <time>2011-12-23T10:07:27Z</time>
      </trkpt>
      <trkpt lat="45.66159" lon="6.24209">
        <ele>1312.8176269531</ele>
        <time>2011-12-23T10:07:35Z</time>
      </trkpt>
      <trkpt lat="45.66159" lon="6.24209">
        <ele>1312.3369140625</ele>
        <time>2011-12-23T10:07:39Z</time>
      </trkpt>
      <trkpt lat="45.66159" lon="6.24207">
        <ele>1312.3369140625</ele>
        <time>2011-12-23T10:07:41Z</time>
      </trkpt>
      <trkpt lat="45.66157" lon="6.24208">
        <ele>1313.7788085938</ele>
        <time>2011-12-23T10:07:46Z</time>
      </trkpt>
      <trkpt lat="45.66157" lon="6.24207">
        <ele>1313.2983398438</ele>
        <time>2011-12-23T10:07:48Z</time>
      </trkpt>
      <trkpt lat="45.66156" lon="6.24207">
        <ele>1313.2983398438</ele>
        <time>2011-12-23T10:07:50Z</time>
      </trkpt>
      <trkpt lat="45.66159" lon="6.24207">
        <ele>1313.7788085938</ele>
        <time>2011-12-23T10:07:58Z</time>
      </trkpt>
      <trkpt lat="45.66159" lon="6.24207">
        <ele>1313.7788085938</ele>
        <time>2011-12-23T10:08:04Z</time>
      </trkpt>
      <trkpt lat="45.66158" lon="6.24205">
        <ele>1316.1821289062</ele>
        <time>2011-12-23T10:08:12Z</time>
      </trkpt>
      <trkpt lat="45.66157" lon="6.24204">
        <ele>1317.1435546875</ele>
        <time>2011-12-23T10:08:18Z</time>
      </trkpt>
      <trkpt lat="45.66156" lon="6.24204">
        <ele>1317.6240234375</ele>
        <time>2011-12-23T10:08:26Z</time>
      </trkpt>
      <trkpt lat="45.66153" lon="6.24205">
        <ele>1318.5854492188</ele>
        <time>2011-12-23T10:08:34Z</time>
      </trkpt>
      <trkpt lat="45.66153" lon="6.24205">
        <ele>1316.1821289062</ele>
        <time>2011-12-23T10:08:39Z</time>
      </trkpt>
      <trkpt lat="45.66153" lon="6.24205">
        <ele>1314.740234375</ele>
        <time>2011-12-23T10:08:45Z</time>
      </trkpt>
      <trkpt lat="45.66156" lon="6.24206">
        <ele>1313.7788085938</ele>
        <time>2011-12-23T10:08:52Z</time>
      </trkpt>
      <trkpt lat="45.66158" lon="6.24206">
        <ele>1313.7788085938</ele>
        <time>2011-12-23T10:08:57Z</time>
      </trkpt>
      <trkpt lat="45.66157" lon="6.24206">
        <ele>1313.7788085938</ele>
        <time>2011-12-23T10:09:03Z</time>
      </trkpt>
      <trkpt lat="45.66157" lon="6.24205">
        <ele>1312.3369140625</ele>
        <time>2011-12-23T10:09:15Z</time>
      </trkpt>
      <trkpt lat="45.66157" lon="6.24205">
        <ele>1312.3369140625</ele>
        <time>2011-12-23T10:09:17Z</time>
      </trkpt>
      <trkpt lat="45.66157" lon="6.24205">
        <ele>1312.8176269531</ele>
        <time>2011-12-23T10:09:29Z</time>
      </trkpt>
      <trkpt lat="45.66157" lon="6.24204">
        <ele>1313.7788085938</ele>
        <time>2011-12-23T10:09:38Z</time>
      </trkpt>
      <trkpt lat="45.66156" lon="6.24203">
        <ele>1316.1821289062</ele>
        <time>2011-12-23T10:09:42Z</time>
      </trkpt>
      <trkpt lat="45.66157" lon="6.24204">
        <ele>1312.3369140625</ele>
        <time>2011-12-23T10:09:52Z</time>
      </trkpt>
      <trkpt lat="45.66158" lon="6.24205">
        <ele>1313.2983398438</ele>
        <time>2011-12-23T10:10:01Z</time>
      </trkpt>
      <trkpt lat="45.66158" lon="6.24206">
        <ele>1314.2595214844</ele>
        <time>2011-12-23T10:10:05Z</time>
      </trkpt>
      <trkpt lat="45.66157" lon="6.24207">
        <ele>1315.7016601562</ele>
        <time>2011-12-23T10:10:13Z</time>
      </trkpt>
      <trkpt lat="45.66156" lon="6.24211">
        <ele>1317.1435546875</ele>
        <time>2011-12-23T10:10:29Z</time>
      </trkpt>
      <trkpt lat="45.66158" lon="6.24211">
        <ele>1316.6628417969</ele>
        <time>2011-12-23T10:10:33Z</time>
      </trkpt>
      <trkpt lat="45.66161" lon="6.24212">
        <ele>1316.1821289062</ele>
        <time>2011-12-23T10:10:38Z</time>
      </trkpt>
      <trkpt lat="45.66163" lon="6.24213">
        <ele>1315.2209472656</ele>
        <time>2011-12-23T10:10:46Z</time>
      </trkpt>
      <trkpt lat="45.66164" lon="6.24213">
        <ele>1315.2209472656</ele>
        <time>2011-12-23T10:10:49Z</time>
      </trkpt>
      <trkpt lat="45.66166" lon="6.24214">
        <ele>1315.7016601562</ele>
        <time>2011-12-23T10:10:54Z</time>
      </trkpt>
      <trkpt lat="45.66168" lon="6.24215">
        <ele>1315.7016601562</ele>
        <time>2011-12-23T10:10:59Z</time>
      </trkpt>
      <trkpt lat="45.6617" lon="6.24216">
        <ele>1316.1821289062</ele>
        <time>2011-12-23T10:11:04Z</time>
      </trkpt>
      <trkpt lat="45.66171" lon="6.24217">
        <ele>1316.1821289062</ele>
        <time>2011-12-23T10:11:09Z</time>
      </trkpt>
      <trkpt lat="45.66171" lon="6.24216">
        <ele>1314.740234375</ele>
        <time>2011-12-23T10:11:21Z</time>
      </trkpt>
      <trkpt lat="45.66175" lon="6.24216">
        <ele>1316.6628417969</ele>
        <time>2011-12-23T10:11:34Z</time>
      </trkpt>
      <trkpt lat="45.66177" lon="6.24217">
        <ele>1317.1435546875</ele>
        <time>2011-12-23T10:11:38Z</time>
      </trkpt>
      <trkpt lat="45.6618" lon="6.24218">
        <ele>1316.6628417969</ele>
        <time>2011-12-23T10:11:46Z</time>
      </trkpt>
      <trkpt lat="45.66182" lon="6.24219">
        <ele>1316.6628417969</ele>
        <time>2011-12-23T10:11:52Z</time>
      </trkpt>
      <trkpt lat="45.66184" lon="6.24221">
        <ele>1315.2209472656</ele>
        <time>2011-12-23T10:12:01Z</time>
      </trkpt>
      <trkpt lat="45.66186" lon="6.24222">
        <ele>1315.7016601562</ele>
        <time>2011-12-23T10:12:07Z</time>
      </trkpt>
      <trkpt lat="45.66188" lon="6.24223">
        <ele>1315.2209472656</ele>
        <time>2011-12-23T10:12:12Z</time>
      </trkpt>
      <trkpt lat="45.66189" lon="6.2422">
        <ele>1315.2209472656</ele>
        <time>2011-12-23T10:12:18Z</time>
      </trkpt>
      <trkpt lat="45.66193" lon="6.24219">
        <ele>1320.02734375</ele>
        <time>2011-12-23T10:12:32Z</time>
      </trkpt>
      <trkpt lat="45.66196" lon="6.24215">
        <ele>1319.546875</ele>
        <time>2011-12-23T10:12:37Z</time>
      </trkpt>
      <trkpt lat="45.66198" lon="6.24217">
        <ele>1319.0661621094</ele>
        <time>2011-12-23T10:12:45Z</time>
      </trkpt>
      <trkpt lat="45.66199" lon="6.24218">
        <ele>1320.5080566406</ele>
        <time>2011-12-23T10:12:51Z</time>
      </trkpt>
      <trkpt lat="45.66201" lon="6.24219">
        <ele>1320.9887695312</ele>
        <time>2011-12-23T10:12:58Z</time>
      </trkpt>
      <trkpt lat="45.66205" lon="6.24219">
        <ele>1318.5854492188</ele>
        <time>2011-12-23T10:13:07Z</time>
      </trkpt>
      <trkpt lat="45.66208" lon="6.24218">
        <ele>1318.1047363281</ele>
        <time>2011-12-23T10:13:13Z</time>
      </trkpt>
      <trkpt lat="45.6621" lon="6.24218">
        <ele>1319.0661621094</ele>
        <time>2011-12-23T10:13:18Z</time>
      </trkpt>
      <trkpt lat="45.66212" lon="6.24219">
        <ele>1320.02734375</ele>
        <time>2011-12-23T10:13:25Z</time>
      </trkpt>
      <trkpt lat="45.66214" lon="6.24219">
        <ele>1320.02734375</ele>
        <time>2011-12-23T10:13:30Z</time>
      </trkpt>
      <trkpt lat="45.66217" lon="6.24221">
        <ele>1320.5080566406</ele>
        <time>2011-12-23T10:13:34Z</time>
      </trkpt>
      <trkpt lat="45.6622" lon="6.24221">
        <ele>1320.5080566406</ele>
        <time>2011-12-23T10:13:42Z</time>
      </trkpt>
      <trkpt lat="45.66222" lon="6.24221">
        <ele>1321.4692382812</ele>
        <time>2011-12-23T10:13:48Z</time>
      </trkpt>
      <trkpt lat="45.66222" lon="6.24219">
        <ele>1325.3146972656</ele>
        <time>2011-12-23T10:14:05Z</time>
      </trkpt>
      <trkpt lat="45.66224" lon="6.24217">
        <ele>1328.1987304688</ele>
        <time>2011-12-23T10:14:11Z</time>
      </trkpt>
      <trkpt lat="45.66227" lon="6.24218">
        <ele>1327.7180175781</ele>
        <time>2011-12-23T10:14:18Z</time>
      </trkpt>
      <trkpt lat="45.6623" lon="6.24219">
        <ele>1326.7568359375</ele>
        <time>2011-12-23T10:14:23Z</time>
      </trkpt>
      <trkpt lat="45.66232" lon="6.2422">
        <ele>1326.2761230469</ele>
        <time>2011-12-23T10:14:27Z</time>
      </trkpt>
      <trkpt lat="45.66234" lon="6.24221">
        <ele>1326.7568359375</ele>
        <time>2011-12-23T10:14:31Z</time>
      </trkpt>
      <trkpt lat="45.66237" lon="6.24223">
        <ele>1327.2375488281</ele>
        <time>2011-12-23T10:14:37Z</time>
      </trkpt>
      <trkpt lat="45.6624" lon="6.24224">
        <ele>1327.7180175781</ele>
        <time>2011-12-23T10:14:41Z</time>
      </trkpt>
      <trkpt lat="45.66242" lon="6.24223">
        <ele>1326.7568359375</ele>
        <time>2011-12-23T10:14:45Z</time>
      </trkpt>
      <trkpt lat="45.66246" lon="6.24223">
        <ele>1324.8342285156</ele>
        <time>2011-12-23T10:14:51Z</time>
      </trkpt>
      <trkpt lat="45.66248" lon="6.24224">
        <ele>1323.3920898438</ele>
        <time>2011-12-23T10:14:55Z</time>
      </trkpt>
      <trkpt lat="45.66251" lon="6.24227">
        <ele>1322.9113769531</ele>
        <time>2011-12-23T10:15:01Z</time>
      </trkpt>
      <trkpt lat="45.66253" lon="6.24228">
        <ele>1322.4306640625</ele>
        <time>2011-12-23T10:15:06Z</time>
      </trkpt>
      <trkpt lat="45.66255" lon="6.24229">
        <ele>1323.3920898438</ele>
        <time>2011-12-23T10:15:12Z</time>
      </trkpt>
      <trkpt lat="45.66258" lon="6.2423">
        <ele>1323.8725585938</ele>
        <time>2011-12-23T10:15:17Z</time>
      </trkpt>
      <trkpt lat="45.66261" lon="6.24233">
        <ele>1324.353515625</ele>
        <time>2011-12-23T10:15:21Z</time>
      </trkpt>
      <trkpt lat="45.66262" lon="6.24233">
        <ele>1323.3920898438</ele>
        <time>2011-12-23T10:15:26Z</time>
      </trkpt>
      <trkpt lat="45.66265" lon="6.24235">
        <ele>1329.1599121094</ele>
        <time>2011-12-23T10:15:48Z</time>
      </trkpt>
      <trkpt lat="45.66267" lon="6.24235">
        <ele>1329.640625</ele>
        <time>2011-12-23T10:15:52Z</time>
      </trkpt>
      <trkpt lat="45.66269" lon="6.24234">
        <ele>1329.1599121094</ele>
        <time>2011-12-23T10:15:57Z</time>
      </trkpt>
      <trkpt lat="45.66273" lon="6.24237">
        <ele>1331.0827636719</ele>
        <time>2011-12-23T10:16:04Z</time>
      </trkpt>
      <trkpt lat="45.66276" lon="6.24236">
        <ele>1332.0439453125</ele>
        <time>2011-12-23T10:16:09Z</time>
      </trkpt>
      <trkpt lat="45.6628" lon="6.24235">
        <ele>1332.0439453125</ele>
        <time>2011-12-23T10:16:17Z</time>
      </trkpt>
      <trkpt lat="45.66281" lon="6.24233">
        <ele>1332.0439453125</ele>
        <time>2011-12-23T10:16:24Z</time>
      </trkpt>
      <trkpt lat="45.6628" lon="6.24233">
        <ele>1333.0051269531</ele>
        <time>2011-12-23T10:16:31Z</time>
      </trkpt>
      <trkpt lat="45.66282" lon="6.2423">
        <ele>1324.8342285156</ele>
        <time>2011-12-23T10:16:45Z</time>
      </trkpt>
      <trkpt lat="45.6628" lon="6.24229">
        <ele>1327.2375488281</ele>
        <time>2011-12-23T10:16:51Z</time>
      </trkpt>
      <trkpt lat="45.66278" lon="6.24229">
        <ele>1334.447265625</ele>
        <time>2011-12-23T10:16:57Z</time>
      </trkpt>
      <trkpt lat="45.66277" lon="6.24234">
        <ele>1335.4084472656</ele>
        <time>2011-12-23T10:17:02Z</time>
      </trkpt>
      <trkpt lat="45.66278" lon="6.24235">
        <ele>1335.4084472656</ele>
        <time>2011-12-23T10:17:15Z</time>
      </trkpt>
      <trkpt lat="45.66282" lon="6.24234">
        <ele>1334.447265625</ele>
        <time>2011-12-23T10:17:23Z</time>
      </trkpt>
      <trkpt lat="45.66283" lon="6.24233">
        <ele>1333.9665527344</ele>
        <time>2011-12-23T10:17:27Z</time>
      </trkpt>
      <trkpt lat="45.66288" lon="6.24235">
        <ele>1332.0439453125</ele>
        <time>2011-12-23T10:17:37Z</time>
      </trkpt>
      <trkpt lat="45.66291" lon="6.24234">
        <ele>1332.0439453125</ele>
        <time>2011-12-23T10:17:40Z</time>
      </trkpt>
      <trkpt lat="45.66292" lon="6.24234">
        <ele>1331.5632324219</ele>
        <time>2011-12-23T10:17:41Z</time>
      </trkpt>
      <trkpt lat="45.66296" lon="6.24234">
        <ele>1332.5246582031</ele>
        <time>2011-12-23T10:17:46Z</time>
      </trkpt>
      <trkpt lat="45.66297" lon="6.24234">
        <ele>1333.9665527344</ele>
        <time>2011-12-23T10:17:50Z</time>
      </trkpt>
      <trkpt lat="45.66301" lon="6.24235">
        <ele>1333.4858398438</ele>
        <time>2011-12-23T10:17:55Z</time>
      </trkpt>
      <trkpt lat="45.66306" lon="6.24234">
        <ele>1333.0051269531</ele>
        <time>2011-12-23T10:18:01Z</time>
      </trkpt>
      <trkpt lat="45.66309" lon="6.24234">
        <ele>1332.5246582031</ele>
        <time>2011-12-23T10:18:05Z</time>
      </trkpt>
      <trkpt lat="45.66309" lon="6.24234">
        <ele>1333.4858398438</ele>
        <time>2011-12-23T10:18:11Z</time>
      </trkpt>
      <trkpt lat="45.6631" lon="6.24234">
        <ele>1334.9279785156</ele>
        <time>2011-12-23T10:18:29Z</time>
      </trkpt>
      <trkpt lat="45.66309" lon="6.24231">
        <ele>1338.7731933594</ele>
        <time>2011-12-23T10:18:35Z</time>
      </trkpt>
      <trkpt lat="45.6631" lon="6.24228">
        <ele>1341.6572265625</ele>
        <time>2011-12-23T10:18:45Z</time>
      </trkpt>
      <trkpt lat="45.66311" lon="6.24229">
        <ele>1341.6572265625</ele>
        <time>2011-12-23T10:18:50Z</time>
      </trkpt>
      <trkpt lat="45.66313" lon="6.24229">
        <ele>1341.1765136719</ele>
        <time>2011-12-23T10:18:57Z</time>
      </trkpt>
      <trkpt lat="45.66315" lon="6.24229">
        <ele>1340.6958007812</ele>
        <time>2011-12-23T10:19:04Z</time>
      </trkpt>
      <trkpt lat="45.66317" lon="6.24229">
        <ele>1341.1765136719</ele>
        <time>2011-12-23T10:19:12Z</time>
      </trkpt>
      <trkpt lat="45.6632" lon="6.2423">
        <ele>1340.6958007812</ele>
        <time>2011-12-23T10:19:19Z</time>
      </trkpt>
      <trkpt lat="45.66322" lon="6.24229">
        <ele>1339.734375</ele>
        <time>2011-12-23T10:19:26Z</time>
      </trkpt>
      <trkpt lat="45.66325" lon="6.24229">
        <ele>1339.2536621094</ele>
        <time>2011-12-23T10:19:31Z</time>
      </trkpt>
      <trkpt lat="45.66327" lon="6.2423">
        <ele>1339.2536621094</ele>
        <time>2011-12-23T10:19:37Z</time>
      </trkpt>
      <trkpt lat="45.66331" lon="6.24228">
        <ele>1338.2924804688</ele>
        <time>2011-12-23T10:19:44Z</time>
      </trkpt>
      <trkpt lat="45.66333" lon="6.24228">
        <ele>1339.2536621094</ele>
        <time>2011-12-23T10:19:48Z</time>
      </trkpt>
      <trkpt lat="45.66336" lon="6.24228">
        <ele>1339.2536621094</ele>
        <time>2011-12-23T10:19:55Z</time>
      </trkpt>
      <trkpt lat="45.66338" lon="6.24229">
        <ele>1338.7731933594</ele>
        <time>2011-12-23T10:19:59Z</time>
      </trkpt>
      <trkpt lat="45.66341" lon="6.24228">
        <ele>1338.2924804688</ele>
        <time>2011-12-23T10:20:04Z</time>
      </trkpt>
      <trkpt lat="45.66343" lon="6.24228">
        <ele>1339.734375</ele>
        <time>2011-12-23T10:20:10Z</time>
      </trkpt>
      <trkpt lat="45.66344" lon="6.24227">
        <ele>1340.6958007812</ele>
        <time>2011-12-23T10:20:15Z</time>
      </trkpt>
      <trkpt lat="45.66344" lon="6.24227">
        <ele>1340.2153320312</ele>
        <time>2011-12-23T10:20:21Z</time>
      </trkpt>
      <trkpt lat="45.66346" lon="6.24226">
        <ele>1339.2536621094</ele>
        <time>2011-12-23T10:20:42Z</time>
      </trkpt>
      <trkpt lat="45.66348" lon="6.24225">
        <ele>1339.2536621094</ele>
        <time>2011-12-23T10:20:45Z</time>
      </trkpt>
      <trkpt lat="45.66353" lon="6.24225">
        <ele>1342.6186523438</ele>
        <time>2011-12-23T10:20:56Z</time>
      </trkpt>
      <trkpt lat="45.66357" lon="6.24223">
        <ele>1342.6186523438</ele>
        <time>2011-12-23T10:21:06Z</time>
      </trkpt>
      <trkpt lat="45.66358" lon="6.24221">
        <ele>1343.5798339844</ele>
        <time>2011-12-23T10:21:10Z</time>
      </trkpt>
      <trkpt lat="45.6636" lon="6.24221">
        <ele>1343.5798339844</ele>
        <time>2011-12-23T10:21:14Z</time>
      </trkpt>
      <trkpt lat="45.66362" lon="6.24221">
        <ele>1343.0991210938</ele>
        <time>2011-12-23T10:21:18Z</time>
      </trkpt>
      <trkpt lat="45.66364" lon="6.24221">
        <ele>1342.6186523438</ele>
        <time>2011-12-23T10:21:23Z</time>
      </trkpt>
      <trkpt lat="45.66367" lon="6.2422">
        <ele>1343.5798339844</ele>
        <time>2011-12-23T10:21:32Z</time>
      </trkpt>
      <trkpt lat="45.66369" lon="6.24218">
        <ele>1344.060546875</ele>
        <time>2011-12-23T10:21:40Z</time>
      </trkpt>
      <trkpt lat="45.6637" lon="6.24217">
        <ele>1344.060546875</ele>
        <time>2011-12-23T10:21:47Z</time>
      </trkpt>
      <trkpt lat="45.66373" lon="6.24218">
        <ele>1348.3862304688</ele>
        <time>2011-12-23T10:22:01Z</time>
      </trkpt>
      <trkpt lat="45.66375" lon="6.24216">
        <ele>1347.4250488281</ele>
        <time>2011-12-23T10:22:07Z</time>
      </trkpt>
      <trkpt lat="45.6638" lon="6.24215">
        <ele>1342.6186523438</ele>
        <time>2011-12-23T10:22:36Z</time>
      </trkpt>
      <trkpt lat="45.66381" lon="6.24213">
        <ele>1345.9831542969</ele>
        <time>2011-12-23T10:22:41Z</time>
      </trkpt>
      <trkpt lat="45.66383" lon="6.24213">
        <ele>1345.9831542969</ele>
        <time>2011-12-23T10:22:45Z</time>
      </trkpt>
      <trkpt lat="45.66386" lon="6.24212">
        <ele>1345.9831542969</ele>
        <time>2011-12-23T10:22:51Z</time>
      </trkpt>
      <trkpt lat="45.66387" lon="6.24212">
        <ele>1345.9831542969</ele>
        <time>2011-12-23T10:22:57Z</time>
      </trkpt>
      <trkpt lat="45.66389" lon="6.24211">
        <ele>1346.9443359375</ele>
        <time>2011-12-23T10:23:08Z</time>
      </trkpt>
      <trkpt lat="45.6639" lon="6.24207">
        <ele>1355.1154785156</ele>
        <time>2011-12-23T10:23:19Z</time>
      </trkpt>
      <trkpt lat="45.66393" lon="6.24205">
        <ele>1354.634765625</ele>
        <time>2011-12-23T10:23:27Z</time>
      </trkpt>
      <trkpt lat="45.66394" lon="6.24205">
        <ele>1354.634765625</ele>
        <time>2011-12-23T10:23:31Z</time>
      </trkpt>
      <trkpt lat="45.66395" lon="6.24205">
        <ele>1357.0383300781</ele>
        <time>2011-12-23T10:23:41Z</time>
      </trkpt>
      <trkpt lat="45.66398" lon="6.24206">
        <ele>1356.0769042969</ele>
        <time>2011-12-23T10:23:46Z</time>
      </trkpt>
      <trkpt lat="45.66401" lon="6.24206">
        <ele>1354.154296875</ele>
        <time>2011-12-23T10:23:50Z</time>
      </trkpt>
      <trkpt lat="45.66403" lon="6.24205">
        <ele>1352.7121582031</ele>
        <time>2011-12-23T10:23:54Z</time>
      </trkpt>
      <trkpt lat="45.66404" lon="6.24206">
        <ele>1351.7509765625</ele>
        <time>2011-12-23T10:24:07Z</time>
      </trkpt>
      <trkpt lat="45.66409" lon="6.24206">
        <ele>1351.2702636719</ele>
        <time>2011-12-23T10:24:18Z</time>
      </trkpt>
      <trkpt lat="45.66412" lon="6.24207">
        <ele>1351.7509765625</ele>
        <time>2011-12-23T10:24:28Z</time>
      </trkpt>
      <trkpt lat="45.66412" lon="6.24211">
        <ele>1351.7509765625</ele>
        <time>2011-12-23T10:24:33Z</time>
      </trkpt>
      <trkpt lat="45.66413" lon="6.24218">
        <ele>1350.7895507812</ele>
        <time>2011-12-23T10:24:45Z</time>
      </trkpt>
      <trkpt lat="45.6641" lon="6.24223">
        <ele>1351.7509765625</ele>
        <time>2011-12-23T10:24:54Z</time>
      </trkpt>
      <trkpt lat="45.66413" lon="6.24216">
        <ele>1354.154296875</ele>
        <time>2011-12-23T10:25:04Z</time>
      </trkpt>
      <trkpt lat="45.66413" lon="6.24216">
        <ele>1354.634765625</ele>
        <time>2011-12-23T10:25:13Z</time>
      </trkpt>
      <trkpt lat="45.66412" lon="6.24218">
        <ele>1354.634765625</ele>
        <time>2011-12-23T10:25:23Z</time>
      </trkpt>
      <trkpt lat="45.66412" lon="6.24218">
        <ele>1354.634765625</ele>
        <time>2011-12-23T10:25:27Z</time>
      </trkpt>
      <trkpt lat="45.6641" lon="6.2422">
        <ele>1353.6735839844</ele>
        <time>2011-12-23T10:25:37Z</time>
      </trkpt>
      <trkpt lat="45.6641" lon="6.24222">
        <ele>1353.1928710938</ele>
        <time>2011-12-23T10:25:42Z</time>
      </trkpt>
      <trkpt lat="45.6641" lon="6.24224">
        <ele>1354.634765625</ele>
        <time>2011-12-23T10:25:49Z</time>
      </trkpt>
      <trkpt lat="45.6641" lon="6.24224">
        <ele>1354.634765625</ele>
        <time>2011-12-23T10:25:50Z</time>
      </trkpt>
      <trkpt lat="45.6641" lon="6.24224">
        <ele>1354.634765625</ele>
        <time>2011-12-23T10:25:55Z</time>
      </trkpt>
      <trkpt lat="45.6641" lon="6.24222">
        <ele>1355.1154785156</ele>
        <time>2011-12-23T10:26:00Z</time>
      </trkpt>
      <trkpt lat="45.66411" lon="6.24221">
        <ele>1353.1928710938</ele>
        <time>2011-12-23T10:26:04Z</time>
      </trkpt>
      <trkpt lat="45.66411" lon="6.24221">
        <ele>1351.2702636719</ele>
        <time>2011-12-23T10:26:07Z</time>
      </trkpt>
      <trkpt lat="45.66411" lon="6.2422">
        <ele>1350.3090820312</ele>
        <time>2011-12-23T10:26:08Z</time>
      </trkpt>
      <trkpt lat="45.66412" lon="6.24219">
        <ele>1350.7895507812</ele>
        <time>2011-12-23T10:26:36Z</time>
      </trkpt>
      <trkpt lat="45.66411" lon="6.24217">
        <ele>1352.2314453125</ele>
        <time>2011-12-23T10:26:45Z</time>
      </trkpt>
      <trkpt lat="45.66413" lon="6.24215">
        <ele>1353.1928710938</ele>
        <time>2011-12-23T10:26:54Z</time>
      </trkpt>
      <trkpt lat="45.66415" lon="6.24214">
        <ele>1354.634765625</ele>
        <time>2011-12-23T10:26:58Z</time>
      </trkpt>
      <trkpt lat="45.66417" lon="6.24213">
        <ele>1356.0769042969</ele>
        <time>2011-12-23T10:27:02Z</time>
      </trkpt>
      <trkpt lat="45.6642" lon="6.24212">
        <ele>1357.0383300781</ele>
        <time>2011-12-23T10:27:06Z</time>
      </trkpt>
      <trkpt lat="45.66423" lon="6.24212">
        <ele>1358.4802246094</ele>
        <time>2011-12-23T10:27:12Z</time>
      </trkpt>
      <trkpt lat="45.66426" lon="6.24212">
        <ele>1358.9609375</ele>
        <time>2011-12-23T10:27:17Z</time>
      </trkpt>
      <trkpt lat="45.66426" lon="6.2421">
        <ele>1357.9997558594</ele>
        <time>2011-12-23T10:27:20Z</time>
      </trkpt>
      <trkpt lat="45.66428" lon="6.2421">
        <ele>1359.4416503906</ele>
        <time>2011-12-23T10:27:26Z</time>
      </trkpt>
      <trkpt lat="45.6643" lon="6.24207">
        <ele>1358.9609375</ele>
        <time>2011-12-23T10:27:35Z</time>
      </trkpt>
      <trkpt lat="45.6643" lon="6.24206">
        <ele>1358.9609375</ele>
        <time>2011-12-23T10:27:39Z</time>
      </trkpt>
      <trkpt lat="45.66434" lon="6.24204">
        <ele>1358.4802246094</ele>
        <time>2011-12-23T10:27:45Z</time>
      </trkpt>
      <trkpt lat="45.66439" lon="6.24202">
        <ele>1359.4416503906</ele>
        <time>2011-12-23T10:27:53Z</time>
      </trkpt>
      <trkpt lat="45.66443" lon="6.242">
        <ele>1358.4802246094</ele>
        <time>2011-12-23T10:27:58Z</time>
      </trkpt>
      <trkpt lat="45.66443" lon="6.24199">
        <ele>1357.0383300781</ele>
        <time>2011-12-23T10:28:04Z</time>
      </trkpt>
      <trkpt lat="45.66444" lon="6.242">
        <ele>1357.9997558594</ele>
        <time>2011-12-23T10:28:16Z</time>
      </trkpt>
      <trkpt lat="45.66447" lon="6.24197">
        <ele>1357.9997558594</ele>
        <time>2011-12-23T10:28:21Z</time>
      </trkpt>
      <trkpt lat="45.66449" lon="6.24196">
        <ele>1357.9997558594</ele>
        <time>2011-12-23T10:28:25Z</time>
      </trkpt>
      <trkpt lat="45.6645" lon="6.24197">
        <ele>1359.4416503906</ele>
        <time>2011-12-23T10:28:33Z</time>
      </trkpt>
      <trkpt lat="45.6645" lon="6.24198">
        <ele>1360.8835449219</ele>
        <time>2011-12-23T10:28:42Z</time>
      </trkpt>
      <trkpt lat="45.66453" lon="6.24197">
        <ele>1362.3254394531</ele>
        <time>2011-12-23T10:28:53Z</time>
      </trkpt>
      <trkpt lat="45.66456" lon="6.24195">
        <ele>1363.7673339844</ele>
        <time>2011-12-23T10:28:58Z</time>
      </trkpt>
      <trkpt lat="45.66457" lon="6.24194">
        <ele>1366.6513671875</ele>
        <time>2011-12-23T10:29:01Z</time>
      </trkpt>
      <trkpt lat="45.66457" lon="6.24192">
        <ele>1370.0158691406</ele>
        <time>2011-12-23T10:29:04Z</time>
      </trkpt>
      <trkpt lat="45.6646" lon="6.24193">
        <ele>1368.0932617188</ele>
        <time>2011-12-23T10:29:07Z</time>
      </trkpt>
      <trkpt lat="45.66463" lon="6.24193">
        <ele>1366.1706542969</ele>
        <time>2011-12-23T10:29:11Z</time>
      </trkpt>
      <trkpt lat="45.66467" lon="6.24195">
        <ele>1365.2094726562</ele>
        <time>2011-12-23T10:29:16Z</time>
      </trkpt>
      <trkpt lat="45.66469" lon="6.24195">
        <ele>1363.7673339844</ele>
        <time>2011-12-23T10:29:19Z</time>
      </trkpt>
      <trkpt lat="45.66471" lon="6.24197">
        <ele>1364.248046875</ele>
        <time>2011-12-23T10:29:23Z</time>
      </trkpt>
      <trkpt lat="45.66471" lon="6.24197">
        <ele>1366.1706542969</ele>
        <time>2011-12-23T10:29:28Z</time>
      </trkpt>
      <trkpt lat="45.66475" lon="6.24199">
        <ele>1364.7287597656</ele>
        <time>2011-12-23T10:29:40Z</time>
      </trkpt>
      <trkpt lat="45.66477" lon="6.24198">
        <ele>1366.6513671875</ele>
        <time>2011-12-23T10:29:44Z</time>
      </trkpt>
      <trkpt lat="45.66479" lon="6.24198">
        <ele>1367.1320800781</ele>
        <time>2011-12-23T10:29:48Z</time>
      </trkpt>
      <trkpt lat="45.66481" lon="6.24196">
        <ele>1368.0932617188</ele>
        <time>2011-12-23T10:29:52Z</time>
      </trkpt>
      <trkpt lat="45.66483" lon="6.24195">
        <ele>1370.0158691406</ele>
        <time>2011-12-23T10:29:56Z</time>
      </trkpt>
      <trkpt lat="45.66483" lon="6.24193">
        <ele>1372.9001464844</ele>
        <time>2011-12-23T10:30:00Z</time>
      </trkpt>
      <trkpt lat="45.66486" lon="6.24195">
        <ele>1369.0546875</ele>
        <time>2011-12-23T10:30:05Z</time>
      </trkpt>
      <trkpt lat="45.66486" lon="6.24194">
        <ele>1366.6513671875</ele>
        <time>2011-12-23T10:30:09Z</time>
      </trkpt>
      <trkpt lat="45.66488" lon="6.24194">
        <ele>1367.1320800781</ele>
        <time>2011-12-23T10:30:15Z</time>
      </trkpt>
      <trkpt lat="45.6649" lon="6.24194">
        <ele>1370.0158691406</ele>
        <time>2011-12-23T10:30:20Z</time>
      </trkpt>
      <trkpt lat="45.6649" lon="6.24195">
        <ele>1371.4577636719</ele>
        <time>2011-12-23T10:30:30Z</time>
      </trkpt>
      <trkpt lat="45.66489" lon="6.24194">
        <ele>1374.3420410156</ele>
        <time>2011-12-23T10:30:38Z</time>
      </trkpt>
      <trkpt lat="45.66488" lon="6.24191">
        <ele>1378.1872558594</ele>
        <time>2011-12-23T10:30:45Z</time>
      </trkpt>
      <trkpt lat="45.66487" lon="6.24189">
        <ele>1377.7065429688</ele>
        <time>2011-12-23T10:30:59Z</time>
      </trkpt>
      <trkpt lat="45.66487" lon="6.24188">
        <ele>1376.7453613281</ele>
        <time>2011-12-23T10:31:05Z</time>
      </trkpt>
      <trkpt lat="45.6649" lon="6.24185">
        <ele>1373.861328125</ele>
        <time>2011-12-23T10:31:20Z</time>
      </trkpt>
      <trkpt lat="45.66489" lon="6.24184">
        <ele>1378.66796875</ele>
        <time>2011-12-23T10:31:26Z</time>
      </trkpt>
      <trkpt lat="45.66491" lon="6.24188">
        <ele>1379.1484375</ele>
        <time>2011-12-23T10:31:37Z</time>
      </trkpt>
      <trkpt lat="45.66492" lon="6.2419">
        <ele>1376.7453613281</ele>
        <time>2011-12-23T10:31:50Z</time>
      </trkpt>
      <trkpt lat="45.66489" lon="6.2419">
        <ele>1387.8002929688</ele>
        <time>2011-12-23T10:32:06Z</time>
      </trkpt>
      <trkpt lat="45.66488" lon="6.24188">
        <ele>1389.2424316406</ele>
        <time>2011-12-23T10:32:14Z</time>
      </trkpt>
      <trkpt lat="45.6649" lon="6.24189">
        <ele>1378.66796875</ele>
        <time>2011-12-23T10:32:34Z</time>
      </trkpt>
      <trkpt lat="45.66481" lon="6.24182">
        <ele>1393.0876464844</ele>
        <time>2011-12-23T10:33:13Z</time>
      </trkpt>
      <trkpt lat="45.66485" lon="6.24188">
        <ele>1384.4357910156</ele>
        <time>2011-12-23T10:33:30Z</time>
      </trkpt>
      <trkpt lat="45.66486" lon="6.24187">
        <ele>1384.4357910156</ele>
        <time>2011-12-23T10:33:51Z</time>
      </trkpt>
      <trkpt lat="45.6648" lon="6.24187">
        <ele>1398.85546875</ele>
        <time>2011-12-23T10:34:00Z</time>
      </trkpt>
      <trkpt lat="45.66483" lon="6.24192">
        <ele>1390.2038574219</ele>
        <time>2011-12-23T10:34:17Z</time>
      </trkpt>
      <trkpt lat="45.66476" lon="6.2418">
        <ele>1412.3139648438</ele>
        <time>2011-12-23T10:34:39Z</time>
      </trkpt>
      <trkpt lat="45.66486" lon="6.24187">
        <ele>1391.6457519531</ele>
        <time>2011-12-23T10:34:56Z</time>
      </trkpt>
      <trkpt lat="45.66486" lon="6.2419">
        <ele>1386.3583984375</ele>
        <time>2011-12-23T10:35:19Z</time>
      </trkpt>
      <trkpt lat="45.66488" lon="6.24191">
        <ele>1381.0712890625</ele>
        <time>2011-12-23T10:35:26Z</time>
      </trkpt>
      <trkpt lat="45.66489" lon="6.24192">
        <ele>1373.861328125</ele>
        <time>2011-12-23T10:35:42Z</time>
      </trkpt>
      <trkpt lat="45.66484" lon="6.24189">
        <ele>1391.6457519531</ele>
        <time>2011-12-23T10:35:55Z</time>
      </trkpt>
      <trkpt lat="45.66484" lon="6.24189">
        <ele>1387.8002929688</ele>
        <time>2011-12-23T10:36:02Z</time>
      </trkpt>
      <trkpt lat="45.66488" lon="6.24195">
        <ele>1379.6291503906</ele>
        <time>2011-12-23T10:36:15Z</time>
      </trkpt>
      <trkpt lat="45.66489" lon="6.24197">
        <ele>1377.2260742188</ele>
        <time>2011-12-23T10:36:22Z</time>
      </trkpt>
      <trkpt lat="45.66491" lon="6.24194">
        <ele>1379.1484375</ele>
        <time>2011-12-23T10:36:38Z</time>
      </trkpt>
      <trkpt lat="45.66492" lon="6.24193">
        <ele>1375.7839355469</ele>
        <time>2011-12-23T10:36:45Z</time>
      </trkpt>
      <trkpt lat="45.66492" lon="6.24194">
        <ele>1376.2646484375</ele>
        <time>2011-12-23T10:36:57Z</time>
      </trkpt>
      <trkpt lat="45.66493" lon="6.24193">
        <ele>1374.3420410156</ele>
        <time>2011-12-23T10:37:03Z</time>
      </trkpt>
      <trkpt lat="45.66496" lon="6.24195">
        <ele>1370.0158691406</ele>
        <time>2011-12-23T10:37:17Z</time>
      </trkpt>
      <trkpt lat="45.66495" lon="6.24195">
        <ele>1369.5354003906</ele>
        <time>2011-12-23T10:37:28Z</time>
      </trkpt>
      <trkpt lat="45.66494" lon="6.24195">
        <ele>1370.4965820312</ele>
        <time>2011-12-23T10:37:32Z</time>
      </trkpt>
      <trkpt lat="45.66494" lon="6.24194">
        <ele>1371.9384765625</ele>
        <time>2011-12-23T10:37:39Z</time>
      </trkpt>
      <trkpt lat="45.66494" lon="6.24192">
        <ele>1379.1484375</ele>
        <time>2011-12-23T10:37:52Z</time>
      </trkpt>
      <trkpt lat="45.66489" lon="6.24188">
        <ele>1382.5131835938</ele>
        <time>2011-12-23T10:38:08Z</time>
      </trkpt>
      <trkpt lat="45.6649" lon="6.24188">
        <ele>1377.7065429688</ele>
        <time>2011-12-23T10:38:19Z</time>
      </trkpt>
      <trkpt lat="45.66493" lon="6.24191">
        <ele>1374.8227539062</ele>
        <time>2011-12-23T10:38:36Z</time>
      </trkpt>
      <trkpt lat="45.66494" lon="6.24191">
        <ele>1377.2260742188</ele>
        <time>2011-12-23T10:38:45Z</time>
      </trkpt>
      <trkpt lat="45.66495" lon="6.24192">
        <ele>1376.2646484375</ele>
        <time>2011-12-23T10:38:49Z</time>
      </trkpt>
      <trkpt lat="45.66496" lon="6.2419">
        <ele>1377.7065429688</ele>
        <time>2011-12-23T10:38:53Z</time>
      </trkpt>
      <trkpt lat="45.66496" lon="6.24192">
        <ele>1379.1484375</ele>
        <time>2011-12-23T10:38:58Z</time>
      </trkpt>
      <trkpt lat="45.665" lon="6.24193">
        <ele>1376.2646484375</ele>
        <time>2011-12-23T10:39:03Z</time>
      </trkpt>
      <trkpt lat="45.66503" lon="6.24193">
        <ele>1374.8227539062</ele>
        <time>2011-12-23T10:39:08Z</time>
      </trkpt>
      <trkpt lat="45.66505" lon="6.24194">
        <ele>1375.3032226562</ele>
        <time>2011-12-23T10:39:12Z</time>
      </trkpt>
      <trkpt lat="45.66508" lon="6.24194">
        <ele>1374.3420410156</ele>
        <time>2011-12-23T10:39:16Z</time>
      </trkpt>
      <trkpt lat="45.66509" lon="6.24195">
        <ele>1374.3420410156</ele>
        <time>2011-12-23T10:39:20Z</time>
      </trkpt>
      <trkpt lat="45.66512" lon="6.24195">
        <ele>1375.3032226562</ele>
        <time>2011-12-23T10:39:25Z</time>
      </trkpt>
      <trkpt lat="45.66514" lon="6.24195">
        <ele>1374.3420410156</ele>
        <time>2011-12-23T10:39:30Z</time>
      </trkpt>
      <trkpt lat="45.66513" lon="6.24193">
        <ele>1377.2260742188</ele>
        <time>2011-12-23T10:39:36Z</time>
      </trkpt>
      <trkpt lat="45.66516" lon="6.24195">
        <ele>1377.7065429688</ele>
        <time>2011-12-23T10:39:41Z</time>
      </trkpt>
      <trkpt lat="45.66518" lon="6.24196">
        <ele>1376.7453613281</ele>
        <time>2011-12-23T10:39:45Z</time>
      </trkpt>
      <trkpt lat="45.6652" lon="6.24196">
        <ele>1374.3420410156</ele>
        <time>2011-12-23T10:39:50Z</time>
      </trkpt>
      <trkpt lat="45.66523" lon="6.24195">
        <ele>1373.861328125</ele>
        <time>2011-12-23T10:39:55Z</time>
      </trkpt>
      <trkpt lat="45.66525" lon="6.24195">
        <ele>1373.861328125</ele>
        <time>2011-12-23T10:40:00Z</time>
      </trkpt>
      <trkpt lat="45.66527" lon="6.24196">
        <ele>1375.3032226562</ele>
        <time>2011-12-23T10:40:06Z</time>
      </trkpt>
      <trkpt lat="45.66529" lon="6.24194">
        <ele>1376.2646484375</ele>
        <time>2011-12-23T10:40:11Z</time>
      </trkpt>
      <trkpt lat="45.66531" lon="6.24195">
        <ele>1376.7453613281</ele>
        <time>2011-12-23T10:40:16Z</time>
      </trkpt>
      <trkpt lat="45.66534" lon="6.24196">
        <ele>1378.1872558594</ele>
        <time>2011-12-23T10:40:21Z</time>
      </trkpt>
      <trkpt lat="45.66534" lon="6.24197">
        <ele>1380.1098632812</ele>
        <time>2011-12-23T10:40:26Z</time>
      </trkpt>
      <trkpt lat="45.66536" lon="6.242">
        <ele>1380.5905761719</ele>
        <time>2011-12-23T10:40:34Z</time>
      </trkpt>
      <trkpt lat="45.66538" lon="6.242">
        <ele>1382.0324707031</ele>
        <time>2011-12-23T10:40:42Z</time>
      </trkpt>
      <trkpt lat="45.6654" lon="6.242">
        <ele>1382.0324707031</ele>
        <time>2011-12-23T10:40:48Z</time>
      </trkpt>
      <trkpt lat="45.66541" lon="6.24201">
        <ele>1382.9936523438</ele>
        <time>2011-12-23T10:40:54Z</time>
      </trkpt>
      <trkpt lat="45.66543" lon="6.242">
        <ele>1383.955078125</ele>
        <time>2011-12-23T10:40:59Z</time>
      </trkpt>
      <trkpt lat="45.66544" lon="6.24201">
        <ele>1384.4357910156</ele>
        <time>2011-12-23T10:41:05Z</time>
      </trkpt>
      <trkpt lat="45.66545" lon="6.24202">
        <ele>1384.9165039062</ele>
        <time>2011-12-23T10:41:09Z</time>
      </trkpt>
      <trkpt lat="45.66547" lon="6.24202">
        <ele>1384.4357910156</ele>
        <time>2011-12-23T10:41:14Z</time>
      </trkpt>
      <trkpt lat="45.66549" lon="6.24203">
        <ele>1383.955078125</ele>
        <time>2011-12-23T10:41:19Z</time>
      </trkpt>
      <trkpt lat="45.6655" lon="6.24204">
        <ele>1384.4357910156</ele>
        <time>2011-12-23T10:41:25Z</time>
      </trkpt>
      <trkpt lat="45.66552" lon="6.24205">
        <ele>1384.9165039062</ele>
        <time>2011-12-23T10:41:31Z</time>
      </trkpt>
      <trkpt lat="45.66554" lon="6.24205">
        <ele>1385.3969726562</ele>
        <time>2011-12-23T10:41:37Z</time>
      </trkpt>
      <trkpt lat="45.66557" lon="6.24204">
        <ele>1384.4357910156</ele>
        <time>2011-12-23T10:41:43Z</time>
      </trkpt>
      <trkpt lat="45.66559" lon="6.24204">
        <ele>1384.4357910156</ele>
        <time>2011-12-23T10:41:48Z</time>
      </trkpt>
      <trkpt lat="45.66561" lon="6.24205">
        <ele>1384.9165039062</ele>
        <time>2011-12-23T10:41:54Z</time>
      </trkpt>
      <trkpt lat="45.66562" lon="6.24204">
        <ele>1385.8776855469</ele>
        <time>2011-12-23T10:41:59Z</time>
      </trkpt>
      <trkpt lat="45.66563" lon="6.24203">
        <ele>1387.8002929688</ele>
        <time>2011-12-23T10:42:05Z</time>
      </trkpt>
      <trkpt lat="45.66564" lon="6.24205">
        <ele>1387.3195800781</ele>
        <time>2011-12-23T10:42:13Z</time>
      </trkpt>
      <trkpt lat="45.66566" lon="6.24203">
        <ele>1384.4357910156</ele>
        <time>2011-12-23T10:42:29Z</time>
      </trkpt>
      <trkpt lat="45.66566" lon="6.24204">
        <ele>1386.3583984375</ele>
        <time>2011-12-23T10:42:39Z</time>
      </trkpt>
      <trkpt lat="45.6657" lon="6.24204">
        <ele>1386.3583984375</ele>
        <time>2011-12-23T10:42:45Z</time>
      </trkpt>
      <trkpt lat="45.66572" lon="6.24203">
        <ele>1385.3969726562</ele>
        <time>2011-12-23T10:42:51Z</time>
      </trkpt>
      <trkpt lat="45.66575" lon="6.24204">
        <ele>1383.955078125</ele>
        <time>2011-12-23T10:42:56Z</time>
      </trkpt>
      <trkpt lat="45.66576" lon="6.24205">
        <ele>1384.9165039062</ele>
        <time>2011-12-23T10:43:00Z</time>
      </trkpt>
      <trkpt lat="45.66578" lon="6.24205">
        <ele>1384.9165039062</ele>
        <time>2011-12-23T10:43:05Z</time>
      </trkpt>
      <trkpt lat="45.66579" lon="6.24206">
        <ele>1385.3969726562</ele>
        <time>2011-12-23T10:43:10Z</time>
      </trkpt>
      <trkpt lat="45.66581" lon="6.24206">
        <ele>1386.3583984375</ele>
        <time>2011-12-23T10:43:16Z</time>
      </trkpt>
      <trkpt lat="45.66582" lon="6.24206">
        <ele>1387.8002929688</ele>
        <time>2011-12-23T10:43:21Z</time>
      </trkpt>
      <trkpt lat="45.66582" lon="6.24206">
        <ele>1389.2424316406</ele>
        <time>2011-12-23T10:43:31Z</time>
      </trkpt>
      <trkpt lat="45.66582" lon="6.24207">
        <ele>1390.2038574219</ele>
        <time>2011-12-23T10:43:38Z</time>
      </trkpt>
      <trkpt lat="45.66582" lon="6.24207">
        <ele>1391.1650390625</ele>
        <time>2011-12-23T10:43:40Z</time>
      </trkpt>
      <trkpt lat="45.6658" lon="6.24202">
        <ele>1396.9328613281</ele>
        <time>2011-12-23T10:43:51Z</time>
      </trkpt>
      <trkpt lat="45.66582" lon="6.24203">
        <ele>1395.4909667969</ele>
        <time>2011-12-23T10:43:56Z</time>
      </trkpt>
      <trkpt lat="45.66585" lon="6.24204">
        <ele>1395.0102539062</ele>
        <time>2011-12-23T10:44:00Z</time>
      </trkpt>
      <trkpt lat="45.66586" lon="6.24205">
        <ele>1394.5295410156</ele>
        <time>2011-12-23T10:44:04Z</time>
      </trkpt>
      <trkpt lat="45.66589" lon="6.24205">
        <ele>1394.0490722656</ele>
        <time>2011-12-23T10:44:09Z</time>
      </trkpt>
      <trkpt lat="45.66589" lon="6.24206">
        <ele>1394.0490722656</ele>
        <time>2011-12-23T10:44:12Z</time>
      </trkpt>
      <trkpt lat="45.66592" lon="6.24207">
        <ele>1393.0876464844</ele>
        <time>2011-12-23T10:44:18Z</time>
      </trkpt>
      <trkpt lat="45.66595" lon="6.24209">
        <ele>1393.0876464844</ele>
        <time>2011-12-23T10:44:22Z</time>
      </trkpt>
      <trkpt lat="45.66597" lon="6.2421">
        <ele>1392.6071777344</ele>
        <time>2011-12-23T10:44:27Z</time>
      </trkpt>
      <trkpt lat="45.666" lon="6.24212">
        <ele>1392.1264648438</ele>
        <time>2011-12-23T10:44:34Z</time>
      </trkpt>
      <trkpt lat="45.66601" lon="6.24213">
        <ele>1392.6071777344</ele>
        <time>2011-12-23T10:44:39Z</time>
      </trkpt>
      <trkpt lat="45.66603" lon="6.24215">
        <ele>1392.1264648438</ele>
        <time>2011-12-23T10:44:51Z</time>
      </trkpt>
      <trkpt lat="45.66605" lon="6.24217">
        <ele>1392.6071777344</ele>
        <time>2011-12-23T10:44:55Z</time>
      </trkpt>
      <trkpt lat="45.66607" lon="6.2422">
        <ele>1392.6071777344</ele>
        <time>2011-12-23T10:44:59Z</time>
      </trkpt>
      <trkpt lat="45.66608" lon="6.24222">
        <ele>1393.0876464844</ele>
        <time>2011-12-23T10:45:03Z</time>
      </trkpt>
      <trkpt lat="45.66608" lon="6.24221">
        <ele>1394.0490722656</ele>
        <time>2011-12-23T10:45:05Z</time>
      </trkpt>
      <trkpt lat="45.66612" lon="6.24225">
        <ele>1394.5295410156</ele>
        <time>2011-12-23T10:45:11Z</time>
      </trkpt>
      <trkpt lat="45.66614" lon="6.24226">
        <ele>1395.9716796875</ele>
        <time>2011-12-23T10:45:16Z</time>
      </trkpt>
      <trkpt lat="45.66617" lon="6.24228">
        <ele>1396.4523925781</ele>
        <time>2011-12-23T10:45:22Z</time>
      </trkpt>
      <trkpt lat="45.66619" lon="6.2423">
        <ele>1396.9328613281</ele>
        <time>2011-12-23T10:45:27Z</time>
      </trkpt>
      <trkpt lat="45.66622" lon="6.24231">
        <ele>1396.9328613281</ele>
        <time>2011-12-23T10:45:33Z</time>
      </trkpt>
      <trkpt lat="45.66623" lon="6.24231">
        <ele>1397.4135742188</ele>
        <time>2011-12-23T10:45:40Z</time>
      </trkpt>
      <trkpt lat="45.66623" lon="6.24232">
        <ele>1395.4909667969</ele>
        <time>2011-12-23T10:45:54Z</time>
      </trkpt>
      <trkpt lat="45.66625" lon="6.24232">
        <ele>1393.568359375</ele>
        <time>2011-12-23T10:46:08Z</time>
      </trkpt>
      <trkpt lat="45.66627" lon="6.24233">
        <ele>1394.0490722656</ele>
        <time>2011-12-23T10:46:13Z</time>
      </trkpt>
      <trkpt lat="45.66629" lon="6.24234">
        <ele>1394.5295410156</ele>
        <time>2011-12-23T10:46:17Z</time>
      </trkpt>
      <trkpt lat="45.66631" lon="6.24236">
        <ele>1395.9716796875</ele>
        <time>2011-12-23T10:46:22Z</time>
      </trkpt>
      <trkpt lat="45.66632" lon="6.24236">
        <ele>1395.9716796875</ele>
        <time>2011-12-23T10:46:28Z</time>
      </trkpt>
      <trkpt lat="45.66635" lon="6.24236">
        <ele>1394.0490722656</ele>
        <time>2011-12-23T10:46:44Z</time>
      </trkpt>
      <trkpt lat="45.66636" lon="6.24237">
        <ele>1394.0490722656</ele>
        <time>2011-12-23T10:46:50Z</time>
      </trkpt>
      <trkpt lat="45.66636" lon="6.24237">
        <ele>1394.0490722656</ele>
        <time>2011-12-23T10:46:54Z</time>
      </trkpt>
      <trkpt lat="45.66636" lon="6.24236">
        <ele>1395.4909667969</ele>
        <time>2011-12-23T10:47:02Z</time>
      </trkpt>
      <trkpt lat="45.66636" lon="6.24236">
        <ele>1395.9716796875</ele>
        <time>2011-12-23T10:47:08Z</time>
      </trkpt>
      <trkpt lat="45.66641" lon="6.24236">
        <ele>1394.0490722656</ele>
        <time>2011-12-23T10:47:23Z</time>
      </trkpt>
      <trkpt lat="45.66643" lon="6.24235">
        <ele>1393.0876464844</ele>
        <time>2011-12-23T10:47:29Z</time>
      </trkpt>
      <trkpt lat="45.66642" lon="6.24235">
        <ele>1395.4909667969</ele>
        <time>2011-12-23T10:47:41Z</time>
      </trkpt>
      <trkpt lat="45.6664" lon="6.24234">
        <ele>1395.9716796875</ele>
        <time>2011-12-23T10:47:47Z</time>
      </trkpt>
      <trkpt lat="45.66641" lon="6.24234">
        <ele>1396.9328613281</ele>
        <time>2011-12-23T10:47:52Z</time>
      </trkpt>
      <trkpt lat="45.66642" lon="6.24234">
        <ele>1397.4135742188</ele>
        <time>2011-12-23T10:47:56Z</time>
      </trkpt>
      <trkpt lat="45.66643" lon="6.24233">
        <ele>1398.3747558594</ele>
        <time>2011-12-23T10:48:01Z</time>
      </trkpt>
      <trkpt lat="45.66645" lon="6.24232">
        <ele>1399.8168945312</ele>
        <time>2011-12-23T10:48:06Z</time>
      </trkpt>
      <trkpt lat="45.66647" lon="6.24229">
        <ele>1399.8168945312</ele>
        <time>2011-12-23T10:48:11Z</time>
      </trkpt>
      <trkpt lat="45.66648" lon="6.24228">
        <ele>1399.8168945312</ele>
        <time>2011-12-23T10:48:16Z</time>
      </trkpt>
      <trkpt lat="45.66648" lon="6.24227">
        <ele>1400.2976074219</ele>
        <time>2011-12-23T10:48:20Z</time>
      </trkpt>
      <trkpt lat="45.66648" lon="6.24229">
        <ele>1398.85546875</ele>
        <time>2011-12-23T10:48:31Z</time>
      </trkpt>
      <trkpt lat="45.66644" lon="6.24225">
        <ele>1408.46875</ele>
        <time>2011-12-23T10:48:45Z</time>
      </trkpt>
      <trkpt lat="45.66644" lon="6.24226">
        <ele>1406.0654296875</ele>
        <time>2011-12-23T10:48:59Z</time>
      </trkpt>
      <trkpt lat="45.66645" lon="6.24227">
        <ele>1403.662109375</ele>
        <time>2011-12-23T10:49:07Z</time>
      </trkpt>
      <trkpt lat="45.66645" lon="6.24226">
        <ele>1403.1813964844</ele>
        <time>2011-12-23T10:49:22Z</time>
      </trkpt>
      <trkpt lat="45.66646" lon="6.24223">
        <ele>1404.1430664062</ele>
        <time>2011-12-23T10:49:30Z</time>
      </trkpt>
      <trkpt lat="45.6665" lon="6.2422">
        <ele>1404.1430664062</ele>
        <time>2011-12-23T10:49:35Z</time>
      </trkpt>
      <trkpt lat="45.66652" lon="6.24218">
        <ele>1403.1813964844</ele>
        <time>2011-12-23T10:49:39Z</time>
      </trkpt>
      <trkpt lat="45.66657" lon="6.24215">
        <ele>1402.2199707031</ele>
        <time>2011-12-23T10:49:45Z</time>
      </trkpt>
      <trkpt lat="45.66658" lon="6.24214">
        <ele>1401.7395019531</ele>
        <time>2011-12-23T10:49:48Z</time>
      </trkpt>
      <trkpt lat="45.6666" lon="6.24211">
        <ele>1401.2587890625</ele>
        <time>2011-12-23T10:49:52Z</time>
      </trkpt>
      <trkpt lat="45.66663" lon="6.24208">
        <ele>1400.2976074219</ele>
        <time>2011-12-23T10:49:57Z</time>
      </trkpt>
      <trkpt lat="45.66661" lon="6.24207">
        <ele>1402.7006835938</ele>
        <time>2011-12-23T10:50:10Z</time>
      </trkpt>
      <trkpt lat="45.66663" lon="6.24204">
        <ele>1403.662109375</ele>
        <time>2011-12-23T10:50:18Z</time>
      </trkpt>
      <trkpt lat="45.66667" lon="6.24201">
        <ele>1404.6235351562</ele>
        <time>2011-12-23T10:50:23Z</time>
      </trkpt>
      <trkpt lat="45.66671" lon="6.24199">
        <ele>1406.0654296875</ele>
        <time>2011-12-23T10:50:28Z</time>
      </trkpt>
      <trkpt lat="45.66674" lon="6.24198">
        <ele>1407.0268554688</ele>
        <time>2011-12-23T10:50:32Z</time>
      </trkpt>
      <trkpt lat="45.66676" lon="6.24198">
        <ele>1407.98828125</ele>
        <time>2011-12-23T10:50:36Z</time>
      </trkpt>
      <trkpt lat="45.66676" lon="6.24197">
        <ele>1408.46875</ele>
        <time>2011-12-23T10:50:37Z</time>
      </trkpt>
      <trkpt lat="45.6668" lon="6.24197">
        <ele>1409.4301757812</ele>
        <time>2011-12-23T10:50:43Z</time>
      </trkpt>
      <trkpt lat="45.66682" lon="6.24198">
        <ele>1410.3913574219</ele>
        <time>2011-12-23T10:50:48Z</time>
      </trkpt>
      <trkpt lat="45.66684" lon="6.24196">
        <ele>1409.9106445312</ele>
        <time>2011-12-23T10:50:53Z</time>
      </trkpt>
      <trkpt lat="45.66685" lon="6.24195">
        <ele>1410.3913574219</ele>
        <time>2011-12-23T10:50:59Z</time>
      </trkpt>
      <trkpt lat="45.66686" lon="6.24194">
        <ele>1410.3913574219</ele>
        <time>2011-12-23T10:51:04Z</time>
      </trkpt>
      <trkpt lat="45.66688" lon="6.24193">
        <ele>1410.8720703125</ele>
        <time>2011-12-23T10:51:09Z</time>
      </trkpt>
      <trkpt lat="45.66689" lon="6.24193">
        <ele>1410.3913574219</ele>
        <time>2011-12-23T10:51:13Z</time>
      </trkpt>
      <trkpt lat="45.66691" lon="6.24191">
        <ele>1411.3527832031</ele>
        <time>2011-12-23T10:51:17Z</time>
      </trkpt>
      <trkpt lat="45.66693" lon="6.2419">
        <ele>1412.3139648438</ele>
        <time>2011-12-23T10:51:22Z</time>
      </trkpt>
      <trkpt lat="45.66695" lon="6.24189">
        <ele>1412.3139648438</ele>
        <time>2011-12-23T10:51:27Z</time>
      </trkpt>
      <trkpt lat="45.66697" lon="6.24188">
        <ele>1412.3139648438</ele>
        <time>2011-12-23T10:51:32Z</time>
      </trkpt>
      <trkpt lat="45.667" lon="6.24186">
        <ele>1411.8334960938</ele>
        <time>2011-12-23T10:51:37Z</time>
      </trkpt>
      <trkpt lat="45.66702" lon="6.24185">
        <ele>1411.8334960938</ele>
        <time>2011-12-23T10:51:42Z</time>
      </trkpt>
      <trkpt lat="45.66704" lon="6.24183">
        <ele>1412.3139648438</ele>
        <time>2011-12-23T10:51:46Z</time>
      </trkpt>
      <trkpt lat="45.66705" lon="6.24183">
        <ele>1411.8334960938</ele>
        <time>2011-12-23T10:51:51Z</time>
      </trkpt>
      <trkpt lat="45.66704" lon="6.24184">
        <ele>1413.275390625</ele>
        <time>2011-12-23T10:52:00Z</time>
      </trkpt>
      <trkpt lat="45.66706" lon="6.24183">
        <ele>1413.275390625</ele>
        <time>2011-12-23T10:52:06Z</time>
      </trkpt>
      <trkpt lat="45.66707" lon="6.24183">
        <ele>1414.7172851562</ele>
        <time>2011-12-23T10:52:10Z</time>
      </trkpt>
      <trkpt lat="45.66709" lon="6.24182">
        <ele>1414.7172851562</ele>
        <time>2011-12-23T10:52:15Z</time>
      </trkpt>
      <trkpt lat="45.66713" lon="6.24182">
        <ele>1414.7172851562</ele>
        <time>2011-12-23T10:52:22Z</time>
      </trkpt>
      <trkpt lat="45.66715" lon="6.24182">
        <ele>1414.7172851562</ele>
        <time>2011-12-23T10:52:27Z</time>
      </trkpt>
      <trkpt lat="45.66717" lon="6.24181">
        <ele>1414.7172851562</ele>
        <time>2011-12-23T10:52:32Z</time>
      </trkpt>
      <trkpt lat="45.66719" lon="6.2418">
        <ele>1415.1979980469</ele>
        <time>2011-12-23T10:52:36Z</time>
      </trkpt>
      <trkpt lat="45.66723" lon="6.24179">
        <ele>1416.1591796875</ele>
        <time>2011-12-23T10:52:41Z</time>
      </trkpt>
      <trkpt lat="45.66726" lon="6.24179">
        <ele>1416.1591796875</ele>
        <time>2011-12-23T10:52:45Z</time>
      </trkpt>
      <trkpt lat="45.66728" lon="6.24178">
        <ele>1415.6787109375</ele>
        <time>2011-12-23T10:52:50Z</time>
      </trkpt>
      <trkpt lat="45.6673" lon="6.24178">
        <ele>1415.6787109375</ele>
        <time>2011-12-23T10:52:54Z</time>
      </trkpt>
      <trkpt lat="45.66732" lon="6.24177">
        <ele>1416.1591796875</ele>
        <time>2011-12-23T10:52:58Z</time>
      </trkpt>
      <trkpt lat="45.66734" lon="6.24176">
        <ele>1416.6398925781</ele>
        <time>2011-12-23T10:53:02Z</time>
      </trkpt>
      <trkpt lat="45.66735" lon="6.24176">
        <ele>1416.6398925781</ele>
        <time>2011-12-23T10:53:06Z</time>
      </trkpt>
      <trkpt lat="45.66736" lon="6.24175">
        <ele>1417.1206054688</ele>
        <time>2011-12-23T10:53:10Z</time>
      </trkpt>
      <trkpt lat="45.6674" lon="6.24172">
        <ele>1417.1206054688</ele>
        <time>2011-12-23T10:53:16Z</time>
      </trkpt>
      <trkpt lat="45.66742" lon="6.2417">
        <ele>1417.6010742188</ele>
        <time>2011-12-23T10:53:20Z</time>
      </trkpt>
      <trkpt lat="45.66743" lon="6.24168">
        <ele>1418.5625</ele>
        <time>2011-12-23T10:53:24Z</time>
      </trkpt>
      <trkpt lat="45.66744" lon="6.24164">
        <ele>1419.5239257812</ele>
        <time>2011-12-23T10:53:29Z</time>
      </trkpt>
      <trkpt lat="45.66746" lon="6.24162">
        <ele>1420.0046386719</ele>
        <time>2011-12-23T10:53:33Z</time>
      </trkpt>
      <trkpt lat="45.66748" lon="6.24159">
        <ele>1420.0046386719</ele>
        <time>2011-12-23T10:53:38Z</time>
      </trkpt>
      <trkpt lat="45.66748" lon="6.24161">
        <ele>1426.7338867188</ele>
        <time>2011-12-23T10:53:50Z</time>
      </trkpt>
      <trkpt lat="45.66751" lon="6.24155">
        <ele>1424.8112792969</ele>
        <time>2011-12-23T10:53:56Z</time>
      </trkpt>
      <trkpt lat="45.66751" lon="6.24153">
        <ele>1424.3305664062</ele>
        <time>2011-12-23T10:53:58Z</time>
      </trkpt>
      <trkpt lat="45.66754" lon="6.24148">
        <ele>1421.4465332031</ele>
        <time>2011-12-23T10:54:04Z</time>
      </trkpt>
      <trkpt lat="45.66755" lon="6.24147">
        <ele>1418.0817871094</ele>
        <time>2011-12-23T10:54:08Z</time>
      </trkpt>
      <trkpt lat="45.66757" lon="6.24143">
        <ele>1418.0817871094</ele>
        <time>2011-12-23T10:54:19Z</time>
      </trkpt>
      <trkpt lat="45.66758" lon="6.24141">
        <ele>1419.0432128906</ele>
        <time>2011-12-23T10:54:24Z</time>
      </trkpt>
      <trkpt lat="45.6676" lon="6.24139">
        <ele>1418.0817871094</ele>
        <time>2011-12-23T10:54:28Z</time>
      </trkpt>
      <trkpt lat="45.66763" lon="6.24135">
        <ele>1418.0817871094</ele>
        <time>2011-12-23T10:54:33Z</time>
      </trkpt>
      <trkpt lat="45.66765" lon="6.24131">
        <ele>1418.5625</ele>
        <time>2011-12-23T10:54:38Z</time>
      </trkpt>
      <trkpt lat="45.66766" lon="6.24128">
        <ele>1418.5625</ele>
        <time>2011-12-23T10:54:42Z</time>
      </trkpt>
      <trkpt lat="45.66768" lon="6.24126">
        <ele>1418.5625</ele>
        <time>2011-12-23T10:54:46Z</time>
      </trkpt>
      <trkpt lat="45.6677" lon="6.24124">
        <ele>1419.5239257812</ele>
        <time>2011-12-23T10:54:51Z</time>
      </trkpt>
      <trkpt lat="45.66772" lon="6.24121">
        <ele>1420.4853515625</ele>
        <time>2011-12-23T10:54:56Z</time>
      </trkpt>
      <trkpt lat="45.66774" lon="6.24119">
        <ele>1421.9272460938</ele>
        <time>2011-12-23T10:55:00Z</time>
      </trkpt>
      <trkpt lat="45.66777" lon="6.24115">
        <ele>1422.4079589844</ele>
        <time>2011-12-23T10:55:07Z</time>
      </trkpt>
      <trkpt lat="45.6678" lon="6.24113">
        <ele>1421.4465332031</ele>
        <time>2011-12-23T10:55:11Z</time>
      </trkpt>
      <trkpt lat="45.66782" lon="6.24109">
        <ele>1421.9272460938</ele>
        <time>2011-12-23T10:55:15Z</time>
      </trkpt>
      <trkpt lat="45.6678" lon="6.24103">
        <ele>1422.888671875</ele>
        <time>2011-12-23T10:55:19Z</time>
      </trkpt>
      <trkpt lat="45.6678" lon="6.24099">
        <ele>1422.4079589844</ele>
        <time>2011-12-23T10:55:23Z</time>
      </trkpt>
      <trkpt lat="45.66782" lon="6.24095">
        <ele>1422.4079589844</ele>
        <time>2011-12-23T10:55:28Z</time>
      </trkpt>
      <trkpt lat="45.66784" lon="6.24092">
        <ele>1421.4465332031</ele>
        <time>2011-12-23T10:55:32Z</time>
      </trkpt>
      <trkpt lat="45.66786" lon="6.24086">
        <ele>1420.9660644531</ele>
        <time>2011-12-23T10:55:42Z</time>
      </trkpt>
      <trkpt lat="45.66788" lon="6.24085">
        <ele>1420.9660644531</ele>
        <time>2011-12-23T10:55:52Z</time>
      </trkpt>
      <trkpt lat="45.66788" lon="6.24081">
        <ele>1424.8112792969</ele>
        <time>2011-12-23T10:56:07Z</time>
      </trkpt>
      <trkpt lat="45.66789" lon="6.24078">
        <ele>1425.7724609375</ele>
        <time>2011-12-23T10:56:11Z</time>
      </trkpt>
      <trkpt lat="45.66789" lon="6.24075">
        <ele>1425.7724609375</ele>
        <time>2011-12-23T10:56:15Z</time>
      </trkpt>
      <trkpt lat="45.66791" lon="6.24071">
        <ele>1425.2917480469</ele>
        <time>2011-12-23T10:56:20Z</time>
      </trkpt>
      <trkpt lat="45.66789" lon="6.24066">
        <ele>1426.2531738281</ele>
        <time>2011-12-23T10:56:24Z</time>
      </trkpt>
      <trkpt lat="45.66791" lon="6.24064">
        <ele>1425.2917480469</ele>
        <time>2011-12-23T10:56:28Z</time>
      </trkpt>
      <trkpt lat="45.66793" lon="6.2406">
        <ele>1424.3305664062</ele>
        <time>2011-12-23T10:56:36Z</time>
      </trkpt>
      <trkpt lat="45.66795" lon="6.24058">
        <ele>1424.3305664062</ele>
        <time>2011-12-23T10:56:41Z</time>
      </trkpt>
      <trkpt lat="45.66796" lon="6.24056">
        <ele>1423.8498535156</ele>
        <time>2011-12-23T10:56:47Z</time>
      </trkpt>
      <trkpt lat="45.66798" lon="6.24052">
        <ele>1423.3693847656</ele>
        <time>2011-12-23T10:56:54Z</time>
      </trkpt>
      <trkpt lat="45.668" lon="6.24048">
        <ele>1424.3305664062</ele>
        <time>2011-12-23T10:57:03Z</time>
      </trkpt>
      <trkpt lat="45.66802" lon="6.24046">
        <ele>1424.8112792969</ele>
        <time>2011-12-23T10:57:08Z</time>
      </trkpt>
      <trkpt lat="45.66804" lon="6.24046">
        <ele>1424.8112792969</ele>
        <time>2011-12-23T10:57:15Z</time>
      </trkpt>
      <trkpt lat="45.66808" lon="6.24047">
        <ele>1425.7724609375</ele>
        <time>2011-12-23T10:57:22Z</time>
      </trkpt>
      <trkpt lat="45.66811" lon="6.24048">
        <ele>1426.2531738281</ele>
        <time>2011-12-23T10:57:28Z</time>
      </trkpt>
      <trkpt lat="45.66814" lon="6.24049">
        <ele>1427.2145996094</ele>
        <time>2011-12-23T10:57:36Z</time>
      </trkpt>
      <trkpt lat="45.66816" lon="6.24048">
        <ele>1428.6564941406</ele>
        <time>2011-12-23T10:57:50Z</time>
      </trkpt>
      <trkpt lat="45.66818" lon="6.2405">
        <ele>1428.17578125</ele>
        <time>2011-12-23T10:57:56Z</time>
      </trkpt>
      <trkpt lat="45.6682" lon="6.24053">
        <ele>1428.6564941406</ele>
        <time>2011-12-23T10:58:03Z</time>
      </trkpt>
      <trkpt lat="45.66822" lon="6.24055">
        <ele>1427.6950683594</ele>
        <time>2011-12-23T10:58:10Z</time>
      </trkpt>
      <trkpt lat="45.66823" lon="6.24058">
        <ele>1429.1369628906</ele>
        <time>2011-12-23T10:58:17Z</time>
      </trkpt>
      <trkpt lat="45.66824" lon="6.24061">
        <ele>1430.0983886719</ele>
        <time>2011-12-23T10:58:25Z</time>
      </trkpt>
      <trkpt lat="45.66825" lon="6.24062">
        <ele>1430.5791015625</ele>
        <time>2011-12-23T10:58:32Z</time>
      </trkpt>
      <trkpt lat="45.66828" lon="6.24065">
        <ele>1430.5791015625</ele>
        <time>2011-12-23T10:58:44Z</time>
      </trkpt>
      <trkpt lat="45.6683" lon="6.24068">
        <ele>1430.5791015625</ele>
        <time>2011-12-23T10:58:49Z</time>
      </trkpt>
      <trkpt lat="45.66832" lon="6.24069">
        <ele>1431.0598144531</ele>
        <time>2011-12-23T10:58:54Z</time>
      </trkpt>
      <trkpt lat="45.66832" lon="6.24071">
        <ele>1431.5402832031</ele>
        <time>2011-12-23T10:58:59Z</time>
      </trkpt>
      <trkpt lat="45.66833" lon="6.24073">
        <ele>1431.0598144531</ele>
        <time>2011-12-23T10:59:06Z</time>
      </trkpt>
      <trkpt lat="45.66835" lon="6.24075">
        <ele>1431.5402832031</ele>
        <time>2011-12-23T10:59:12Z</time>
      </trkpt>
      <trkpt lat="45.66836" lon="6.24075">
        <ele>1432.5017089844</ele>
        <time>2011-12-23T10:59:17Z</time>
      </trkpt>
      <trkpt lat="45.66836" lon="6.24075">
        <ele>1432.9821777344</ele>
        <time>2011-12-23T10:59:18Z</time>
      </trkpt>
      <trkpt lat="45.66834" lon="6.24073">
        <ele>1432.0209960938</ele>
        <time>2011-12-23T10:59:29Z</time>
      </trkpt>
      <trkpt lat="45.66836" lon="6.24073">
        <ele>1433.462890625</ele>
        <time>2011-12-23T10:59:42Z</time>
      </trkpt>
      <trkpt lat="45.66836" lon="6.24072">
        <ele>1433.462890625</ele>
        <time>2011-12-23T10:59:50Z</time>
      </trkpt>
      <trkpt lat="45.66836" lon="6.24071">
        <ele>1434.9050292969</ele>
        <time>2011-12-23T11:00:01Z</time>
      </trkpt>
      <trkpt lat="45.66837" lon="6.24074">
        <ele>1435.8662109375</ele>
        <time>2011-12-23T11:00:06Z</time>
      </trkpt>
      <trkpt lat="45.6684" lon="6.24078">
        <ele>1436.3471679688</ele>
        <time>2011-12-23T11:00:13Z</time>
      </trkpt>
      <trkpt lat="45.66842" lon="6.2408">
        <ele>1435.3854980469</ele>
        <time>2011-12-23T11:00:18Z</time>
      </trkpt>
      <trkpt lat="45.66843" lon="6.24084">
        <ele>1435.3854980469</ele>
        <time>2011-12-23T11:00:24Z</time>
      </trkpt>
      <trkpt lat="45.66844" lon="6.24087">
        <ele>1435.8662109375</ele>
        <time>2011-12-23T11:00:29Z</time>
      </trkpt>
      <trkpt lat="45.66847" lon="6.2409">
        <ele>1437.3083496094</ele>
        <time>2011-12-23T11:00:34Z</time>
      </trkpt>
      <trkpt lat="45.66849" lon="6.24092">
        <ele>1438.2697753906</ele>
        <time>2011-12-23T11:00:40Z</time>
      </trkpt>
      <trkpt lat="45.66849" lon="6.24095">
        <ele>1437.7890625</ele>
        <time>2011-12-23T11:00:45Z</time>
      </trkpt>
      <trkpt lat="45.66848" lon="6.24094">
        <ele>1437.7890625</ele>
        <time>2011-12-23T11:01:01Z</time>
      </trkpt>
      <trkpt lat="45.66848" lon="6.24095">
        <ele>1439.7116699219</ele>
        <time>2011-12-23T11:01:08Z</time>
      </trkpt>
      <trkpt lat="45.66849" lon="6.24096">
        <ele>1440.1923828125</ele>
        <time>2011-12-23T11:01:15Z</time>
      </trkpt>
      <trkpt lat="45.6685" lon="6.24097">
        <ele>1438.7504882812</ele>
        <time>2011-12-23T11:01:34Z</time>
      </trkpt>
      <trkpt lat="45.66851" lon="6.24098">
        <ele>1437.3083496094</ele>
        <time>2011-12-23T11:01:46Z</time>
      </trkpt>
      <trkpt lat="45.66852" lon="6.24098">
        <ele>1436.3471679688</ele>
        <time>2011-12-23T11:01:49Z</time>
      </trkpt>
      <trkpt lat="45.66852" lon="6.24098">
        <ele>1435.8662109375</ele>
        <time>2011-12-23T11:01:50Z</time>
      </trkpt>
      <trkpt lat="45.66854" lon="6.24098">
        <ele>1434.9050292969</ele>
        <time>2011-12-23T11:02:00Z</time>
      </trkpt>
      <trkpt lat="45.66856" lon="6.24101">
        <ele>1435.3854980469</ele>
        <time>2011-12-23T11:02:06Z</time>
      </trkpt>
      <trkpt lat="45.66859" lon="6.24101">
        <ele>1435.8662109375</ele>
        <time>2011-12-23T11:02:11Z</time>
      </trkpt>
      <trkpt lat="45.66858" lon="6.241">
        <ele>1436.8276367188</ele>
        <time>2011-12-23T11:02:16Z</time>
      </trkpt>
      <trkpt lat="45.6686" lon="6.24099">
        <ele>1437.3083496094</ele>
        <time>2011-12-23T11:02:21Z</time>
      </trkpt>
      <trkpt lat="45.66862" lon="6.24098">
        <ele>1437.7890625</ele>
        <time>2011-12-23T11:02:26Z</time>
      </trkpt>
      <trkpt lat="45.66864" lon="6.24096">
        <ele>1438.7504882812</ele>
        <time>2011-12-23T11:02:31Z</time>
      </trkpt>
      <trkpt lat="45.66864" lon="6.24094">
        <ele>1440.1923828125</ele>
        <time>2011-12-23T11:02:34Z</time>
      </trkpt>
      <trkpt lat="45.66867" lon="6.24091">
        <ele>1441.6342773438</ele>
        <time>2011-12-23T11:02:40Z</time>
      </trkpt>
      <trkpt lat="45.66869" lon="6.24089">
        <ele>1442.1149902344</ele>
        <time>2011-12-23T11:02:45Z</time>
      </trkpt>
      <trkpt lat="45.66869" lon="6.24088">
        <ele>1442.595703125</ele>
        <time>2011-12-23T11:02:50Z</time>
      </trkpt>
      <trkpt lat="45.66869" lon="6.24088">
        <ele>1442.1149902344</ele>
        <time>2011-12-23T11:02:58Z</time>
      </trkpt>
      <trkpt lat="45.66869" lon="6.24088">
        <ele>1440.6728515625</ele>
        <time>2011-12-23T11:03:16Z</time>
      </trkpt>
      <trkpt lat="45.66868" lon="6.24087">
        <ele>1442.1149902344</ele>
        <time>2011-12-23T11:03:30Z</time>
      </trkpt>
      <trkpt lat="45.66871" lon="6.24085">
        <ele>1441.6342773438</ele>
        <time>2011-12-23T11:03:36Z</time>
      </trkpt>
      <trkpt lat="45.66873" lon="6.24083">
        <ele>1440.6728515625</ele>
        <time>2011-12-23T11:03:39Z</time>
      </trkpt>
      <trkpt lat="45.66877" lon="6.24079">
        <ele>1442.595703125</ele>
        <time>2011-12-23T11:03:45Z</time>
      </trkpt>
      <trkpt lat="45.66881" lon="6.24074">
        <ele>1444.0375976562</ele>
        <time>2011-12-23T11:03:52Z</time>
      </trkpt>
      <trkpt lat="45.66885" lon="6.2407">
        <ele>1443.5568847656</ele>
        <time>2011-12-23T11:03:58Z</time>
      </trkpt>
      <trkpt lat="45.66887" lon="6.24067">
        <ele>1443.076171875</ele>
        <time>2011-12-23T11:04:03Z</time>
      </trkpt>
      <trkpt lat="45.6689" lon="6.24066">
        <ele>1442.595703125</ele>
        <time>2011-12-23T11:04:07Z</time>
      </trkpt>
      <trkpt lat="45.66892" lon="6.24064">
        <ele>1442.595703125</ele>
        <time>2011-12-23T11:04:11Z</time>
      </trkpt>
      <trkpt lat="45.66895" lon="6.24062">
        <ele>1444.0375976562</ele>
        <time>2011-12-23T11:04:15Z</time>
      </trkpt>
      <trkpt lat="45.66898" lon="6.24059">
        <ele>1444.0375976562</ele>
        <time>2011-12-23T11:04:19Z</time>
      </trkpt>
      <trkpt lat="45.669" lon="6.24056">
        <ele>1444.0375976562</ele>
        <time>2011-12-23T11:04:23Z</time>
      </trkpt>
      <trkpt lat="45.66903" lon="6.24054">
        <ele>1444.5180664062</ele>
        <time>2011-12-23T11:04:26Z</time>
      </trkpt>
      <trkpt lat="45.66905" lon="6.24054">
        <ele>1444.5180664062</ele>
        <time>2011-12-23T11:04:27Z</time>
      </trkpt>
      <trkpt lat="45.66906" lon="6.24053">
        <ele>1446.4409179688</ele>
        <time>2011-12-23T11:04:34Z</time>
      </trkpt>
      <trkpt lat="45.66907" lon="6.24055">
        <ele>1444.9987792969</ele>
        <time>2011-12-23T11:04:52Z</time>
      </trkpt>
      <trkpt lat="45.66907" lon="6.24055">
        <ele>1444.9987792969</ele>
        <time>2011-12-23T11:05:03Z</time>
      </trkpt>
      <trkpt lat="45.66906" lon="6.24053">
        <ele>1446.4409179688</ele>
        <time>2011-12-23T11:05:11Z</time>
      </trkpt>
      <trkpt lat="45.66906" lon="6.24053">
        <ele>1447.4020996094</ele>
        <time>2011-12-23T11:05:19Z</time>
      </trkpt>
      <trkpt lat="45.66906" lon="6.24054">
        <ele>1447.4020996094</ele>
        <time>2011-12-23T11:05:32Z</time>
      </trkpt>
      <trkpt lat="45.66904" lon="6.24052">
        <ele>1449.8054199219</ele>
        <time>2011-12-23T11:05:38Z</time>
      </trkpt>
      <trkpt lat="45.66904" lon="6.24052">
        <ele>1450.2861328125</ele>
        <time>2011-12-23T11:05:41Z</time>
      </trkpt>
      <trkpt lat="45.66906" lon="6.24052">
        <ele>1448.36328125</ele>
        <time>2011-12-23T11:05:51Z</time>
      </trkpt>
      <trkpt lat="45.66907" lon="6.24055">
        <ele>1447.4020996094</ele>
        <time>2011-12-23T11:06:02Z</time>
      </trkpt>
      <trkpt lat="45.66907" lon="6.24056">
        <ele>1446.4409179688</ele>
        <time>2011-12-23T11:06:08Z</time>
      </trkpt>
      <trkpt lat="45.66906" lon="6.24056">
        <ele>1444.9987792969</ele>
        <time>2011-12-23T11:06:17Z</time>
      </trkpt>
      <trkpt lat="45.6691" lon="6.24053">
        <ele>1444.9987792969</ele>
        <time>2011-12-23T11:06:22Z</time>
      </trkpt>
      <trkpt lat="45.66913" lon="6.24052">
        <ele>1445.4794921875</ele>
        <time>2011-12-23T11:06:27Z</time>
      </trkpt>
      <trkpt lat="45.66916" lon="6.24053">
        <ele>1447.4020996094</ele>
        <time>2011-12-23T11:06:32Z</time>
      </trkpt>
      <trkpt lat="45.6692" lon="6.24054">
        <ele>1448.36328125</ele>
        <time>2011-12-23T11:06:38Z</time>
      </trkpt>
      <trkpt lat="45.66921" lon="6.24056">
        <ele>1449.3247070312</ele>
        <time>2011-12-23T11:06:42Z</time>
      </trkpt>
      <trkpt lat="45.66923" lon="6.24057">
        <ele>1449.8054199219</ele>
        <time>2011-12-23T11:06:45Z</time>
      </trkpt>
      <trkpt lat="45.66927" lon="6.2406">
        <ele>1450.7666015625</ele>
        <time>2011-12-23T11:06:50Z</time>
      </trkpt>
      <trkpt lat="45.66929" lon="6.24063">
        <ele>1452.2087402344</ele>
        <time>2011-12-23T11:06:54Z</time>
      </trkpt>
      <trkpt lat="45.66931" lon="6.24068">
        <ele>1452.689453125</ele>
        <time>2011-12-23T11:06:59Z</time>
      </trkpt>
      <trkpt lat="45.66933" lon="6.24071">
        <ele>1453.6508789062</ele>
        <time>2011-12-23T11:07:05Z</time>
      </trkpt>
      <trkpt lat="45.66937" lon="6.24075">
        <ele>1453.6508789062</ele>
        <time>2011-12-23T11:07:11Z</time>
      </trkpt>
      <trkpt lat="45.6694" lon="6.24076">
        <ele>1453.6508789062</ele>
        <time>2011-12-23T11:07:15Z</time>
      </trkpt>
      <trkpt lat="45.66941" lon="6.24075">
        <ele>1452.2087402344</ele>
        <time>2011-12-23T11:07:35Z</time>
      </trkpt>
      <trkpt lat="45.66941" lon="6.24075">
        <ele>1453.6508789062</ele>
        <time>2011-12-23T11:07:44Z</time>
      </trkpt>
      <trkpt lat="45.66943" lon="6.24078">
        <ele>1453.1701660156</ele>
        <time>2011-12-23T11:07:52Z</time>
      </trkpt>
      <trkpt lat="45.66944" lon="6.24081">
        <ele>1453.6508789062</ele>
        <time>2011-12-23T11:07:56Z</time>
      </trkpt>
      <trkpt lat="45.66947" lon="6.24085">
        <ele>1454.1315917969</ele>
        <time>2011-12-23T11:08:02Z</time>
      </trkpt>
      <trkpt lat="45.6695" lon="6.24088">
        <ele>1453.1701660156</ele>
        <time>2011-12-23T11:08:07Z</time>
      </trkpt>
      <trkpt lat="45.66951" lon="6.24091">
        <ele>1454.1315917969</ele>
        <time>2011-12-23T11:08:11Z</time>
      </trkpt>
      <trkpt lat="45.66954" lon="6.24094">
        <ele>1453.6508789062</ele>
        <time>2011-12-23T11:08:16Z</time>
      </trkpt>
      <trkpt lat="45.66955" lon="6.24099">
        <ele>1453.6508789062</ele>
        <time>2011-12-23T11:08:22Z</time>
      </trkpt>
      <trkpt lat="45.66957" lon="6.24103">
        <ele>1453.1701660156</ele>
        <time>2011-12-23T11:08:26Z</time>
      </trkpt>
      <trkpt lat="45.66959" lon="6.24107">
        <ele>1453.6508789062</ele>
        <time>2011-12-23T11:08:31Z</time>
      </trkpt>
      <trkpt lat="45.6696" lon="6.24109">
        <ele>1453.6508789062</ele>
        <time>2011-12-23T11:08:38Z</time>
      </trkpt>
      <trkpt lat="45.6696" lon="6.24108">
        <ele>1452.689453125</ele>
        <time>2011-12-23T11:08:49Z</time>
      </trkpt>
      <trkpt lat="45.66962" lon="6.2411">
        <ele>1453.6508789062</ele>
        <time>2011-12-23T11:08:56Z</time>
      </trkpt>
      <trkpt lat="45.66965" lon="6.24112">
        <ele>1454.1315917969</ele>
        <time>2011-12-23T11:09:01Z</time>
      </trkpt>
      <trkpt lat="45.66967" lon="6.24113">
        <ele>1455.0927734375</ele>
        <time>2011-12-23T11:09:07Z</time>
      </trkpt>
      <trkpt lat="45.66969" lon="6.24114">
        <ele>1455.5734863281</ele>
        <time>2011-12-23T11:09:12Z</time>
      </trkpt>
      <trkpt lat="45.66972" lon="6.24114">
        <ele>1455.5734863281</ele>
        <time>2011-12-23T11:09:18Z</time>
      </trkpt>
      <trkpt lat="45.66975" lon="6.24114">
        <ele>1456.5346679688</ele>
        <time>2011-12-23T11:09:24Z</time>
      </trkpt>
      <trkpt lat="45.66978" lon="6.24115">
        <ele>1457.49609375</ele>
        <time>2011-12-23T11:09:30Z</time>
      </trkpt>
      <trkpt lat="45.6698" lon="6.24116">
        <ele>1457.9768066406</ele>
        <time>2011-12-23T11:09:35Z</time>
      </trkpt>
      <trkpt lat="45.66982" lon="6.24117">
        <ele>1458.4572753906</ele>
        <time>2011-12-23T11:09:40Z</time>
      </trkpt>
      <trkpt lat="45.66985" lon="6.24118">
        <ele>1458.9379882812</ele>
        <time>2011-12-23T11:09:45Z</time>
      </trkpt>
      <trkpt lat="45.66987" lon="6.24119">
        <ele>1459.4187011719</ele>
        <time>2011-12-23T11:09:50Z</time>
      </trkpt>
      <trkpt lat="45.6699" lon="6.24121">
        <ele>1459.8991699219</ele>
        <time>2011-12-23T11:09:55Z</time>
      </trkpt>
      <trkpt lat="45.66991" lon="6.24122">
        <ele>1459.8991699219</ele>
        <time>2011-12-23T11:09:59Z</time>
      </trkpt>
      <trkpt lat="45.66994" lon="6.24123">
        <ele>1460.3798828125</ele>
        <time>2011-12-23T11:10:04Z</time>
      </trkpt>
      <trkpt lat="45.66994" lon="6.24124">
        <ele>1460.8605957031</ele>
        <time>2011-12-23T11:10:09Z</time>
      </trkpt>
      <trkpt lat="45.66996" lon="6.24125">
        <ele>1460.8605957031</ele>
        <time>2011-12-23T11:10:18Z</time>
      </trkpt>
      <trkpt lat="45.66998" lon="6.24128">
        <ele>1461.3413085938</ele>
        <time>2011-12-23T11:10:23Z</time>
      </trkpt>
      <trkpt lat="45.67" lon="6.2413">
        <ele>1461.3413085938</ele>
        <time>2011-12-23T11:10:28Z</time>
      </trkpt>
      <trkpt lat="45.67004" lon="6.24133">
        <ele>1462.3024902344</ele>
        <time>2011-12-23T11:10:37Z</time>
      </trkpt>
      <trkpt lat="45.67004" lon="6.24133">
        <ele>1462.783203125</ele>
        <time>2011-12-23T11:10:44Z</time>
      </trkpt>
      <trkpt lat="45.67006" lon="6.24135">
        <ele>1464.2250976562</ele>
        <time>2011-12-23T11:11:05Z</time>
      </trkpt>
      <trkpt lat="45.67006" lon="6.24134">
        <ele>1465.1865234375</ele>
        <time>2011-12-23T11:11:16Z</time>
      </trkpt>
      <trkpt lat="45.67006" lon="6.24134">
        <ele>1463.7443847656</ele>
        <time>2011-12-23T11:11:22Z</time>
      </trkpt>
      <trkpt lat="45.67007" lon="6.24133">
        <ele>1460.8605957031</ele>
        <time>2011-12-23T11:11:35Z</time>
      </trkpt>
      <trkpt lat="45.67006" lon="6.24133">
        <ele>1461.3413085938</ele>
        <time>2011-12-23T11:11:55Z</time>
      </trkpt>
      <trkpt lat="45.67006" lon="6.24132">
        <ele>1463.2639160156</ele>
        <time>2011-12-23T11:12:03Z</time>
      </trkpt>
      <trkpt lat="45.67009" lon="6.24135">
        <ele>1463.7443847656</ele>
        <time>2011-12-23T11:12:07Z</time>
      </trkpt>
      <trkpt lat="45.67011" lon="6.24137">
        <ele>1465.1865234375</ele>
        <time>2011-12-23T11:12:11Z</time>
      </trkpt>
      <trkpt lat="45.67015" lon="6.24139">
        <ele>1466.6284179688</ele>
        <time>2011-12-23T11:12:17Z</time>
      </trkpt>
      <trkpt lat="45.67017" lon="6.24139">
        <ele>1468.5512695312</ele>
        <time>2011-12-23T11:12:22Z</time>
      </trkpt>
      <trkpt lat="45.6702" lon="6.24135">
        <ele>1468.5512695312</ele>
        <time>2011-12-23T11:12:26Z</time>
      </trkpt>
      <trkpt lat="45.6702" lon="6.24133">
        <ele>1467.5895996094</ele>
        <time>2011-12-23T11:12:30Z</time>
      </trkpt>
      <trkpt lat="45.67021" lon="6.24134">
        <ele>1465.6672363281</ele>
        <time>2011-12-23T11:12:39Z</time>
      </trkpt>
      <trkpt lat="45.67022" lon="6.24135">
        <ele>1463.2639160156</ele>
        <time>2011-12-23T11:12:53Z</time>
      </trkpt>
      <trkpt lat="45.67021" lon="6.24133">
        <ele>1463.7443847656</ele>
        <time>2011-12-23T11:13:01Z</time>
      </trkpt>
      <trkpt lat="45.67018" lon="6.24127">
        <ele>1466.6284179688</ele>
        <time>2011-12-23T11:13:07Z</time>
      </trkpt>
      <trkpt lat="45.67018" lon="6.24124">
        <ele>1467.1091308594</ele>
        <time>2011-12-23T11:13:11Z</time>
      </trkpt>
      <trkpt lat="45.67015" lon="6.24117">
        <ele>1467.1091308594</ele>
        <time>2011-12-23T11:13:16Z</time>
      </trkpt>
      <trkpt lat="45.67014" lon="6.24112">
        <ele>1467.5895996094</ele>
        <time>2011-12-23T11:13:20Z</time>
      </trkpt>
      <trkpt lat="45.67012" lon="6.24106">
        <ele>1468.0705566406</ele>
        <time>2011-12-23T11:13:28Z</time>
      </trkpt>
      <trkpt lat="45.67008" lon="6.24101">
        <ele>1468.5512695312</ele>
        <time>2011-12-23T11:13:34Z</time>
      </trkpt>
      <trkpt lat="45.67005" lon="6.24096">
        <ele>1469.5126953125</ele>
        <time>2011-12-23T11:13:40Z</time>
      </trkpt>
      <trkpt lat="45.67004" lon="6.24092">
        <ele>1469.9931640625</ele>
        <time>2011-12-23T11:13:44Z</time>
      </trkpt>
      <trkpt lat="45.67004" lon="6.24091">
        <ele>1469.9931640625</ele>
        <time>2011-12-23T11:13:50Z</time>
      </trkpt>
      <trkpt lat="45.67006" lon="6.24089">
        <ele>1469.9931640625</ele>
        <time>2011-12-23T11:13:58Z</time>
      </trkpt>
      <trkpt lat="45.67009" lon="6.24088">
        <ele>1469.9931640625</ele>
        <time>2011-12-23T11:14:01Z</time>
      </trkpt>
      <trkpt lat="45.6701" lon="6.24089">
        <ele>1469.9931640625</ele>
        <time>2011-12-23T11:14:05Z</time>
      </trkpt>
      <trkpt lat="45.67014" lon="6.24089">
        <ele>1470.4738769531</ele>
        <time>2011-12-23T11:14:10Z</time>
      </trkpt>
      <trkpt lat="45.67016" lon="6.24091">
        <ele>1470.9545898438</ele>
        <time>2011-12-23T11:14:16Z</time>
      </trkpt>
      <trkpt lat="45.67017" lon="6.24091">
        <ele>1472.8771972656</ele>
        <time>2011-12-23T11:14:22Z</time>
      </trkpt>
      <trkpt lat="45.67019" lon="6.24093">
        <ele>1472.396484375</ele>
        <time>2011-12-23T11:14:40Z</time>
      </trkpt>
      <trkpt lat="45.67022" lon="6.24093">
        <ele>1472.8771972656</ele>
        <time>2011-12-23T11:14:45Z</time>
      </trkpt>
      <trkpt lat="45.67024" lon="6.24094">
        <ele>1473.8383789062</ele>
        <time>2011-12-23T11:14:49Z</time>
      </trkpt>
      <trkpt lat="45.67025" lon="6.24095">
        <ele>1474.3190917969</ele>
        <time>2011-12-23T11:14:53Z</time>
      </trkpt>
      <trkpt lat="45.67025" lon="6.24095">
        <ele>1475.2802734375</ele>
        <time>2011-12-23T11:14:59Z</time>
      </trkpt>
      <trkpt lat="45.67025" lon="6.24095">
        <ele>1475.7609863281</ele>
        <time>2011-12-23T11:15:07Z</time>
      </trkpt>
      <trkpt lat="45.67026" lon="6.24094">
        <ele>1477.203125</ele>
        <time>2011-12-23T11:15:17Z</time>
      </trkpt>
      <trkpt lat="45.67027" lon="6.24094">
        <ele>1477.68359375</ele>
        <time>2011-12-23T11:15:21Z</time>
      </trkpt>
      <trkpt lat="45.67027" lon="6.24093">
        <ele>1478.6450195312</ele>
        <time>2011-12-23T11:15:25Z</time>
      </trkpt>
      <trkpt lat="45.67032" lon="6.24094">
        <ele>1481.0483398438</ele>
        <time>2011-12-23T11:15:34Z</time>
      </trkpt>
      <trkpt lat="45.67036" lon="6.24095">
        <ele>1482.0095214844</ele>
        <time>2011-12-23T11:15:42Z</time>
      </trkpt>
      <trkpt lat="45.67041" lon="6.24093">
        <ele>1482.490234375</ele>
        <time>2011-12-23T11:15:50Z</time>
      </trkpt>
      <trkpt lat="45.67044" lon="6.24092">
        <ele>1482.490234375</ele>
        <time>2011-12-23T11:15:57Z</time>
      </trkpt>
      <trkpt lat="45.67049" lon="6.24091">
        <ele>1481.5288085938</ele>
        <time>2011-12-23T11:16:04Z</time>
      </trkpt>
      <trkpt lat="45.67052" lon="6.2409">
        <ele>1482.490234375</ele>
        <time>2011-12-23T11:16:12Z</time>
      </trkpt>
      <trkpt lat="45.67053" lon="6.24089">
        <ele>1482.0095214844</ele>
        <time>2011-12-23T11:16:18Z</time>
      </trkpt>
      <trkpt lat="45.67051" lon="6.2409">
        <ele>1479.1254882812</ele>
        <time>2011-12-23T11:16:45Z</time>
      </trkpt>
      <trkpt lat="45.67051" lon="6.2409">
        <ele>1479.1254882812</ele>
        <time>2011-12-23T11:16:53Z</time>
      </trkpt>
      <trkpt lat="45.67051" lon="6.24091">
        <ele>1477.68359375</ele>
        <time>2011-12-23T11:17:07Z</time>
      </trkpt>
      <trkpt lat="45.6705" lon="6.24089">
        <ele>1479.6062011719</ele>
        <time>2011-12-23T11:17:16Z</time>
      </trkpt>
      <trkpt lat="45.6705" lon="6.24089">
        <ele>1480.0869140625</ele>
        <time>2011-12-23T11:17:27Z</time>
      </trkpt>
      <trkpt lat="45.67051" lon="6.2409">
        <ele>1480.0869140625</ele>
        <time>2011-12-23T11:17:50Z</time>
      </trkpt>
      <trkpt lat="45.67049" lon="6.24089">
        <ele>1481.0483398438</ele>
        <time>2011-12-23T11:17:57Z</time>
      </trkpt>
      <trkpt lat="45.6705" lon="6.24088">
        <ele>1481.5288085938</ele>
        <time>2011-12-23T11:18:03Z</time>
      </trkpt>
      <trkpt lat="45.67051" lon="6.24088">
        <ele>1481.5288085938</ele>
        <time>2011-12-23T11:18:11Z</time>
      </trkpt>
      <trkpt lat="45.67052" lon="6.24088">
        <ele>1481.0483398438</ele>
        <time>2011-12-23T11:18:19Z</time>
      </trkpt>
      <trkpt lat="45.67053" lon="6.24084">
        <ele>1481.0483398438</ele>
        <time>2011-12-23T11:18:29Z</time>
      </trkpt>
      <trkpt lat="45.67054" lon="6.24084">
        <ele>1481.5288085938</ele>
        <time>2011-12-23T11:18:33Z</time>
      </trkpt>
      <trkpt lat="45.67053" lon="6.24084">
        <ele>1479.1254882812</ele>
        <time>2011-12-23T11:18:50Z</time>
      </trkpt>
      <trkpt lat="45.67052" lon="6.24083">
        <ele>1478.6450195312</ele>
        <time>2011-12-23T11:19:00Z</time>
      </trkpt>
      <trkpt lat="45.67051" lon="6.24083">
        <ele>1478.1643066406</ele>
        <time>2011-12-23T11:19:15Z</time>
      </trkpt>
      <trkpt lat="45.67052" lon="6.24084">
        <ele>1478.1643066406</ele>
        <time>2011-12-23T11:19:55Z</time>
      </trkpt>
      <trkpt lat="45.67054" lon="6.24083">
        <ele>1479.6062011719</ele>
        <time>2011-12-23T11:20:32Z</time>
      </trkpt>
      <trkpt lat="45.67056" lon="6.2408">
        <ele>1481.5288085938</ele>
        <time>2011-12-23T11:20:37Z</time>
      </trkpt>
      <trkpt lat="45.67056" lon="6.24081">
        <ele>1482.490234375</ele>
        <time>2011-12-23T11:20:43Z</time>
      </trkpt>
      <trkpt lat="45.67057" lon="6.24081">
        <ele>1481.0483398438</ele>
        <time>2011-12-23T11:21:01Z</time>
      </trkpt>
      <trkpt lat="45.67056" lon="6.24081">
        <ele>1482.0095214844</ele>
        <time>2011-12-23T11:21:05Z</time>
      </trkpt>
      <trkpt lat="45.67055" lon="6.24081">
        <ele>1486.8161621094</ele>
        <time>2011-12-23T11:21:16Z</time>
      </trkpt>
      <trkpt lat="45.67054" lon="6.2408">
        <ele>1483.9321289062</ele>
        <time>2011-12-23T11:21:26Z</time>
      </trkpt>
      <trkpt lat="45.67055" lon="6.2408">
        <ele>1484.4130859375</ele>
        <time>2011-12-23T11:21:32Z</time>
      </trkpt>
      <trkpt lat="45.67054" lon="6.24081">
        <ele>1483.4514160156</ele>
        <time>2011-12-23T11:21:40Z</time>
      </trkpt>
      <trkpt lat="45.67054" lon="6.24082">
        <ele>1483.9321289062</ele>
        <time>2011-12-23T11:21:52Z</time>
      </trkpt>
      <trkpt lat="45.67054" lon="6.2408">
        <ele>1483.4514160156</ele>
        <time>2011-12-23T11:21:59Z</time>
      </trkpt>
      <trkpt lat="45.67056" lon="6.2408">
        <ele>1483.4514160156</ele>
        <time>2011-12-23T11:22:04Z</time>
      </trkpt>
      <trkpt lat="45.67058" lon="6.24078">
        <ele>1481.0483398438</ele>
        <time>2011-12-23T11:22:17Z</time>
      </trkpt>
      <trkpt lat="45.67058" lon="6.24076">
        <ele>1485.8549804688</ele>
        <time>2011-12-23T11:22:26Z</time>
      </trkpt>
      <trkpt lat="45.67058" lon="6.24077">
        <ele>1483.9321289062</ele>
        <time>2011-12-23T11:22:42Z</time>
      </trkpt>
      <trkpt lat="45.67057" lon="6.24076">
        <ele>1483.4514160156</ele>
        <time>2011-12-23T11:22:48Z</time>
      </trkpt>
      <trkpt lat="45.67057" lon="6.24077">
        <ele>1483.4514160156</ele>
        <time>2011-12-23T11:22:52Z</time>
      </trkpt>
      <trkpt lat="45.67058" lon="6.24076">
        <ele>1483.9321289062</ele>
        <time>2011-12-23T11:23:00Z</time>
      </trkpt>
      <trkpt lat="45.67058" lon="6.24078">
        <ele>1483.9321289062</ele>
        <time>2011-12-23T11:23:04Z</time>
      </trkpt>
      <trkpt lat="45.67057" lon="6.24079">
        <ele>1482.490234375</ele>
        <time>2011-12-23T11:23:10Z</time>
      </trkpt>
      <trkpt lat="45.67057" lon="6.2408">
        <ele>1481.5288085938</ele>
        <time>2011-12-23T11:23:18Z</time>
      </trkpt>
      <trkpt lat="45.67057" lon="6.2408">
        <ele>1481.5288085938</ele>
        <time>2011-12-23T11:23:19Z</time>
      </trkpt>
      <trkpt lat="45.67057" lon="6.24079">
        <ele>1482.490234375</ele>
        <time>2011-12-23T11:23:26Z</time>
      </trkpt>
      <trkpt lat="45.67057" lon="6.24079">
        <ele>1482.0095214844</ele>
        <time>2011-12-23T11:23:28Z</time>
      </trkpt>
      <trkpt lat="45.67058" lon="6.24079">
        <ele>1482.970703125</ele>
        <time>2011-12-23T11:23:34Z</time>
      </trkpt>
      <trkpt lat="45.67057" lon="6.24079">
        <ele>1482.490234375</ele>
        <time>2011-12-23T11:23:39Z</time>
      </trkpt>
      <trkpt lat="45.67057" lon="6.24079">
        <ele>1482.490234375</ele>
        <time>2011-12-23T11:23:48Z</time>
      </trkpt>
      <trkpt lat="45.67057" lon="6.24079">
        <ele>1482.490234375</ele>
        <time>2011-12-23T11:23:53Z</time>
      </trkpt>
      <trkpt lat="45.67057" lon="6.24079">
        <ele>1482.970703125</ele>
        <time>2011-12-23T11:24:01Z</time>
      </trkpt>
      <trkpt lat="45.67057" lon="6.24081">
        <ele>1483.4514160156</ele>
        <time>2011-12-23T11:24:08Z</time>
      </trkpt>
      <trkpt lat="45.67057" lon="6.2408">
        <ele>1481.5288085938</ele>
        <time>2011-12-23T11:24:17Z</time>
      </trkpt>
      <trkpt lat="45.67056" lon="6.24079">
        <ele>1480.0869140625</ele>
        <time>2011-12-23T11:24:22Z</time>
      </trkpt>
      <trkpt lat="45.67057" lon="6.24081">
        <ele>1480.0869140625</ele>
        <time>2011-12-23T11:24:29Z</time>
      </trkpt>
      <trkpt lat="45.67055" lon="6.24081">
        <ele>1480.5676269531</ele>
        <time>2011-12-23T11:24:37Z</time>
      </trkpt>
      <trkpt lat="45.67055" lon="6.24081">
        <ele>1482.0095214844</ele>
        <time>2011-12-23T11:24:46Z</time>
      </trkpt>
      <trkpt lat="45.67055" lon="6.24081">
        <ele>1482.0095214844</ele>
        <time>2011-12-23T11:24:56Z</time>
      </trkpt>
      <trkpt lat="45.67055" lon="6.24081">
        <ele>1481.5288085938</ele>
        <time>2011-12-23T11:25:04Z</time>
      </trkpt>
      <trkpt lat="45.67056" lon="6.24081">
        <ele>1480.0869140625</ele>
        <time>2011-12-23T11:25:15Z</time>
      </trkpt>
      <trkpt lat="45.67055" lon="6.24082">
        <ele>1481.0483398438</ele>
        <time>2011-12-23T11:25:22Z</time>
      </trkpt>
      <trkpt lat="45.67056" lon="6.24081">
        <ele>1481.0483398438</ele>
        <time>2011-12-23T11:25:28Z</time>
      </trkpt>
      <trkpt lat="45.67056" lon="6.24081">
        <ele>1481.0483398438</ele>
        <time>2011-12-23T11:25:33Z</time>
      </trkpt>
      <trkpt lat="45.67055" lon="6.24079">
        <ele>1482.970703125</ele>
        <time>2011-12-23T11:25:43Z</time>
      </trkpt>
      <trkpt lat="45.67055" lon="6.2408">
        <ele>1482.490234375</ele>
        <time>2011-12-23T11:25:53Z</time>
      </trkpt>
      <trkpt lat="45.67055" lon="6.2408">
        <ele>1482.970703125</ele>
        <time>2011-12-23T11:25:59Z</time>
      </trkpt>
      <trkpt lat="45.67056" lon="6.24081">
        <ele>1482.490234375</ele>
        <time>2011-12-23T11:26:07Z</time>
      </trkpt>
      <trkpt lat="45.67057" lon="6.24081">
        <ele>1481.5288085938</ele>
        <time>2011-12-23T11:26:16Z</time>
      </trkpt>
      <trkpt lat="45.67057" lon="6.24082">
        <ele>1482.0095214844</ele>
        <time>2011-12-23T11:26:21Z</time>
      </trkpt>
      <trkpt lat="45.67057" lon="6.24082">
        <ele>1483.9321289062</ele>
        <time>2011-12-23T11:26:29Z</time>
      </trkpt>
      <trkpt lat="45.67057" lon="6.24083">
        <ele>1485.8549804688</ele>
        <time>2011-12-23T11:26:47Z</time>
      </trkpt>
      <trkpt lat="45.67057" lon="6.24082">
        <ele>1483.9321289062</ele>
        <time>2011-12-23T11:26:55Z</time>
      </trkpt>
      <trkpt lat="45.67058" lon="6.24082">
        <ele>1482.490234375</ele>
        <time>2011-12-23T11:26:59Z</time>
      </trkpt>
      <trkpt lat="45.67058" lon="6.24083">
        <ele>1482.0095214844</ele>
        <time>2011-12-23T11:27:11Z</time>
      </trkpt>
      <trkpt lat="45.67056" lon="6.24083">
        <ele>1483.4514160156</ele>
        <time>2011-12-23T11:27:20Z</time>
      </trkpt>
      <trkpt lat="45.67056" lon="6.24082">
        <ele>1480.5676269531</ele>
        <time>2011-12-23T11:27:35Z</time>
      </trkpt>
      <trkpt lat="45.67056" lon="6.24082">
        <ele>1479.6062011719</ele>
        <time>2011-12-23T11:27:42Z</time>
      </trkpt>
      <trkpt lat="45.67056" lon="6.24082">
        <ele>1479.1254882812</ele>
        <time>2011-12-23T11:27:47Z</time>
      </trkpt>
      <trkpt lat="45.67055" lon="6.24083">
        <ele>1480.0869140625</ele>
        <time>2011-12-23T11:27:51Z</time>
      </trkpt>
      <trkpt lat="45.67055" lon="6.24083">
        <ele>1480.0869140625</ele>
        <time>2011-12-23T11:27:52Z</time>
      </trkpt>
      <trkpt lat="45.67055" lon="6.24082">
        <ele>1481.5288085938</ele>
        <time>2011-12-23T11:27:58Z</time>
      </trkpt>
      <trkpt lat="45.67055" lon="6.24082">
        <ele>1482.0095214844</ele>
        <time>2011-12-23T11:28:01Z</time>
      </trkpt>
      <trkpt lat="45.67055" lon="6.24081">
        <ele>1482.970703125</ele>
        <time>2011-12-23T11:28:03Z</time>
      </trkpt>
      <trkpt lat="45.67055" lon="6.24081">
        <ele>1483.9321289062</ele>
        <time>2011-12-23T11:28:10Z</time>
      </trkpt>
      <trkpt lat="45.67055" lon="6.24081">
        <ele>1484.8937988281</ele>
        <time>2011-12-23T11:28:16Z</time>
      </trkpt>
      <trkpt lat="45.67055" lon="6.24082">
        <ele>1483.4514160156</ele>
        <time>2011-12-23T11:28:23Z</time>
      </trkpt>
      <trkpt lat="45.67054" lon="6.24082">
        <ele>1484.4130859375</ele>
        <time>2011-12-23T11:28:29Z</time>
      </trkpt>
      <trkpt lat="45.67054" lon="6.24083">
        <ele>1481.5288085938</ele>
        <time>2011-12-23T11:28:35Z</time>
      </trkpt>
      <trkpt lat="45.67055" lon="6.24082">
        <ele>1482.490234375</ele>
        <time>2011-12-23T11:28:44Z</time>
      </trkpt>
      <trkpt lat="45.67055" lon="6.24082">
        <ele>1483.4514160156</ele>
        <time>2011-12-23T11:28:52Z</time>
      </trkpt>
      <trkpt lat="45.67055" lon="6.24082">
        <ele>1483.9321289062</ele>
        <time>2011-12-23T11:29:07Z</time>
      </trkpt>
      <trkpt lat="45.67055" lon="6.24082">
        <ele>1483.9321289062</ele>
        <time>2011-12-23T11:29:16Z</time>
      </trkpt>
      <trkpt lat="45.67057" lon="6.24078">
        <ele>1478.1643066406</ele>
        <time>2011-12-23T11:29:30Z</time>
      </trkpt>
      <trkpt lat="45.67057" lon="6.24079">
        <ele>1479.1254882812</ele>
        <time>2011-12-23T11:29:42Z</time>
      </trkpt>
      <trkpt lat="45.67057" lon="6.24079">
        <ele>1480.0869140625</ele>
        <time>2011-12-23T11:29:54Z</time>
      </trkpt>
      <trkpt lat="45.67055" lon="6.24081">
        <ele>1482.970703125</ele>
        <time>2011-12-23T11:30:19Z</time>
      </trkpt>
      <trkpt lat="45.67054" lon="6.24084">
        <ele>1487.296875</ele>
        <time>2011-12-23T11:30:42Z</time>
      </trkpt>
      <trkpt lat="45.67055" lon="6.24081">
        <ele>1484.4130859375</ele>
        <time>2011-12-23T11:31:31Z</time>
      </trkpt>
      <trkpt lat="45.67055" lon="6.24081">
        <ele>1484.4130859375</ele>
        <time>2011-12-23T11:31:44Z</time>
      </trkpt>
      <trkpt lat="45.67056" lon="6.24084">
        <ele>1489.2194824219</ele>
        <time>2011-12-23T11:32:04Z</time>
      </trkpt>
      <trkpt lat="45.67056" lon="6.24083">
        <ele>1488.7390136719</ele>
        <time>2011-12-23T11:32:15Z</time>
      </trkpt>
      <trkpt lat="45.67057" lon="6.24082">
        <ele>1486.8161621094</ele>
        <time>2011-12-23T11:32:35Z</time>
      </trkpt>
      <trkpt lat="45.67057" lon="6.24081">
        <ele>1483.4514160156</ele>
        <time>2011-12-23T11:32:53Z</time>
      </trkpt>
      <trkpt lat="45.67057" lon="6.24081">
        <ele>1482.0095214844</ele>
        <time>2011-12-23T11:33:06Z</time>
      </trkpt>
      <trkpt lat="45.67058" lon="6.24081">
        <ele>1479.6062011719</ele>
        <time>2011-12-23T11:33:24Z</time>
      </trkpt>
      <trkpt lat="45.67057" lon="6.24081">
        <ele>1479.6062011719</ele>
        <time>2011-12-23T11:33:43Z</time>
      </trkpt>
      <trkpt lat="45.67057" lon="6.2408">
        <ele>1480.0869140625</ele>
        <time>2011-12-23T11:33:58Z</time>
      </trkpt>
      <trkpt lat="45.67057" lon="6.24079">
        <ele>1479.6062011719</ele>
        <time>2011-12-23T11:34:19Z</time>
      </trkpt>
      <trkpt lat="45.67057" lon="6.24078">
        <ele>1479.1254882812</ele>
        <time>2011-12-23T11:34:43Z</time>
      </trkpt>
      <trkpt lat="45.67057" lon="6.24078">
        <ele>1479.1254882812</ele>
        <time>2011-12-23T11:34:57Z</time>
      </trkpt>
      <trkpt lat="45.67057" lon="6.24078">
        <ele>1479.6062011719</ele>
        <time>2011-12-23T11:35:10Z</time>
      </trkpt>
      <trkpt lat="45.67057" lon="6.2408">
        <ele>1481.0483398438</ele>
        <time>2011-12-23T11:35:25Z</time>
      </trkpt>
      <trkpt lat="45.67055" lon="6.24079">
        <ele>1481.5288085938</ele>
        <time>2011-12-23T11:35:31Z</time>
      </trkpt>
      <trkpt lat="45.67055" lon="6.2408">
        <ele>1481.0483398438</ele>
        <time>2011-12-23T11:35:35Z</time>
      </trkpt>
      <trkpt lat="45.67056" lon="6.24079">
        <ele>1480.0869140625</ele>
        <time>2011-12-23T11:35:40Z</time>
      </trkpt>
      <trkpt lat="45.67057" lon="6.24081">
        <ele>1477.68359375</ele>
        <time>2011-12-23T11:35:51Z</time>
      </trkpt>
      <trkpt lat="45.67057" lon="6.2408">
        <ele>1476.7224121094</ele>
        <time>2011-12-23T11:36:02Z</time>
      </trkpt>
      <trkpt lat="45.67057" lon="6.24081">
        <ele>1477.203125</ele>
        <time>2011-12-23T11:36:16Z</time>
      </trkpt>
      <trkpt lat="45.67056" lon="6.24081">
        <ele>1477.68359375</ele>
        <time>2011-12-23T11:36:27Z</time>
      </trkpt>
      <trkpt lat="45.67056" lon="6.24081">
        <ele>1477.68359375</ele>
        <time>2011-12-23T11:36:33Z</time>
      </trkpt>
      <trkpt lat="45.67056" lon="6.24081">
        <ele>1478.1643066406</ele>
        <time>2011-12-23T11:36:36Z</time>
      </trkpt>
      <trkpt lat="45.67056" lon="6.24081">
        <ele>1479.6062011719</ele>
        <time>2011-12-23T11:36:45Z</time>
      </trkpt>
      <trkpt lat="45.67056" lon="6.24081">
        <ele>1480.0869140625</ele>
        <time>2011-12-23T11:36:53Z</time>
      </trkpt>
      <trkpt lat="45.67056" lon="6.24081">
        <ele>1480.0869140625</ele>
        <time>2011-12-23T11:37:09Z</time>
      </trkpt>
      <trkpt lat="45.67056" lon="6.24081">
        <ele>1480.5676269531</ele>
        <time>2011-12-23T11:37:18Z</time>
      </trkpt>
      <trkpt lat="45.67056" lon="6.24082">
        <ele>1481.5288085938</ele>
        <time>2011-12-23T11:37:25Z</time>
      </trkpt>
      <trkpt lat="45.67055" lon="6.24082">
        <ele>1483.4514160156</ele>
        <time>2011-12-23T11:37:38Z</time>
      </trkpt>
      <trkpt lat="45.67054" lon="6.24082">
        <ele>1482.0095214844</ele>
        <time>2011-12-23T11:37:47Z</time>
      </trkpt>
      <trkpt lat="45.67055" lon="6.24081">
        <ele>1481.5288085938</ele>
        <time>2011-12-23T11:38:00Z</time>
      </trkpt>
      <trkpt lat="45.67056" lon="6.24081">
        <ele>1481.0483398438</ele>
        <time>2011-12-23T11:38:03Z</time>
      </trkpt>
      <trkpt lat="45.67056" lon="6.2408">
        <ele>1477.68359375</ele>
        <time>2011-12-23T11:38:14Z</time>
      </trkpt>
      <trkpt lat="45.67056" lon="6.2408">
        <ele>1477.68359375</ele>
        <time>2011-12-23T11:38:20Z</time>
      </trkpt>
      <trkpt lat="45.67056" lon="6.24081">
        <ele>1477.203125</ele>
        <time>2011-12-23T11:38:31Z</time>
      </trkpt>
      <trkpt lat="45.67056" lon="6.2408">
        <ele>1479.6062011719</ele>
        <time>2011-12-23T11:38:56Z</time>
      </trkpt>
      <trkpt lat="45.67054" lon="6.2408">
        <ele>1482.0095214844</ele>
        <time>2011-12-23T11:39:11Z</time>
      </trkpt>
      <trkpt lat="45.67054" lon="6.2408">
        <ele>1482.970703125</ele>
        <time>2011-12-23T11:39:18Z</time>
      </trkpt>
      <trkpt lat="45.67055" lon="6.2408">
        <ele>1482.970703125</ele>
        <time>2011-12-23T11:39:24Z</time>
      </trkpt>
      <trkpt lat="45.67055" lon="6.2408">
        <ele>1482.490234375</ele>
        <time>2011-12-23T11:39:30Z</time>
      </trkpt>
      <trkpt lat="45.67056" lon="6.2408">
        <ele>1482.0095214844</ele>
        <time>2011-12-23T11:39:34Z</time>
      </trkpt>
      <trkpt lat="45.67055" lon="6.24082">
        <ele>1482.490234375</ele>
        <time>2011-12-23T11:39:44Z</time>
      </trkpt>
      <trkpt lat="45.67055" lon="6.24081">
        <ele>1482.490234375</ele>
        <time>2011-12-23T11:39:49Z</time>
      </trkpt>
      <trkpt lat="45.67056" lon="6.2408">
        <ele>1482.970703125</ele>
        <time>2011-12-23T11:40:05Z</time>
      </trkpt>
      <trkpt lat="45.67056" lon="6.24081">
        <ele>1483.4514160156</ele>
        <time>2011-12-23T11:40:12Z</time>
      </trkpt>
      <trkpt lat="45.67056" lon="6.2408">
        <ele>1484.4130859375</ele>
        <time>2011-12-23T11:40:22Z</time>
      </trkpt>
      <trkpt lat="45.67055" lon="6.2408">
        <ele>1482.490234375</ele>
        <time>2011-12-23T11:40:30Z</time>
      </trkpt>
      <trkpt lat="45.67055" lon="6.2408">
        <ele>1482.490234375</ele>
        <time>2011-12-23T11:40:41Z</time>
      </trkpt>
      <trkpt lat="45.67055" lon="6.2408">
        <ele>1482.970703125</ele>
        <time>2011-12-23T11:40:51Z</time>
      </trkpt>
      <trkpt lat="45.67054" lon="6.2408">
        <ele>1482.0095214844</ele>
        <time>2011-12-23T11:40:57Z</time>
      </trkpt>
      <trkpt lat="45.67055" lon="6.2408">
        <ele>1480.5676269531</ele>
        <time>2011-12-23T11:41:07Z</time>
      </trkpt>
      <trkpt lat="45.67054" lon="6.2408">
        <ele>1479.6062011719</ele>
        <time>2011-12-23T11:41:17Z</time>
      </trkpt>
      <trkpt lat="45.67054" lon="6.24081">
        <ele>1478.6450195312</ele>
        <time>2011-12-23T11:41:24Z</time>
      </trkpt>
      <trkpt lat="45.67054" lon="6.24082">
        <ele>1480.0869140625</ele>
        <time>2011-12-23T11:41:58Z</time>
      </trkpt>
      <trkpt lat="45.67054" lon="6.24082">
        <ele>1480.5676269531</ele>
        <time>2011-12-23T11:42:04Z</time>
      </trkpt>
      <trkpt lat="45.67054" lon="6.24083">
        <ele>1482.490234375</ele>
        <time>2011-12-23T11:42:12Z</time>
      </trkpt>
      <trkpt lat="45.67055" lon="6.24084">
        <ele>1483.9321289062</ele>
        <time>2011-12-23T11:42:27Z</time>
      </trkpt>
      <trkpt lat="45.67054" lon="6.24083">
        <ele>1483.4514160156</ele>
        <time>2011-12-23T11:42:34Z</time>
      </trkpt>
      <trkpt lat="45.67054" lon="6.24083">
        <ele>1482.490234375</ele>
        <time>2011-12-23T11:42:41Z</time>
      </trkpt>
      <trkpt lat="45.67055" lon="6.24081">
        <ele>1481.0483398438</ele>
        <time>2011-12-23T11:42:48Z</time>
      </trkpt>
      <trkpt lat="45.67055" lon="6.2408">
        <ele>1480.0869140625</ele>
        <time>2011-12-23T11:43:02Z</time>
      </trkpt>
      <trkpt lat="45.67055" lon="6.2408">
        <ele>1479.1254882812</ele>
        <time>2011-12-23T11:43:10Z</time>
      </trkpt>
      <trkpt lat="45.67056" lon="6.2408">
        <ele>1479.6062011719</ele>
        <time>2011-12-23T11:43:17Z</time>
      </trkpt>
      <trkpt lat="45.67056" lon="6.2408">
        <ele>1478.6450195312</ele>
        <time>2011-12-23T11:43:22Z</time>
      </trkpt>
      <trkpt lat="45.67055" lon="6.24081">
        <ele>1480.0869140625</ele>
        <time>2011-12-23T11:43:31Z</time>
      </trkpt>
      <trkpt lat="45.67055" lon="6.2408">
        <ele>1481.0483398438</ele>
        <time>2011-12-23T11:43:44Z</time>
      </trkpt>
      <trkpt lat="45.67056" lon="6.2408">
        <ele>1480.0869140625</ele>
        <time>2011-12-23T11:43:51Z</time>
      </trkpt>
      <trkpt lat="45.67056" lon="6.24079">
        <ele>1478.1643066406</ele>
        <time>2011-12-23T11:43:59Z</time>
      </trkpt>
      <trkpt lat="45.67054" lon="6.24083">
        <ele>1478.1643066406</ele>
        <time>2011-12-23T11:44:03Z</time>
      </trkpt>
      <trkpt lat="45.67053" lon="6.24086">
        <ele>1478.1643066406</ele>
        <time>2011-12-23T11:44:08Z</time>
      </trkpt>
      <trkpt lat="45.6705" lon="6.24091">
        <ele>1477.203125</ele>
        <time>2011-12-23T11:44:14Z</time>
      </trkpt>
      <trkpt lat="45.67045" lon="6.24092">
        <ele>1475.7609863281</ele>
        <time>2011-12-23T11:44:21Z</time>
      </trkpt>
      <trkpt lat="45.6704" lon="6.24094">
        <ele>1475.2802734375</ele>
        <time>2011-12-23T11:44:28Z</time>
      </trkpt>
      <trkpt lat="45.67033" lon="6.24096">
        <ele>1472.8771972656</ele>
        <time>2011-12-23T11:44:37Z</time>
      </trkpt>
      <trkpt lat="45.67027" lon="6.24095">
        <ele>1471.4350585938</ele>
        <time>2011-12-23T11:44:43Z</time>
      </trkpt>
      <trkpt lat="45.67022" lon="6.24094">
        <ele>1469.9931640625</ele>
        <time>2011-12-23T11:44:49Z</time>
      </trkpt>
      <trkpt lat="45.67016" lon="6.24092">
        <ele>1468.0705566406</ele>
        <time>2011-12-23T11:44:55Z</time>
      </trkpt>
      <trkpt lat="45.67014" lon="6.24092">
        <ele>1468.0705566406</ele>
        <time>2011-12-23T11:44:57Z</time>
      </trkpt>
      <trkpt lat="45.67009" lon="6.24089">
        <ele>1466.6284179688</ele>
        <time>2011-12-23T11:45:03Z</time>
      </trkpt>
      <trkpt lat="45.67004" lon="6.24092">
        <ele>1465.1865234375</ele>
        <time>2011-12-23T11:45:10Z</time>
      </trkpt>
      <trkpt lat="45.67003" lon="6.24093">
        <ele>1465.1865234375</ele>
        <time>2011-12-23T11:45:15Z</time>
      </trkpt>
      <trkpt lat="45.67005" lon="6.24092">
        <ele>1465.6672363281</ele>
        <time>2011-12-23T11:45:37Z</time>
      </trkpt>
      <trkpt lat="45.67005" lon="6.24092">
        <ele>1465.6672363281</ele>
        <time>2011-12-23T11:45:49Z</time>
      </trkpt>
      <trkpt lat="45.67005" lon="6.24091">
        <ele>1466.1477050781</ele>
        <time>2011-12-23T11:45:58Z</time>
      </trkpt>
      <trkpt lat="45.67007" lon="6.24096">
        <ele>1465.6672363281</ele>
        <time>2011-12-23T11:46:07Z</time>
      </trkpt>
      <trkpt lat="45.67007" lon="6.24097">
        <ele>1465.6672363281</ele>
        <time>2011-12-23T11:46:08Z</time>
      </trkpt>
      <trkpt lat="45.67012" lon="6.24104">
        <ele>1464.2250976562</ele>
        <time>2011-12-23T11:46:15Z</time>
      </trkpt>
      <trkpt lat="45.67015" lon="6.24116">
        <ele>1463.7443847656</ele>
        <time>2011-12-23T11:46:25Z</time>
      </trkpt>
      <trkpt lat="45.67018" lon="6.24125">
        <ele>1462.783203125</ele>
        <time>2011-12-23T11:46:32Z</time>
      </trkpt>
      <trkpt lat="45.6702" lon="6.24132">
        <ele>1462.3024902344</ele>
        <time>2011-12-23T11:46:37Z</time>
      </trkpt>
      <trkpt lat="45.67016" lon="6.24139">
        <ele>1461.8220214844</ele>
        <time>2011-12-23T11:46:43Z</time>
      </trkpt>
      <trkpt lat="45.67012" lon="6.24139">
        <ele>1460.8605957031</ele>
        <time>2011-12-23T11:46:48Z</time>
      </trkpt>
      <trkpt lat="45.67008" lon="6.24136">
        <ele>1459.4187011719</ele>
        <time>2011-12-23T11:46:54Z</time>
      </trkpt>
      <trkpt lat="45.67002" lon="6.24132">
        <ele>1458.4572753906</ele>
        <time>2011-12-23T11:47:02Z</time>
      </trkpt>
      <trkpt lat="45.66998" lon="6.24127">
        <ele>1457.0153808594</ele>
        <time>2011-12-23T11:47:09Z</time>
      </trkpt>
      <trkpt lat="45.66992" lon="6.24122">
        <ele>1455.5734863281</ele>
        <time>2011-12-23T11:47:17Z</time>
      </trkpt>
      <trkpt lat="45.66984" lon="6.24119">
        <ele>1456.0539550781</ele>
        <time>2011-12-23T11:47:26Z</time>
      </trkpt>
      <trkpt lat="45.66975" lon="6.24116">
        <ele>1456.0539550781</ele>
        <time>2011-12-23T11:47:34Z</time>
      </trkpt>
      <trkpt lat="45.66967" lon="6.24114">
        <ele>1455.5734863281</ele>
        <time>2011-12-23T11:47:42Z</time>
      </trkpt>
      <trkpt lat="45.6696" lon="6.24109">
        <ele>1455.0927734375</ele>
        <time>2011-12-23T11:47:49Z</time>
      </trkpt>
      <trkpt lat="45.66959" lon="6.24109">
        <ele>1455.0927734375</ele>
        <time>2011-12-23T11:47:50Z</time>
      </trkpt>
      <trkpt lat="45.66956" lon="6.24104">
        <ele>1455.5734863281</ele>
        <time>2011-12-23T11:47:54Z</time>
      </trkpt>
      <trkpt lat="45.66951" lon="6.24095">
        <ele>1453.1701660156</ele>
        <time>2011-12-23T11:48:02Z</time>
      </trkpt>
      <trkpt lat="45.66947" lon="6.24087">
        <ele>1451.2473144531</ele>
        <time>2011-12-23T11:48:09Z</time>
      </trkpt>
      <trkpt lat="45.66946" lon="6.24086">
        <ele>1451.2473144531</ele>
        <time>2011-12-23T11:48:10Z</time>
      </trkpt>
      <trkpt lat="45.66939" lon="6.24081">
        <ele>1449.8054199219</ele>
        <time>2011-12-23T11:48:18Z</time>
      </trkpt>
      <trkpt lat="45.66932" lon="6.2408">
        <ele>1447.4020996094</ele>
        <time>2011-12-23T11:48:25Z</time>
      </trkpt>
      <trkpt lat="45.66927" lon="6.24073">
        <ele>1444.0375976562</ele>
        <time>2011-12-23T11:48:31Z</time>
      </trkpt>
      <trkpt lat="45.66919" lon="6.24069">
        <ele>1442.595703125</ele>
        <time>2011-12-23T11:48:38Z</time>
      </trkpt>
      <trkpt lat="45.66919" lon="6.24068">
        <ele>1442.1149902344</ele>
        <time>2011-12-23T11:48:39Z</time>
      </trkpt>
      <trkpt lat="45.66911" lon="6.24068">
        <ele>1441.6342773438</ele>
        <time>2011-12-23T11:48:46Z</time>
      </trkpt>
      <trkpt lat="45.66905" lon="6.24067">
        <ele>1441.1535644531</ele>
        <time>2011-12-23T11:48:52Z</time>
      </trkpt>
      <trkpt lat="45.66899" lon="6.2407">
        <ele>1441.6342773438</ele>
        <time>2011-12-23T11:48:58Z</time>
      </trkpt>
      <trkpt lat="45.66893" lon="6.24073">
        <ele>1441.1535644531</ele>
        <time>2011-12-23T11:49:05Z</time>
      </trkpt>
      <trkpt lat="45.66888" lon="6.24075">
        <ele>1441.1535644531</ele>
        <time>2011-12-23T11:49:10Z</time>
      </trkpt>
      <trkpt lat="45.66883" lon="6.24078">
        <ele>1440.6728515625</ele>
        <time>2011-12-23T11:49:17Z</time>
      </trkpt>
      <trkpt lat="45.66878" lon="6.2408">
        <ele>1440.1923828125</ele>
        <time>2011-12-23T11:49:24Z</time>
      </trkpt>
      <trkpt lat="45.66875" lon="6.24084">
        <ele>1440.1923828125</ele>
        <time>2011-12-23T11:49:30Z</time>
      </trkpt>
      <trkpt lat="45.66871" lon="6.24088">
        <ele>1438.7504882812</ele>
        <time>2011-12-23T11:49:36Z</time>
      </trkpt>
      <trkpt lat="45.66866" lon="6.24094">
        <ele>1437.3083496094</ele>
        <time>2011-12-23T11:49:45Z</time>
      </trkpt>
      <trkpt lat="45.6686" lon="6.24099">
        <ele>1436.3471679688</ele>
        <time>2011-12-23T11:49:52Z</time>
      </trkpt>
      <trkpt lat="45.66853" lon="6.24101">
        <ele>1434.9050292969</ele>
        <time>2011-12-23T11:50:00Z</time>
      </trkpt>
      <trkpt lat="45.66848" lon="6.24096">
        <ele>1433.9436035156</ele>
        <time>2011-12-23T11:50:06Z</time>
      </trkpt>
      <trkpt lat="45.66845" lon="6.24093">
        <ele>1433.9436035156</ele>
        <time>2011-12-23T11:50:12Z</time>
      </trkpt>
      <trkpt lat="45.66842" lon="6.24089">
        <ele>1432.9821777344</ele>
        <time>2011-12-23T11:50:18Z</time>
      </trkpt>
      <trkpt lat="45.66839" lon="6.24083">
        <ele>1431.0598144531</ele>
        <time>2011-12-23T11:50:23Z</time>
      </trkpt>
      <trkpt lat="45.66836" lon="6.24079">
        <ele>1429.1369628906</ele>
        <time>2011-12-23T11:50:28Z</time>
      </trkpt>
      <trkpt lat="45.66832" lon="6.24073">
        <ele>1428.17578125</ele>
        <time>2011-12-23T11:50:34Z</time>
      </trkpt>
      <trkpt lat="45.66828" lon="6.24068">
        <ele>1428.17578125</ele>
        <time>2011-12-23T11:50:40Z</time>
      </trkpt>
      <trkpt lat="45.66825" lon="6.24063">
        <ele>1427.6950683594</ele>
        <time>2011-12-23T11:50:46Z</time>
      </trkpt>
      <trkpt lat="45.66822" lon="6.24059">
        <ele>1427.2145996094</ele>
        <time>2011-12-23T11:50:52Z</time>
      </trkpt>
      <trkpt lat="45.66819" lon="6.24053">
        <ele>1426.2531738281</ele>
        <time>2011-12-23T11:50:59Z</time>
      </trkpt>
      <trkpt lat="45.66813" lon="6.24049">
        <ele>1426.2531738281</ele>
        <time>2011-12-23T11:51:07Z</time>
      </trkpt>
      <trkpt lat="45.66809" lon="6.24048">
        <ele>1424.8112792969</ele>
        <time>2011-12-23T11:51:13Z</time>
      </trkpt>
      <trkpt lat="45.66805" lon="6.2405">
        <ele>1423.8498535156</ele>
        <time>2011-12-23T11:51:19Z</time>
      </trkpt>
      <trkpt lat="45.66802" lon="6.24054">
        <ele>1423.3693847656</ele>
        <time>2011-12-23T11:51:26Z</time>
      </trkpt>
      <trkpt lat="45.668" lon="6.24062">
        <ele>1424.3305664062</ele>
        <time>2011-12-23T11:51:34Z</time>
      </trkpt>
      <trkpt lat="45.66799" lon="6.24067">
        <ele>1426.7338867188</ele>
        <time>2011-12-23T11:51:39Z</time>
      </trkpt>
      <trkpt lat="45.66799" lon="6.24075">
        <ele>1432.0209960938</ele>
        <time>2011-12-23T11:51:46Z</time>
      </trkpt>
      <trkpt lat="45.66799" lon="6.24081">
        <ele>1433.462890625</ele>
        <time>2011-12-23T11:51:52Z</time>
      </trkpt>
      <trkpt lat="45.66796" lon="6.24086">
        <ele>1432.5017089844</ele>
        <time>2011-12-23T11:51:58Z</time>
      </trkpt>
      <trkpt lat="45.66795" lon="6.24089">
        <ele>1432.0209960938</ele>
        <time>2011-12-23T11:52:03Z</time>
      </trkpt>
      <trkpt lat="45.66794" lon="6.24095">
        <ele>1432.0209960938</ele>
        <time>2011-12-23T11:52:09Z</time>
      </trkpt>
      <trkpt lat="45.66791" lon="6.24101">
        <ele>1429.6176757812</ele>
        <time>2011-12-23T11:52:15Z</time>
      </trkpt>
      <trkpt lat="45.66786" lon="6.2411">
        <ele>1424.3305664062</ele>
        <time>2011-12-23T11:52:25Z</time>
      </trkpt>
      <trkpt lat="45.66783" lon="6.24115">
        <ele>1421.4465332031</ele>
        <time>2011-12-23T11:52:31Z</time>
      </trkpt>
      <trkpt lat="45.66779" lon="6.2412">
        <ele>1419.5239257812</ele>
        <time>2011-12-23T11:52:37Z</time>
      </trkpt>
      <trkpt lat="45.66775" lon="6.24124">
        <ele>1418.0817871094</ele>
        <time>2011-12-23T11:52:44Z</time>
      </trkpt>
      <trkpt lat="45.66772" lon="6.24126">
        <ele>1417.6010742188</ele>
        <time>2011-12-23T11:52:49Z</time>
      </trkpt>
      <trkpt lat="45.66769" lon="6.2413">
        <ele>1418.5625</ele>
        <time>2011-12-23T11:52:56Z</time>
      </trkpt>
      <trkpt lat="45.66765" lon="6.24133">
        <ele>1418.5625</ele>
        <time>2011-12-23T11:53:02Z</time>
      </trkpt>
      <trkpt lat="45.6676" lon="6.24138">
        <ele>1417.6010742188</ele>
        <time>2011-12-23T11:53:10Z</time>
      </trkpt>
      <trkpt lat="45.66758" lon="6.24141">
        <ele>1417.1206054688</ele>
        <time>2011-12-23T11:53:15Z</time>
      </trkpt>
      <trkpt lat="45.66755" lon="6.24145">
        <ele>1417.1206054688</ele>
        <time>2011-12-23T11:53:20Z</time>
      </trkpt>
      <trkpt lat="45.66752" lon="6.24152">
        <ele>1416.6398925781</ele>
        <time>2011-12-23T11:53:28Z</time>
      </trkpt>
      <trkpt lat="45.66748" lon="6.24158">
        <ele>1415.1979980469</ele>
        <time>2011-12-23T11:53:34Z</time>
      </trkpt>
      <trkpt lat="45.66745" lon="6.24165">
        <ele>1415.6787109375</ele>
        <time>2011-12-23T11:53:42Z</time>
      </trkpt>
      <trkpt lat="45.66742" lon="6.2417">
        <ele>1415.1979980469</ele>
        <time>2011-12-23T11:53:48Z</time>
      </trkpt>
      <trkpt lat="45.66739" lon="6.24173">
        <ele>1414.2365722656</ele>
        <time>2011-12-23T11:53:53Z</time>
      </trkpt>
      <trkpt lat="45.66739" lon="6.24174">
        <ele>1414.2365722656</ele>
        <time>2011-12-23T11:54:00Z</time>
      </trkpt>
      <trkpt lat="45.66736" lon="6.24176">
        <ele>1413.755859375</ele>
        <time>2011-12-23T11:54:09Z</time>
      </trkpt>
      <trkpt lat="45.6673" lon="6.24178">
        <ele>1413.275390625</ele>
        <time>2011-12-23T11:54:17Z</time>
      </trkpt>
      <trkpt lat="45.66726" lon="6.2418">
        <ele>1412.3139648438</ele>
        <time>2011-12-23T11:54:24Z</time>
      </trkpt>
      <trkpt lat="45.66721" lon="6.24181">
        <ele>1411.8334960938</ele>
        <time>2011-12-23T11:54:31Z</time>
      </trkpt>
      <trkpt lat="45.66715" lon="6.24182">
        <ele>1410.3913574219</ele>
        <time>2011-12-23T11:54:39Z</time>
      </trkpt>
      <trkpt lat="45.66716" lon="6.24182">
        <ele>1410.3913574219</ele>
        <time>2011-12-23T11:54:49Z</time>
      </trkpt>
      <trkpt lat="45.66716" lon="6.24183">
        <ele>1409.9106445312</ele>
        <time>2011-12-23T11:54:58Z</time>
      </trkpt>
      <trkpt lat="45.66713" lon="6.24184">
        <ele>1408.9494628906</ele>
        <time>2011-12-23T11:55:05Z</time>
      </trkpt>
      <trkpt lat="45.66712" lon="6.24184">
        <ele>1407.98828125</ele>
        <time>2011-12-23T11:55:10Z</time>
      </trkpt>
      <trkpt lat="45.66708" lon="6.24186">
        <ele>1407.0268554688</ele>
        <time>2011-12-23T11:55:15Z</time>
      </trkpt>
      <trkpt lat="45.66703" lon="6.24188">
        <ele>1405.5849609375</ele>
        <time>2011-12-23T11:55:21Z</time>
      </trkpt>
      <trkpt lat="45.66698" lon="6.2419">
        <ele>1405.1042480469</ele>
        <time>2011-12-23T11:55:26Z</time>
      </trkpt>
      <trkpt lat="45.66693" lon="6.24193">
        <ele>1403.662109375</ele>
        <time>2011-12-23T11:55:33Z</time>
      </trkpt>
      <trkpt lat="45.66689" lon="6.24195">
        <ele>1402.7006835938</ele>
        <time>2011-12-23T11:55:39Z</time>
      </trkpt>
      <trkpt lat="45.66684" lon="6.24198">
        <ele>1401.7395019531</ele>
        <time>2011-12-23T11:55:46Z</time>
      </trkpt>
      <trkpt lat="45.66678" lon="6.242">
        <ele>1400.2976074219</ele>
        <time>2011-12-23T11:55:54Z</time>
      </trkpt>
      <trkpt lat="45.66674" lon="6.24201">
        <ele>1399.8168945312</ele>
        <time>2011-12-23T11:56:01Z</time>
      </trkpt>
      <trkpt lat="45.6667" lon="6.24206">
        <ele>1398.85546875</ele>
        <time>2011-12-23T11:56:09Z</time>
      </trkpt>
      <trkpt lat="45.66673" lon="6.2421">
        <ele>1399.3361816406</ele>
        <time>2011-12-23T11:56:13Z</time>
      </trkpt>
      <trkpt lat="45.66679" lon="6.24211">
        <ele>1398.3747558594</ele>
        <time>2011-12-23T11:56:22Z</time>
      </trkpt>
      <trkpt lat="45.66684" lon="6.24211">
        <ele>1399.3361816406</ele>
        <time>2011-12-23T11:56:28Z</time>
      </trkpt>
      <trkpt lat="45.66687" lon="6.24212">
        <ele>1398.85546875</ele>
        <time>2011-12-23T11:56:33Z</time>
      </trkpt>
      <trkpt lat="45.6669" lon="6.24211">
        <ele>1399.3361816406</ele>
        <time>2011-12-23T11:56:38Z</time>
      </trkpt>
      <trkpt lat="45.66695" lon="6.24212">
        <ele>1399.3361816406</ele>
        <time>2011-12-23T11:56:45Z</time>
      </trkpt>
      <trkpt lat="45.66701" lon="6.24213">
        <ele>1400.2976074219</ele>
        <time>2011-12-23T11:56:53Z</time>
      </trkpt>
      <trkpt lat="45.66705" lon="6.24213">
        <ele>1400.7780761719</ele>
        <time>2011-12-23T11:56:59Z</time>
      </trkpt>
      <trkpt lat="45.66709" lon="6.24213">
        <ele>1400.2976074219</ele>
        <time>2011-12-23T11:57:04Z</time>
      </trkpt>
      <trkpt lat="45.66711" lon="6.24213">
        <ele>1400.7780761719</ele>
        <time>2011-12-23T11:57:09Z</time>
      </trkpt>
      <trkpt lat="45.66714" lon="6.24213">
        <ele>1401.2587890625</ele>
        <time>2011-12-23T11:57:14Z</time>
      </trkpt>
      <trkpt lat="45.66718" lon="6.24214">
        <ele>1400.7780761719</ele>
        <time>2011-12-23T11:57:20Z</time>
      </trkpt>
      <trkpt lat="45.66721" lon="6.24215">
        <ele>1400.7780761719</ele>
        <time>2011-12-23T11:57:25Z</time>
      </trkpt>
      <trkpt lat="45.66726" lon="6.24215">
        <ele>1400.2976074219</ele>
        <time>2011-12-23T11:57:32Z</time>
      </trkpt>
      <trkpt lat="45.66729" lon="6.24214">
        <ele>1399.8168945312</ele>
        <time>2011-12-23T11:57:38Z</time>
      </trkpt>
      <trkpt lat="45.66732" lon="6.24214">
        <ele>1399.8168945312</ele>
        <time>2011-12-23T11:57:43Z</time>
      </trkpt>
      <trkpt lat="45.66737" lon="6.24211">
        <ele>1399.8168945312</ele>
        <time>2011-12-23T11:57:50Z</time>
      </trkpt>
      <trkpt lat="45.6674" lon="6.24211">
        <ele>1399.8168945312</ele>
        <time>2011-12-23T11:57:56Z</time>
      </trkpt>
      <trkpt lat="45.66745" lon="6.2421">
        <ele>1396.9328613281</ele>
        <time>2011-12-23T11:58:04Z</time>
      </trkpt>
      <trkpt lat="45.6675" lon="6.24209">
        <ele>1395.4909667969</ele>
        <time>2011-12-23T11:58:11Z</time>
      </trkpt>
      <trkpt lat="45.66753" lon="6.24207">
        <ele>1395.9716796875</ele>
        <time>2011-12-23T11:58:16Z</time>
      </trkpt>
      <trkpt lat="45.66756" lon="6.24206">
        <ele>1394.0490722656</ele>
        <time>2011-12-23T11:58:21Z</time>
      </trkpt>
      <trkpt lat="45.66761" lon="6.24203">
        <ele>1395.4909667969</ele>
        <time>2011-12-23T11:58:26Z</time>
      </trkpt>
      <trkpt lat="45.66764" lon="6.24199">
        <ele>1395.4909667969</ele>
        <time>2011-12-23T11:58:32Z</time>
      </trkpt>
      <trkpt lat="45.66768" lon="6.24194">
        <ele>1393.0876464844</ele>
        <time>2011-12-23T11:58:39Z</time>
      </trkpt>
      <trkpt lat="45.66768" lon="6.24188">
        <ele>1391.1650390625</ele>
        <time>2011-12-23T11:58:52Z</time>
      </trkpt>
      <trkpt lat="45.66772" lon="6.24185">
        <ele>1391.6457519531</ele>
        <time>2011-12-23T11:58:59Z</time>
      </trkpt>
      <trkpt lat="45.66773" lon="6.24182">
        <ele>1396.9328613281</ele>
        <time>2011-12-23T11:59:05Z</time>
      </trkpt>
      <trkpt lat="45.66777" lon="6.24181">
        <ele>1396.9328613281</ele>
        <time>2011-12-23T11:59:12Z</time>
      </trkpt>
      <trkpt lat="45.66781" lon="6.24183">
        <ele>1396.4523925781</ele>
        <time>2011-12-23T11:59:18Z</time>
      </trkpt>
      <trkpt lat="45.66784" lon="6.24187">
        <ele>1396.4523925781</ele>
        <time>2011-12-23T11:59:24Z</time>
      </trkpt>
      <trkpt lat="45.66787" lon="6.24191">
        <ele>1394.5295410156</ele>
        <time>2011-12-23T11:59:30Z</time>
      </trkpt>
      <trkpt lat="45.6679" lon="6.24194">
        <ele>1392.1264648438</ele>
        <time>2011-12-23T11:59:35Z</time>
      </trkpt>
      <trkpt lat="45.66793" lon="6.24196">
        <ele>1389.7231445312</ele>
        <time>2011-12-23T11:59:41Z</time>
      </trkpt>
      <trkpt lat="45.66796" lon="6.24199">
        <ele>1388.7619628906</ele>
        <time>2011-12-23T11:59:48Z</time>
      </trkpt>
      <trkpt lat="45.66798" lon="6.242">
        <ele>1387.8002929688</ele>
        <time>2011-12-23T12:00:02Z</time>
      </trkpt>
      <trkpt lat="45.66802" lon="6.242">
        <ele>1387.3195800781</ele>
        <time>2011-12-23T12:00:06Z</time>
      </trkpt>
      <trkpt lat="45.66805" lon="6.24201">
        <ele>1387.3195800781</ele>
        <time>2011-12-23T12:00:12Z</time>
      </trkpt>
      <trkpt lat="45.66807" lon="6.242">
        <ele>1386.8388671875</ele>
        <time>2011-12-23T12:00:22Z</time>
      </trkpt>
      <trkpt lat="45.66811" lon="6.24199">
        <ele>1385.8776855469</ele>
        <time>2011-12-23T12:00:28Z</time>
      </trkpt>
      <trkpt lat="45.66811" lon="6.24199">
        <ele>1386.8388671875</ele>
        <time>2011-12-23T12:00:35Z</time>
      </trkpt>
      <trkpt lat="45.66814" lon="6.24199">
        <ele>1386.8388671875</ele>
        <time>2011-12-23T12:00:39Z</time>
      </trkpt>
      <trkpt lat="45.66816" lon="6.24198">
        <ele>1386.8388671875</ele>
        <time>2011-12-23T12:00:43Z</time>
      </trkpt>
      <trkpt lat="45.66819" lon="6.24199">
        <ele>1385.3969726562</ele>
        <time>2011-12-23T12:00:49Z</time>
      </trkpt>
      <trkpt lat="45.66821" lon="6.242">
        <ele>1387.3195800781</ele>
        <time>2011-12-23T12:00:54Z</time>
      </trkpt>
      <trkpt lat="45.66821" lon="6.242">
        <ele>1388.7619628906</ele>
        <time>2011-12-23T12:00:56Z</time>
      </trkpt>
      <trkpt lat="45.6682" lon="6.24204">
        <ele>1394.0490722656</ele>
        <time>2011-12-23T12:00:58Z</time>
      </trkpt>
      <trkpt lat="45.66819" lon="6.24216">
        <ele>1415.6787109375</ele>
        <time>2011-12-23T12:01:09Z</time>
      </trkpt>
      <trkpt lat="45.66818" lon="6.24218">
        <ele>1410.8720703125</ele>
        <time>2011-12-23T12:01:17Z</time>
      </trkpt>
      <trkpt lat="45.66821" lon="6.24213">
        <ele>1404.6235351562</ele>
        <time>2011-12-23T12:01:23Z</time>
      </trkpt>
      <trkpt lat="45.66823" lon="6.24211">
        <ele>1400.7780761719</ele>
        <time>2011-12-23T12:01:28Z</time>
      </trkpt>
      <trkpt lat="45.66825" lon="6.2421">
        <ele>1399.3361816406</ele>
        <time>2011-12-23T12:01:30Z</time>
      </trkpt>
      <trkpt lat="45.66827" lon="6.24208">
        <ele>1395.0102539062</ele>
        <time>2011-12-23T12:01:36Z</time>
      </trkpt>
      <trkpt lat="45.66833" lon="6.24199">
        <ele>1379.1484375</ele>
        <time>2011-12-23T12:01:54Z</time>
      </trkpt>
      <trkpt lat="45.66833" lon="6.242">
        <ele>1379.6291503906</ele>
        <time>2011-12-23T12:02:00Z</time>
      </trkpt>
      <trkpt lat="45.66837" lon="6.24199">
        <ele>1383.955078125</ele>
        <time>2011-12-23T12:02:13Z</time>
      </trkpt>
      <trkpt lat="45.66837" lon="6.24198">
        <ele>1379.6291503906</ele>
        <time>2011-12-23T12:02:27Z</time>
      </trkpt>
      <trkpt lat="45.66838" lon="6.24203">
        <ele>1381.5517578125</ele>
        <time>2011-12-23T12:02:32Z</time>
      </trkpt>
      <trkpt lat="45.66837" lon="6.24204">
        <ele>1383.955078125</ele>
        <time>2011-12-23T12:02:38Z</time>
      </trkpt>
      <trkpt lat="45.66835" lon="6.24208">
        <ele>1392.6071777344</ele>
        <time>2011-12-23T12:02:51Z</time>
      </trkpt>
      <trkpt lat="45.66837" lon="6.24208">
        <ele>1392.1264648438</ele>
        <time>2011-12-23T12:03:01Z</time>
      </trkpt>
      <trkpt lat="45.66839" lon="6.24209">
        <ele>1390.2038574219</ele>
        <time>2011-12-23T12:03:07Z</time>
      </trkpt>
      <trkpt lat="45.66842" lon="6.24211">
        <ele>1389.7231445312</ele>
        <time>2011-12-23T12:03:12Z</time>
      </trkpt>
      <trkpt lat="45.66843" lon="6.24213">
        <ele>1388.7619628906</ele>
        <time>2011-12-23T12:03:17Z</time>
      </trkpt>
      <trkpt lat="45.66843" lon="6.24215">
        <ele>1387.3195800781</ele>
        <time>2011-12-23T12:03:22Z</time>
      </trkpt>
      <trkpt lat="45.66845" lon="6.24217">
        <ele>1389.2424316406</ele>
        <time>2011-12-23T12:03:40Z</time>
      </trkpt>
      <trkpt lat="45.66845" lon="6.2422">
        <ele>1389.2424316406</ele>
        <time>2011-12-23T12:03:44Z</time>
      </trkpt>
      <trkpt lat="45.66846" lon="6.24224">
        <ele>1388.7619628906</ele>
        <time>2011-12-23T12:03:48Z</time>
      </trkpt>
      <trkpt lat="45.66846" lon="6.24226">
        <ele>1387.8002929688</ele>
        <time>2011-12-23T12:03:55Z</time>
      </trkpt>
      <trkpt lat="45.66844" lon="6.24227">
        <ele>1390.2038574219</ele>
        <time>2011-12-23T12:04:28Z</time>
      </trkpt>
      <trkpt lat="45.66843" lon="6.24228">
        <ele>1390.6843261719</ele>
        <time>2011-12-23T12:04:35Z</time>
      </trkpt>
      <trkpt lat="45.66842" lon="6.24227">
        <ele>1391.6457519531</ele>
        <time>2011-12-23T12:04:40Z</time>
      </trkpt>
      <trkpt lat="45.66842" lon="6.24227">
        <ele>1391.1650390625</ele>
        <time>2011-12-23T12:04:46Z</time>
      </trkpt>
      <trkpt lat="45.66843" lon="6.24227">
        <ele>1391.1650390625</ele>
        <time>2011-12-23T12:04:54Z</time>
      </trkpt>
      <trkpt lat="45.66843" lon="6.24225">
        <ele>1387.3195800781</ele>
        <time>2011-12-23T12:05:11Z</time>
      </trkpt>
      <trkpt lat="45.66843" lon="6.24226">
        <ele>1388.28125</ele>
        <time>2011-12-23T12:05:25Z</time>
      </trkpt>
      <trkpt lat="45.66842" lon="6.24226">
        <ele>1386.8388671875</ele>
        <time>2011-12-23T12:05:31Z</time>
      </trkpt>
      <trkpt lat="45.66844" lon="6.24225">
        <ele>1384.9165039062</ele>
        <time>2011-12-23T12:05:39Z</time>
      </trkpt>
      <trkpt lat="45.66845" lon="6.24225">
        <ele>1383.4743652344</ele>
        <time>2011-12-23T12:05:47Z</time>
      </trkpt>
      <trkpt lat="45.66845" lon="6.24226">
        <ele>1382.9936523438</ele>
        <time>2011-12-23T12:05:55Z</time>
      </trkpt>
      <trkpt lat="45.66846" lon="6.24227">
        <ele>1384.4357910156</ele>
        <time>2011-12-23T12:05:58Z</time>
      </trkpt>
      <trkpt lat="45.66846" lon="6.24229">
        <ele>1385.8776855469</ele>
        <time>2011-12-23T12:06:00Z</time>
      </trkpt>
      <trkpt lat="45.66846" lon="6.24229">
        <ele>1386.8388671875</ele>
        <time>2011-12-23T12:06:01Z</time>
      </trkpt>
      <trkpt lat="45.66845" lon="6.24231">
        <ele>1387.8002929688</ele>
        <time>2011-12-23T12:06:10Z</time>
      </trkpt>
      <trkpt lat="45.66844" lon="6.24234">
        <ele>1392.1264648438</ele>
        <time>2011-12-23T12:06:15Z</time>
      </trkpt>
      <trkpt lat="45.66843" lon="6.24234">
        <ele>1394.0490722656</ele>
        <time>2011-12-23T12:06:21Z</time>
      </trkpt>
      <trkpt lat="45.66842" lon="6.24233">
        <ele>1394.0490722656</ele>
        <time>2011-12-23T12:06:27Z</time>
      </trkpt>
      <trkpt lat="45.66842" lon="6.24233">
        <ele>1393.568359375</ele>
        <time>2011-12-23T12:06:29Z</time>
      </trkpt>
      <trkpt lat="45.66841" lon="6.24233">
        <ele>1395.4909667969</ele>
        <time>2011-12-23T12:06:33Z</time>
      </trkpt>
      <trkpt lat="45.6684" lon="6.24233">
        <ele>1394.5295410156</ele>
        <time>2011-12-23T12:06:43Z</time>
      </trkpt>
      <trkpt lat="45.66841" lon="6.24233">
        <ele>1392.1264648438</ele>
        <time>2011-12-23T12:06:53Z</time>
      </trkpt>
      <trkpt lat="45.66841" lon="6.24236">
        <ele>1395.4909667969</ele>
        <time>2011-12-23T12:07:04Z</time>
      </trkpt>
      <trkpt lat="45.66838" lon="6.2424">
        <ele>1394.5295410156</ele>
        <time>2011-12-23T12:07:11Z</time>
      </trkpt>
      <trkpt lat="45.66837" lon="6.24245">
        <ele>1392.6071777344</ele>
        <time>2011-12-23T12:07:18Z</time>
      </trkpt>
      <trkpt lat="45.6684" lon="6.24249">
        <ele>1387.8002929688</ele>
        <time>2011-12-23T12:07:25Z</time>
      </trkpt>
      <trkpt lat="45.66844" lon="6.24257">
        <ele>1384.4357910156</ele>
        <time>2011-12-23T12:07:34Z</time>
      </trkpt>
      <trkpt lat="45.66843" lon="6.24255">
        <ele>1381.0712890625</ele>
        <time>2011-12-23T12:07:43Z</time>
      </trkpt>
      <trkpt lat="45.66842" lon="6.24254">
        <ele>1383.4743652344</ele>
        <time>2011-12-23T12:07:51Z</time>
      </trkpt>
      <trkpt lat="45.66838" lon="6.24255">
        <ele>1383.955078125</ele>
        <time>2011-12-23T12:07:56Z</time>
      </trkpt>
      <trkpt lat="45.66836" lon="6.24255">
        <ele>1383.955078125</ele>
        <time>2011-12-23T12:08:00Z</time>
      </trkpt>
      <trkpt lat="45.66834" lon="6.24256">
        <ele>1382.9936523438</ele>
        <time>2011-12-23T12:08:05Z</time>
      </trkpt>
      <trkpt lat="45.66832" lon="6.24257">
        <ele>1383.4743652344</ele>
        <time>2011-12-23T12:08:12Z</time>
      </trkpt>
      <trkpt lat="45.66827" lon="6.24262">
        <ele>1386.8388671875</ele>
        <time>2011-12-23T12:08:19Z</time>
      </trkpt>
      <trkpt lat="45.66825" lon="6.24261">
        <ele>1388.7619628906</ele>
        <time>2011-12-23T12:08:22Z</time>
      </trkpt>
      <trkpt lat="45.6682" lon="6.24261">
        <ele>1389.7231445312</ele>
        <time>2011-12-23T12:08:28Z</time>
      </trkpt>
      <trkpt lat="45.66817" lon="6.24265">
        <ele>1389.7231445312</ele>
        <time>2011-12-23T12:08:33Z</time>
      </trkpt>
      <trkpt lat="45.66816" lon="6.24268">
        <ele>1388.7619628906</ele>
        <time>2011-12-23T12:08:38Z</time>
      </trkpt>
      <trkpt lat="45.66815" lon="6.2427">
        <ele>1389.7231445312</ele>
        <time>2011-12-23T12:08:43Z</time>
      </trkpt>
      <trkpt lat="45.66813" lon="6.24271">
        <ele>1389.2424316406</ele>
        <time>2011-12-23T12:08:48Z</time>
      </trkpt>
      <trkpt lat="45.6681" lon="6.24271">
        <ele>1389.2424316406</ele>
        <time>2011-12-23T12:08:52Z</time>
      </trkpt>
      <trkpt lat="45.66804" lon="6.2427">
        <ele>1389.2424316406</ele>
        <time>2011-12-23T12:09:00Z</time>
      </trkpt>
      <trkpt lat="45.66802" lon="6.2427">
        <ele>1388.7619628906</ele>
        <time>2011-12-23T12:09:07Z</time>
      </trkpt>
      <trkpt lat="45.66803" lon="6.24276">
        <ele>1396.4523925781</ele>
        <time>2011-12-23T12:09:16Z</time>
      </trkpt>
      <trkpt lat="45.66805" lon="6.2428">
        <ele>1395.4909667969</ele>
        <time>2011-12-23T12:09:26Z</time>
      </trkpt>
      <trkpt lat="45.66804" lon="6.24274">
        <ele>1384.4357910156</ele>
        <time>2011-12-23T12:09:36Z</time>
      </trkpt>
      <trkpt lat="45.66805" lon="6.2427">
        <ele>1379.6291503906</ele>
        <time>2011-12-23T12:09:44Z</time>
      </trkpt>
      <trkpt lat="45.66803" lon="6.2427">
        <ele>1382.5131835938</ele>
        <time>2011-12-23T12:09:52Z</time>
      </trkpt>
      <trkpt lat="45.66802" lon="6.2427">
        <ele>1384.4357910156</ele>
        <time>2011-12-23T12:09:57Z</time>
      </trkpt>
      <trkpt lat="45.66802" lon="6.24269">
        <ele>1382.9936523438</ele>
        <time>2011-12-23T12:09:59Z</time>
      </trkpt>
      <trkpt lat="45.66803" lon="6.24266">
        <ele>1378.66796875</ele>
        <time>2011-12-23T12:10:14Z</time>
      </trkpt>
      <trkpt lat="45.668" lon="6.24267">
        <ele>1385.3969726562</ele>
        <time>2011-12-23T12:10:26Z</time>
      </trkpt>
      <trkpt lat="45.66801" lon="6.24265">
        <ele>1381.5517578125</ele>
        <time>2011-12-23T12:10:40Z</time>
      </trkpt>
      <trkpt lat="45.66796" lon="6.24265">
        <ele>1388.28125</ele>
        <time>2011-12-23T12:10:45Z</time>
      </trkpt>
      <trkpt lat="45.66793" lon="6.24265">
        <ele>1392.1264648438</ele>
        <time>2011-12-23T12:10:47Z</time>
      </trkpt>
      <trkpt lat="45.66794" lon="6.24264">
        <ele>1393.0876464844</ele>
        <time>2011-12-23T12:10:55Z</time>
      </trkpt>
      <trkpt lat="45.66797" lon="6.24264">
        <ele>1389.7231445312</ele>
        <time>2011-12-23T12:11:00Z</time>
      </trkpt>
      <trkpt lat="45.66798" lon="6.24261">
        <ele>1384.4357910156</ele>
        <time>2011-12-23T12:11:13Z</time>
      </trkpt>
      <trkpt lat="45.66799" lon="6.24261">
        <ele>1378.66796875</ele>
        <time>2011-12-23T12:11:24Z</time>
      </trkpt>
      <trkpt lat="45.66798" lon="6.24262">
        <ele>1380.1098632812</ele>
        <time>2011-12-23T12:11:34Z</time>
      </trkpt>
      <trkpt lat="45.66799" lon="6.24267">
        <ele>1382.5131835938</ele>
        <time>2011-12-23T12:11:42Z</time>
      </trkpt>
      <trkpt lat="45.668" lon="6.24269">
        <ele>1384.9165039062</ele>
        <time>2011-12-23T12:11:51Z</time>
      </trkpt>
      <trkpt lat="45.66801" lon="6.24269">
        <ele>1383.955078125</ele>
        <time>2011-12-23T12:11:56Z</time>
      </trkpt>
      <trkpt lat="45.668" lon="6.24271">
        <ele>1387.8002929688</ele>
        <time>2011-12-23T12:12:10Z</time>
      </trkpt>
      <trkpt lat="45.66798" lon="6.2427">
        <ele>1390.6843261719</ele>
        <time>2011-12-23T12:12:17Z</time>
      </trkpt>
      <trkpt lat="45.66798" lon="6.24271">
        <ele>1386.3583984375</ele>
        <time>2011-12-23T12:12:30Z</time>
      </trkpt>
      <trkpt lat="45.66802" lon="6.2427">
        <ele>1380.1098632812</ele>
        <time>2011-12-23T12:12:44Z</time>
      </trkpt>
      <trkpt lat="45.66805" lon="6.2427">
        <ele>1377.7065429688</ele>
        <time>2011-12-23T12:12:51Z</time>
      </trkpt>
      <trkpt lat="45.66805" lon="6.24272">
        <ele>1379.1484375</ele>
        <time>2011-12-23T12:12:53Z</time>
      </trkpt>
      <trkpt lat="45.66806" lon="6.24271">
        <ele>1379.6291503906</ele>
        <time>2011-12-23T12:13:01Z</time>
      </trkpt>
      <trkpt lat="45.66803" lon="6.24275">
        <ele>1383.4743652344</ele>
        <time>2011-12-23T12:13:06Z</time>
      </trkpt>
      <trkpt lat="45.66799" lon="6.24276">
        <ele>1385.3969726562</ele>
        <time>2011-12-23T12:13:09Z</time>
      </trkpt>
      <trkpt lat="45.66792" lon="6.24282">
        <ele>1388.7619628906</ele>
        <time>2011-12-23T12:13:16Z</time>
      </trkpt>
      <trkpt lat="45.6679" lon="6.24283">
        <ele>1388.7619628906</ele>
        <time>2011-12-23T12:13:18Z</time>
      </trkpt>
      <trkpt lat="45.66783" lon="6.24285">
        <ele>1390.6843261719</ele>
        <time>2011-12-23T12:13:26Z</time>
      </trkpt>
      <trkpt lat="45.6678" lon="6.24288">
        <ele>1390.6843261719</ele>
        <time>2011-12-23T12:13:31Z</time>
      </trkpt>
      <trkpt lat="45.66777" lon="6.24292">
        <ele>1391.1650390625</ele>
        <time>2011-12-23T12:13:37Z</time>
      </trkpt>
      <trkpt lat="45.66775" lon="6.24293">
        <ele>1391.1650390625</ele>
        <time>2011-12-23T12:13:41Z</time>
      </trkpt>
      <trkpt lat="45.66773" lon="6.24298">
        <ele>1389.7231445312</ele>
        <time>2011-12-23T12:13:48Z</time>
      </trkpt>
      <trkpt lat="45.66771" lon="6.243">
        <ele>1391.1650390625</ele>
        <time>2011-12-23T12:13:52Z</time>
      </trkpt>
      <trkpt lat="45.66769" lon="6.24303">
        <ele>1393.0876464844</ele>
        <time>2011-12-23T12:13:58Z</time>
      </trkpt>
      <trkpt lat="45.66768" lon="6.24305">
        <ele>1393.0876464844</ele>
        <time>2011-12-23T12:14:03Z</time>
      </trkpt>
      <trkpt lat="45.66766" lon="6.24305">
        <ele>1393.0876464844</ele>
        <time>2011-12-23T12:14:10Z</time>
      </trkpt>
      <trkpt lat="45.66764" lon="6.24308">
        <ele>1396.4523925781</ele>
        <time>2011-12-23T12:14:17Z</time>
      </trkpt>
      <trkpt lat="45.66761" lon="6.24311">
        <ele>1398.3747558594</ele>
        <time>2011-12-23T12:14:23Z</time>
      </trkpt>
      <trkpt lat="45.66759" lon="6.24314">
        <ele>1399.8168945312</ele>
        <time>2011-12-23T12:14:29Z</time>
      </trkpt>
      <trkpt lat="45.66757" lon="6.24317">
        <ele>1401.2587890625</ele>
        <time>2011-12-23T12:14:36Z</time>
      </trkpt>
      <trkpt lat="45.66755" lon="6.2432">
        <ele>1400.7780761719</ele>
        <time>2011-12-23T12:14:41Z</time>
      </trkpt>
      <trkpt lat="45.66753" lon="6.24323">
        <ele>1401.2587890625</ele>
        <time>2011-12-23T12:14:48Z</time>
      </trkpt>
      <trkpt lat="45.6675" lon="6.24327">
        <ele>1401.7395019531</ele>
        <time>2011-12-23T12:14:55Z</time>
      </trkpt>
      <trkpt lat="45.66747" lon="6.24329">
        <ele>1401.2587890625</ele>
        <time>2011-12-23T12:15:01Z</time>
      </trkpt>
      <trkpt lat="45.66745" lon="6.24331">
        <ele>1399.8168945312</ele>
        <time>2011-12-23T12:15:07Z</time>
      </trkpt>
      <trkpt lat="45.66744" lon="6.24333">
        <ele>1398.3747558594</ele>
        <time>2011-12-23T12:15:11Z</time>
      </trkpt>
      <trkpt lat="45.66742" lon="6.24333">
        <ele>1396.9328613281</ele>
        <time>2011-12-23T12:15:16Z</time>
      </trkpt>
      <trkpt lat="45.66742" lon="6.24336">
        <ele>1398.3747558594</ele>
        <time>2011-12-23T12:15:22Z</time>
      </trkpt>
      <trkpt lat="45.66745" lon="6.24339">
        <ele>1407.98828125</ele>
        <time>2011-12-23T12:15:32Z</time>
      </trkpt>
      <trkpt lat="45.66746" lon="6.24342">
        <ele>1417.6010742188</ele>
        <time>2011-12-23T12:15:46Z</time>
      </trkpt>
      <trkpt lat="45.66745" lon="6.24346">
        <ele>1420.4853515625</ele>
        <time>2011-12-23T12:15:49Z</time>
      </trkpt>
      <trkpt lat="45.66743" lon="6.24352">
        <ele>1419.0432128906</ele>
        <time>2011-12-23T12:15:58Z</time>
      </trkpt>
      <trkpt lat="45.66739" lon="6.24354">
        <ele>1410.8720703125</ele>
        <time>2011-12-23T12:16:05Z</time>
      </trkpt>
      <trkpt lat="45.66735" lon="6.24359">
        <ele>1411.3527832031</ele>
        <time>2011-12-23T12:16:14Z</time>
      </trkpt>
      <trkpt lat="45.66732" lon="6.24363">
        <ele>1413.755859375</ele>
        <time>2011-12-23T12:16:19Z</time>
      </trkpt>
      <trkpt lat="45.66728" lon="6.24367">
        <ele>1408.9494628906</ele>
        <time>2011-12-23T12:16:25Z</time>
      </trkpt>
      <trkpt lat="45.66726" lon="6.24369">
        <ele>1405.1042480469</ele>
        <time>2011-12-23T12:16:29Z</time>
      </trkpt>
      <trkpt lat="45.66722" lon="6.24372">
        <ele>1401.7395019531</ele>
        <time>2011-12-23T12:16:35Z</time>
      </trkpt>
      <trkpt lat="45.66714" lon="6.24375">
        <ele>1401.7395019531</ele>
        <time>2011-12-23T12:16:43Z</time>
      </trkpt>
      <trkpt lat="45.6671" lon="6.24377">
        <ele>1399.8168945312</ele>
        <time>2011-12-23T12:16:50Z</time>
      </trkpt>
      <trkpt lat="45.6671" lon="6.24377">
        <ele>1397.8942871094</ele>
        <time>2011-12-23T12:16:57Z</time>
      </trkpt>
      <trkpt lat="45.66705" lon="6.24377">
        <ele>1397.8942871094</ele>
        <time>2011-12-23T12:17:03Z</time>
      </trkpt>
      <trkpt lat="45.66702" lon="6.24379">
        <ele>1397.4135742188</ele>
        <time>2011-12-23T12:17:08Z</time>
      </trkpt>
      <trkpt lat="45.66698" lon="6.24381">
        <ele>1396.9328613281</ele>
        <time>2011-12-23T12:17:14Z</time>
      </trkpt>
      <trkpt lat="45.66693" lon="6.24382">
        <ele>1396.4523925781</ele>
        <time>2011-12-23T12:17:20Z</time>
      </trkpt>
      <trkpt lat="45.66691" lon="6.24387">
        <ele>1395.9716796875</ele>
        <time>2011-12-23T12:17:25Z</time>
      </trkpt>
      <trkpt lat="45.66687" lon="6.2439">
        <ele>1395.9716796875</ele>
        <time>2011-12-23T12:17:32Z</time>
      </trkpt>
      <trkpt lat="45.66685" lon="6.24394">
        <ele>1394.5295410156</ele>
        <time>2011-12-23T12:17:38Z</time>
      </trkpt>
      <trkpt lat="45.66684" lon="6.24394">
        <ele>1393.568359375</ele>
        <time>2011-12-23T12:17:44Z</time>
      </trkpt>
      <trkpt lat="45.66683" lon="6.24396">
        <ele>1393.0876464844</ele>
        <time>2011-12-23T12:17:58Z</time>
      </trkpt>
      <trkpt lat="45.66681" lon="6.24396">
        <ele>1390.2038574219</ele>
        <time>2011-12-23T12:18:11Z</time>
      </trkpt>
      <trkpt lat="45.66679" lon="6.24398">
        <ele>1389.7231445312</ele>
        <time>2011-12-23T12:18:14Z</time>
      </trkpt>
      <trkpt lat="45.66677" lon="6.24399">
        <ele>1390.2038574219</ele>
        <time>2011-12-23T12:18:17Z</time>
      </trkpt>
      <trkpt lat="45.66672" lon="6.24399">
        <ele>1392.1264648438</ele>
        <time>2011-12-23T12:18:23Z</time>
      </trkpt>
      <trkpt lat="45.66668" lon="6.24403">
        <ele>1392.1264648438</ele>
        <time>2011-12-23T12:18:29Z</time>
      </trkpt>
      <trkpt lat="45.66664" lon="6.24405">
        <ele>1393.0876464844</ele>
        <time>2011-12-23T12:18:35Z</time>
      </trkpt>
      <trkpt lat="45.66658" lon="6.24409">
        <ele>1394.5295410156</ele>
        <time>2011-12-23T12:18:41Z</time>
      </trkpt>
      <trkpt lat="45.66654" lon="6.24413">
        <ele>1395.9716796875</ele>
        <time>2011-12-23T12:18:46Z</time>
      </trkpt>
      <trkpt lat="45.6665" lon="6.24417">
        <ele>1395.0102539062</ele>
        <time>2011-12-23T12:18:52Z</time>
      </trkpt>
      <trkpt lat="45.66647" lon="6.24421">
        <ele>1393.0876464844</ele>
        <time>2011-12-23T12:18:59Z</time>
      </trkpt>
      <trkpt lat="45.66647" lon="6.24424">
        <ele>1395.9716796875</ele>
        <time>2011-12-23T12:19:06Z</time>
      </trkpt>
      <trkpt lat="45.66647" lon="6.24428">
        <ele>1395.0102539062</ele>
        <time>2011-12-23T12:19:17Z</time>
      </trkpt>
      <trkpt lat="45.66647" lon="6.24429">
        <ele>1394.5295410156</ele>
        <time>2011-12-23T12:19:24Z</time>
      </trkpt>
      <trkpt lat="45.66646" lon="6.24429">
        <ele>1391.1650390625</ele>
        <time>2011-12-23T12:19:35Z</time>
      </trkpt>
      <trkpt lat="45.66646" lon="6.24428">
        <ele>1389.7231445312</ele>
        <time>2011-12-23T12:19:40Z</time>
      </trkpt>
      <trkpt lat="45.66645" lon="6.24428">
        <ele>1389.2424316406</ele>
        <time>2011-12-23T12:19:42Z</time>
      </trkpt>
      <trkpt lat="45.66639" lon="6.24427">
        <ele>1393.0876464844</ele>
        <time>2011-12-23T12:19:48Z</time>
      </trkpt>
      <trkpt lat="45.66633" lon="6.24425">
        <ele>1395.0102539062</ele>
        <time>2011-12-23T12:19:53Z</time>
      </trkpt>
      <trkpt lat="45.66632" lon="6.24425">
        <ele>1395.4909667969</ele>
        <time>2011-12-23T12:19:54Z</time>
      </trkpt>
      <trkpt lat="45.66628" lon="6.24422">
        <ele>1395.4909667969</ele>
        <time>2011-12-23T12:20:01Z</time>
      </trkpt>
      <trkpt lat="45.66625" lon="6.2442">
        <ele>1394.0490722656</ele>
        <time>2011-12-23T12:20:06Z</time>
      </trkpt>
      <trkpt lat="45.66621" lon="6.24418">
        <ele>1392.1264648438</ele>
        <time>2011-12-23T12:20:13Z</time>
      </trkpt>
      <trkpt lat="45.66617" lon="6.24417">
        <ele>1389.2424316406</ele>
        <time>2011-12-23T12:20:20Z</time>
      </trkpt>
      <trkpt lat="45.66613" lon="6.24418">
        <ele>1386.3583984375</ele>
        <time>2011-12-23T12:20:27Z</time>
      </trkpt>
      <trkpt lat="45.66609" lon="6.24419">
        <ele>1383.955078125</ele>
        <time>2011-12-23T12:20:35Z</time>
      </trkpt>
      <trkpt lat="45.66606" lon="6.24419">
        <ele>1382.0324707031</ele>
        <time>2011-12-23T12:20:41Z</time>
      </trkpt>
      <trkpt lat="45.66601" lon="6.24421">
        <ele>1382.5131835938</ele>
        <time>2011-12-23T12:20:51Z</time>
      </trkpt>
      <trkpt lat="45.66598" lon="6.24423">
        <ele>1383.955078125</ele>
        <time>2011-12-23T12:20:56Z</time>
      </trkpt>
      <trkpt lat="45.66594" lon="6.24423">
        <ele>1385.3969726562</ele>
        <time>2011-12-23T12:21:01Z</time>
      </trkpt>
      <trkpt lat="45.66591" lon="6.24423">
        <ele>1384.4357910156</ele>
        <time>2011-12-23T12:21:08Z</time>
      </trkpt>
      <trkpt lat="45.66588" lon="6.24422">
        <ele>1384.4357910156</ele>
        <time>2011-12-23T12:21:13Z</time>
      </trkpt>
      <trkpt lat="45.66583" lon="6.24423">
        <ele>1382.0324707031</ele>
        <time>2011-12-23T12:21:22Z</time>
      </trkpt>
      <trkpt lat="45.6658" lon="6.24423">
        <ele>1380.5905761719</ele>
        <time>2011-12-23T12:21:28Z</time>
      </trkpt>
      <trkpt lat="45.66579" lon="6.24423">
        <ele>1379.6291503906</ele>
        <time>2011-12-23T12:21:34Z</time>
      </trkpt>
      <trkpt lat="45.6658" lon="6.24425">
        <ele>1379.1484375</ele>
        <time>2011-12-23T12:21:43Z</time>
      </trkpt>
      <trkpt lat="45.66582" lon="6.24426">
        <ele>1377.7065429688</ele>
        <time>2011-12-23T12:21:53Z</time>
      </trkpt>
      <trkpt lat="45.6658" lon="6.24426">
        <ele>1375.3032226562</ele>
        <time>2011-12-23T12:22:02Z</time>
      </trkpt>
      <trkpt lat="45.6658" lon="6.24425">
        <ele>1376.2646484375</ele>
        <time>2011-12-23T12:22:11Z</time>
      </trkpt>
      <trkpt lat="45.66579" lon="6.24425">
        <ele>1374.8227539062</ele>
        <time>2011-12-23T12:22:22Z</time>
      </trkpt>
      <trkpt lat="45.66576" lon="6.24427">
        <ele>1374.3420410156</ele>
        <time>2011-12-23T12:22:28Z</time>
      </trkpt>
      <trkpt lat="45.66572" lon="6.24428">
        <ele>1373.861328125</ele>
        <time>2011-12-23T12:22:35Z</time>
      </trkpt>
      <trkpt lat="45.66568" lon="6.24426">
        <ele>1374.3420410156</ele>
        <time>2011-12-23T12:22:42Z</time>
      </trkpt>
      <trkpt lat="45.66565" lon="6.24427">
        <ele>1373.380859375</ele>
        <time>2011-12-23T12:22:49Z</time>
      </trkpt>
      <trkpt lat="45.66561" lon="6.24428">
        <ele>1372.4194335938</ele>
        <time>2011-12-23T12:22:57Z</time>
      </trkpt>
      <trkpt lat="45.66558" lon="6.24431">
        <ele>1371.4577636719</ele>
        <time>2011-12-23T12:23:04Z</time>
      </trkpt>
      <trkpt lat="45.66555" lon="6.24434">
        <ele>1370.9772949219</ele>
        <time>2011-12-23T12:23:10Z</time>
      </trkpt>
      <trkpt lat="45.6655" lon="6.24435">
        <ele>1371.9384765625</ele>
        <time>2011-12-23T12:23:17Z</time>
      </trkpt>
      <trkpt lat="45.66548" lon="6.24436">
        <ele>1371.4577636719</ele>
        <time>2011-12-23T12:23:22Z</time>
      </trkpt>
      <trkpt lat="45.66544" lon="6.24437">
        <ele>1370.4965820312</ele>
        <time>2011-12-23T12:23:29Z</time>
      </trkpt>
      <trkpt lat="45.66542" lon="6.24435">
        <ele>1371.9384765625</ele>
        <time>2011-12-23T12:23:35Z</time>
      </trkpt>
      <trkpt lat="45.6654" lon="6.24433">
        <ele>1377.7065429688</ele>
        <time>2011-12-23T12:23:51Z</time>
      </trkpt>
      <trkpt lat="45.66537" lon="6.24433">
        <ele>1377.2260742188</ele>
        <time>2011-12-23T12:23:56Z</time>
      </trkpt>
      <trkpt lat="45.66534" lon="6.24434">
        <ele>1378.66796875</ele>
        <time>2011-12-23T12:24:02Z</time>
      </trkpt>
      <trkpt lat="45.66531" lon="6.24435">
        <ele>1380.1098632812</ele>
        <time>2011-12-23T12:24:09Z</time>
      </trkpt>
      <trkpt lat="45.66526" lon="6.24435">
        <ele>1383.4743652344</ele>
        <time>2011-12-23T12:24:17Z</time>
      </trkpt>
      <trkpt lat="45.66522" lon="6.24435">
        <ele>1384.9165039062</ele>
        <time>2011-12-23T12:24:23Z</time>
      </trkpt>
      <trkpt lat="45.66516" lon="6.24433">
        <ele>1384.9165039062</ele>
        <time>2011-12-23T12:24:30Z</time>
      </trkpt>
      <trkpt lat="45.66514" lon="6.24432">
        <ele>1384.9165039062</ele>
        <time>2011-12-23T12:24:34Z</time>
      </trkpt>
      <trkpt lat="45.66512" lon="6.24433">
        <ele>1385.3969726562</ele>
        <time>2011-12-23T12:24:39Z</time>
      </trkpt>
      <trkpt lat="45.66508" lon="6.24434">
        <ele>1387.8002929688</ele>
        <time>2011-12-23T12:24:46Z</time>
      </trkpt>
      <trkpt lat="45.66506" lon="6.24433">
        <ele>1387.3195800781</ele>
        <time>2011-12-23T12:24:50Z</time>
      </trkpt>
      <trkpt lat="45.66502" lon="6.24433">
        <ele>1384.9165039062</ele>
        <time>2011-12-23T12:24:59Z</time>
      </trkpt>
      <trkpt lat="45.66497" lon="6.24433">
        <ele>1381.5517578125</ele>
        <time>2011-12-23T12:25:07Z</time>
      </trkpt>
      <trkpt lat="45.66495" lon="6.24435">
        <ele>1382.0324707031</ele>
        <time>2011-12-23T12:25:12Z</time>
      </trkpt>
      <trkpt lat="45.66492" lon="6.24434">
        <ele>1378.1872558594</ele>
        <time>2011-12-23T12:25:22Z</time>
      </trkpt>
      <trkpt lat="45.66492" lon="6.24432">
        <ele>1385.8776855469</ele>
        <time>2011-12-23T12:25:34Z</time>
      </trkpt>
      <trkpt lat="45.66494" lon="6.24436">
        <ele>1392.6071777344</ele>
        <time>2011-12-23T12:25:48Z</time>
      </trkpt>
      <trkpt lat="45.66494" lon="6.24434">
        <ele>1398.3747558594</ele>
        <time>2011-12-23T12:25:59Z</time>
      </trkpt>
      <trkpt lat="45.66492" lon="6.24431">
        <ele>1399.8168945312</ele>
        <time>2011-12-23T12:26:10Z</time>
      </trkpt>
      <trkpt lat="45.66492" lon="6.24432">
        <ele>1399.3361816406</ele>
        <time>2011-12-23T12:26:13Z</time>
      </trkpt>
      <trkpt lat="45.66488" lon="6.24429">
        <ele>1401.2587890625</ele>
        <time>2011-12-23T12:26:26Z</time>
      </trkpt>
      <trkpt lat="45.66487" lon="6.24432">
        <ele>1396.4523925781</ele>
        <time>2011-12-23T12:26:30Z</time>
      </trkpt>
      <trkpt lat="45.66486" lon="6.24433">
        <ele>1392.1264648438</ele>
        <time>2011-12-23T12:26:35Z</time>
      </trkpt>
      <trkpt lat="45.66484" lon="6.24434">
        <ele>1387.8002929688</ele>
        <time>2011-12-23T12:26:40Z</time>
      </trkpt>
      <trkpt lat="45.66483" lon="6.24437">
        <ele>1383.955078125</ele>
        <time>2011-12-23T12:26:46Z</time>
      </trkpt>
      <trkpt lat="45.66479" lon="6.24439">
        <ele>1381.5517578125</ele>
        <time>2011-12-23T12:26:52Z</time>
      </trkpt>
      <trkpt lat="45.66476" lon="6.2444">
        <ele>1380.5905761719</ele>
        <time>2011-12-23T12:26:58Z</time>
      </trkpt>
      <trkpt lat="45.66472" lon="6.24441">
        <ele>1384.9165039062</ele>
        <time>2011-12-23T12:27:04Z</time>
      </trkpt>
      <trkpt lat="45.66468" lon="6.24443">
        <ele>1397.8942871094</ele>
        <time>2011-12-23T12:27:11Z</time>
      </trkpt>
      <trkpt lat="45.66465" lon="6.24446">
        <ele>1402.2199707031</ele>
        <time>2011-12-23T12:27:17Z</time>
      </trkpt>
      <trkpt lat="45.66463" lon="6.24446">
        <ele>1402.2199707031</ele>
        <time>2011-12-23T12:27:22Z</time>
      </trkpt>
      <trkpt lat="45.66461" lon="6.24447">
        <ele>1403.1813964844</ele>
        <time>2011-12-23T12:27:26Z</time>
      </trkpt>
      <trkpt lat="45.6646" lon="6.24446">
        <ele>1401.7395019531</ele>
        <time>2011-12-23T12:27:31Z</time>
      </trkpt>
      <trkpt lat="45.66457" lon="6.24446">
        <ele>1399.3361816406</ele>
        <time>2011-12-23T12:27:37Z</time>
      </trkpt>
      <trkpt lat="45.66454" lon="6.24447">
        <ele>1395.4909667969</ele>
        <time>2011-12-23T12:27:46Z</time>
      </trkpt>
      <trkpt lat="45.6645" lon="6.24446">
        <ele>1394.0490722656</ele>
        <time>2011-12-23T12:27:52Z</time>
      </trkpt>
      <trkpt lat="45.66445" lon="6.24441">
        <ele>1395.4909667969</ele>
        <time>2011-12-23T12:27:58Z</time>
      </trkpt>
      <trkpt lat="45.66443" lon="6.24443">
        <ele>1392.1264648438</ele>
        <time>2011-12-23T12:28:04Z</time>
      </trkpt>
      <trkpt lat="45.66441" lon="6.24444">
        <ele>1389.7231445312</ele>
        <time>2011-12-23T12:28:09Z</time>
      </trkpt>
      <trkpt lat="45.66436" lon="6.24444">
        <ele>1385.3969726562</ele>
        <time>2011-12-23T12:28:18Z</time>
      </trkpt>
      <trkpt lat="45.66431" lon="6.24441">
        <ele>1384.9165039062</ele>
        <time>2011-12-23T12:28:24Z</time>
      </trkpt>
      <trkpt lat="45.66428" lon="6.24439">
        <ele>1386.3583984375</ele>
        <time>2011-12-23T12:28:29Z</time>
      </trkpt>
      <trkpt lat="45.66426" lon="6.2444">
        <ele>1380.5905761719</ele>
        <time>2011-12-23T12:28:36Z</time>
      </trkpt>
      <trkpt lat="45.66421" lon="6.24439">
        <ele>1380.1098632812</ele>
        <time>2011-12-23T12:28:44Z</time>
      </trkpt>
      <trkpt lat="45.66418" lon="6.2444">
        <ele>1377.2260742188</ele>
        <time>2011-12-23T12:28:49Z</time>
      </trkpt>
      <trkpt lat="45.66413" lon="6.24438">
        <ele>1377.2260742188</ele>
        <time>2011-12-23T12:28:55Z</time>
      </trkpt>
      <trkpt lat="45.6641" lon="6.24439">
        <ele>1374.3420410156</ele>
        <time>2011-12-23T12:29:01Z</time>
      </trkpt>
      <trkpt lat="45.66402" lon="6.24437">
        <ele>1376.7453613281</ele>
        <time>2011-12-23T12:29:08Z</time>
      </trkpt>
      <trkpt lat="45.66395" lon="6.24438">
        <ele>1377.7065429688</ele>
        <time>2011-12-23T12:29:16Z</time>
      </trkpt>
      <trkpt lat="45.66391" lon="6.24438">
        <ele>1377.2260742188</ele>
        <time>2011-12-23T12:29:21Z</time>
      </trkpt>
      <trkpt lat="45.66383" lon="6.24437">
        <ele>1378.66796875</ele>
        <time>2011-12-23T12:29:28Z</time>
      </trkpt>
      <trkpt lat="45.66381" lon="6.24438">
        <ele>1377.7065429688</ele>
        <time>2011-12-23T12:29:32Z</time>
      </trkpt>
      <trkpt lat="45.66376" lon="6.24438">
        <ele>1379.6291503906</ele>
        <time>2011-12-23T12:29:38Z</time>
      </trkpt>
      <trkpt lat="45.66372" lon="6.24438">
        <ele>1379.6291503906</ele>
        <time>2011-12-23T12:29:43Z</time>
      </trkpt>
      <trkpt lat="45.66367" lon="6.24437">
        <ele>1384.9165039062</ele>
        <time>2011-12-23T12:29:48Z</time>
      </trkpt>
      <trkpt lat="45.66363" lon="6.24438">
        <ele>1383.4743652344</ele>
        <time>2011-12-23T12:29:53Z</time>
      </trkpt>
      <trkpt lat="45.6636" lon="6.2444">
        <ele>1380.1098632812</ele>
        <time>2011-12-23T12:29:58Z</time>
      </trkpt>
      <trkpt lat="45.66356" lon="6.24439">
        <ele>1382.0324707031</ele>
        <time>2011-12-23T12:30:02Z</time>
      </trkpt>
      <trkpt lat="45.66352" lon="6.24439">
        <ele>1381.5517578125</ele>
        <time>2011-12-23T12:30:07Z</time>
      </trkpt>
      <trkpt lat="45.66348" lon="6.2444">
        <ele>1377.7065429688</ele>
        <time>2011-12-23T12:30:12Z</time>
      </trkpt>
      <trkpt lat="45.66346" lon="6.24442">
        <ele>1372.9001464844</ele>
        <time>2011-12-23T12:30:17Z</time>
      </trkpt>
      <trkpt lat="45.66343" lon="6.24441">
        <ele>1372.9001464844</ele>
        <time>2011-12-23T12:30:21Z</time>
      </trkpt>
      <trkpt lat="45.66342" lon="6.24442">
        <ele>1372.4194335938</ele>
        <time>2011-12-23T12:30:25Z</time>
      </trkpt>
      <trkpt lat="45.6634" lon="6.24444">
        <ele>1371.4577636719</ele>
        <time>2011-12-23T12:30:30Z</time>
      </trkpt>
      <trkpt lat="45.66338" lon="6.24448">
        <ele>1365.6901855469</ele>
        <time>2011-12-23T12:30:35Z</time>
      </trkpt>
      <trkpt lat="45.66333" lon="6.24446">
        <ele>1364.7287597656</ele>
        <time>2011-12-23T12:30:40Z</time>
      </trkpt>
      <trkpt lat="45.66329" lon="6.24444">
        <ele>1364.248046875</ele>
        <time>2011-12-23T12:30:44Z</time>
      </trkpt>
      <trkpt lat="45.66328" lon="6.24445">
        <ele>1363.2868652344</ele>
        <time>2011-12-23T12:30:45Z</time>
      </trkpt>
      <trkpt lat="45.66323" lon="6.24444">
        <ele>1365.6901855469</ele>
        <time>2011-12-23T12:30:50Z</time>
      </trkpt>
      <trkpt lat="45.66319" lon="6.24446">
        <ele>1366.1706542969</ele>
        <time>2011-12-23T12:30:55Z</time>
      </trkpt>
      <trkpt lat="45.66315" lon="6.24449">
        <ele>1367.6125488281</ele>
        <time>2011-12-23T12:30:59Z</time>
      </trkpt>
      <trkpt lat="45.66309" lon="6.24445">
        <ele>1366.6513671875</ele>
        <time>2011-12-23T12:31:07Z</time>
      </trkpt>
      <trkpt lat="45.66308" lon="6.24446">
        <ele>1363.2868652344</ele>
        <time>2011-12-23T12:31:11Z</time>
      </trkpt>
      <trkpt lat="45.66305" lon="6.24445">
        <ele>1363.7673339844</ele>
        <time>2011-12-23T12:31:16Z</time>
      </trkpt>
      <trkpt lat="45.66304" lon="6.24446">
        <ele>1361.3642578125</ele>
        <time>2011-12-23T12:31:20Z</time>
      </trkpt>
      <trkpt lat="45.66302" lon="6.24445">
        <ele>1361.8449707031</ele>
        <time>2011-12-23T12:31:25Z</time>
      </trkpt>
      <trkpt lat="45.66298" lon="6.24445">
        <ele>1362.3254394531</ele>
        <time>2011-12-23T12:31:30Z</time>
      </trkpt>
      <trkpt lat="45.66294" lon="6.24443">
        <ele>1364.248046875</ele>
        <time>2011-12-23T12:31:34Z</time>
      </trkpt>
      <trkpt lat="45.66292" lon="6.24441">
        <ele>1361.3642578125</ele>
        <time>2011-12-23T12:31:38Z</time>
      </trkpt>
      <trkpt lat="45.6629" lon="6.24441">
        <ele>1358.4802246094</ele>
        <time>2011-12-23T12:31:42Z</time>
      </trkpt>
      <trkpt lat="45.66288" lon="6.24441">
        <ele>1356.0769042969</ele>
        <time>2011-12-23T12:31:46Z</time>
      </trkpt>
      <trkpt lat="45.66286" lon="6.2444">
        <ele>1356.0769042969</ele>
        <time>2011-12-23T12:31:50Z</time>
      </trkpt>
      <trkpt lat="45.66285" lon="6.24437">
        <ele>1362.3254394531</ele>
        <time>2011-12-23T12:32:02Z</time>
      </trkpt>
      <trkpt lat="45.66281" lon="6.24436">
        <ele>1362.3254394531</ele>
        <time>2011-12-23T12:32:08Z</time>
      </trkpt>
      <trkpt lat="45.66278" lon="6.24437">
        <ele>1362.8061523438</ele>
        <time>2011-12-23T12:32:13Z</time>
      </trkpt>
      <trkpt lat="45.66275" lon="6.24437">
        <ele>1360.8835449219</ele>
        <time>2011-12-23T12:32:19Z</time>
      </trkpt>
      <trkpt lat="45.6627" lon="6.24436">
        <ele>1360.8835449219</ele>
        <time>2011-12-23T12:32:25Z</time>
      </trkpt>
      <trkpt lat="45.66266" lon="6.24439">
        <ele>1358.4802246094</ele>
        <time>2011-12-23T12:32:32Z</time>
      </trkpt>
      <trkpt lat="45.66261" lon="6.24436">
        <ele>1362.8061523438</ele>
        <time>2011-12-23T12:32:36Z</time>
      </trkpt>
      <trkpt lat="45.66257" lon="6.24434">
        <ele>1363.2868652344</ele>
        <time>2011-12-23T12:32:40Z</time>
      </trkpt>
      <trkpt lat="45.66256" lon="6.24434">
        <ele>1363.7673339844</ele>
        <time>2011-12-23T12:32:41Z</time>
      </trkpt>
      <trkpt lat="45.66253" lon="6.24434">
        <ele>1362.8061523438</ele>
        <time>2011-12-23T12:32:45Z</time>
      </trkpt>
      <trkpt lat="45.66251" lon="6.24434">
        <ele>1355.5961914062</ele>
        <time>2011-12-23T12:32:55Z</time>
      </trkpt>
      <trkpt lat="45.6625" lon="6.24439">
        <ele>1353.6735839844</ele>
        <time>2011-12-23T12:33:01Z</time>
      </trkpt>
      <trkpt lat="45.66248" lon="6.2444">
        <ele>1349.34765625</ele>
        <time>2011-12-23T12:33:06Z</time>
      </trkpt>
      <trkpt lat="45.66248" lon="6.24441">
        <ele>1342.1379394531</ele>
        <time>2011-12-23T12:33:11Z</time>
      </trkpt>
      <trkpt lat="45.66249" lon="6.24449">
        <ele>1336.3698730469</ele>
        <time>2011-12-23T12:33:20Z</time>
      </trkpt>
      <trkpt lat="45.66246" lon="6.24454">
        <ele>1331.0827636719</ele>
        <time>2011-12-23T12:33:39Z</time>
      </trkpt>
      <trkpt lat="45.66246" lon="6.24455">
        <ele>1329.640625</ele>
        <time>2011-12-23T12:33:43Z</time>
      </trkpt>
      <trkpt lat="45.66245" lon="6.24456">
        <ele>1328.6794433594</ele>
        <time>2011-12-23T12:33:45Z</time>
      </trkpt>
      <trkpt lat="45.66239" lon="6.24454">
        <ele>1335.4084472656</ele>
        <time>2011-12-23T12:33:52Z</time>
      </trkpt>
      <trkpt lat="45.66233" lon="6.24451">
        <ele>1340.2153320312</ele>
        <time>2011-12-23T12:33:59Z</time>
      </trkpt>
      <trkpt lat="45.6623" lon="6.2445">
        <ele>1344.060546875</ele>
        <time>2011-12-23T12:34:01Z</time>
      </trkpt>
      <trkpt lat="45.66225" lon="6.24448">
        <ele>1350.7895507812</ele>
        <time>2011-12-23T12:34:08Z</time>
      </trkpt>
      <trkpt lat="45.66223" lon="6.24449">
        <ele>1353.1928710938</ele>
        <time>2011-12-23T12:34:12Z</time>
      </trkpt>
      <trkpt lat="45.66218" lon="6.24446">
        <ele>1357.9997558594</ele>
        <time>2011-12-23T12:34:17Z</time>
      </trkpt>
      <trkpt lat="45.66212" lon="6.24443">
        <ele>1365.2094726562</ele>
        <time>2011-12-23T12:34:23Z</time>
      </trkpt>
      <trkpt lat="45.66207" lon="6.2444">
        <ele>1368.0932617188</ele>
        <time>2011-12-23T12:34:29Z</time>
      </trkpt>
      <trkpt lat="45.66201" lon="6.24436">
        <ele>1372.9001464844</ele>
        <time>2011-12-23T12:34:33Z</time>
      </trkpt>
      <trkpt lat="45.66196" lon="6.24435">
        <ele>1378.66796875</ele>
        <time>2011-12-23T12:34:38Z</time>
      </trkpt>
      <trkpt lat="45.66193" lon="6.24435">
        <ele>1380.5905761719</ele>
        <time>2011-12-23T12:34:44Z</time>
      </trkpt>
      <trkpt lat="45.66198" lon="6.24438">
        <ele>1371.4577636719</ele>
        <time>2011-12-23T12:34:55Z</time>
      </trkpt>
      <trkpt lat="45.66199" lon="6.24439">
        <ele>1365.6901855469</ele>
        <time>2011-12-23T12:35:23Z</time>
      </trkpt>
      <trkpt lat="45.66198" lon="6.24438">
        <ele>1367.1320800781</ele>
        <time>2011-12-23T12:35:25Z</time>
      </trkpt>
      <trkpt lat="45.66197" lon="6.24439">
        <ele>1369.0546875</ele>
        <time>2011-12-23T12:35:46Z</time>
      </trkpt>
      <trkpt lat="45.66201" lon="6.24446">
        <ele>1366.1706542969</ele>
        <time>2011-12-23T12:35:57Z</time>
      </trkpt>
      <trkpt lat="45.66201" lon="6.24448">
        <ele>1355.1154785156</ele>
        <time>2011-12-23T12:36:10Z</time>
      </trkpt>
      <trkpt lat="45.66198" lon="6.24447">
        <ele>1352.2314453125</ele>
        <time>2011-12-23T12:36:14Z</time>
      </trkpt>
      <trkpt lat="45.66191" lon="6.24444">
        <ele>1353.6735839844</ele>
        <time>2011-12-23T12:36:19Z</time>
      </trkpt>
      <trkpt lat="45.66188" lon="6.24445">
        <ele>1354.634765625</ele>
        <time>2011-12-23T12:36:23Z</time>
      </trkpt>
      <trkpt lat="45.66185" lon="6.24445">
        <ele>1355.5961914062</ele>
        <time>2011-12-23T12:36:28Z</time>
      </trkpt>
      <trkpt lat="45.66178" lon="6.24441">
        <ele>1358.4802246094</ele>
        <time>2011-12-23T12:36:34Z</time>
      </trkpt>
      <trkpt lat="45.66176" lon="6.24442">
        <ele>1356.0769042969</ele>
        <time>2011-12-23T12:36:38Z</time>
      </trkpt>
      <trkpt lat="45.66174" lon="6.24443">
        <ele>1354.154296875</ele>
        <time>2011-12-23T12:36:42Z</time>
      </trkpt>
      <trkpt lat="45.66171" lon="6.24444">
        <ele>1354.154296875</ele>
        <time>2011-12-23T12:36:46Z</time>
      </trkpt>
      <trkpt lat="45.66169" lon="6.24444">
        <ele>1351.7509765625</ele>
        <time>2011-12-23T12:36:51Z</time>
      </trkpt>
      <trkpt lat="45.66166" lon="6.24442">
        <ele>1351.2702636719</ele>
        <time>2011-12-23T12:36:55Z</time>
      </trkpt>
      <trkpt lat="45.6616" lon="6.24438">
        <ele>1354.154296875</ele>
        <time>2011-12-23T12:37:00Z</time>
      </trkpt>
      <trkpt lat="45.66156" lon="6.24435">
        <ele>1356.5576171875</ele>
        <time>2011-12-23T12:37:04Z</time>
      </trkpt>
      <trkpt lat="45.66153" lon="6.24432">
        <ele>1358.9609375</ele>
        <time>2011-12-23T12:37:09Z</time>
      </trkpt>
      <trkpt lat="45.6615" lon="6.24431">
        <ele>1358.9609375</ele>
        <time>2011-12-23T12:37:14Z</time>
      </trkpt>
      <trkpt lat="45.66148" lon="6.24431">
        <ele>1357.5190429688</ele>
        <time>2011-12-23T12:37:20Z</time>
      </trkpt>
      <trkpt lat="45.66146" lon="6.24435">
        <ele>1343.0991210938</ele>
        <time>2011-12-23T12:37:30Z</time>
      </trkpt>
      <trkpt lat="45.6614" lon="6.24432">
        <ele>1339.734375</ele>
        <time>2011-12-23T12:37:35Z</time>
      </trkpt>
      <trkpt lat="45.66137" lon="6.24431">
        <ele>1340.2153320312</ele>
        <time>2011-12-23T12:37:37Z</time>
      </trkpt>
      <trkpt lat="45.66133" lon="6.24428">
        <ele>1340.6958007812</ele>
        <time>2011-12-23T12:37:40Z</time>
      </trkpt>
      <trkpt lat="45.6613" lon="6.24426">
        <ele>1343.0991210938</ele>
        <time>2011-12-23T12:37:45Z</time>
      </trkpt>
      <trkpt lat="45.66128" lon="6.24426">
        <ele>1340.6958007812</ele>
        <time>2011-12-23T12:37:50Z</time>
      </trkpt>
      <trkpt lat="45.66125" lon="6.24425">
        <ele>1340.6958007812</ele>
        <time>2011-12-23T12:37:55Z</time>
      </trkpt>
      <trkpt lat="45.66122" lon="6.24425">
        <ele>1340.6958007812</ele>
        <time>2011-12-23T12:38:01Z</time>
      </trkpt>
      <trkpt lat="45.66119" lon="6.24424">
        <ele>1340.2153320312</ele>
        <time>2011-12-23T12:38:06Z</time>
      </trkpt>
      <trkpt lat="45.66114" lon="6.24426">
        <ele>1342.6186523438</ele>
        <time>2011-12-23T12:38:12Z</time>
      </trkpt>
      <trkpt lat="45.66109" lon="6.24426">
        <ele>1339.734375</ele>
        <time>2011-12-23T12:38:18Z</time>
      </trkpt>
      <trkpt lat="45.66106" lon="6.24426">
        <ele>1340.2153320312</ele>
        <time>2011-12-23T12:38:22Z</time>
      </trkpt>
      <trkpt lat="45.66103" lon="6.24429">
        <ele>1341.1765136719</ele>
        <time>2011-12-23T12:38:26Z</time>
      </trkpt>
      <trkpt lat="45.66099" lon="6.24427">
        <ele>1342.1379394531</ele>
        <time>2011-12-23T12:38:30Z</time>
      </trkpt>
      <trkpt lat="45.6609" lon="6.24423">
        <ele>1346.9443359375</ele>
        <time>2011-12-23T12:38:37Z</time>
      </trkpt>
      <trkpt lat="45.66084" lon="6.24421">
        <ele>1351.2702636719</ele>
        <time>2011-12-23T12:38:45Z</time>
      </trkpt>
      <trkpt lat="45.66083" lon="6.24422">
        <ele>1347.4250488281</ele>
        <time>2011-12-23T12:38:52Z</time>
      </trkpt>
      <trkpt lat="45.66083" lon="6.24424">
        <ele>1346.9443359375</ele>
        <time>2011-12-23T12:38:59Z</time>
      </trkpt>
      <trkpt lat="45.66079" lon="6.24423">
        <ele>1348.8669433594</ele>
        <time>2011-12-23T12:39:04Z</time>
      </trkpt>
      <trkpt lat="45.66076" lon="6.24424">
        <ele>1347.4250488281</ele>
        <time>2011-12-23T12:39:10Z</time>
      </trkpt>
      <trkpt lat="45.66072" lon="6.24423">
        <ele>1349.34765625</ele>
        <time>2011-12-23T12:39:16Z</time>
      </trkpt>
      <trkpt lat="45.66068" lon="6.24423">
        <ele>1348.8669433594</ele>
        <time>2011-12-23T12:39:23Z</time>
      </trkpt>
      <trkpt lat="45.66066" lon="6.24423">
        <ele>1345.9831542969</ele>
        <time>2011-12-23T12:39:28Z</time>
      </trkpt>
      <trkpt lat="45.66063" lon="6.24421">
        <ele>1343.5798339844</ele>
        <time>2011-12-23T12:39:34Z</time>
      </trkpt>
      <trkpt lat="45.66058" lon="6.24421">
        <ele>1344.541015625</ele>
        <time>2011-12-23T12:39:41Z</time>
      </trkpt>
      <trkpt lat="45.66054" lon="6.24421">
        <ele>1342.1379394531</ele>
        <time>2011-12-23T12:39:46Z</time>
      </trkpt>
      <trkpt lat="45.66051" lon="6.2442">
        <ele>1342.1379394531</ele>
        <time>2011-12-23T12:39:50Z</time>
      </trkpt>
      <trkpt lat="45.66047" lon="6.2442">
        <ele>1339.734375</ele>
        <time>2011-12-23T12:39:57Z</time>
      </trkpt>
      <trkpt lat="45.66044" lon="6.24419">
        <ele>1338.2924804688</ele>
        <time>2011-12-23T12:40:01Z</time>
      </trkpt>
      <trkpt lat="45.66042" lon="6.2442">
        <ele>1338.7731933594</ele>
        <time>2011-12-23T12:40:05Z</time>
      </trkpt>
      <trkpt lat="45.66039" lon="6.24422">
        <ele>1342.1379394531</ele>
        <time>2011-12-23T12:40:09Z</time>
      </trkpt>
      <trkpt lat="45.66029" lon="6.24422">
        <ele>1344.060546875</ele>
        <time>2011-12-23T12:40:19Z</time>
      </trkpt>
      <trkpt lat="45.66025" lon="6.24422">
        <ele>1344.541015625</ele>
        <time>2011-12-23T12:40:24Z</time>
      </trkpt>
      <trkpt lat="45.66022" lon="6.24423">
        <ele>1337.8117675781</ele>
        <time>2011-12-23T12:40:30Z</time>
      </trkpt>
      <trkpt lat="45.6602" lon="6.24423">
        <ele>1333.0051269531</ele>
        <time>2011-12-23T12:40:34Z</time>
      </trkpt>
      <trkpt lat="45.66018" lon="6.24424">
        <ele>1332.5246582031</ele>
        <time>2011-12-23T12:40:39Z</time>
      </trkpt>
      <trkpt lat="45.66015" lon="6.24423">
        <ele>1334.447265625</ele>
        <time>2011-12-23T12:40:43Z</time>
      </trkpt>
      <trkpt lat="45.66012" lon="6.2442">
        <ele>1337.8117675781</ele>
        <time>2011-12-23T12:40:47Z</time>
      </trkpt>
      <trkpt lat="45.66011" lon="6.24417">
        <ele>1335.8891601562</ele>
        <time>2011-12-23T12:40:55Z</time>
      </trkpt>
      <trkpt lat="45.66005" lon="6.2442">
        <ele>1322.4306640625</ele>
        <time>2011-12-23T12:41:16Z</time>
      </trkpt>
      <trkpt lat="45.66004" lon="6.24421">
        <ele>1319.0661621094</ele>
        <time>2011-12-23T12:41:22Z</time>
      </trkpt>
      <trkpt lat="45.66" lon="6.24419">
        <ele>1319.546875</ele>
        <time>2011-12-23T12:41:35Z</time>
      </trkpt>
      <trkpt lat="45.65995" lon="6.24415">
        <ele>1328.6794433594</ele>
        <time>2011-12-23T12:41:46Z</time>
      </trkpt>
      <trkpt lat="45.65993" lon="6.24416">
        <ele>1332.0439453125</ele>
        <time>2011-12-23T12:41:52Z</time>
      </trkpt>
      <trkpt lat="45.65992" lon="6.24413">
        <ele>1332.0439453125</ele>
        <time>2011-12-23T12:41:57Z</time>
      </trkpt>
      <trkpt lat="45.65991" lon="6.24413">
        <ele>1327.2375488281</ele>
        <time>2011-12-23T12:42:01Z</time>
      </trkpt>
      <trkpt lat="45.65988" lon="6.24413">
        <ele>1325.7954101562</ele>
        <time>2011-12-23T12:42:05Z</time>
      </trkpt>
      <trkpt lat="45.65987" lon="6.24409">
        <ele>1325.3146972656</ele>
        <time>2011-12-23T12:42:10Z</time>
      </trkpt>
      <trkpt lat="45.65984" lon="6.24407">
        <ele>1326.2761230469</ele>
        <time>2011-12-23T12:42:15Z</time>
      </trkpt>
      <trkpt lat="45.65981" lon="6.24406">
        <ele>1325.3146972656</ele>
        <time>2011-12-23T12:42:20Z</time>
      </trkpt>
      <trkpt lat="45.65977" lon="6.24403">
        <ele>1328.1987304688</ele>
        <time>2011-12-23T12:42:24Z</time>
      </trkpt>
      <trkpt lat="45.65973" lon="6.24402">
        <ele>1328.1987304688</ele>
        <time>2011-12-23T12:42:29Z</time>
      </trkpt>
      <trkpt lat="45.65971" lon="6.24403">
        <ele>1325.3146972656</ele>
        <time>2011-12-23T12:42:34Z</time>
      </trkpt>
      <trkpt lat="45.65968" lon="6.24402">
        <ele>1323.3920898438</ele>
        <time>2011-12-23T12:42:39Z</time>
      </trkpt>
      <trkpt lat="45.65966" lon="6.24401">
        <ele>1321.9499511719</ele>
        <time>2011-12-23T12:42:44Z</time>
      </trkpt>
      <trkpt lat="45.65965" lon="6.24397">
        <ele>1319.546875</ele>
        <time>2011-12-23T12:42:50Z</time>
      </trkpt>
      <trkpt lat="45.65961" lon="6.24395">
        <ele>1312.3369140625</ele>
        <time>2011-12-23T12:43:06Z</time>
      </trkpt>
      <trkpt lat="45.65959" lon="6.24392">
        <ele>1313.2983398438</ele>
        <time>2011-12-23T12:43:10Z</time>
      </trkpt>
      <trkpt lat="45.65955" lon="6.2439">
        <ele>1319.0661621094</ele>
        <time>2011-12-23T12:43:16Z</time>
      </trkpt>
      <trkpt lat="45.65952" lon="6.24387">
        <ele>1323.3920898438</ele>
        <time>2011-12-23T12:43:20Z</time>
      </trkpt>
      <trkpt lat="45.65948" lon="6.24388">
        <ele>1320.5080566406</ele>
        <time>2011-12-23T12:43:26Z</time>
      </trkpt>
      <trkpt lat="45.65944" lon="6.24386">
        <ele>1322.4306640625</ele>
        <time>2011-12-23T12:43:32Z</time>
      </trkpt>
      <trkpt lat="45.65942" lon="6.24381">
        <ele>1327.7180175781</ele>
        <time>2011-12-23T12:43:36Z</time>
      </trkpt>
      <trkpt lat="45.65938" lon="6.24382">
        <ele>1323.8725585938</ele>
        <time>2011-12-23T12:43:43Z</time>
      </trkpt>
      <trkpt lat="45.65933" lon="6.24382">
        <ele>1324.353515625</ele>
        <time>2011-12-23T12:43:48Z</time>
      </trkpt>
      <trkpt lat="45.6593" lon="6.24381">
        <ele>1324.8342285156</ele>
        <time>2011-12-23T12:43:51Z</time>
      </trkpt>
      <trkpt lat="45.65926" lon="6.24381">
        <ele>1326.7568359375</ele>
        <time>2011-12-23T12:43:57Z</time>
      </trkpt>
      <trkpt lat="45.65919" lon="6.2438">
        <ele>1338.2924804688</ele>
        <time>2011-12-23T12:44:16Z</time>
      </trkpt>
      <trkpt lat="45.65918" lon="6.24376">
        <ele>1343.5798339844</ele>
        <time>2011-12-23T12:44:22Z</time>
      </trkpt>
      <trkpt lat="45.65918" lon="6.24377">
        <ele>1342.1379394531</ele>
        <time>2011-12-23T12:44:35Z</time>
      </trkpt>
      <trkpt lat="45.65916" lon="6.24376">
        <ele>1347.4250488281</ele>
        <time>2011-12-23T12:44:43Z</time>
      </trkpt>
      <trkpt lat="45.65913" lon="6.24376">
        <ele>1347.9057617188</ele>
        <time>2011-12-23T12:44:48Z</time>
      </trkpt>
      <trkpt lat="45.65912" lon="6.24377">
        <ele>1345.5024414062</ele>
        <time>2011-12-23T12:44:52Z</time>
      </trkpt>
      <trkpt lat="45.65913" lon="6.24383">
        <ele>1335.8891601562</ele>
        <time>2011-12-23T12:44:59Z</time>
      </trkpt>
      <trkpt lat="45.65917" lon="6.2439">
        <ele>1329.1599121094</ele>
        <time>2011-12-23T12:45:05Z</time>
      </trkpt>
      <trkpt lat="45.65916" lon="6.24384">
        <ele>1321.4692382812</ele>
        <time>2011-12-23T12:45:14Z</time>
      </trkpt>
      <trkpt lat="45.6591" lon="6.24383">
        <ele>1337.3310546875</ele>
        <time>2011-12-23T12:45:31Z</time>
      </trkpt>
      <trkpt lat="45.65907" lon="6.24384">
        <ele>1334.447265625</ele>
        <time>2011-12-23T12:45:39Z</time>
      </trkpt>
      <trkpt lat="45.65906" lon="6.24383">
        <ele>1332.0439453125</ele>
        <time>2011-12-23T12:45:42Z</time>
      </trkpt>
      <trkpt lat="45.65904" lon="6.24383">
        <ele>1329.640625</ele>
        <time>2011-12-23T12:45:45Z</time>
      </trkpt>
      <trkpt lat="45.65899" lon="6.24379">
        <ele>1329.1599121094</ele>
        <time>2011-12-23T12:45:51Z</time>
      </trkpt>
      <trkpt lat="45.65897" lon="6.24378">
        <ele>1331.5632324219</ele>
        <time>2011-12-23T12:45:55Z</time>
      </trkpt>
      <trkpt lat="45.65892" lon="6.24376">
        <ele>1325.3146972656</ele>
        <time>2011-12-23T12:46:05Z</time>
      </trkpt>
      <trkpt lat="45.65886" lon="6.24372">
        <ele>1318.5854492188</ele>
        <time>2011-12-23T12:46:14Z</time>
      </trkpt>
      <trkpt lat="45.65882" lon="6.24368">
        <ele>1313.2983398438</ele>
        <time>2011-12-23T12:46:20Z</time>
      </trkpt>
      <trkpt lat="45.65876" lon="6.24369">
        <ele>1311.3757324219</ele>
        <time>2011-12-23T12:46:27Z</time>
      </trkpt>
      <trkpt lat="45.65873" lon="6.24368">
        <ele>1312.3369140625</ele>
        <time>2011-12-23T12:46:31Z</time>
      </trkpt>
      <trkpt lat="45.65867" lon="6.24367">
        <ele>1313.2983398438</ele>
        <time>2011-12-23T12:46:37Z</time>
      </trkpt>
      <trkpt lat="45.65863" lon="6.24362">
        <ele>1319.546875</ele>
        <time>2011-12-23T12:46:43Z</time>
      </trkpt>
      <trkpt lat="45.6586" lon="6.24361">
        <ele>1317.6240234375</ele>
        <time>2011-12-23T12:46:48Z</time>
      </trkpt>
      <trkpt lat="45.65858" lon="6.24361">
        <ele>1318.1047363281</ele>
        <time>2011-12-23T12:46:49Z</time>
      </trkpt>
      <trkpt lat="45.65849" lon="6.2436">
        <ele>1320.5080566406</ele>
        <time>2011-12-23T12:46:57Z</time>
      </trkpt>
      <trkpt lat="45.65846" lon="6.24364">
        <ele>1321.9499511719</ele>
        <time>2011-12-23T12:47:02Z</time>
      </trkpt>
      <trkpt lat="45.65844" lon="6.24361">
        <ele>1318.5854492188</ele>
        <time>2011-12-23T12:47:08Z</time>
      </trkpt>
      <trkpt lat="45.65835" lon="6.24359">
        <ele>1321.9499511719</ele>
        <time>2011-12-23T12:47:17Z</time>
      </trkpt>
      <trkpt lat="45.65828" lon="6.24361">
        <ele>1319.546875</ele>
        <time>2011-12-23T12:47:23Z</time>
      </trkpt>
      <trkpt lat="45.65825" lon="6.24362">
        <ele>1320.5080566406</ele>
        <time>2011-12-23T12:47:28Z</time>
      </trkpt>
      <trkpt lat="45.65821" lon="6.24364">
        <ele>1324.353515625</ele>
        <time>2011-12-23T12:47:32Z</time>
      </trkpt>
      <trkpt lat="45.65816" lon="6.24364">
        <ele>1322.9113769531</ele>
        <time>2011-12-23T12:47:36Z</time>
      </trkpt>
      <trkpt lat="45.65814" lon="6.24363">
        <ele>1323.3920898438</ele>
        <time>2011-12-23T12:47:37Z</time>
      </trkpt>
      <trkpt lat="45.65812" lon="6.24361">
        <ele>1322.9113769531</ele>
        <time>2011-12-23T12:47:41Z</time>
      </trkpt>
      <trkpt lat="45.65809" lon="6.24356">
        <ele>1321.9499511719</ele>
        <time>2011-12-23T12:47:46Z</time>
      </trkpt>
      <trkpt lat="45.65807" lon="6.24356">
        <ele>1317.1435546875</ele>
        <time>2011-12-23T12:47:52Z</time>
      </trkpt>
      <trkpt lat="45.65781" lon="6.24347">
        <ele>1324.8342285156</ele>
        <time>2011-12-23T12:48:40Z</time>
      </trkpt>
      <trkpt lat="45.65778" lon="6.24348">
        <ele>1325.3146972656</ele>
        <time>2011-12-23T12:48:45Z</time>
      </trkpt>
      <trkpt lat="45.65776" lon="6.24346">
        <ele>1325.3146972656</ele>
        <time>2011-12-23T12:48:48Z</time>
      </trkpt>
      <trkpt lat="45.6577" lon="6.24347">
        <ele>1324.353515625</ele>
        <time>2011-12-23T12:48:53Z</time>
      </trkpt>
      <trkpt lat="45.65767" lon="6.24344">
        <ele>1325.7954101562</ele>
        <time>2011-12-23T12:48:59Z</time>
      </trkpt>
      <trkpt lat="45.65762" lon="6.24344">
        <ele>1324.8342285156</ele>
        <time>2011-12-23T12:49:03Z</time>
      </trkpt>
      <trkpt lat="45.65759" lon="6.24344">
        <ele>1320.9887695312</ele>
        <time>2011-12-23T12:49:11Z</time>
      </trkpt>
      <trkpt lat="45.65758" lon="6.24342">
        <ele>1320.02734375</ele>
        <time>2011-12-23T12:49:16Z</time>
      </trkpt>
      <trkpt lat="45.65755" lon="6.2434">
        <ele>1317.6240234375</ele>
        <time>2011-12-23T12:49:22Z</time>
      </trkpt>
      <trkpt lat="45.65751" lon="6.2434">
        <ele>1311.3757324219</ele>
        <time>2011-12-23T12:49:30Z</time>
      </trkpt>
      <trkpt lat="45.65747" lon="6.24341">
        <ele>1306.5688476562</ele>
        <time>2011-12-23T12:49:37Z</time>
      </trkpt>
      <trkpt lat="45.65744" lon="6.24337">
        <ele>1308.9724121094</ele>
        <time>2011-12-23T12:49:41Z</time>
      </trkpt>
      <trkpt lat="45.65741" lon="6.24335">
        <ele>1310.4143066406</ele>
        <time>2011-12-23T12:49:46Z</time>
      </trkpt>
      <trkpt lat="45.65737" lon="6.24334">
        <ele>1312.3369140625</ele>
        <time>2011-12-23T12:49:51Z</time>
      </trkpt>
      <trkpt lat="45.65733" lon="6.24334">
        <ele>1310.8950195312</ele>
        <time>2011-12-23T12:49:56Z</time>
      </trkpt>
      <trkpt lat="45.65728" lon="6.2433">
        <ele>1309.453125</ele>
        <time>2011-12-23T12:50:04Z</time>
      </trkpt>
      <trkpt lat="45.65724" lon="6.24322">
        <ele>1311.3757324219</ele>
        <time>2011-12-23T12:50:23Z</time>
      </trkpt>
      <trkpt lat="45.65723" lon="6.24324">
        <ele>1304.1657714844</ele>
        <time>2011-12-23T12:50:27Z</time>
      </trkpt>
      <trkpt lat="45.65719" lon="6.24328">
        <ele>1296.4753417969</ele>
        <time>2011-12-23T12:50:33Z</time>
      </trkpt>
      <trkpt lat="45.65717" lon="6.24331">
        <ele>1291.6684570312</ele>
        <time>2011-12-23T12:50:38Z</time>
      </trkpt>
      <trkpt lat="45.65714" lon="6.24333">
        <ele>1289.2651367188</ele>
        <time>2011-12-23T12:50:42Z</time>
      </trkpt>
      <trkpt lat="45.65711" lon="6.24334">
        <ele>1286.3813476562</ele>
        <time>2011-12-23T12:50:47Z</time>
      </trkpt>
      <trkpt lat="45.65708" lon="6.24335">
        <ele>1283.9780273438</ele>
        <time>2011-12-23T12:50:52Z</time>
      </trkpt>
      <trkpt lat="45.65705" lon="6.24334">
        <ele>1283.0166015625</ele>
        <time>2011-12-23T12:50:57Z</time>
      </trkpt>
      <trkpt lat="45.65702" lon="6.24334">
        <ele>1282.0554199219</ele>
        <time>2011-12-23T12:51:01Z</time>
      </trkpt>
      <trkpt lat="45.65701" lon="6.24334">
        <ele>1281.5747070312</ele>
        <time>2011-12-23T12:51:08Z</time>
      </trkpt>
      <trkpt lat="45.65701" lon="6.24336">
        <ele>1283.0166015625</ele>
        <time>2011-12-23T12:51:35Z</time>
      </trkpt>
      <trkpt lat="45.65702" lon="6.24337">
        <ele>1279.6520996094</ele>
        <time>2011-12-23T12:51:49Z</time>
      </trkpt>
      <trkpt lat="45.65696" lon="6.24336">
        <ele>1281.0942382812</ele>
        <time>2011-12-23T12:51:54Z</time>
      </trkpt>
      <trkpt lat="45.65694" lon="6.24336">
        <ele>1281.0942382812</ele>
        <time>2011-12-23T12:51:58Z</time>
      </trkpt>
      <trkpt lat="45.6569" lon="6.24335">
        <ele>1283.0166015625</ele>
        <time>2011-12-23T12:52:08Z</time>
      </trkpt>
      <trkpt lat="45.65688" lon="6.24335">
        <ele>1283.0166015625</ele>
        <time>2011-12-23T12:52:16Z</time>
      </trkpt>
      <trkpt lat="45.65686" lon="6.24334">
        <ele>1285.419921875</ele>
        <time>2011-12-23T12:52:20Z</time>
      </trkpt>
      <trkpt lat="45.65681" lon="6.24331">
        <ele>1290.2265625</ele>
        <time>2011-12-23T12:52:24Z</time>
      </trkpt>
      <trkpt lat="45.65678" lon="6.24332">
        <ele>1291.1877441406</ele>
        <time>2011-12-23T12:52:29Z</time>
      </trkpt>
      <trkpt lat="45.65674" lon="6.24332">
        <ele>1290.70703125</ele>
        <time>2011-12-23T12:52:33Z</time>
      </trkpt>
      <trkpt lat="45.65672" lon="6.24334">
        <ele>1288.3039550781</ele>
        <time>2011-12-23T12:52:38Z</time>
      </trkpt>
      <trkpt lat="45.65669" lon="6.24332">
        <ele>1289.2651367188</ele>
        <time>2011-12-23T12:52:42Z</time>
      </trkpt>
      <trkpt lat="45.65664" lon="6.24332">
        <ele>1286.3813476562</ele>
        <time>2011-12-23T12:52:51Z</time>
      </trkpt>
      <trkpt lat="45.6566" lon="6.24332">
        <ele>1286.8618164062</ele>
        <time>2011-12-23T12:52:56Z</time>
      </trkpt>
      <trkpt lat="45.65656" lon="6.24332">
        <ele>1285.9006347656</ele>
        <time>2011-12-23T12:53:01Z</time>
      </trkpt>
      <trkpt lat="45.65649" lon="6.24332">
        <ele>1283.4973144531</ele>
        <time>2011-12-23T12:53:09Z</time>
      </trkpt>
      <trkpt lat="45.65649" lon="6.24331">
        <ele>1283.0166015625</ele>
        <time>2011-12-23T12:53:14Z</time>
      </trkpt>
      <trkpt lat="45.65649" lon="6.2433">
        <ele>1280.6135253906</ele>
        <time>2011-12-23T12:53:44Z</time>
      </trkpt>
      <trkpt lat="45.65649" lon="6.24331">
        <ele>1280.1328125</ele>
        <time>2011-12-23T12:53:56Z</time>
      </trkpt>
      <trkpt lat="45.65646" lon="6.24331">
        <ele>1280.1328125</ele>
        <time>2011-12-23T12:54:01Z</time>
      </trkpt>
      <trkpt lat="45.65643" lon="6.24331">
        <ele>1280.1328125</ele>
        <time>2011-12-23T12:54:04Z</time>
      </trkpt>
      <trkpt lat="45.65641" lon="6.24331">
        <ele>1280.1328125</ele>
        <time>2011-12-23T12:54:07Z</time>
      </trkpt>
      <trkpt lat="45.65638" lon="6.24331">
        <ele>1280.1328125</ele>
        <time>2011-12-23T12:54:13Z</time>
      </trkpt>
      <trkpt lat="45.65636" lon="6.24333">
        <ele>1279.6520996094</ele>
        <time>2011-12-23T12:54:24Z</time>
      </trkpt>
      <trkpt lat="45.65633" lon="6.24334">
        <ele>1279.1713867188</ele>
        <time>2011-12-23T12:54:28Z</time>
      </trkpt>
      <trkpt lat="45.6563" lon="6.24335">
        <ele>1279.6520996094</ele>
        <time>2011-12-23T12:54:32Z</time>
      </trkpt>
      <trkpt lat="45.65628" lon="6.24337">
        <ele>1278.6909179688</ele>
        <time>2011-12-23T12:54:36Z</time>
      </trkpt>
      <trkpt lat="45.65623" lon="6.24336">
        <ele>1280.1328125</ele>
        <time>2011-12-23T12:54:42Z</time>
      </trkpt>
      <trkpt lat="45.6562" lon="6.24337">
        <ele>1279.6520996094</ele>
        <time>2011-12-23T12:54:45Z</time>
      </trkpt>
      <trkpt lat="45.65617" lon="6.24341">
        <ele>1279.1713867188</ele>
        <time>2011-12-23T12:54:50Z</time>
      </trkpt>
      <trkpt lat="45.65613" lon="6.24346">
        <ele>1279.1713867188</ele>
        <time>2011-12-23T12:54:57Z</time>
      </trkpt>
      <trkpt lat="45.65611" lon="6.24348">
        <ele>1278.6909179688</ele>
        <time>2011-12-23T12:55:01Z</time>
      </trkpt>
      <trkpt lat="45.65607" lon="6.2435">
        <ele>1279.6520996094</ele>
        <time>2011-12-23T12:55:05Z</time>
      </trkpt>
      <trkpt lat="45.65605" lon="6.24352">
        <ele>1279.1713867188</ele>
        <time>2011-12-23T12:55:10Z</time>
      </trkpt>
      <trkpt lat="45.65604" lon="6.24355">
        <ele>1277.7294921875</ele>
        <time>2011-12-23T12:55:14Z</time>
      </trkpt>
      <trkpt lat="45.65602" lon="6.24358">
        <ele>1276.7683105469</ele>
        <time>2011-12-23T12:55:18Z</time>
      </trkpt>
      <trkpt lat="45.65599" lon="6.2436">
        <ele>1276.2875976562</ele>
        <time>2011-12-23T12:55:23Z</time>
      </trkpt>
      <trkpt lat="45.65598" lon="6.24359">
        <ele>1276.2875976562</ele>
        <time>2011-12-23T12:55:30Z</time>
      </trkpt>
      <trkpt lat="45.65594" lon="6.2436">
        <ele>1275.806640625</ele>
        <time>2011-12-23T12:55:34Z</time>
      </trkpt>
      <trkpt lat="45.65593" lon="6.24364">
        <ele>1274.8454589844</ele>
        <time>2011-12-23T12:55:36Z</time>
      </trkpt>
      <trkpt lat="45.65588" lon="6.24367">
        <ele>1276.2875976562</ele>
        <time>2011-12-23T12:55:42Z</time>
      </trkpt>
      <trkpt lat="45.65585" lon="6.24369">
        <ele>1277.2490234375</ele>
        <time>2011-12-23T12:55:45Z</time>
      </trkpt>
      <trkpt lat="45.65582" lon="6.24367">
        <ele>1274.8454589844</ele>
        <time>2011-12-23T12:56:02Z</time>
      </trkpt>
      <trkpt lat="45.65579" lon="6.24372">
        <ele>1272.4421386719</ele>
        <time>2011-12-23T12:56:08Z</time>
      </trkpt>
      <trkpt lat="45.65575" lon="6.24375">
        <ele>1272.9228515625</ele>
        <time>2011-12-23T12:56:13Z</time>
      </trkpt>
      <trkpt lat="45.65571" lon="6.2438">
        <ele>1271.9614257812</ele>
        <time>2011-12-23T12:56:19Z</time>
      </trkpt>
      <trkpt lat="45.65569" lon="6.24379">
        <ele>1272.9228515625</ele>
        <time>2011-12-23T12:56:25Z</time>
      </trkpt>
      <trkpt lat="45.65565" lon="6.24379">
        <ele>1275.3259277344</ele>
        <time>2011-12-23T12:56:39Z</time>
      </trkpt>
      <trkpt lat="45.65562" lon="6.2438">
        <ele>1275.3259277344</ele>
        <time>2011-12-23T12:56:43Z</time>
      </trkpt>
      <trkpt lat="45.65561" lon="6.24378">
        <ele>1275.806640625</ele>
        <time>2011-12-23T12:56:53Z</time>
      </trkpt>
      <trkpt lat="45.65562" lon="6.24377">
        <ele>1275.806640625</ele>
        <time>2011-12-23T12:57:00Z</time>
      </trkpt>
      <trkpt lat="45.6556" lon="6.24377">
        <ele>1277.7294921875</ele>
        <time>2011-12-23T12:57:40Z</time>
      </trkpt>
      <trkpt lat="45.65557" lon="6.24382">
        <ele>1275.806640625</ele>
        <time>2011-12-23T12:57:45Z</time>
      </trkpt>
      <trkpt lat="45.65556" lon="6.24385">
        <ele>1273.8840332031</ele>
        <time>2011-12-23T12:57:49Z</time>
      </trkpt>
      <trkpt lat="45.65559" lon="6.24387">
        <ele>1270.0388183594</ele>
        <time>2011-12-23T12:57:57Z</time>
      </trkpt>
      <trkpt lat="45.65557" lon="6.24386">
        <ele>1272.4421386719</ele>
        <time>2011-12-23T12:58:09Z</time>
      </trkpt>
      <trkpt lat="45.65557" lon="6.24387">
        <ele>1276.7683105469</ele>
        <time>2011-12-23T12:58:37Z</time>
      </trkpt>
      <trkpt lat="45.65559" lon="6.24386">
        <ele>1272.9228515625</ele>
        <time>2011-12-23T12:58:53Z</time>
      </trkpt>
      <trkpt lat="45.65557" lon="6.24386">
        <ele>1271.9614257812</ele>
        <time>2011-12-23T12:58:58Z</time>
      </trkpt>
      <trkpt lat="45.65557" lon="6.24387">
        <ele>1267.6354980469</ele>
        <time>2011-12-23T12:59:03Z</time>
      </trkpt>
      <trkpt lat="45.65551" lon="6.24385">
        <ele>1278.2102050781</ele>
        <time>2011-12-23T12:59:10Z</time>
      </trkpt>
      <trkpt lat="45.65551" lon="6.24389">
        <ele>1271.9614257812</ele>
        <time>2011-12-23T12:59:15Z</time>
      </trkpt>
      <trkpt lat="45.65547" lon="6.24392">
        <ele>1268.5969238281</ele>
        <time>2011-12-23T12:59:22Z</time>
      </trkpt>
      <trkpt lat="45.65546" lon="6.24393">
        <ele>1266.6743164062</ele>
        <time>2011-12-23T12:59:27Z</time>
      </trkpt>
      <trkpt lat="45.65545" lon="6.24393">
        <ele>1266.6743164062</ele>
        <time>2011-12-23T12:59:30Z</time>
      </trkpt>
      <trkpt lat="45.65543" lon="6.24394">
        <ele>1266.1936035156</ele>
        <time>2011-12-23T12:59:35Z</time>
      </trkpt>
      <trkpt lat="45.65541" lon="6.24394">
        <ele>1266.6743164062</ele>
        <time>2011-12-23T12:59:39Z</time>
      </trkpt>
      <trkpt lat="45.65538" lon="6.24393">
        <ele>1265.7131347656</ele>
        <time>2011-12-23T12:59:44Z</time>
      </trkpt>
      <trkpt lat="45.65535" lon="6.24388">
        <ele>1274.8454589844</ele>
        <time>2011-12-23T12:59:58Z</time>
      </trkpt>
      <trkpt lat="45.65522" lon="6.24385">
        <ele>1304.1657714844</ele>
        <time>2011-12-23T13:00:19Z</time>
      </trkpt>
      <trkpt lat="45.65526" lon="6.24394">
        <ele>1301.7624511719</ele>
        <time>2011-12-23T13:00:23Z</time>
      </trkpt>
      <trkpt lat="45.65533" lon="6.24401">
        <ele>1276.2875976562</ele>
        <time>2011-12-23T13:00:37Z</time>
      </trkpt>
      <trkpt lat="45.65535" lon="6.24401">
        <ele>1271.0002441406</ele>
        <time>2011-12-23T13:00:40Z</time>
      </trkpt>
      <trkpt lat="45.65532" lon="6.24397">
        <ele>1271.0002441406</ele>
        <time>2011-12-23T13:00:52Z</time>
      </trkpt>
      <trkpt lat="45.65537" lon="6.24392">
        <ele>1259.4643554688</ele>
        <time>2011-12-23T13:01:19Z</time>
      </trkpt>
      <trkpt lat="45.65533" lon="6.24392">
        <ele>1258.5029296875</ele>
        <time>2011-12-23T13:01:25Z</time>
      </trkpt>
      <trkpt lat="45.6553" lon="6.24392">
        <ele>1257.5417480469</ele>
        <time>2011-12-23T13:01:30Z</time>
      </trkpt>
      <trkpt lat="45.65527" lon="6.24393">
        <ele>1257.5417480469</ele>
        <time>2011-12-23T13:01:35Z</time>
      </trkpt>
      <trkpt lat="45.65521" lon="6.24393">
        <ele>1258.9836425781</ele>
        <time>2011-12-23T13:01:42Z</time>
      </trkpt>
      <trkpt lat="45.65517" lon="6.24392">
        <ele>1260.42578125</ele>
        <time>2011-12-23T13:01:46Z</time>
      </trkpt>
      <trkpt lat="45.65513" lon="6.24391">
        <ele>1260.9064941406</ele>
        <time>2011-12-23T13:01:51Z</time>
      </trkpt>
      <trkpt lat="45.65509" lon="6.24391">
        <ele>1262.3483886719</ele>
        <time>2011-12-23T13:01:56Z</time>
      </trkpt>
      <trkpt lat="45.65504" lon="6.24394">
        <ele>1261.8679199219</ele>
        <time>2011-12-23T13:02:02Z</time>
      </trkpt>
      <trkpt lat="45.65502" lon="6.24395">
        <ele>1260.42578125</ele>
        <time>2011-12-23T13:02:05Z</time>
      </trkpt>
      <trkpt lat="45.65497" lon="6.24394">
        <ele>1260.42578125</ele>
        <time>2011-12-23T13:02:09Z</time>
      </trkpt>
      <trkpt lat="45.6549" lon="6.24393">
        <ele>1258.0224609375</ele>
        <time>2011-12-23T13:02:15Z</time>
      </trkpt>
      <trkpt lat="45.65488" lon="6.24396">
        <ele>1253.2158203125</ele>
        <time>2011-12-23T13:02:20Z</time>
      </trkpt>
      <trkpt lat="45.65485" lon="6.24395">
        <ele>1251.7739257812</ele>
        <time>2011-12-23T13:02:24Z</time>
      </trkpt>
      <trkpt lat="45.6548" lon="6.24394">
        <ele>1249.8513183594</ele>
        <time>2011-12-23T13:02:30Z</time>
      </trkpt>
      <trkpt lat="45.65476" lon="6.24393">
        <ele>1249.3706054688</ele>
        <time>2011-12-23T13:02:34Z</time>
      </trkpt>
      <trkpt lat="45.65474" lon="6.24392">
        <ele>1250.8125</ele>
        <time>2011-12-23T13:02:35Z</time>
      </trkpt>
      <trkpt lat="45.65466" lon="6.24387">
        <ele>1254.6577148438</ele>
        <time>2011-12-23T13:02:41Z</time>
      </trkpt>
      <trkpt lat="45.65459" lon="6.24388">
        <ele>1257.0610351562</ele>
        <time>2011-12-23T13:02:46Z</time>
      </trkpt>
      <trkpt lat="45.65453" lon="6.24386">
        <ele>1261.3872070312</ele>
        <time>2011-12-23T13:02:50Z</time>
      </trkpt>
      <trkpt lat="45.65446" lon="6.24385">
        <ele>1258.5029296875</ele>
        <time>2011-12-23T13:02:57Z</time>
      </trkpt>
      <trkpt lat="45.65443" lon="6.24386">
        <ele>1256.5803222656</ele>
        <time>2011-12-23T13:03:02Z</time>
      </trkpt>
      <trkpt lat="45.65443" lon="6.24386">
        <ele>1255.1384277344</ele>
        <time>2011-12-23T13:03:08Z</time>
      </trkpt>
      <trkpt lat="45.65443" lon="6.24387">
        <ele>1255.1384277344</ele>
        <time>2011-12-23T13:03:11Z</time>
      </trkpt>
      <trkpt lat="45.65443" lon="6.24387">
        <ele>1255.1384277344</ele>
        <time>2011-12-23T13:03:19Z</time>
      </trkpt>
      <trkpt lat="45.65446" lon="6.24388">
        <ele>1248.8898925781</ele>
        <time>2011-12-23T13:03:33Z</time>
      </trkpt>
      <trkpt lat="45.65446" lon="6.24388">
        <ele>1247.9287109375</ele>
        <time>2011-12-23T13:03:39Z</time>
      </trkpt>
      <trkpt lat="45.65448" lon="6.24388">
        <ele>1244.0834960938</ele>
        <time>2011-12-23T13:03:57Z</time>
      </trkpt>
      <trkpt lat="45.65446" lon="6.24384">
        <ele>1244.5639648438</ele>
        <time>2011-12-23T13:04:56Z</time>
      </trkpt>
      <trkpt lat="45.65444" lon="6.24382">
        <ele>1247.4479980469</ele>
        <time>2011-12-23T13:05:03Z</time>
      </trkpt>
      <trkpt lat="45.65438" lon="6.24383">
        <ele>1256.099609375</ele>
        <time>2011-12-23T13:06:02Z</time>
      </trkpt>
      <trkpt lat="45.65435" lon="6.24384">
        <ele>1255.1384277344</ele>
        <time>2011-12-23T13:06:06Z</time>
      </trkpt>
      <trkpt lat="45.65435" lon="6.24384">
        <ele>1254.6577148438</ele>
        <time>2011-12-23T13:06:07Z</time>
      </trkpt>
      <trkpt lat="45.65431" lon="6.24384">
        <ele>1253.2158203125</ele>
        <time>2011-12-23T13:06:12Z</time>
      </trkpt>
      <trkpt lat="45.65426" lon="6.24384">
        <ele>1252.7351074219</ele>
        <time>2011-12-23T13:06:18Z</time>
      </trkpt>
      <trkpt lat="45.65423" lon="6.24384">
        <ele>1251.7739257812</ele>
        <time>2011-12-23T13:06:23Z</time>
      </trkpt>
      <trkpt lat="45.6542" lon="6.24384">
        <ele>1251.2932128906</ele>
        <time>2011-12-23T13:06:27Z</time>
      </trkpt>
      <trkpt lat="45.65417" lon="6.24383">
        <ele>1250.33203125</ele>
        <time>2011-12-23T13:06:31Z</time>
      </trkpt>
      <trkpt lat="45.65414" lon="6.24381">
        <ele>1250.8125</ele>
        <time>2011-12-23T13:06:35Z</time>
      </trkpt>
      <trkpt lat="45.65411" lon="6.24378">
        <ele>1253.2158203125</ele>
        <time>2011-12-23T13:06:40Z</time>
      </trkpt>
      <trkpt lat="45.65408" lon="6.24377">
        <ele>1254.1772460938</ele>
        <time>2011-12-23T13:06:44Z</time>
      </trkpt>
      <trkpt lat="45.65405" lon="6.24376">
        <ele>1256.5803222656</ele>
        <time>2011-12-23T13:06:49Z</time>
      </trkpt>
      <trkpt lat="45.65404" lon="6.24377">
        <ele>1256.099609375</ele>
        <time>2011-12-23T13:06:52Z</time>
      </trkpt>
      <trkpt lat="45.65401" lon="6.24378">
        <ele>1256.5803222656</ele>
        <time>2011-12-23T13:06:56Z</time>
      </trkpt>
      <trkpt lat="45.65397" lon="6.24374">
        <ele>1264.2709960938</ele>
        <time>2011-12-23T13:07:03Z</time>
      </trkpt>
      <trkpt lat="45.65391" lon="6.24373">
        <ele>1260.9064941406</ele>
        <time>2011-12-23T13:07:11Z</time>
      </trkpt>
      <trkpt lat="45.65387" lon="6.24371">
        <ele>1263.7902832031</ele>
        <time>2011-12-23T13:07:15Z</time>
      </trkpt>
      <trkpt lat="45.65384" lon="6.24369">
        <ele>1265.7131347656</ele>
        <time>2011-12-23T13:07:19Z</time>
      </trkpt>
      <trkpt lat="45.65381" lon="6.24368">
        <ele>1265.232421875</ele>
        <time>2011-12-23T13:07:25Z</time>
      </trkpt>
      <trkpt lat="45.65373" lon="6.24366">
        <ele>1268.5969238281</ele>
        <time>2011-12-23T13:07:35Z</time>
      </trkpt>
      <trkpt lat="45.65368" lon="6.24364">
        <ele>1273.4035644531</ele>
        <time>2011-12-23T13:07:40Z</time>
      </trkpt>
      <trkpt lat="45.65367" lon="6.24365">
        <ele>1271.0002441406</ele>
        <time>2011-12-23T13:07:44Z</time>
      </trkpt>
      <trkpt lat="45.65366" lon="6.24366">
        <ele>1265.7131347656</ele>
        <time>2011-12-23T13:07:49Z</time>
      </trkpt>
      <trkpt lat="45.65361" lon="6.24368">
        <ele>1258.0224609375</ele>
        <time>2011-12-23T13:07:54Z</time>
      </trkpt>
      <trkpt lat="45.65358" lon="6.24366">
        <ele>1257.0610351562</ele>
        <time>2011-12-23T13:07:57Z</time>
      </trkpt>
      <trkpt lat="45.65356" lon="6.24366">
        <ele>1256.5803222656</ele>
        <time>2011-12-23T13:08:00Z</time>
      </trkpt>
      <trkpt lat="45.65356" lon="6.24368">
        <ele>1248.8898925781</ele>
        <time>2011-12-23T13:08:04Z</time>
      </trkpt>
      <trkpt lat="45.65353" lon="6.24366">
        <ele>1248.4091796875</ele>
        <time>2011-12-23T13:08:08Z</time>
      </trkpt>
      <trkpt lat="45.65342" lon="6.24365">
        <ele>1243.6025390625</ele>
        <time>2011-12-23T13:08:21Z</time>
      </trkpt>
      <trkpt lat="45.6534" lon="6.24371">
        <ele>1238.3154296875</ele>
        <time>2011-12-23T13:08:26Z</time>
      </trkpt>
      <trkpt lat="45.65338" lon="6.24371">
        <ele>1234.9509277344</ele>
        <time>2011-12-23T13:08:30Z</time>
      </trkpt>
      <trkpt lat="45.65335" lon="6.24371">
        <ele>1233.0280761719</ele>
        <time>2011-12-23T13:08:34Z</time>
      </trkpt>
      <trkpt lat="45.6533" lon="6.24372">
        <ele>1231.5861816406</ele>
        <time>2011-12-23T13:08:40Z</time>
      </trkpt>
      <trkpt lat="45.65321" lon="6.24372">
        <ele>1229.6635742188</ele>
        <time>2011-12-23T13:08:49Z</time>
      </trkpt>
      <trkpt lat="45.65314" lon="6.24372">
        <ele>1231.5861816406</ele>
        <time>2011-12-23T13:08:55Z</time>
      </trkpt>
      <trkpt lat="45.65308" lon="6.24373">
        <ele>1230.625</ele>
        <time>2011-12-23T13:09:01Z</time>
      </trkpt>
      <trkpt lat="45.65303" lon="6.24373">
        <ele>1228.2216796875</ele>
        <time>2011-12-23T13:09:07Z</time>
      </trkpt>
      <trkpt lat="45.65297" lon="6.24373">
        <ele>1226.298828125</ele>
        <time>2011-12-23T13:09:13Z</time>
      </trkpt>
      <trkpt lat="45.65293" lon="6.24373">
        <ele>1225.3374023438</ele>
        <time>2011-12-23T13:09:17Z</time>
      </trkpt>
      <trkpt lat="45.65288" lon="6.24372">
        <ele>1226.298828125</ele>
        <time>2011-12-23T13:09:21Z</time>
      </trkpt>
      <trkpt lat="45.65282" lon="6.2437">
        <ele>1226.7795410156</ele>
        <time>2011-12-23T13:09:26Z</time>
      </trkpt>
      <trkpt lat="45.6528" lon="6.24371">
        <ele>1227.7407226562</ele>
        <time>2011-12-23T13:09:28Z</time>
      </trkpt>
      <trkpt lat="45.65277" lon="6.24373">
        <ele>1226.298828125</ele>
        <time>2011-12-23T13:09:32Z</time>
      </trkpt>
      <trkpt lat="45.65277" lon="6.2438">
        <ele>1224.8569335938</ele>
        <time>2011-12-23T13:09:36Z</time>
      </trkpt>
      <trkpt lat="45.65273" lon="6.24382">
        <ele>1226.298828125</ele>
        <time>2011-12-23T13:09:41Z</time>
      </trkpt>
      <trkpt lat="45.6527" lon="6.24389">
        <ele>1225.8181152344</ele>
        <time>2011-12-23T13:09:47Z</time>
      </trkpt>
      <trkpt lat="45.65269" lon="6.24395">
        <ele>1223.4150390625</ele>
        <time>2011-12-23T13:09:51Z</time>
      </trkpt>
      <trkpt lat="45.65268" lon="6.24399">
        <ele>1221.4921875</ele>
        <time>2011-12-23T13:09:53Z</time>
      </trkpt>
      <trkpt lat="45.65265" lon="6.24403">
        <ele>1221.4921875</ele>
        <time>2011-12-23T13:09:57Z</time>
      </trkpt>
      <trkpt lat="45.65261" lon="6.24407">
        <ele>1221.4921875</ele>
        <time>2011-12-23T13:10:03Z</time>
      </trkpt>
      <trkpt lat="45.65252" lon="6.24401">
        <ele>1236.8732910156</ele>
        <time>2011-12-23T13:10:10Z</time>
      </trkpt>
      <trkpt lat="45.65252" lon="6.24403">
        <ele>1236.3928222656</ele>
        <time>2011-12-23T13:10:15Z</time>
      </trkpt>
      <trkpt lat="45.65253" lon="6.24406">
        <ele>1235.912109375</ele>
        <time>2011-12-23T13:10:17Z</time>
      </trkpt>
      <trkpt lat="45.6525" lon="6.24413">
        <ele>1235.4313964844</ele>
        <time>2011-12-23T13:10:22Z</time>
      </trkpt>
      <trkpt lat="45.65248" lon="6.2442">
        <ele>1237.8347167969</ele>
        <time>2011-12-23T13:10:29Z</time>
      </trkpt>
      <trkpt lat="45.65245" lon="6.24426">
        <ele>1240.2380371094</ele>
        <time>2011-12-23T13:10:35Z</time>
      </trkpt>
      <trkpt lat="45.65243" lon="6.24431">
        <ele>1240.7185058594</ele>
        <time>2011-12-23T13:10:39Z</time>
      </trkpt>
      <trkpt lat="45.65245" lon="6.24438">
        <ele>1236.3928222656</ele>
        <time>2011-12-23T13:10:44Z</time>
      </trkpt>
      <trkpt lat="45.65245" lon="6.24441">
        <ele>1235.4313964844</ele>
        <time>2011-12-23T13:10:46Z</time>
      </trkpt>
      <trkpt lat="45.65242" lon="6.24441">
        <ele>1234.9509277344</ele>
        <time>2011-12-23T13:10:50Z</time>
      </trkpt>
      <trkpt lat="45.65245" lon="6.24449">
        <ele>1231.5861816406</ele>
        <time>2011-12-23T13:10:55Z</time>
      </trkpt>
      <trkpt lat="45.65245" lon="6.24451">
        <ele>1231.1057128906</ele>
        <time>2011-12-23T13:10:56Z</time>
      </trkpt>
      <trkpt lat="45.65247" lon="6.24457">
        <ele>1230.625</ele>
        <time>2011-12-23T13:11:01Z</time>
      </trkpt>
      <trkpt lat="45.6525" lon="6.24461">
        <ele>1230.625</ele>
        <time>2011-12-23T13:11:05Z</time>
      </trkpt>
      <trkpt lat="45.65252" lon="6.24467">
        <ele>1229.6635742188</ele>
        <time>2011-12-23T13:11:09Z</time>
      </trkpt>
      <trkpt lat="45.65254" lon="6.24473">
        <ele>1226.298828125</ele>
        <time>2011-12-23T13:11:14Z</time>
      </trkpt>
      <trkpt lat="45.65255" lon="6.24479">
        <ele>1224.3762207031</ele>
        <time>2011-12-23T13:11:18Z</time>
      </trkpt>
      <trkpt lat="45.65255" lon="6.24483">
        <ele>1223.4150390625</ele>
        <time>2011-12-23T13:11:23Z</time>
      </trkpt>
      <trkpt lat="45.65255" lon="6.24488">
        <ele>1221.9729003906</ele>
        <time>2011-12-23T13:11:27Z</time>
      </trkpt>
      <trkpt lat="45.65255" lon="6.24495">
        <ele>1221.01171875</ele>
        <time>2011-12-23T13:11:31Z</time>
      </trkpt>
      <trkpt lat="45.65255" lon="6.24496">
        <ele>1220.0502929688</ele>
        <time>2011-12-23T13:11:32Z</time>
      </trkpt>
      <trkpt lat="45.65255" lon="6.24499">
        <ele>1220.5310058594</ele>
        <time>2011-12-23T13:11:35Z</time>
      </trkpt>
      <trkpt lat="45.65258" lon="6.24503">
        <ele>1218.6083984375</ele>
        <time>2011-12-23T13:11:38Z</time>
      </trkpt>
      <trkpt lat="45.65259" lon="6.24507">
        <ele>1217.6469726562</ele>
        <time>2011-12-23T13:11:42Z</time>
      </trkpt>
      <trkpt lat="45.65261" lon="6.2451">
        <ele>1217.6469726562</ele>
        <time>2011-12-23T13:11:45Z</time>
      </trkpt>
      <trkpt lat="45.65265" lon="6.2452">
        <ele>1217.6469726562</ele>
        <time>2011-12-23T13:11:51Z</time>
      </trkpt>
      <trkpt lat="45.65266" lon="6.24525">
        <ele>1217.6469726562</ele>
        <time>2011-12-23T13:11:55Z</time>
      </trkpt>
      <trkpt lat="45.65265" lon="6.24528">
        <ele>1219.0891113281</ele>
        <time>2011-12-23T13:11:57Z</time>
      </trkpt>
      <trkpt lat="45.65266" lon="6.24537">
        <ele>1219.0891113281</ele>
        <time>2011-12-23T13:12:04Z</time>
      </trkpt>
      <trkpt lat="45.65266" lon="6.24543">
        <ele>1219.5698242188</ele>
        <time>2011-12-23T13:12:09Z</time>
      </trkpt>
      <trkpt lat="45.65264" lon="6.24544">
        <ele>1222.4536132812</ele>
        <time>2011-12-23T13:12:14Z</time>
      </trkpt>
      <trkpt lat="45.65264" lon="6.24549">
        <ele>1225.8181152344</ele>
        <time>2011-12-23T13:12:21Z</time>
      </trkpt>
      <trkpt lat="45.65265" lon="6.24555">
        <ele>1224.3762207031</ele>
        <time>2011-12-23T13:12:25Z</time>
      </trkpt>
      <trkpt lat="45.65265" lon="6.24559">
        <ele>1221.9729003906</ele>
        <time>2011-12-23T13:12:28Z</time>
      </trkpt>
      <trkpt lat="45.65265" lon="6.24564">
        <ele>1223.8955078125</ele>
        <time>2011-12-23T13:12:32Z</time>
      </trkpt>
      <trkpt lat="45.65268" lon="6.2457">
        <ele>1221.9729003906</ele>
        <time>2011-12-23T13:12:37Z</time>
      </trkpt>
      <trkpt lat="45.6527" lon="6.24572">
        <ele>1222.4536132812</ele>
        <time>2011-12-23T13:12:41Z</time>
      </trkpt>
      <trkpt lat="45.65267" lon="6.24576">
        <ele>1228.7023925781</ele>
        <time>2011-12-23T13:12:45Z</time>
      </trkpt>
      <trkpt lat="45.65264" lon="6.24581">
        <ele>1236.3928222656</ele>
        <time>2011-12-23T13:12:52Z</time>
      </trkpt>
      <trkpt lat="45.65265" lon="6.24586">
        <ele>1236.3928222656</ele>
        <time>2011-12-23T13:12:56Z</time>
      </trkpt>
      <trkpt lat="45.65263" lon="6.24589">
        <ele>1236.8732910156</ele>
        <time>2011-12-23T13:13:00Z</time>
      </trkpt>
      <trkpt lat="45.65268" lon="6.24598">
        <ele>1228.7023925781</ele>
        <time>2011-12-23T13:13:03Z</time>
      </trkpt>
      <trkpt lat="45.65273" lon="6.24614">
        <ele>1215.724609375</ele>
        <time>2011-12-23T13:13:09Z</time>
      </trkpt>
      <trkpt lat="45.65272" lon="6.2462">
        <ele>1211.8791503906</ele>
        <time>2011-12-23T13:13:13Z</time>
      </trkpt>
      <trkpt lat="45.65271" lon="6.24625">
        <ele>1208.5144042969</ele>
        <time>2011-12-23T13:13:18Z</time>
      </trkpt>
      <trkpt lat="45.65271" lon="6.24626">
        <ele>1208.5144042969</ele>
        <time>2011-12-23T13:13:19Z</time>
      </trkpt>
      <trkpt lat="45.65274" lon="6.24633">
        <ele>1206.1110839844</ele>
        <time>2011-12-23T13:13:24Z</time>
      </trkpt>
      <trkpt lat="45.65274" lon="6.24637">
        <ele>1204.6691894531</ele>
        <time>2011-12-23T13:13:30Z</time>
      </trkpt>
      <trkpt lat="45.65273" lon="6.24641">
        <ele>1205.1499023438</ele>
        <time>2011-12-23T13:13:35Z</time>
      </trkpt>
      <trkpt lat="45.65272" lon="6.24645">
        <ele>1206.591796875</ele>
        <time>2011-12-23T13:13:40Z</time>
      </trkpt>
      <trkpt lat="45.65271" lon="6.24653">
        <ele>1205.1499023438</ele>
        <time>2011-12-23T13:13:46Z</time>
      </trkpt>
      <trkpt lat="45.65272" lon="6.2466">
        <ele>1204.1887207031</ele>
        <time>2011-12-23T13:13:51Z</time>
      </trkpt>
      <trkpt lat="45.65273" lon="6.24665">
        <ele>1202.2658691406</ele>
        <time>2011-12-23T13:13:54Z</time>
      </trkpt>
      <trkpt lat="45.65273" lon="6.24668">
        <ele>1201.7854003906</ele>
        <time>2011-12-23T13:13:57Z</time>
      </trkpt>
      <trkpt lat="45.65273" lon="6.24669">
        <ele>1203.2272949219</ele>
        <time>2011-12-23T13:13:59Z</time>
      </trkpt>
      <trkpt lat="45.65273" lon="6.24675">
        <ele>1202.7465820312</ele>
        <time>2011-12-23T13:14:04Z</time>
      </trkpt>
      <trkpt lat="45.65271" lon="6.2468">
        <ele>1202.7465820312</ele>
        <time>2011-12-23T13:14:09Z</time>
      </trkpt>
      <trkpt lat="45.65271" lon="6.24686">
        <ele>1202.2658691406</ele>
        <time>2011-12-23T13:14:14Z</time>
      </trkpt>
      <trkpt lat="45.65272" lon="6.24691">
        <ele>1197.9401855469</ele>
        <time>2011-12-23T13:14:19Z</time>
      </trkpt>
      <trkpt lat="45.65273" lon="6.24697">
        <ele>1194.5751953125</ele>
        <time>2011-12-23T13:14:24Z</time>
      </trkpt>
      <trkpt lat="45.65273" lon="6.24704">
        <ele>1192.6528320312</ele>
        <time>2011-12-23T13:14:29Z</time>
      </trkpt>
      <trkpt lat="45.6527" lon="6.24711">
        <ele>1198.4206542969</ele>
        <time>2011-12-23T13:14:34Z</time>
      </trkpt>
      <trkpt lat="45.6527" lon="6.24716">
        <ele>1199.8627929688</ele>
        <time>2011-12-23T13:14:40Z</time>
      </trkpt>
      <trkpt lat="45.65269" lon="6.24723">
        <ele>1198.4206542969</ele>
        <time>2011-12-23T13:14:44Z</time>
      </trkpt>
      <trkpt lat="45.6527" lon="6.24727">
        <ele>1196.4982910156</ele>
        <time>2011-12-23T13:14:46Z</time>
      </trkpt>
      <trkpt lat="45.65271" lon="6.24738">
        <ele>1192.6528320312</ele>
        <time>2011-12-23T13:14:53Z</time>
      </trkpt>
      <trkpt lat="45.65269" lon="6.24742">
        <ele>1194.0947265625</ele>
        <time>2011-12-23T13:14:59Z</time>
      </trkpt>
      <trkpt lat="45.65268" lon="6.2475">
        <ele>1195.5366210938</ele>
        <time>2011-12-23T13:15:05Z</time>
      </trkpt>
      <trkpt lat="45.65268" lon="6.24754">
        <ele>1196.9787597656</ele>
        <time>2011-12-23T13:15:09Z</time>
      </trkpt>
      <trkpt lat="45.65268" lon="6.24757">
        <ele>1198.4206542969</ele>
        <time>2011-12-23T13:15:12Z</time>
      </trkpt>
      <trkpt lat="45.6527" lon="6.24763">
        <ele>1197.9401855469</ele>
        <time>2011-12-23T13:15:16Z</time>
      </trkpt>
      <trkpt lat="45.65271" lon="6.24766">
        <ele>1198.9013671875</ele>
        <time>2011-12-23T13:15:19Z</time>
      </trkpt>
      <trkpt lat="45.65273" lon="6.2477">
        <ele>1202.7465820312</ele>
        <time>2011-12-23T13:15:23Z</time>
      </trkpt>
      <trkpt lat="45.65276" lon="6.24776">
        <ele>1199.8627929688</ele>
        <time>2011-12-23T13:15:28Z</time>
      </trkpt>
      <trkpt lat="45.65276" lon="6.24781">
        <ele>1198.9013671875</ele>
        <time>2011-12-23T13:15:32Z</time>
      </trkpt>
      <trkpt lat="45.65277" lon="6.24787">
        <ele>1198.4206542969</ele>
        <time>2011-12-23T13:15:37Z</time>
      </trkpt>
      <trkpt lat="45.65279" lon="6.24792">
        <ele>1199.3820800781</ele>
        <time>2011-12-23T13:15:41Z</time>
      </trkpt>
      <trkpt lat="45.6528" lon="6.24795">
        <ele>1198.4206542969</ele>
        <time>2011-12-23T13:15:43Z</time>
      </trkpt>
      <trkpt lat="45.65281" lon="6.248">
        <ele>1196.9787597656</ele>
        <time>2011-12-23T13:15:46Z</time>
      </trkpt>
      <trkpt lat="45.65283" lon="6.24806">
        <ele>1193.6140136719</ele>
        <time>2011-12-23T13:15:50Z</time>
      </trkpt>
      <trkpt lat="45.65284" lon="6.2481">
        <ele>1197.9401855469</ele>
        <time>2011-12-23T13:15:55Z</time>
      </trkpt>
      <trkpt lat="45.65285" lon="6.24814">
        <ele>1199.8627929688</ele>
        <time>2011-12-23T13:15:59Z</time>
      </trkpt>
      <trkpt lat="45.65286" lon="6.24817">
        <ele>1207.5532226562</ele>
        <time>2011-12-23T13:16:03Z</time>
      </trkpt>
      <trkpt lat="45.65286" lon="6.24821">
        <ele>1212.8405761719</ele>
        <time>2011-12-23T13:16:07Z</time>
      </trkpt>
      <trkpt lat="45.65286" lon="6.24829">
        <ele>1211.3984375</ele>
        <time>2011-12-23T13:16:12Z</time>
      </trkpt>
      <trkpt lat="45.65285" lon="6.24832">
        <ele>1210.9177246094</ele>
        <time>2011-12-23T13:16:15Z</time>
      </trkpt>
      <trkpt lat="45.65284" lon="6.24839">
        <ele>1211.8791503906</ele>
        <time>2011-12-23T13:16:20Z</time>
      </trkpt>
      <trkpt lat="45.65284" lon="6.24841">
        <ele>1214.7631835938</ele>
        <time>2011-12-23T13:16:22Z</time>
      </trkpt>
      <trkpt lat="45.65284" lon="6.2485">
        <ele>1217.1665039062</ele>
        <time>2011-12-23T13:16:28Z</time>
      </trkpt>
      <trkpt lat="45.65284" lon="6.24855">
        <ele>1216.6857910156</ele>
        <time>2011-12-23T13:16:32Z</time>
      </trkpt>
      <trkpt lat="45.65291" lon="6.24866">
        <ele>1198.4206542969</ele>
        <time>2011-12-23T13:16:37Z</time>
      </trkpt>
      <trkpt lat="45.6529" lon="6.24872">
        <ele>1198.4206542969</ele>
        <time>2011-12-23T13:16:41Z</time>
      </trkpt>
      <trkpt lat="45.6529" lon="6.24874">
        <ele>1196.017578125</ele>
        <time>2011-12-23T13:16:42Z</time>
      </trkpt>
      <trkpt lat="45.65289" lon="6.24882">
        <ele>1189.7687988281</ele>
        <time>2011-12-23T13:16:47Z</time>
      </trkpt>
      <trkpt lat="45.65289" lon="6.24884">
        <ele>1188.8076171875</ele>
        <time>2011-12-23T13:16:48Z</time>
      </trkpt>
      <trkpt lat="45.65289" lon="6.24893">
        <ele>1185.9235839844</ele>
        <time>2011-12-23T13:16:53Z</time>
      </trkpt>
      <trkpt lat="45.65289" lon="6.249">
        <ele>1183.0395507812</ele>
        <time>2011-12-23T13:16:58Z</time>
      </trkpt>
      <trkpt lat="45.6529" lon="6.24904">
        <ele>1182.5590820312</ele>
        <time>2011-12-23T13:17:01Z</time>
      </trkpt>
      <trkpt lat="45.65291" lon="6.2491">
        <ele>1184.4816894531</ele>
        <time>2011-12-23T13:17:06Z</time>
      </trkpt>
      <trkpt lat="45.6529" lon="6.24912">
        <ele>1185.9235839844</ele>
        <time>2011-12-23T13:17:09Z</time>
      </trkpt>
      <trkpt lat="45.65289" lon="6.24913">
        <ele>1187.3654785156</ele>
        <time>2011-12-23T13:17:10Z</time>
      </trkpt>
      <trkpt lat="45.65284" lon="6.24914">
        <ele>1188.3269042969</ele>
        <time>2011-12-23T13:17:15Z</time>
      </trkpt>
      <trkpt lat="45.65279" lon="6.24914">
        <ele>1187.8461914062</ele>
        <time>2011-12-23T13:17:19Z</time>
      </trkpt>
      <trkpt lat="45.65277" lon="6.2491">
        <ele>1189.7687988281</ele>
        <time>2011-12-23T13:17:22Z</time>
      </trkpt>
      <trkpt lat="45.65276" lon="6.24907">
        <ele>1191.2106933594</ele>
        <time>2011-12-23T13:17:24Z</time>
      </trkpt>
      <trkpt lat="45.65274" lon="6.24905">
        <ele>1193.6140136719</ele>
        <time>2011-12-23T13:17:26Z</time>
      </trkpt>
      <trkpt lat="45.65273" lon="6.24896">
        <ele>1199.8627929688</ele>
        <time>2011-12-23T13:17:31Z</time>
      </trkpt>
      <trkpt lat="45.65272" lon="6.2489">
        <ele>1200.3435058594</ele>
        <time>2011-12-23T13:17:36Z</time>
      </trkpt>
      <trkpt lat="45.65273" lon="6.24885">
        <ele>1201.3046875</ele>
        <time>2011-12-23T13:17:40Z</time>
      </trkpt>
      <trkpt lat="45.65272" lon="6.24881">
        <ele>1203.2272949219</ele>
        <time>2011-12-23T13:17:42Z</time>
      </trkpt>
      <trkpt lat="45.65271" lon="6.24873">
        <ele>1204.6691894531</ele>
        <time>2011-12-23T13:17:48Z</time>
      </trkpt>
      <trkpt lat="45.6527" lon="6.24868">
        <ele>1204.6691894531</ele>
        <time>2011-12-23T13:17:52Z</time>
      </trkpt>
      <trkpt lat="45.6527" lon="6.24862">
        <ele>1204.1887207031</ele>
        <time>2011-12-23T13:17:57Z</time>
      </trkpt>
      <trkpt lat="45.6527" lon="6.24858">
        <ele>1204.6691894531</ele>
        <time>2011-12-23T13:18:00Z</time>
      </trkpt>
      <trkpt lat="45.6527" lon="6.24852">
        <ele>1204.1887207031</ele>
        <time>2011-12-23T13:18:05Z</time>
      </trkpt>
      <trkpt lat="45.6527" lon="6.24847">
        <ele>1204.1887207031</ele>
        <time>2011-12-23T13:18:09Z</time>
      </trkpt>
      <trkpt lat="45.6527" lon="6.24843">
        <ele>1204.1887207031</ele>
        <time>2011-12-23T13:18:12Z</time>
      </trkpt>
      <trkpt lat="45.6527" lon="6.24839">
        <ele>1203.7080078125</ele>
        <time>2011-12-23T13:18:16Z</time>
      </trkpt>
      <trkpt lat="45.65269" lon="6.24835">
        <ele>1204.1887207031</ele>
        <time>2011-12-23T13:18:19Z</time>
      </trkpt>
      <trkpt lat="45.65268" lon="6.24832">
        <ele>1204.1887207031</ele>
        <time>2011-12-23T13:18:22Z</time>
      </trkpt>
      <trkpt lat="45.65266" lon="6.24827">
        <ele>1205.1499023438</ele>
        <time>2011-12-23T13:18:26Z</time>
      </trkpt>
      <trkpt lat="45.65265" lon="6.24823">
        <ele>1204.6691894531</ele>
        <time>2011-12-23T13:18:30Z</time>
      </trkpt>
      <trkpt lat="45.65263" lon="6.24819">
        <ele>1203.7080078125</ele>
        <time>2011-12-23T13:18:34Z</time>
      </trkpt>
      <trkpt lat="45.65261" lon="6.24815">
        <ele>1203.2272949219</ele>
        <time>2011-12-23T13:18:38Z</time>
      </trkpt>
      <trkpt lat="45.6526" lon="6.24812">
        <ele>1202.7465820312</ele>
        <time>2011-12-23T13:18:42Z</time>
      </trkpt>
      <trkpt lat="45.65255" lon="6.24805">
        <ele>1203.2272949219</ele>
        <time>2011-12-23T13:18:49Z</time>
      </trkpt>
      <trkpt lat="45.65253" lon="6.24804">
        <ele>1201.7854003906</ele>
        <time>2011-12-23T13:18:51Z</time>
      </trkpt>
      <trkpt lat="45.6525" lon="6.24798">
        <ele>1205.6306152344</ele>
        <time>2011-12-23T13:18:56Z</time>
      </trkpt>
      <trkpt lat="45.65246" lon="6.24791">
        <ele>1205.6306152344</ele>
        <time>2011-12-23T13:19:03Z</time>
      </trkpt>
      <trkpt lat="45.65242" lon="6.24785">
        <ele>1207.0725097656</ele>
        <time>2011-12-23T13:19:08Z</time>
      </trkpt>
      <trkpt lat="45.65245" lon="6.24789">
        <ele>1190.2495117188</ele>
        <time>2011-12-23T13:19:13Z</time>
      </trkpt>
      <trkpt lat="45.65244" lon="6.24787">
        <ele>1180.6364746094</ele>
        <time>2011-12-23T13:19:18Z</time>
      </trkpt>
      <trkpt lat="45.65241" lon="6.24783">
        <ele>1172.9458007812</ele>
        <time>2011-12-23T13:19:24Z</time>
      </trkpt>
      <trkpt lat="45.65235" lon="6.24773">
        <ele>1165.2553710938</ele>
        <time>2011-12-23T13:19:32Z</time>
      </trkpt>
      <trkpt lat="45.65232" lon="6.24764">
        <ele>1161.890625</ele>
        <time>2011-12-23T13:19:38Z</time>
      </trkpt>
      <trkpt lat="45.65229" lon="6.24754">
        <ele>1159.9677734375</ele>
        <time>2011-12-23T13:19:44Z</time>
      </trkpt>
      <trkpt lat="45.65228" lon="6.24745">
        <ele>1159.0065917969</ele>
        <time>2011-12-23T13:19:48Z</time>
      </trkpt>
      <trkpt lat="45.65227" lon="6.24736">
        <ele>1158.5258789062</ele>
        <time>2011-12-23T13:19:53Z</time>
      </trkpt>
      <trkpt lat="45.65224" lon="6.24728">
        <ele>1162.37109375</ele>
        <time>2011-12-23T13:19:57Z</time>
      </trkpt>
      <trkpt lat="45.65224" lon="6.24723">
        <ele>1167.1779785156</ele>
        <time>2011-12-23T13:20:00Z</time>
      </trkpt>
      <trkpt lat="45.65221" lon="6.24718">
        <ele>1165.7360839844</ele>
        <time>2011-12-23T13:20:05Z</time>
      </trkpt>
      <trkpt lat="45.6522" lon="6.24716">
        <ele>1165.7360839844</ele>
        <time>2011-12-23T13:20:06Z</time>
      </trkpt>
      <trkpt lat="45.65217" lon="6.2471">
        <ele>1165.2553710938</ele>
        <time>2011-12-23T13:20:12Z</time>
      </trkpt>
      <trkpt lat="45.65214" lon="6.24704">
        <ele>1164.7746582031</ele>
        <time>2011-12-23T13:20:17Z</time>
      </trkpt>
      <trkpt lat="45.65213" lon="6.24699">
        <ele>1164.7746582031</ele>
        <time>2011-12-23T13:20:21Z</time>
      </trkpt>
      <trkpt lat="45.65211" lon="6.24692">
        <ele>1164.7746582031</ele>
        <time>2011-12-23T13:20:27Z</time>
      </trkpt>
      <trkpt lat="45.6521" lon="6.24684">
        <ele>1173.9069824219</ele>
        <time>2011-12-23T13:20:32Z</time>
      </trkpt>
      <trkpt lat="45.65208" lon="6.24678">
        <ele>1179.6748046875</ele>
        <time>2011-12-23T13:20:36Z</time>
      </trkpt>
      <trkpt lat="45.65206" lon="6.24673">
        <ele>1180.1557617188</ele>
        <time>2011-12-23T13:20:40Z</time>
      </trkpt>
      <trkpt lat="45.65204" lon="6.24672">
        <ele>1179.6748046875</ele>
        <time>2011-12-23T13:20:45Z</time>
      </trkpt>
      <trkpt lat="45.65205" lon="6.24667">
        <ele>1196.9787597656</ele>
        <time>2011-12-23T13:21:07Z</time>
      </trkpt>
      <trkpt lat="45.65203" lon="6.24664">
        <ele>1191.2106933594</ele>
        <time>2011-12-23T13:21:13Z</time>
      </trkpt>
      <trkpt lat="45.65202" lon="6.24658">
        <ele>1191.69140625</ele>
        <time>2011-12-23T13:21:18Z</time>
      </trkpt>
      <trkpt lat="45.652" lon="6.24652">
        <ele>1190.7299804688</ele>
        <time>2011-12-23T13:21:23Z</time>
      </trkpt>
      <trkpt lat="45.65199" lon="6.24647">
        <ele>1190.7299804688</ele>
        <time>2011-12-23T13:21:27Z</time>
      </trkpt>
      <trkpt lat="45.65197" lon="6.24643">
        <ele>1191.2106933594</ele>
        <time>2011-12-23T13:21:31Z</time>
      </trkpt>
      <trkpt lat="45.65195" lon="6.24637">
        <ele>1190.7299804688</ele>
        <time>2011-12-23T13:21:36Z</time>
      </trkpt>
      <trkpt lat="45.65193" lon="6.24633">
        <ele>1190.2495117188</ele>
        <time>2011-12-23T13:21:40Z</time>
      </trkpt>
      <trkpt lat="45.65191" lon="6.24628">
        <ele>1190.2495117188</ele>
        <time>2011-12-23T13:21:44Z</time>
      </trkpt>
      <trkpt lat="45.65189" lon="6.24625">
        <ele>1189.7687988281</ele>
        <time>2011-12-23T13:21:47Z</time>
      </trkpt>
      <trkpt lat="45.65187" lon="6.24621">
        <ele>1188.8076171875</ele>
        <time>2011-12-23T13:21:51Z</time>
      </trkpt>
      <trkpt lat="45.65185" lon="6.24614">
        <ele>1186.884765625</ele>
        <time>2011-12-23T13:21:57Z</time>
      </trkpt>
      <trkpt lat="45.65184" lon="6.2461">
        <ele>1186.404296875</ele>
        <time>2011-12-23T13:22:01Z</time>
      </trkpt>
      <trkpt lat="45.65181" lon="6.24606">
        <ele>1184.0009765625</ele>
        <time>2011-12-23T13:22:06Z</time>
      </trkpt>
      <trkpt lat="45.65174" lon="6.24597">
        <ele>1200.3435058594</ele>
        <time>2011-12-23T13:22:11Z</time>
      </trkpt>
      <trkpt lat="45.65172" lon="6.24592">
        <ele>1200.3435058594</ele>
        <time>2011-12-23T13:22:15Z</time>
      </trkpt>
      <trkpt lat="45.6517" lon="6.24588">
        <ele>1200.3435058594</ele>
        <time>2011-12-23T13:22:19Z</time>
      </trkpt>
      <trkpt lat="45.65167" lon="6.24583">
        <ele>1199.8627929688</ele>
        <time>2011-12-23T13:22:23Z</time>
      </trkpt>
      <trkpt lat="45.65165" lon="6.24579">
        <ele>1199.3820800781</ele>
        <time>2011-12-23T13:22:27Z</time>
      </trkpt>
      <trkpt lat="45.65164" lon="6.24576">
        <ele>1199.3820800781</ele>
        <time>2011-12-23T13:22:30Z</time>
      </trkpt>
      <trkpt lat="45.65162" lon="6.24572">
        <ele>1199.3820800781</ele>
        <time>2011-12-23T13:22:34Z</time>
      </trkpt>
      <trkpt lat="45.6516" lon="6.24568">
        <ele>1198.9013671875</ele>
        <time>2011-12-23T13:22:38Z</time>
      </trkpt>
      <trkpt lat="45.65157" lon="6.24565">
        <ele>1197.9401855469</ele>
        <time>2011-12-23T13:22:41Z</time>
      </trkpt>
      <trkpt lat="45.65156" lon="6.24563">
        <ele>1197.4594726562</ele>
        <time>2011-12-23T13:22:44Z</time>
      </trkpt>
      <trkpt lat="45.65157" lon="6.24563">
        <ele>1180.6364746094</ele>
        <time>2011-12-23T13:22:48Z</time>
      </trkpt>
      <trkpt lat="45.65156" lon="6.24561">
        <ele>1171.984375</ele>
        <time>2011-12-23T13:22:53Z</time>
      </trkpt>
      <trkpt lat="45.65158" lon="6.24561">
        <ele>1148.9128417969</ele>
        <time>2011-12-23T13:22:58Z</time>
      </trkpt>
      <trkpt lat="45.65157" lon="6.24555">
        <ele>1139.7802734375</ele>
        <time>2011-12-23T13:23:04Z</time>
      </trkpt>
      <trkpt lat="45.65155" lon="6.24549">
        <ele>1136.8962402344</ele>
        <time>2011-12-23T13:23:09Z</time>
      </trkpt>
      <trkpt lat="45.65152" lon="6.24544">
        <ele>1135.4543457031</ele>
        <time>2011-12-23T13:23:14Z</time>
      </trkpt>
      <trkpt lat="45.6515" lon="6.24536">
        <ele>1133.0510253906</ele>
        <time>2011-12-23T13:23:20Z</time>
      </trkpt>
      <trkpt lat="45.65149" lon="6.24531">
        <ele>1134.9738769531</ele>
        <time>2011-12-23T13:23:24Z</time>
      </trkpt>
      <trkpt lat="45.65146" lon="6.2452">
        <ele>1141.7028808594</ele>
        <time>2011-12-23T13:23:31Z</time>
      </trkpt>
      <trkpt lat="45.65143" lon="6.24511">
        <ele>1142.6643066406</ele>
        <time>2011-12-23T13:23:38Z</time>
      </trkpt>
      <trkpt lat="45.65142" lon="6.24501">
        <ele>1138.8190917969</ele>
        <time>2011-12-23T13:23:45Z</time>
      </trkpt>
      <trkpt lat="45.65141" lon="6.24501">
        <ele>1138.8190917969</ele>
        <time>2011-12-23T13:23:46Z</time>
      </trkpt>
      <trkpt lat="45.65138" lon="6.24493">
        <ele>1139.2995605469</ele>
        <time>2011-12-23T13:23:51Z</time>
      </trkpt>
      <trkpt lat="45.65137" lon="6.24482">
        <ele>1138.8190917969</ele>
        <time>2011-12-23T13:23:58Z</time>
      </trkpt>
      <trkpt lat="45.65136" lon="6.24472">
        <ele>1138.3383789062</ele>
        <time>2011-12-23T13:24:05Z</time>
      </trkpt>
      <trkpt lat="45.65136" lon="6.24464">
        <ele>1137.8576660156</ele>
        <time>2011-12-23T13:24:10Z</time>
      </trkpt>
      <trkpt lat="45.65134" lon="6.24459">
        <ele>1136.8962402344</ele>
        <time>2011-12-23T13:24:14Z</time>
      </trkpt>
      <trkpt lat="45.65135" lon="6.24453">
        <ele>1136.8962402344</ele>
        <time>2011-12-23T13:24:18Z</time>
      </trkpt>
      <trkpt lat="45.65135" lon="6.24445">
        <ele>1135.9350585938</ele>
        <time>2011-12-23T13:24:23Z</time>
      </trkpt>
      <trkpt lat="45.65135" lon="6.24435">
        <ele>1135.9350585938</ele>
        <time>2011-12-23T13:24:29Z</time>
      </trkpt>
      <trkpt lat="45.65133" lon="6.24423">
        <ele>1135.9350585938</ele>
        <time>2011-12-23T13:24:36Z</time>
      </trkpt>
      <trkpt lat="45.65132" lon="6.24414">
        <ele>1135.4543457031</ele>
        <time>2011-12-23T13:24:41Z</time>
      </trkpt>
      <trkpt lat="45.65132" lon="6.24408">
        <ele>1134.9738769531</ele>
        <time>2011-12-23T13:24:45Z</time>
      </trkpt>
      <trkpt lat="45.65131" lon="6.24401">
        <ele>1134.4931640625</ele>
        <time>2011-12-23T13:24:51Z</time>
      </trkpt>
      <trkpt lat="45.65132" lon="6.24398">
        <ele>1135.4543457031</ele>
        <time>2011-12-23T13:25:02Z</time>
      </trkpt>
      <trkpt lat="45.65131" lon="6.24388">
        <ele>1135.9350585938</ele>
        <time>2011-12-23T13:25:09Z</time>
      </trkpt>
      <trkpt lat="45.65129" lon="6.24378">
        <ele>1135.4543457031</ele>
        <time>2011-12-23T13:25:16Z</time>
      </trkpt>
      <trkpt lat="45.65128" lon="6.24373">
        <ele>1134.4931640625</ele>
        <time>2011-12-23T13:25:20Z</time>
      </trkpt>
      <trkpt lat="45.65124" lon="6.24364">
        <ele>1133.0510253906</ele>
        <time>2011-12-23T13:25:27Z</time>
      </trkpt>
      <trkpt lat="45.65121" lon="6.24358">
        <ele>1132.08984375</ele>
        <time>2011-12-23T13:25:31Z</time>
      </trkpt>
      <trkpt lat="45.65118" lon="6.24353">
        <ele>1131.6088867188</ele>
        <time>2011-12-23T13:25:34Z</time>
      </trkpt>
      <trkpt lat="45.6512" lon="6.24347">
        <ele>1131.6088867188</ele>
        <time>2011-12-23T13:25:38Z</time>
      </trkpt>
      <trkpt lat="45.65118" lon="6.24337">
        <ele>1131.1284179688</ele>
        <time>2011-12-23T13:25:45Z</time>
      </trkpt>
      <trkpt lat="45.65117" lon="6.2433">
        <ele>1131.1284179688</ele>
        <time>2011-12-23T13:25:50Z</time>
      </trkpt>
      <trkpt lat="45.65117" lon="6.24322">
        <ele>1131.1284179688</ele>
        <time>2011-12-23T13:25:55Z</time>
      </trkpt>
      <trkpt lat="45.65121" lon="6.24309">
        <ele>1131.1284179688</ele>
        <time>2011-12-23T13:26:01Z</time>
      </trkpt>
      <trkpt lat="45.65121" lon="6.24308">
        <ele>1131.1284179688</ele>
        <time>2011-12-23T13:26:02Z</time>
      </trkpt>
      <trkpt lat="45.65115" lon="6.24302">
        <ele>1131.6088867188</ele>
        <time>2011-12-23T13:26:08Z</time>
      </trkpt>
      <trkpt lat="45.65111" lon="6.24298">
        <ele>1131.6088867188</ele>
        <time>2011-12-23T13:26:12Z</time>
      </trkpt>
      <trkpt lat="45.65106" lon="6.24293">
        <ele>1131.6088867188</ele>
        <time>2011-12-23T13:26:16Z</time>
      </trkpt>
      <trkpt lat="45.651" lon="6.24287">
        <ele>1130.1669921875</ele>
        <time>2011-12-23T13:26:21Z</time>
      </trkpt>
      <trkpt lat="45.65095" lon="6.24282">
        <ele>1130.1669921875</ele>
        <time>2011-12-23T13:26:26Z</time>
      </trkpt>
      <trkpt lat="45.65092" lon="6.24278">
        <ele>1129.6862792969</ele>
        <time>2011-12-23T13:26:30Z</time>
      </trkpt>
      <trkpt lat="45.65085" lon="6.24274">
        <ele>1130.1669921875</ele>
        <time>2011-12-23T13:26:37Z</time>
      </trkpt>
      <trkpt lat="45.65083" lon="6.24276">
        <ele>1129.6862792969</ele>
        <time>2011-12-23T13:27:14Z</time>
      </trkpt>
      <trkpt lat="45.65081" lon="6.24275">
        <ele>1129.2055664062</ele>
        <time>2011-12-23T13:27:32Z</time>
      </trkpt>
      <trkpt lat="45.65079" lon="6.24276">
        <ele>1129.2055664062</ele>
        <time>2011-12-23T13:27:35Z</time>
      </trkpt>
      <trkpt lat="45.65077" lon="6.24277">
        <ele>1129.2055664062</ele>
        <time>2011-12-23T13:27:37Z</time>
      </trkpt>
      <trkpt lat="45.65076" lon="6.24278">
        <ele>1129.2055664062</ele>
        <time>2011-12-23T13:27:38Z</time>
      </trkpt>
      <trkpt lat="45.65076" lon="6.24283">
        <ele>1129.2055664062</ele>
        <time>2011-12-23T13:27:43Z</time>
      </trkpt>
      <trkpt lat="45.65077" lon="6.24285">
        <ele>1128.7250976562</ele>
        <time>2011-12-23T13:27:46Z</time>
      </trkpt>
      <trkpt lat="45.6508" lon="6.2429">
        <ele>1128.7250976562</ele>
        <time>2011-12-23T13:27:50Z</time>
      </trkpt>
      <trkpt lat="45.65082" lon="6.24292">
        <ele>1129.2055664062</ele>
        <time>2011-12-23T13:27:52Z</time>
      </trkpt>
      <trkpt lat="45.65087" lon="6.24294">
        <ele>1128.7250976562</ele>
        <time>2011-12-23T13:27:56Z</time>
      </trkpt>
      <trkpt lat="45.65087" lon="6.24298">
        <ele>1129.2055664062</ele>
        <time>2011-12-23T13:27:59Z</time>
      </trkpt>
      <trkpt lat="45.6509" lon="6.243">
        <ele>1129.2055664062</ele>
        <time>2011-12-23T13:28:03Z</time>
      </trkpt>
      <trkpt lat="45.65092" lon="6.24304">
        <ele>1128.7250976562</ele>
        <time>2011-12-23T13:28:07Z</time>
      </trkpt>
      <trkpt lat="45.65093" lon="6.24306">
        <ele>1129.2055664062</ele>
        <time>2011-12-23T13:28:10Z</time>
      </trkpt>
      <trkpt lat="45.65094" lon="6.24311">
        <ele>1129.2055664062</ele>
        <time>2011-12-23T13:28:14Z</time>
      </trkpt>
      <trkpt lat="45.65094" lon="6.24316">
        <ele>1129.2055664062</ele>
        <time>2011-12-23T13:28:18Z</time>
      </trkpt>
      <trkpt lat="45.6509" lon="6.2432">
        <ele>1129.2055664062</ele>
        <time>2011-12-23T13:28:22Z</time>
      </trkpt>
      <trkpt lat="45.65083" lon="6.2432">
        <ele>1129.6862792969</ele>
        <time>2011-12-23T13:28:29Z</time>
      </trkpt>
      <trkpt lat="45.6508" lon="6.24317">
        <ele>1129.6862792969</ele>
        <time>2011-12-23T13:28:34Z</time>
      </trkpt>
      <trkpt lat="45.65078" lon="6.24317">
        <ele>1129.6862792969</ele>
        <time>2011-12-23T13:28:38Z</time>
      </trkpt>
      <trkpt lat="45.65072" lon="6.24311">
        <ele>1129.6862792969</ele>
        <time>2011-12-23T13:28:44Z</time>
      </trkpt>
      <trkpt lat="45.65071" lon="6.24311">
        <ele>1129.6862792969</ele>
        <time>2011-12-23T13:28:45Z</time>
      </trkpt>
      <trkpt lat="45.65069" lon="6.24308">
        <ele>1130.1669921875</ele>
        <time>2011-12-23T13:28:47Z</time>
      </trkpt>
      <trkpt lat="45.6506" lon="6.243">
        <ele>1131.1284179688</ele>
        <time>2011-12-23T13:28:55Z</time>
      </trkpt>
      <trkpt lat="45.65057" lon="6.24296">
        <ele>1131.1284179688</ele>
        <time>2011-12-23T13:29:00Z</time>
      </trkpt>
      <trkpt lat="45.65054" lon="6.24291">
        <ele>1131.1284179688</ele>
        <time>2011-12-23T13:29:05Z</time>
      </trkpt>
      <trkpt lat="45.65052" lon="6.24288">
        <ele>1131.6088867188</ele>
        <time>2011-12-23T13:29:08Z</time>
      </trkpt>
      <trkpt lat="45.65049" lon="6.24279">
        <ele>1131.6088867188</ele>
        <time>2011-12-23T13:29:15Z</time>
      </trkpt>
      <trkpt lat="45.65048" lon="6.24273">
        <ele>1132.08984375</ele>
        <time>2011-12-23T13:29:19Z</time>
      </trkpt>
      <trkpt lat="45.65048" lon="6.24269">
        <ele>1132.08984375</ele>
        <time>2011-12-23T13:29:22Z</time>
      </trkpt>
      <trkpt lat="45.65048" lon="6.24262">
        <ele>1132.08984375</ele>
        <time>2011-12-23T13:29:27Z</time>
      </trkpt>
      <trkpt lat="45.65048" lon="6.24257">
        <ele>1132.5705566406</ele>
        <time>2011-12-23T13:29:31Z</time>
      </trkpt>
      <trkpt lat="45.65048" lon="6.24252">
        <ele>1132.5705566406</ele>
        <time>2011-12-23T13:29:35Z</time>
      </trkpt>
      <trkpt lat="45.65047" lon="6.24246">
        <ele>1133.0510253906</ele>
        <time>2011-12-23T13:29:39Z</time>
      </trkpt>
      <trkpt lat="45.65046" lon="6.24241">
        <ele>1133.0510253906</ele>
        <time>2011-12-23T13:29:43Z</time>
      </trkpt>
      <trkpt lat="45.65043" lon="6.24237">
        <ele>1133.5317382812</ele>
        <time>2011-12-23T13:29:48Z</time>
      </trkpt>
      <trkpt lat="45.6504" lon="6.24236">
        <ele>1133.5317382812</ele>
        <time>2011-12-23T13:29:50Z</time>
      </trkpt>
      <trkpt lat="45.65035" lon="6.24236">
        <ele>1133.5317382812</ele>
        <time>2011-12-23T13:29:55Z</time>
      </trkpt>
      <trkpt lat="45.65032" lon="6.24238">
        <ele>1134.0124511719</ele>
        <time>2011-12-23T13:29:59Z</time>
      </trkpt>
      <trkpt lat="45.65029" lon="6.24242">
        <ele>1134.0124511719</ele>
        <time>2011-12-23T13:30:03Z</time>
      </trkpt>
      <trkpt lat="45.65026" lon="6.24248">
        <ele>1134.4931640625</ele>
        <time>2011-12-23T13:30:08Z</time>
      </trkpt>
      <trkpt lat="45.65023" lon="6.24252">
        <ele>1134.4931640625</ele>
        <time>2011-12-23T13:30:11Z</time>
      </trkpt>
      <trkpt lat="45.65023" lon="6.24256">
        <ele>1134.4931640625</ele>
        <time>2011-12-23T13:30:15Z</time>
      </trkpt>
      <trkpt lat="45.65021" lon="6.24262">
        <ele>1134.9738769531</ele>
        <time>2011-12-23T13:30:19Z</time>
      </trkpt>
      <trkpt lat="45.65016" lon="6.24269">
        <ele>1134.9738769531</ele>
        <time>2011-12-23T13:30:24Z</time>
      </trkpt>
      <trkpt lat="45.65012" lon="6.24271">
        <ele>1138.3383789062</ele>
        <time>2011-12-23T13:30:30Z</time>
      </trkpt>
      <trkpt lat="45.6501" lon="6.24268">
        <ele>1138.3383789062</ele>
        <time>2011-12-23T13:30:34Z</time>
      </trkpt>
      <trkpt lat="45.65014" lon="6.24268">
        <ele>1121.0346679688</ele>
        <time>2011-12-23T13:30:38Z</time>
      </trkpt>
      <trkpt lat="45.65014" lon="6.24263">
        <ele>1107.0954589844</ele>
        <time>2011-12-23T13:30:49Z</time>
      </trkpt>
      <trkpt lat="45.65017" lon="6.24259">
        <ele>1088.3498535156</ele>
        <time>2011-12-23T13:30:59Z</time>
      </trkpt>
      <trkpt lat="45.65014" lon="6.24249">
        <ele>1083.0622558594</ele>
        <time>2011-12-23T13:31:11Z</time>
      </trkpt>
      <trkpt lat="45.65015" lon="6.24243">
        <ele>1082.5817871094</ele>
        <time>2011-12-23T13:31:16Z</time>
      </trkpt>
      <trkpt lat="45.65015" lon="6.2424">
        <ele>1082.5817871094</ele>
        <time>2011-12-23T13:31:19Z</time>
      </trkpt>
      <trkpt lat="45.65017" lon="6.24236">
        <ele>1082.5817871094</ele>
        <time>2011-12-23T13:31:21Z</time>
      </trkpt>
      <trkpt lat="45.65011" lon="6.2423">
        <ele>1084.9853515625</ele>
        <time>2011-12-23T13:31:27Z</time>
      </trkpt>
      <trkpt lat="45.65007" lon="6.24227">
        <ele>1084.9853515625</ele>
        <time>2011-12-23T13:31:31Z</time>
      </trkpt>
      <trkpt lat="45.65002" lon="6.24225">
        <ele>1089.3110351562</ele>
        <time>2011-12-23T13:31:36Z</time>
      </trkpt>
      <trkpt lat="45.65" lon="6.24225">
        <ele>1086.4272460938</ele>
        <time>2011-12-23T13:31:38Z</time>
      </trkpt>
      <trkpt lat="45.64992" lon="6.24228">
        <ele>1086.9077148438</ele>
        <time>2011-12-23T13:31:44Z</time>
      </trkpt>
      <trkpt lat="45.64984" lon="6.24228">
        <ele>1086.9077148438</ele>
        <time>2011-12-23T13:31:50Z</time>
      </trkpt>
      <trkpt lat="45.64978" lon="6.24225">
        <ele>1075.8525390625</ele>
        <time>2011-12-23T13:31:58Z</time>
      </trkpt>
      <trkpt lat="45.64977" lon="6.24224">
        <ele>1059.5102539062</ele>
        <time>2011-12-23T13:32:04Z</time>
      </trkpt>
      <trkpt lat="45.64973" lon="6.2422">
        <ele>1057.1069335938</ele>
        <time>2011-12-23T13:32:09Z</time>
      </trkpt>
      <trkpt lat="45.64972" lon="6.24219">
        <ele>1053.26171875</ele>
        <time>2011-12-23T13:32:13Z</time>
      </trkpt>
      <trkpt lat="45.64969" lon="6.24217">
        <ele>1051.8195800781</ele>
        <time>2011-12-23T13:32:18Z</time>
      </trkpt>
      <trkpt lat="45.64965" lon="6.24213">
        <ele>1049.4162597656</ele>
        <time>2011-12-23T13:32:24Z</time>
      </trkpt>
      <trkpt lat="45.6496" lon="6.24205">
        <ele>1047.0129394531</ele>
        <time>2011-12-23T13:32:34Z</time>
      </trkpt>
      <trkpt lat="45.64959" lon="6.24202">
        <ele>1047.9743652344</ele>
        <time>2011-12-23T13:32:39Z</time>
      </trkpt>
      <trkpt lat="45.64957" lon="6.242">
        <ele>1049.4162597656</ele>
        <time>2011-12-23T13:32:43Z</time>
      </trkpt>
      <trkpt lat="45.64956" lon="6.24197">
        <ele>1050.3776855469</ele>
        <time>2011-12-23T13:32:47Z</time>
      </trkpt>
      <trkpt lat="45.6495" lon="6.242">
        <ele>1055.6650390625</ele>
        <time>2011-12-23T13:32:54Z</time>
      </trkpt>
      <trkpt lat="45.64949" lon="6.24201">
        <ele>1056.6262207031</ele>
        <time>2011-12-23T13:32:55Z</time>
      </trkpt>
      <trkpt lat="45.64945" lon="6.24202">
        <ele>1060.9521484375</ele>
        <time>2011-12-23T13:33:02Z</time>
      </trkpt>
      <trkpt lat="45.64935" lon="6.24193">
        <ele>1061.4328613281</ele>
        <time>2011-12-23T13:33:13Z</time>
      </trkpt>
      <trkpt lat="45.64931" lon="6.24193">
        <ele>1065.2780761719</ele>
        <time>2011-12-23T13:33:21Z</time>
      </trkpt>
      <trkpt lat="45.64928" lon="6.24202">
        <ele>1074.4106445312</ele>
        <time>2011-12-23T13:33:29Z</time>
      </trkpt>
      <trkpt lat="45.64924" lon="6.24202">
        <ele>1076.3332519531</ele>
        <time>2011-12-23T13:33:34Z</time>
      </trkpt>
      <trkpt lat="45.64919" lon="6.24197">
        <ele>1076.8139648438</ele>
        <time>2011-12-23T13:33:39Z</time>
      </trkpt>
      <trkpt lat="45.64916" lon="6.24198">
        <ele>1077.2946777344</ele>
        <time>2011-12-23T13:33:44Z</time>
      </trkpt>
      <trkpt lat="45.64912" lon="6.2419">
        <ele>1072.4880371094</ele>
        <time>2011-12-23T13:33:50Z</time>
      </trkpt>
      <trkpt lat="45.64911" lon="6.24187">
        <ele>1070.5654296875</ele>
        <time>2011-12-23T13:33:53Z</time>
      </trkpt>
      <trkpt lat="45.6489" lon="6.24161">
        <ele>1057.1069335938</ele>
        <time>2011-12-23T13:34:16Z</time>
      </trkpt>
      <trkpt lat="45.64886" lon="6.24155">
        <ele>1051.8195800781</ele>
        <time>2011-12-23T13:34:22Z</time>
      </trkpt>
      <trkpt lat="45.64884" lon="6.24152">
        <ele>1050.3776855469</ele>
        <time>2011-12-23T13:34:24Z</time>
      </trkpt>
      <trkpt lat="45.6488" lon="6.24147">
        <ele>1048.4548339844</ele>
        <time>2011-12-23T13:34:29Z</time>
      </trkpt>
      <trkpt lat="45.64878" lon="6.24138">
        <ele>1047.9743652344</ele>
        <time>2011-12-23T13:34:35Z</time>
      </trkpt>
      <trkpt lat="45.64878" lon="6.24133">
        <ele>1046.5324707031</ele>
        <time>2011-12-23T13:34:38Z</time>
      </trkpt>
      <trkpt lat="45.64873" lon="6.24131">
        <ele>1045.5710449219</ele>
        <time>2011-12-23T13:34:43Z</time>
      </trkpt>
      <trkpt lat="45.64869" lon="6.24127">
        <ele>1045.0903320312</ele>
        <time>2011-12-23T13:34:48Z</time>
      </trkpt>
      <trkpt lat="45.64867" lon="6.24125">
        <ele>1044.6096191406</ele>
        <time>2011-12-23T13:34:50Z</time>
      </trkpt>
      <trkpt lat="45.64864" lon="6.24123">
        <ele>1044.6096191406</ele>
        <time>2011-12-23T13:34:53Z</time>
      </trkpt>
      <trkpt lat="45.64861" lon="6.24118">
        <ele>1043.1677246094</ele>
        <time>2011-12-23T13:34:58Z</time>
      </trkpt>
      <trkpt lat="45.64857" lon="6.24119">
        <ele>1046.5324707031</ele>
        <time>2011-12-23T13:35:03Z</time>
      </trkpt>
      <trkpt lat="45.64855" lon="6.24118">
        <ele>1048.935546875</ele>
        <time>2011-12-23T13:35:07Z</time>
      </trkpt>
      <trkpt lat="45.64851" lon="6.24114">
        <ele>1048.935546875</ele>
        <time>2011-12-23T13:35:12Z</time>
      </trkpt>
      <trkpt lat="45.64849" lon="6.24106">
        <ele>1046.0517578125</ele>
        <time>2011-12-23T13:35:16Z</time>
      </trkpt>
      <trkpt lat="45.64847" lon="6.24101">
        <ele>1045.0903320312</ele>
        <time>2011-12-23T13:35:19Z</time>
      </trkpt>
      <trkpt lat="45.64844" lon="6.24095">
        <ele>1044.1291503906</ele>
        <time>2011-12-23T13:35:23Z</time>
      </trkpt>
      <trkpt lat="45.64841" lon="6.2409">
        <ele>1045.0903320312</ele>
        <time>2011-12-23T13:35:26Z</time>
      </trkpt>
      <trkpt lat="45.64839" lon="6.24086">
        <ele>1046.5324707031</ele>
        <time>2011-12-23T13:35:29Z</time>
      </trkpt>
      <trkpt lat="45.64836" lon="6.24078">
        <ele>1047.0129394531</ele>
        <time>2011-12-23T13:35:35Z</time>
      </trkpt>
      <trkpt lat="45.64834" lon="6.24073">
        <ele>1046.0517578125</ele>
        <time>2011-12-23T13:35:39Z</time>
      </trkpt>
      <trkpt lat="45.64829" lon="6.24065">
        <ele>1053.7424316406</ele>
        <time>2011-12-23T13:35:43Z</time>
      </trkpt>
      <trkpt lat="45.64824" lon="6.24057">
        <ele>1060.9521484375</ele>
        <time>2011-12-23T13:35:48Z</time>
      </trkpt>
      <trkpt lat="45.6482" lon="6.2405">
        <ele>1067.6811523438</ele>
        <time>2011-12-23T13:35:53Z</time>
      </trkpt>
      <trkpt lat="45.64817" lon="6.24042">
        <ele>1070.0847167969</ele>
        <time>2011-12-23T13:35:59Z</time>
      </trkpt>
      <trkpt lat="45.64815" lon="6.2404">
        <ele>1070.5654296875</ele>
        <time>2011-12-23T13:36:01Z</time>
      </trkpt>
      <trkpt lat="45.64809" lon="6.24031">
        <ele>1074.4106445312</ele>
        <time>2011-12-23T13:36:09Z</time>
      </trkpt>
      <trkpt lat="45.64804" lon="6.24023">
        <ele>1084.0239257812</ele>
        <time>2011-12-23T13:36:14Z</time>
      </trkpt>
      <trkpt lat="45.64804" lon="6.24019">
        <ele>1080.6591796875</ele>
        <time>2011-12-23T13:36:19Z</time>
      </trkpt>
      <trkpt lat="45.64801" lon="6.24015">
        <ele>1077.7751464844</ele>
        <time>2011-12-23T13:36:24Z</time>
      </trkpt>
      <trkpt lat="45.64799" lon="6.24011">
        <ele>1072.0073242188</ele>
        <time>2011-12-23T13:36:29Z</time>
      </trkpt>
      <trkpt lat="45.64794" lon="6.24002">
        <ele>1057.1069335938</ele>
        <time>2011-12-23T13:36:44Z</time>
      </trkpt>
      <trkpt lat="45.6479" lon="6.24">
        <ele>1052.7810058594</ele>
        <time>2011-12-23T13:36:49Z</time>
      </trkpt>
      <trkpt lat="45.64781" lon="6.23995">
        <ele>1050.8581542969</ele>
        <time>2011-12-23T13:36:59Z</time>
      </trkpt>
      <trkpt lat="45.64777" lon="6.23993">
        <ele>1048.935546875</ele>
        <time>2011-12-23T13:37:03Z</time>
      </trkpt>
      <trkpt lat="45.64774" lon="6.23991">
        <ele>1046.5324707031</ele>
        <time>2011-12-23T13:37:07Z</time>
      </trkpt>
      <trkpt lat="45.64769" lon="6.23988">
        <ele>1042.6872558594</ele>
        <time>2011-12-23T13:37:12Z</time>
      </trkpt>
      <trkpt lat="45.64767" lon="6.23985">
        <ele>1041.2451171875</ele>
        <time>2011-12-23T13:37:16Z</time>
      </trkpt>
      <trkpt lat="45.64764" lon="6.2398">
        <ele>1040.2839355469</ele>
        <time>2011-12-23T13:37:20Z</time>
      </trkpt>
      <trkpt lat="45.64761" lon="6.2397">
        <ele>1040.7644042969</ele>
        <time>2011-12-23T13:37:27Z</time>
      </trkpt>
      <trkpt lat="45.6476" lon="6.23964">
        <ele>1040.7644042969</ele>
        <time>2011-12-23T13:37:31Z</time>
      </trkpt>
      <trkpt lat="45.64758" lon="6.23958">
        <ele>1042.6872558594</ele>
        <time>2011-12-23T13:37:35Z</time>
      </trkpt>
      <trkpt lat="45.64758" lon="6.23952">
        <ele>1041.7258300781</ele>
        <time>2011-12-23T13:37:39Z</time>
      </trkpt>
      <trkpt lat="45.64756" lon="6.23946">
        <ele>1041.7258300781</ele>
        <time>2011-12-23T13:37:43Z</time>
      </trkpt>
      <trkpt lat="45.64754" lon="6.23941">
        <ele>1044.1291503906</ele>
        <time>2011-12-23T13:37:47Z</time>
      </trkpt>
      <trkpt lat="45.6475" lon="6.23934">
        <ele>1049.4162597656</ele>
        <time>2011-12-23T13:37:52Z</time>
      </trkpt>
      <trkpt lat="45.64747" lon="6.2393">
        <ele>1051.8195800781</ele>
        <time>2011-12-23T13:37:56Z</time>
      </trkpt>
      <trkpt lat="45.64742" lon="6.23925">
        <ele>1055.6650390625</ele>
        <time>2011-12-23T13:38:02Z</time>
      </trkpt>
      <trkpt lat="45.64739" lon="6.23921">
        <ele>1043.6484375</ele>
        <time>2011-12-23T13:38:08Z</time>
      </trkpt>
      <trkpt lat="45.64737" lon="6.23918">
        <ele>1037.8806152344</ele>
        <time>2011-12-23T13:38:12Z</time>
      </trkpt>
      <trkpt lat="45.64735" lon="6.23916">
        <ele>1033.5544433594</ele>
        <time>2011-12-23T13:38:15Z</time>
      </trkpt>
      <trkpt lat="45.64733" lon="6.23913">
        <ele>1030.1899414062</ele>
        <time>2011-12-23T13:38:19Z</time>
      </trkpt>
      <trkpt lat="45.6473" lon="6.23908">
        <ele>1026.3447265625</ele>
        <time>2011-12-23T13:38:25Z</time>
      </trkpt>
      <trkpt lat="45.64727" lon="6.23905">
        <ele>1026.3447265625</ele>
        <time>2011-12-23T13:38:29Z</time>
      </trkpt>
      <trkpt lat="45.64725" lon="6.23901">
        <ele>1025.8640136719</ele>
        <time>2011-12-23T13:38:33Z</time>
      </trkpt>
      <trkpt lat="45.64723" lon="6.23898">
        <ele>1024.4221191406</ele>
        <time>2011-12-23T13:38:37Z</time>
      </trkpt>
      <trkpt lat="45.64719" lon="6.23894">
        <ele>1022.4995117188</ele>
        <time>2011-12-23T13:38:48Z</time>
      </trkpt>
      <trkpt lat="45.64715" lon="6.23889">
        <ele>1021.0576171875</ele>
        <time>2011-12-23T13:38:55Z</time>
      </trkpt>
      <trkpt lat="45.64712" lon="6.23885">
        <ele>1020.0961914062</ele>
        <time>2011-12-23T13:39:01Z</time>
      </trkpt>
      <trkpt lat="45.6471" lon="6.23883">
        <ele>1021.0576171875</ele>
        <time>2011-12-23T13:39:05Z</time>
      </trkpt>
      <trkpt lat="45.64707" lon="6.23874">
        <ele>1020.0961914062</ele>
        <time>2011-12-23T13:39:15Z</time>
      </trkpt>
      <trkpt lat="45.64704" lon="6.23868">
        <ele>1019.134765625</ele>
        <time>2011-12-23T13:39:22Z</time>
      </trkpt>
      <trkpt lat="45.64702" lon="6.23862">
        <ele>1018.6540527344</ele>
        <time>2011-12-23T13:39:28Z</time>
      </trkpt>
      <trkpt lat="45.64698" lon="6.23855">
        <ele>1019.134765625</ele>
        <time>2011-12-23T13:39:35Z</time>
      </trkpt>
      <trkpt lat="45.64696" lon="6.23852">
        <ele>1018.1733398438</ele>
        <time>2011-12-23T13:39:39Z</time>
      </trkpt>
      <trkpt lat="45.64693" lon="6.23848">
        <ele>1017.6926269531</ele>
        <time>2011-12-23T13:39:43Z</time>
      </trkpt>
      <trkpt lat="45.64691" lon="6.23843">
        <ele>1017.6926269531</ele>
        <time>2011-12-23T13:39:48Z</time>
      </trkpt>
      <trkpt lat="45.64688" lon="6.2384">
        <ele>1017.2121582031</ele>
        <time>2011-12-23T13:39:52Z</time>
      </trkpt>
      <trkpt lat="45.64686" lon="6.23837">
        <ele>1017.2121582031</ele>
        <time>2011-12-23T13:39:56Z</time>
      </trkpt>
      <trkpt lat="45.64684" lon="6.23834">
        <ele>1016.7314453125</ele>
        <time>2011-12-23T13:40:00Z</time>
      </trkpt>
      <trkpt lat="45.64681" lon="6.23831">
        <ele>1016.2507324219</ele>
        <time>2011-12-23T13:40:04Z</time>
      </trkpt>
      <trkpt lat="45.64677" lon="6.23828">
        <ele>1016.2507324219</ele>
        <time>2011-12-23T13:40:08Z</time>
      </trkpt>
      <trkpt lat="45.64674" lon="6.23826">
        <ele>1015.7702636719</ele>
        <time>2011-12-23T13:40:12Z</time>
      </trkpt>
      <trkpt lat="45.6467" lon="6.23824">
        <ele>1014.8088378906</ele>
        <time>2011-12-23T13:40:17Z</time>
      </trkpt>
      <trkpt lat="45.64667" lon="6.23822">
        <ele>1014.328125</ele>
        <time>2011-12-23T13:40:21Z</time>
      </trkpt>
      <trkpt lat="45.64663" lon="6.23825">
        <ele>1013.8474121094</ele>
        <time>2011-12-23T13:40:54Z</time>
      </trkpt>
      <trkpt lat="45.64662" lon="6.23825">
        <ele>1012.4055175781</ele>
        <time>2011-12-23T13:40:56Z</time>
      </trkpt>
      <trkpt lat="45.64659" lon="6.23828">
        <ele>1011.4443359375</ele>
        <time>2011-12-23T13:41:03Z</time>
      </trkpt>
      <trkpt lat="45.64658" lon="6.23825">
        <ele>1010.0021972656</ele>
        <time>2011-12-23T13:41:05Z</time>
      </trkpt>
      <trkpt lat="45.64656" lon="6.23822">
        <ele>1009.5217285156</ele>
        <time>2011-12-23T13:41:08Z</time>
      </trkpt>
      <trkpt lat="45.64654" lon="6.23819">
        <ele>1008.5603027344</ele>
        <time>2011-12-23T13:41:12Z</time>
      </trkpt>
      <trkpt lat="45.6465" lon="6.23817">
        <ele>1008.0798339844</ele>
        <time>2011-12-23T13:41:17Z</time>
      </trkpt>
      <trkpt lat="45.64645" lon="6.23812">
        <ele>1006.1569824219</ele>
        <time>2011-12-23T13:41:24Z</time>
      </trkpt>
      <trkpt lat="45.6464" lon="6.23806">
        <ele>1004.2346191406</ele>
        <time>2011-12-23T13:41:30Z</time>
      </trkpt>
      <trkpt lat="45.64637" lon="6.23805">
        <ele>1005.6765136719</ele>
        <time>2011-12-23T13:41:34Z</time>
      </trkpt>
      <trkpt lat="45.64635" lon="6.23802">
        <ele>1005.6765136719</ele>
        <time>2011-12-23T13:41:37Z</time>
      </trkpt>
      <trkpt lat="45.64632" lon="6.23799">
        <ele>1006.1569824219</ele>
        <time>2011-12-23T13:41:41Z</time>
      </trkpt>
      <trkpt lat="45.64629" lon="6.23795">
        <ele>1006.6376953125</ele>
        <time>2011-12-23T13:41:46Z</time>
      </trkpt>
      <trkpt lat="45.64626" lon="6.23791">
        <ele>1007.1184082031</ele>
        <time>2011-12-23T13:41:51Z</time>
      </trkpt>
      <trkpt lat="45.64621" lon="6.23785">
        <ele>1007.1184082031</ele>
        <time>2011-12-23T13:41:58Z</time>
      </trkpt>
      <trkpt lat="45.64616" lon="6.23777">
        <ele>1010.9636230469</ele>
        <time>2011-12-23T13:42:08Z</time>
      </trkpt>
      <trkpt lat="45.64614" lon="6.23773">
        <ele>1014.8088378906</ele>
        <time>2011-12-23T13:42:16Z</time>
      </trkpt>
      <trkpt lat="45.64611" lon="6.23769">
        <ele>1018.6540527344</ele>
        <time>2011-12-23T13:42:20Z</time>
      </trkpt>
      <trkpt lat="45.64607" lon="6.23763">
        <ele>1027.3061523438</ele>
        <time>2011-12-23T13:42:27Z</time>
      </trkpt>
      <trkpt lat="45.64603" lon="6.23755">
        <ele>1031.1513671875</ele>
        <time>2011-12-23T13:42:33Z</time>
      </trkpt>
      <trkpt lat="45.64598" lon="6.23746">
        <ele>1032.5932617188</ele>
        <time>2011-12-23T13:42:40Z</time>
      </trkpt>
      <trkpt lat="45.64594" lon="6.23742">
        <ele>1032.1125488281</ele>
        <time>2011-12-23T13:42:47Z</time>
      </trkpt>
      <trkpt lat="45.64594" lon="6.23741">
        <ele>1024.9028320312</ele>
        <time>2011-12-23T13:42:52Z</time>
      </trkpt>
      <trkpt lat="45.6459" lon="6.23737">
        <ele>1023.4609375</ele>
        <time>2011-12-23T13:42:57Z</time>
      </trkpt>
      <trkpt lat="45.64588" lon="6.23735">
        <ele>1023.94140625</ele>
        <time>2011-12-23T13:43:01Z</time>
      </trkpt>
      <trkpt lat="45.64585" lon="6.23732">
        <ele>1023.94140625</ele>
        <time>2011-12-23T13:43:06Z</time>
      </trkpt>
      <trkpt lat="45.64581" lon="6.23727">
        <ele>1026.3447265625</ele>
        <time>2011-12-23T13:43:11Z</time>
      </trkpt>
      <trkpt lat="45.64579" lon="6.23725">
        <ele>1025.8640136719</ele>
        <time>2011-12-23T13:43:15Z</time>
      </trkpt>
      <trkpt lat="45.64577" lon="6.23721">
        <ele>1027.3061523438</ele>
        <time>2011-12-23T13:43:19Z</time>
      </trkpt>
      <trkpt lat="45.64573" lon="6.23714">
        <ele>1030.6706542969</ele>
        <time>2011-12-23T13:43:23Z</time>
      </trkpt>
      <trkpt lat="45.64569" lon="6.23701">
        <ele>1029.228515625</ele>
        <time>2011-12-23T13:43:30Z</time>
      </trkpt>
      <trkpt lat="45.64565" lon="6.23692">
        <ele>1025.8640136719</ele>
        <time>2011-12-23T13:43:36Z</time>
      </trkpt>
      <trkpt lat="45.6456" lon="6.23677">
        <ele>1016.7314453125</ele>
        <time>2011-12-23T13:43:51Z</time>
      </trkpt>
      <trkpt lat="45.6456" lon="6.2367">
        <ele>1010.9636230469</ele>
        <time>2011-12-23T13:43:57Z</time>
      </trkpt>
      <trkpt lat="45.6456" lon="6.23662">
        <ele>1007.5991210938</ele>
        <time>2011-12-23T13:44:04Z</time>
      </trkpt>
      <trkpt lat="45.6456" lon="6.23658">
        <ele>1006.1569824219</ele>
        <time>2011-12-23T13:44:08Z</time>
      </trkpt>
      <trkpt lat="45.64561" lon="6.23651">
        <ele>1004.2346191406</ele>
        <time>2011-12-23T13:44:13Z</time>
      </trkpt>
      <trkpt lat="45.64561" lon="6.23646">
        <ele>1002.3115234375</ele>
        <time>2011-12-23T13:44:17Z</time>
      </trkpt>
      <trkpt lat="45.64561" lon="6.23641">
        <ele>1001.3503417969</ele>
        <time>2011-12-23T13:44:21Z</time>
      </trkpt>
      <trkpt lat="45.64561" lon="6.23635">
        <ele>1004.2346191406</ele>
        <time>2011-12-23T13:44:25Z</time>
      </trkpt>
      <trkpt lat="45.64561" lon="6.2363">
        <ele>1006.6376953125</ele>
        <time>2011-12-23T13:44:29Z</time>
      </trkpt>
      <trkpt lat="45.6456" lon="6.23624">
        <ele>1012.4055175781</ele>
        <time>2011-12-23T13:44:34Z</time>
      </trkpt>
      <trkpt lat="45.6456" lon="6.2362">
        <ele>1014.328125</ele>
        <time>2011-12-23T13:44:38Z</time>
      </trkpt>
      <trkpt lat="45.6456" lon="6.23612">
        <ele>1016.2507324219</ele>
        <time>2011-12-23T13:44:44Z</time>
      </trkpt>
      <trkpt lat="45.6456" lon="6.23604">
        <ele>1017.6926269531</ele>
        <time>2011-12-23T13:44:50Z</time>
      </trkpt>
      <trkpt lat="45.64561" lon="6.23598">
        <ele>1019.134765625</ele>
        <time>2011-12-23T13:44:55Z</time>
      </trkpt>
      <trkpt lat="45.64557" lon="6.23589">
        <ele>1025.3833007812</ele>
        <time>2011-12-23T13:45:00Z</time>
      </trkpt>
      <trkpt lat="45.64555" lon="6.2358">
        <ele>1025.3833007812</ele>
        <time>2011-12-23T13:45:05Z</time>
      </trkpt>
      <trkpt lat="45.64555" lon="6.23574">
        <ele>1027.3061523438</ele>
        <time>2011-12-23T13:45:09Z</time>
      </trkpt>
      <trkpt lat="45.64554" lon="6.23568">
        <ele>1028.748046875</ele>
        <time>2011-12-23T13:45:14Z</time>
      </trkpt>
      <trkpt lat="45.64554" lon="6.23562">
        <ele>1028.2673339844</ele>
        <time>2011-12-23T13:45:18Z</time>
      </trkpt>
      <trkpt lat="45.64552" lon="6.23551">
        <ele>1029.7092285156</ele>
        <time>2011-12-23T13:45:25Z</time>
      </trkpt>
      <trkpt lat="45.64554" lon="6.23543">
        <ele>1034.5158691406</ele>
        <time>2011-12-23T13:45:31Z</time>
      </trkpt>
      <trkpt lat="45.64553" lon="6.23539">
        <ele>1033.5544433594</ele>
        <time>2011-12-23T13:45:35Z</time>
      </trkpt>
      <trkpt lat="45.64551" lon="6.23532">
        <ele>1029.228515625</ele>
        <time>2011-12-23T13:45:40Z</time>
      </trkpt>
      <trkpt lat="45.64548" lon="6.23522">
        <ele>1024.4221191406</ele>
        <time>2011-12-23T13:45:46Z</time>
      </trkpt>
      <trkpt lat="45.64547" lon="6.23517">
        <ele>1024.4221191406</ele>
        <time>2011-12-23T13:45:51Z</time>
      </trkpt>
      <trkpt lat="45.64546" lon="6.23516">
        <ele>1025.3833007812</ele>
        <time>2011-12-23T13:45:52Z</time>
      </trkpt>
      <trkpt lat="45.64545" lon="6.23509">
        <ele>1020.5769042969</ele>
        <time>2011-12-23T13:45:57Z</time>
      </trkpt>
      <trkpt lat="45.64548" lon="6.23511">
        <ele>1007.5991210938</ele>
        <time>2011-12-23T13:46:04Z</time>
      </trkpt>
      <trkpt lat="45.64545" lon="6.23498">
        <ele>1010.9636230469</ele>
        <time>2011-12-23T13:46:13Z</time>
      </trkpt>
      <trkpt lat="45.64543" lon="6.23491">
        <ele>1011.9250488281</ele>
        <time>2011-12-23T13:46:17Z</time>
      </trkpt>
      <trkpt lat="45.64543" lon="6.23484">
        <ele>1014.328125</ele>
        <time>2011-12-23T13:46:22Z</time>
      </trkpt>
      <trkpt lat="45.64542" lon="6.23479">
        <ele>1016.7314453125</ele>
        <time>2011-12-23T13:46:27Z</time>
      </trkpt>
      <trkpt lat="45.6454" lon="6.23474">
        <ele>1019.134765625</ele>
        <time>2011-12-23T13:46:31Z</time>
      </trkpt>
      <trkpt lat="45.64537" lon="6.23468">
        <ele>1024.9028320312</ele>
        <time>2011-12-23T13:46:37Z</time>
      </trkpt>
      <trkpt lat="45.64534" lon="6.23462">
        <ele>1026.8254394531</ele>
        <time>2011-12-23T13:46:42Z</time>
      </trkpt>
      <trkpt lat="45.64533" lon="6.23456">
        <ele>1022.9802246094</ele>
        <time>2011-12-23T13:46:47Z</time>
      </trkpt>
      <trkpt lat="45.64532" lon="6.23451">
        <ele>1019.6154785156</ele>
        <time>2011-12-23T13:46:51Z</time>
      </trkpt>
      <trkpt lat="45.64531" lon="6.23441">
        <ele>1010.9636230469</ele>
        <time>2011-12-23T13:46:59Z</time>
      </trkpt>
      <trkpt lat="45.6453" lon="6.23435">
        <ele>1005.6765136719</ele>
        <time>2011-12-23T13:47:04Z</time>
      </trkpt>
      <trkpt lat="45.64531" lon="6.23431">
        <ele>1003.2729492188</ele>
        <time>2011-12-23T13:47:08Z</time>
      </trkpt>
      <trkpt lat="45.6453" lon="6.2343">
        <ele>1002.7922363281</ele>
        <time>2011-12-23T13:47:09Z</time>
      </trkpt>
      <trkpt lat="45.64528" lon="6.23417">
        <ele>1001.3503417969</ele>
        <time>2011-12-23T13:47:14Z</time>
      </trkpt>
      <trkpt lat="45.64524" lon="6.23412">
        <ele>1002.7922363281</ele>
        <time>2011-12-23T13:47:18Z</time>
      </trkpt>
      <trkpt lat="45.64522" lon="6.23405">
        <ele>1003.7536621094</ele>
        <time>2011-12-23T13:47:22Z</time>
      </trkpt>
      <trkpt lat="45.64522" lon="6.23399">
        <ele>1004.7150878906</ele>
        <time>2011-12-23T13:47:27Z</time>
      </trkpt>
      <trkpt lat="45.64522" lon="6.23393">
        <ele>1005.6765136719</ele>
        <time>2011-12-23T13:47:31Z</time>
      </trkpt>
      <trkpt lat="45.64523" lon="6.23387">
        <ele>1004.7150878906</ele>
        <time>2011-12-23T13:47:35Z</time>
      </trkpt>
      <trkpt lat="45.64523" lon="6.23383">
        <ele>1004.2346191406</ele>
        <time>2011-12-23T13:47:38Z</time>
      </trkpt>
      <trkpt lat="45.64521" lon="6.23375">
        <ele>1004.7150878906</ele>
        <time>2011-12-23T13:47:44Z</time>
      </trkpt>
      <trkpt lat="45.64518" lon="6.23371">
        <ele>1002.7922363281</ele>
        <time>2011-12-23T13:47:49Z</time>
      </trkpt>
      <trkpt lat="45.64512" lon="6.23361">
        <ele>1007.1184082031</ele>
        <time>2011-12-23T13:48:01Z</time>
      </trkpt>
      <trkpt lat="45.64513" lon="6.23358">
        <ele>1005.1958007812</ele>
        <time>2011-12-23T13:48:05Z</time>
      </trkpt>
      <trkpt lat="45.64503" lon="6.23353">
        <ele>1008.0798339844</ele>
        <time>2011-12-23T13:48:20Z</time>
      </trkpt>
      <trkpt lat="45.64503" lon="6.23353">
        <ele>1004.7150878906</ele>
        <time>2011-12-23T13:48:24Z</time>
      </trkpt>
      <trkpt lat="45.64496" lon="6.23358">
        <ele>991.25659179688</ele>
        <time>2011-12-23T13:48:42Z</time>
      </trkpt>
      <trkpt lat="45.64493" lon="6.2336">
        <ele>995.58251953125</ele>
        <time>2011-12-23T13:49:01Z</time>
      </trkpt>
      <trkpt lat="45.64497" lon="6.23365">
        <ele>996.5439453125</ele>
        <time>2011-12-23T13:49:10Z</time>
      </trkpt>
      <trkpt lat="45.64491" lon="6.23371">
        <ele>996.06323242188</ele>
        <time>2011-12-23T13:49:13Z</time>
      </trkpt>
      <trkpt lat="45.64487" lon="6.23374">
        <ele>996.06323242188</ele>
        <time>2011-12-23T13:49:16Z</time>
      </trkpt>
      <trkpt lat="45.64505" lon="6.23393">
        <ele>985.00805664062</ele>
        <time>2011-12-23T13:49:25Z</time>
      </trkpt>
      <trkpt lat="45.64511" lon="6.23393">
        <ele>976.8369140625</ele>
        <time>2011-12-23T13:49:28Z</time>
      </trkpt>
      <trkpt lat="45.64528" lon="6.23412">
        <ele>949.43920898438</ele>
        <time>2011-12-23T13:49:36Z</time>
      </trkpt>
      <trkpt lat="45.64527" lon="6.2341">
        <ele>948.47778320312</ele>
        <time>2011-12-23T13:49:42Z</time>
      </trkpt>
      <trkpt lat="45.64521" lon="6.23402">
        <ele>954.24584960938</ele>
        <time>2011-12-23T13:49:55Z</time>
      </trkpt>
      <trkpt lat="45.64511" lon="6.23388">
        <ele>970.107421875</ele>
        <time>2011-12-23T13:50:05Z</time>
      </trkpt>
      <trkpt lat="45.645" lon="6.23372">
        <ele>989.333984375</ele>
        <time>2011-12-23T13:50:15Z</time>
      </trkpt>
      <trkpt lat="45.64501" lon="6.23373">
        <ele>988.853515625</ele>
        <time>2011-12-23T13:50:20Z</time>
      </trkpt>
      <trkpt lat="45.64502" lon="6.2337">
        <ele>989.333984375</ele>
        <time>2011-12-23T13:50:24Z</time>
      </trkpt>
      <trkpt lat="45.64496" lon="6.23375">
        <ele>1006.1569824219</ele>
        <time>2011-12-23T13:51:23Z</time>
      </trkpt>
      <trkpt lat="45.64488" lon="6.2336">
        <ele>1010.9636230469</ele>
        <time>2011-12-23T13:51:28Z</time>
      </trkpt>
      <trkpt lat="45.64487" lon="6.23355">
        <ele>1010.9636230469</ele>
        <time>2011-12-23T13:51:42Z</time>
      </trkpt>
      <trkpt lat="45.64494" lon="6.23363">
        <ele>1010.9636230469</ele>
        <time>2011-12-23T13:51:49Z</time>
      </trkpt>
      <trkpt lat="45.64516" lon="6.23372">
        <ele>989.81469726562</ele>
        <time>2011-12-23T13:52:27Z</time>
      </trkpt>
      <trkpt lat="45.64525" lon="6.23389">
        <ele>964.33959960938</ele>
        <time>2011-12-23T13:52:35Z</time>
      </trkpt>
      <trkpt lat="45.64523" lon="6.23395">
        <ele>955.68774414062</ele>
        <time>2011-12-23T13:52:40Z</time>
      </trkpt>
      <trkpt lat="45.64529" lon="6.23402">
        <ele>943.67138671875</ele>
        <time>2011-12-23T13:52:47Z</time>
      </trkpt>
      <trkpt lat="45.64528" lon="6.23411">
        <ele>938.86474609375</ele>
        <time>2011-12-23T13:52:52Z</time>
      </trkpt>
      <trkpt lat="45.64528" lon="6.23411">
        <ele>938.38403320312</ele>
        <time>2011-12-23T13:52:58Z</time>
      </trkpt>
      <trkpt lat="45.64532" lon="6.23412">
        <ele>933.57739257812</ele>
        <time>2011-12-23T13:53:03Z</time>
      </trkpt>
      <trkpt lat="45.64524" lon="6.23408">
        <ele>940.30688476562</ele>
        <time>2011-12-23T13:53:08Z</time>
      </trkpt>
      <trkpt lat="45.64505" lon="6.23387">
        <ele>972.99169921875</ele>
        <time>2011-12-23T13:53:17Z</time>
      </trkpt>
      <trkpt lat="45.64497" lon="6.23376">
        <ele>991.7373046875</ele>
        <time>2011-12-23T13:53:24Z</time>
      </trkpt>
      <trkpt lat="45.64498" lon="6.23372">
        <ele>993.65991210938</ele>
        <time>2011-12-23T13:53:31Z</time>
      </trkpt>
      <trkpt lat="45.64501" lon="6.23362">
        <ele>1005.1958007812</ele>
        <time>2011-12-23T13:53:37Z</time>
      </trkpt>
      <trkpt lat="45.64505" lon="6.23366">
        <ele>1000.8696289062</ele>
        <time>2011-12-23T13:53:43Z</time>
      </trkpt>
      <trkpt lat="45.64505" lon="6.23362">
        <ele>999.427734375</ele>
        <time>2011-12-23T13:53:48Z</time>
      </trkpt>
      <trkpt lat="45.64508" lon="6.23366">
        <ele>989.333984375</ele>
        <time>2011-12-23T13:53:59Z</time>
      </trkpt>
      <trkpt lat="45.64511" lon="6.23349">
        <ele>957.1298828125</ele>
        <time>2011-12-23T13:54:51Z</time>
      </trkpt>
      <trkpt lat="45.64516" lon="6.2335">
        <ele>958.57177734375</ele>
        <time>2011-12-23T13:54:59Z</time>
      </trkpt>
      <trkpt lat="45.64473" lon="6.23318">
        <ele>983.56591796875</ele>
        <time>2011-12-23T13:55:05Z</time>
      </trkpt>
      <trkpt lat="45.64455" lon="6.23313">
        <ele>1017.2121582031</ele>
        <time>2011-12-23T13:55:11Z</time>
      </trkpt>
      <trkpt lat="45.6446" lon="6.23324">
        <ele>1027.3061523438</ele>
        <time>2011-12-23T13:55:29Z</time>
      </trkpt>
      <trkpt lat="45.64479" lon="6.2335">
        <ele>1008.0798339844</ele>
        <time>2011-12-23T13:55:40Z</time>
      </trkpt>
      <trkpt lat="45.64482" lon="6.2335">
        <ele>1008.5603027344</ele>
        <time>2011-12-23T13:55:45Z</time>
      </trkpt>
      <trkpt lat="45.64482" lon="6.23351">
        <ele>1008.5603027344</ele>
        <time>2011-12-23T13:55:46Z</time>
      </trkpt>
      <trkpt lat="45.64484" lon="6.23343">
        <ele>1006.6376953125</ele>
        <time>2011-12-23T13:55:50Z</time>
      </trkpt>
      <trkpt lat="45.64491" lon="6.23352">
        <ele>1003.7536621094</ele>
        <time>2011-12-23T13:55:54Z</time>
      </trkpt>
      <trkpt lat="45.64494" lon="6.23359">
        <ele>1002.3115234375</ele>
        <time>2011-12-23T13:55:56Z</time>
      </trkpt>
      <trkpt lat="45.64495" lon="6.23365">
        <ele>1004.7150878906</ele>
        <time>2011-12-23T13:55:57Z</time>
      </trkpt>
      <trkpt lat="45.64497" lon="6.2337">
        <ele>1003.2729492188</ele>
        <time>2011-12-23T13:56:00Z</time>
      </trkpt>
      <trkpt lat="45.64498" lon="6.2337">
        <ele>1002.7922363281</ele>
        <time>2011-12-23T13:56:01Z</time>
      </trkpt>
      <trkpt lat="45.64498" lon="6.2337">
        <ele>1000.8696289062</ele>
        <time>2011-12-23T13:56:04Z</time>
      </trkpt>
      <trkpt lat="45.64489" lon="6.23347">
        <ele>997.0244140625</ele>
        <time>2011-12-23T13:56:11Z</time>
      </trkpt>
      <trkpt lat="45.64497" lon="6.23356">
        <ele>979.720703125</ele>
        <time>2011-12-23T13:56:16Z</time>
      </trkpt>
      <trkpt lat="45.64504" lon="6.23371">
        <ele>996.06323242188</ele>
        <time>2011-12-23T13:56:22Z</time>
      </trkpt>
      <trkpt lat="45.64502" lon="6.23368">
        <ele>1005.6765136719</ele>
        <time>2011-12-23T13:56:25Z</time>
      </trkpt>
      <trkpt lat="45.645" lon="6.23365">
        <ele>1011.9250488281</ele>
        <time>2011-12-23T13:56:27Z</time>
      </trkpt>
      <trkpt lat="45.645" lon="6.23365">
        <ele>1012.4055175781</ele>
        <time>2011-12-23T13:56:28Z</time>
      </trkpt>
      <trkpt lat="45.64497" lon="6.23362">
        <ele>1014.8088378906</ele>
        <time>2011-12-23T13:56:31Z</time>
      </trkpt>
      <trkpt lat="45.64496" lon="6.23357">
        <ele>1012.4055175781</ele>
        <time>2011-12-23T13:56:36Z</time>
      </trkpt>
      <trkpt lat="45.64502" lon="6.23358">
        <ele>1007.1184082031</ele>
        <time>2011-12-23T13:56:40Z</time>
      </trkpt>
      <trkpt lat="45.64511" lon="6.23364">
        <ele>989.333984375</ele>
        <time>2011-12-23T13:56:47Z</time>
      </trkpt>
      <trkpt lat="45.64511" lon="6.23367">
        <ele>982.1240234375</ele>
        <time>2011-12-23T13:56:54Z</time>
      </trkpt>
      <trkpt lat="45.64505" lon="6.23369">
        <ele>978.27880859375</ele>
        <time>2011-12-23T13:57:12Z</time>
      </trkpt>
      <trkpt lat="45.645" lon="6.23357">
        <ele>987.89184570312</ele>
        <time>2011-12-23T13:57:19Z</time>
      </trkpt>
      <trkpt lat="45.64507" lon="6.23355">
        <ele>971.54931640625</ele>
        <time>2011-12-23T13:57:46Z</time>
      </trkpt>
      <trkpt lat="45.64506" lon="6.23351">
        <ele>970.58813476562</ele>
        <time>2011-12-23T13:58:24Z</time>
      </trkpt>
      <trkpt lat="45.64507" lon="6.23345">
        <ele>988.37280273438</ele>
        <time>2011-12-23T13:58:35Z</time>
      </trkpt>
      <trkpt lat="45.64502" lon="6.23336">
        <ele>995.10180664062</ele>
        <time>2011-12-23T13:58:39Z</time>
      </trkpt>
      <trkpt lat="45.645" lon="6.23327">
        <ele>1012.4055175781</ele>
        <time>2011-12-23T13:58:44Z</time>
      </trkpt>
      <trkpt lat="45.64495" lon="6.23326">
        <ele>1016.2507324219</ele>
        <time>2011-12-23T13:58:51Z</time>
      </trkpt>
      <trkpt lat="45.64492" lon="6.23324">
        <ele>1007.1184082031</ele>
        <time>2011-12-23T13:59:00Z</time>
      </trkpt>
      <trkpt lat="45.645" lon="6.23333">
        <ele>995.10180664062</ele>
        <time>2011-12-23T13:59:09Z</time>
      </trkpt>
      <trkpt lat="45.64509" lon="6.23345">
        <ele>985.00805664062</ele>
        <time>2011-12-23T13:59:18Z</time>
      </trkpt>
      <trkpt lat="45.6451" lon="6.23352">
        <ele>990.77587890625</ele>
        <time>2011-12-23T13:59:24Z</time>
      </trkpt>
      <trkpt lat="45.6451" lon="6.23356">
        <ele>987.89184570312</ele>
        <time>2011-12-23T13:59:31Z</time>
      </trkpt>
      <trkpt lat="45.6451" lon="6.23352">
        <ele>987.4111328125</ele>
        <time>2011-12-23T13:59:35Z</time>
      </trkpt>
      <trkpt lat="45.64512" lon="6.23351">
        <ele>986.44995117188</ele>
        <time>2011-12-23T13:59:41Z</time>
      </trkpt>
      <trkpt lat="45.64514" lon="6.23348">
        <ele>985.48852539062</ele>
        <time>2011-12-23T13:59:45Z</time>
      </trkpt>
      <trkpt lat="45.64515" lon="6.23345">
        <ele>985.00805664062</ele>
        <time>2011-12-23T13:59:51Z</time>
      </trkpt>
      <trkpt lat="45.64516" lon="6.23345">
        <ele>984.52734375</ele>
        <time>2011-12-23T13:59:57Z</time>
      </trkpt>
      <trkpt lat="45.64519" lon="6.23337">
        <ele>994.140625</ele>
        <time>2011-12-23T14:00:15Z</time>
      </trkpt>
      <trkpt lat="45.64527" lon="6.23344">
        <ele>987.89184570312</ele>
        <time>2011-12-23T14:00:20Z</time>
      </trkpt>
      <trkpt lat="45.64525" lon="6.23345">
        <ele>979.720703125</ele>
        <time>2011-12-23T14:00:30Z</time>
      </trkpt>
      <trkpt lat="45.64536" lon="6.23348">
        <ele>974.91430664062</ele>
        <time>2011-12-23T14:00:44Z</time>
      </trkpt>
      <trkpt lat="45.64532" lon="6.23339">
        <ele>981.64331054688</ele>
        <time>2011-12-23T14:00:48Z</time>
      </trkpt>
      <trkpt lat="45.64526" lon="6.23332">
        <ele>986.44995117188</ele>
        <time>2011-12-23T14:00:53Z</time>
      </trkpt>
      <trkpt lat="45.64523" lon="6.23324">
        <ele>986.93041992188</ele>
        <time>2011-12-23T14:00:57Z</time>
      </trkpt>
      <trkpt lat="45.64518" lon="6.23315">
        <ele>984.52734375</ele>
        <time>2011-12-23T14:01:02Z</time>
      </trkpt>
      <trkpt lat="45.64513" lon="6.23302">
        <ele>989.81469726562</ele>
        <time>2011-12-23T14:01:08Z</time>
      </trkpt>
      <trkpt lat="45.64512" lon="6.23295">
        <ele>991.7373046875</ele>
        <time>2011-12-23T14:01:12Z</time>
      </trkpt>
      <trkpt lat="45.6451" lon="6.23281">
        <ele>990.77587890625</ele>
        <time>2011-12-23T14:01:21Z</time>
      </trkpt>
      <trkpt lat="45.64508" lon="6.23275">
        <ele>997.50512695312</ele>
        <time>2011-12-23T14:01:25Z</time>
      </trkpt>
      <trkpt lat="45.64503" lon="6.23264">
        <ele>1010.0021972656</ele>
        <time>2011-12-23T14:01:31Z</time>
      </trkpt>
      <trkpt lat="45.64503" lon="6.23254">
        <ele>1012.8862304688</ele>
        <time>2011-12-23T14:01:38Z</time>
      </trkpt>
      <trkpt lat="45.64503" lon="6.23244">
        <ele>1006.6376953125</ele>
        <time>2011-12-23T14:01:43Z</time>
      </trkpt>
      <trkpt lat="45.64502" lon="6.23232">
        <ele>999.90844726562</ele>
        <time>2011-12-23T14:01:49Z</time>
      </trkpt>
      <trkpt lat="45.64501" lon="6.23228">
        <ele>998.94702148438</ele>
        <time>2011-12-23T14:01:55Z</time>
      </trkpt>
      <trkpt lat="45.645" lon="6.23223">
        <ele>1005.6765136719</ele>
        <time>2011-12-23T14:02:07Z</time>
      </trkpt>
      <trkpt lat="45.645" lon="6.2322">
        <ele>1005.1958007812</ele>
        <time>2011-12-23T14:02:09Z</time>
      </trkpt>
      <trkpt lat="45.645" lon="6.23209">
        <ele>998.94702148438</ele>
        <time>2011-12-23T14:02:15Z</time>
      </trkpt>
      <trkpt lat="45.64499" lon="6.23199">
        <ele>995.10180664062</ele>
        <time>2011-12-23T14:02:19Z</time>
      </trkpt>
      <trkpt lat="45.64501" lon="6.23197">
        <ele>990.77587890625</ele>
        <time>2011-12-23T14:02:21Z</time>
      </trkpt>
      <trkpt lat="45.64501" lon="6.23189">
        <ele>985.48852539062</ele>
        <time>2011-12-23T14:02:26Z</time>
      </trkpt>
      <trkpt lat="45.64502" lon="6.23184">
        <ele>983.08520507812</ele>
        <time>2011-12-23T14:02:29Z</time>
      </trkpt>
      <trkpt lat="45.64503" lon="6.23176">
        <ele>982.60473632812</ele>
        <time>2011-12-23T14:02:34Z</time>
      </trkpt>
      <trkpt lat="45.64505" lon="6.23172">
        <ele>981.16284179688</ele>
        <time>2011-12-23T14:02:37Z</time>
      </trkpt>
      <trkpt lat="45.64506" lon="6.23163">
        <ele>980.68212890625</ele>
        <time>2011-12-23T14:02:41Z</time>
      </trkpt>
      <trkpt lat="45.64507" lon="6.23155">
        <ele>978.75952148438</ele>
        <time>2011-12-23T14:02:45Z</time>
      </trkpt>
      <trkpt lat="45.64509" lon="6.23148">
        <ele>977.79809570312</ele>
        <time>2011-12-23T14:02:49Z</time>
      </trkpt>
      <trkpt lat="45.64509" lon="6.23138">
        <ele>979.720703125</ele>
        <time>2011-12-23T14:02:54Z</time>
      </trkpt>
      <trkpt lat="45.64504" lon="6.23126">
        <ele>983.56591796875</ele>
        <time>2011-12-23T14:02:58Z</time>
      </trkpt>
      <trkpt lat="45.64508" lon="6.23117">
        <ele>987.4111328125</ele>
        <time>2011-12-23T14:03:04Z</time>
      </trkpt>
      <trkpt lat="45.64511" lon="6.23111">
        <ele>991.7373046875</ele>
        <time>2011-12-23T14:03:09Z</time>
      </trkpt>
      <trkpt lat="45.64515" lon="6.23096">
        <ele>985.48852539062</ele>
        <time>2011-12-23T14:03:17Z</time>
      </trkpt>
      <trkpt lat="45.64515" lon="6.23087">
        <ele>984.52734375</ele>
        <time>2011-12-23T14:03:22Z</time>
      </trkpt>
      <trkpt lat="45.64516" lon="6.23078">
        <ele>984.04663085938</ele>
        <time>2011-12-23T14:03:27Z</time>
      </trkpt>
      <trkpt lat="45.64517" lon="6.23066">
        <ele>981.16284179688</ele>
        <time>2011-12-23T14:03:33Z</time>
      </trkpt>
      <trkpt lat="45.64516" lon="6.23056">
        <ele>980.68212890625</ele>
        <time>2011-12-23T14:03:38Z</time>
      </trkpt>
      <trkpt lat="45.64518" lon="6.23042">
        <ele>978.27880859375</ele>
        <time>2011-12-23T14:03:46Z</time>
      </trkpt>
      <trkpt lat="45.64517" lon="6.2303">
        <ele>976.8369140625</ele>
        <time>2011-12-23T14:03:53Z</time>
      </trkpt>
      <trkpt lat="45.64515" lon="6.23015">
        <ele>979.23999023438</ele>
        <time>2011-12-23T14:04:03Z</time>
      </trkpt>
      <trkpt lat="45.64516" lon="6.23002">
        <ele>972.51098632812</ele>
        <time>2011-12-23T14:04:10Z</time>
      </trkpt>
      <trkpt lat="45.64516" lon="6.22988">
        <ele>968.18481445312</ele>
        <time>2011-12-23T14:04:17Z</time>
      </trkpt>
      <trkpt lat="45.64516" lon="6.22986">
        <ele>967.7041015625</ele>
        <time>2011-12-23T14:04:18Z</time>
      </trkpt>
      <trkpt lat="45.64516" lon="6.22981">
        <ele>966.26220703125</ele>
        <time>2011-12-23T14:04:21Z</time>
      </trkpt>
      <trkpt lat="45.64518" lon="6.22971">
        <ele>963.85888671875</ele>
        <time>2011-12-23T14:04:26Z</time>
      </trkpt>
      <trkpt lat="45.64519" lon="6.22967">
        <ele>962.4169921875</ele>
        <time>2011-12-23T14:04:29Z</time>
      </trkpt>
      <trkpt lat="45.64516" lon="6.22955">
        <ele>960.97509765625</ele>
        <time>2011-12-23T14:04:36Z</time>
      </trkpt>
      <trkpt lat="45.64513" lon="6.2295">
        <ele>961.45581054688</ele>
        <time>2011-12-23T14:04:40Z</time>
      </trkpt>
      <trkpt lat="45.64508" lon="6.22943">
        <ele>961.9365234375</ele>
        <time>2011-12-23T14:04:46Z</time>
      </trkpt>
      <trkpt lat="45.64502" lon="6.22931">
        <ele>960.97509765625</ele>
        <time>2011-12-23T14:04:53Z</time>
      </trkpt>
      <trkpt lat="45.645" lon="6.22922">
        <ele>959.533203125</ele>
        <time>2011-12-23T14:04:57Z</time>
      </trkpt>
      <trkpt lat="45.64499" lon="6.22908">
        <ele>957.61059570312</ele>
        <time>2011-12-23T14:05:03Z</time>
      </trkpt>
      <trkpt lat="45.645" lon="6.22894">
        <ele>957.1298828125</ele>
        <time>2011-12-23T14:05:10Z</time>
      </trkpt>
      <trkpt lat="45.64503" lon="6.22883">
        <ele>956.16845703125</ele>
        <time>2011-12-23T14:05:17Z</time>
      </trkpt>
      <trkpt lat="45.64506" lon="6.22875">
        <ele>958.09130859375</ele>
        <time>2011-12-23T14:05:22Z</time>
      </trkpt>
      <trkpt lat="45.64514" lon="6.22867">
        <ele>964.33959960938</ele>
        <time>2011-12-23T14:05:27Z</time>
      </trkpt>
      <trkpt lat="45.64515" lon="6.22864">
        <ele>964.33959960938</ele>
        <time>2011-12-23T14:05:29Z</time>
      </trkpt>
      <trkpt lat="45.64518" lon="6.22852">
        <ele>964.33959960938</ele>
        <time>2011-12-23T14:05:36Z</time>
      </trkpt>
      <trkpt lat="45.64517" lon="6.22841">
        <ele>963.37841796875</ele>
        <time>2011-12-23T14:05:42Z</time>
      </trkpt>
      <trkpt lat="45.64517" lon="6.22834">
        <ele>965.30102539062</ele>
        <time>2011-12-23T14:05:46Z</time>
      </trkpt>
      <trkpt lat="45.64518" lon="6.2283">
        <ele>969.14624023438</ele>
        <time>2011-12-23T14:05:49Z</time>
      </trkpt>
      <trkpt lat="45.64521" lon="6.22827">
        <ele>969.626953125</ele>
        <time>2011-12-23T14:05:51Z</time>
      </trkpt>
      <trkpt lat="45.64517" lon="6.22813">
        <ele>965.30102539062</ele>
        <time>2011-12-23T14:05:58Z</time>
      </trkpt>
      <trkpt lat="45.64518" lon="6.2281">
        <ele>965.30102539062</ele>
        <time>2011-12-23T14:06:00Z</time>
      </trkpt>
      <trkpt lat="45.64518" lon="6.22799">
        <ele>967.2236328125</ele>
        <time>2011-12-23T14:06:06Z</time>
      </trkpt>
      <trkpt lat="45.64517" lon="6.22795">
        <ele>965.78173828125</ele>
        <time>2011-12-23T14:06:08Z</time>
      </trkpt>
      <trkpt lat="45.6452" lon="6.22781">
        <ele>964.8203125</ele>
        <time>2011-12-23T14:06:17Z</time>
      </trkpt>
      <trkpt lat="45.64523" lon="6.22772">
        <ele>966.26220703125</ele>
        <time>2011-12-23T14:06:22Z</time>
      </trkpt>
      <trkpt lat="45.64522" lon="6.2276">
        <ele>966.74291992188</ele>
        <time>2011-12-23T14:06:29Z</time>
      </trkpt>
      <trkpt lat="45.64523" lon="6.22754">
        <ele>970.107421875</ele>
        <time>2011-12-23T14:06:33Z</time>
      </trkpt>
      <trkpt lat="45.64524" lon="6.22745">
        <ele>969.626953125</ele>
        <time>2011-12-23T14:06:38Z</time>
      </trkpt>
      <trkpt lat="45.64519" lon="6.22738">
        <ele>967.7041015625</ele>
        <time>2011-12-23T14:06:43Z</time>
      </trkpt>
      <trkpt lat="45.64516" lon="6.22731">
        <ele>965.30102539062</ele>
        <time>2011-12-23T14:06:53Z</time>
      </trkpt>
      <trkpt lat="45.64516" lon="6.22726">
        <ele>965.78173828125</ele>
        <time>2011-12-23T14:06:58Z</time>
      </trkpt>
      <trkpt lat="45.64515" lon="6.22719">
        <ele>964.8203125</ele>
        <time>2011-12-23T14:07:03Z</time>
      </trkpt>
      <trkpt lat="45.64515" lon="6.22712">
        <ele>963.85888671875</ele>
        <time>2011-12-23T14:07:07Z</time>
      </trkpt>
      <trkpt lat="45.64513" lon="6.22703">
        <ele>962.4169921875</ele>
        <time>2011-12-23T14:07:13Z</time>
      </trkpt>
      <trkpt lat="45.64511" lon="6.22699">
        <ele>962.4169921875</ele>
        <time>2011-12-23T14:07:19Z</time>
      </trkpt>
      <trkpt lat="45.6451" lon="6.227">
        <ele>963.37841796875</ele>
        <time>2011-12-23T14:07:24Z</time>
      </trkpt>
      <trkpt lat="45.64513" lon="6.22703">
        <ele>963.37841796875</ele>
        <time>2011-12-23T14:07:42Z</time>
      </trkpt>
      <trkpt lat="45.64512" lon="6.22695">
        <ele>960.49438476562</ele>
        <time>2011-12-23T14:07:48Z</time>
      </trkpt>
      <trkpt lat="45.64511" lon="6.22686">
        <ele>959.533203125</ele>
        <time>2011-12-23T14:07:54Z</time>
      </trkpt>
      <trkpt lat="45.6451" lon="6.22676">
        <ele>958.57177734375</ele>
        <time>2011-12-23T14:07:59Z</time>
      </trkpt>
      <trkpt lat="45.6451" lon="6.22667">
        <ele>955.68774414062</ele>
        <time>2011-12-23T14:08:04Z</time>
      </trkpt>
      <trkpt lat="45.64509" lon="6.22658">
        <ele>955.20703125</ele>
        <time>2011-12-23T14:08:08Z</time>
      </trkpt>
      <trkpt lat="45.6451" lon="6.22654">
        <ele>954.72631835938</ele>
        <time>2011-12-23T14:08:10Z</time>
      </trkpt>
      <trkpt lat="45.64513" lon="6.22644">
        <ele>953.76513671875</ele>
        <time>2011-12-23T14:08:16Z</time>
      </trkpt>
      <trkpt lat="45.64513" lon="6.22634">
        <ele>953.76513671875</ele>
        <time>2011-12-23T14:08:21Z</time>
      </trkpt>
      <trkpt lat="45.64515" lon="6.22629">
        <ele>956.16845703125</ele>
        <time>2011-12-23T14:08:24Z</time>
      </trkpt>
      <trkpt lat="45.64522" lon="6.2262">
        <ele>961.9365234375</ele>
        <time>2011-12-23T14:08:30Z</time>
      </trkpt>
      <trkpt lat="45.64523" lon="6.22617">
        <ele>961.9365234375</ele>
        <time>2011-12-23T14:08:32Z</time>
      </trkpt>
      <trkpt lat="45.64526" lon="6.22612">
        <ele>960.97509765625</ele>
        <time>2011-12-23T14:08:37Z</time>
      </trkpt>
      <trkpt lat="45.64532" lon="6.22606">
        <ele>963.85888671875</ele>
        <time>2011-12-23T14:08:44Z</time>
      </trkpt>
      <trkpt lat="45.64532" lon="6.22605">
        <ele>962.89770507812</ele>
        <time>2011-12-23T14:08:45Z</time>
      </trkpt>
      <trkpt lat="45.64537" lon="6.22602">
        <ele>962.89770507812</ele>
        <time>2011-12-23T14:08:50Z</time>
      </trkpt>
      <trkpt lat="45.64541" lon="6.22598">
        <ele>959.533203125</ele>
        <time>2011-12-23T14:08:55Z</time>
      </trkpt>
      <trkpt lat="45.64545" lon="6.22599">
        <ele>959.533203125</ele>
        <time>2011-12-23T14:08:59Z</time>
      </trkpt>
      <trkpt lat="45.64549" lon="6.22596">
        <ele>955.20703125</ele>
        <time>2011-12-23T14:09:04Z</time>
      </trkpt>
      <trkpt lat="45.64552" lon="6.22592">
        <ele>955.68774414062</ele>
        <time>2011-12-23T14:09:08Z</time>
      </trkpt>
      <trkpt lat="45.64556" lon="6.22585">
        <ele>955.68774414062</ele>
        <time>2011-12-23T14:09:13Z</time>
      </trkpt>
      <trkpt lat="45.64559" lon="6.22574">
        <ele>954.24584960938</ele>
        <time>2011-12-23T14:09:20Z</time>
      </trkpt>
      <trkpt lat="45.6456" lon="6.22568">
        <ele>954.24584960938</ele>
        <time>2011-12-23T14:09:24Z</time>
      </trkpt>
      <trkpt lat="45.64562" lon="6.22563">
        <ele>953.76513671875</ele>
        <time>2011-12-23T14:09:28Z</time>
      </trkpt>
      <trkpt lat="45.64564" lon="6.22559">
        <ele>952.8037109375</ele>
        <time>2011-12-23T14:09:31Z</time>
      </trkpt>
      <trkpt lat="45.64566" lon="6.22558">
        <ele>952.32299804688</ele>
        <time>2011-12-23T14:09:33Z</time>
      </trkpt>
      <trkpt lat="45.64568" lon="6.22552">
        <ele>951.84252929688</ele>
        <time>2011-12-23T14:09:37Z</time>
      </trkpt>
      <trkpt lat="45.64569" lon="6.22545">
        <ele>950.88110351562</ele>
        <time>2011-12-23T14:09:42Z</time>
      </trkpt>
      <trkpt lat="45.6457" lon="6.22541">
        <ele>950.40063476562</ele>
        <time>2011-12-23T14:09:45Z</time>
      </trkpt>
      <trkpt lat="45.64571" lon="6.2253">
        <ele>949.43920898438</ele>
        <time>2011-12-23T14:09:53Z</time>
      </trkpt>
      <trkpt lat="45.64572" lon="6.22515">
        <ele>948.95849609375</ele>
        <time>2011-12-23T14:10:03Z</time>
      </trkpt>
      <trkpt lat="45.64573" lon="6.22504">
        <ele>947.5166015625</ele>
        <time>2011-12-23T14:10:10Z</time>
      </trkpt>
      <trkpt lat="45.64576" lon="6.22493">
        <ele>947.99731445312</ele>
        <time>2011-12-23T14:10:16Z</time>
      </trkpt>
      <trkpt lat="45.64577" lon="6.22484">
        <ele>946.55541992188</ele>
        <time>2011-12-23T14:10:21Z</time>
      </trkpt>
      <trkpt lat="45.64578" lon="6.2247">
        <ele>944.63256835938</ele>
        <time>2011-12-23T14:10:29Z</time>
      </trkpt>
      <trkpt lat="45.6458" lon="6.22458">
        <ele>942.71020507812</ele>
        <time>2011-12-23T14:10:36Z</time>
      </trkpt>
      <trkpt lat="45.64581" lon="6.22451">
        <ele>942.71020507812</ele>
        <time>2011-12-23T14:10:40Z</time>
      </trkpt>
      <trkpt lat="45.64581" lon="6.22442">
        <ele>942.71020507812</ele>
        <time>2011-12-23T14:10:45Z</time>
      </trkpt>
      <trkpt lat="45.64582" lon="6.22441">
        <ele>942.71020507812</ele>
        <time>2011-12-23T14:10:46Z</time>
      </trkpt>
      <trkpt lat="45.64582" lon="6.2243">
        <ele>948.47778320312</ele>
        <time>2011-12-23T14:10:52Z</time>
      </trkpt>
      <trkpt lat="45.6458" lon="6.2242">
        <ele>949.919921875</ele>
        <time>2011-12-23T14:10:57Z</time>
      </trkpt>
      <trkpt lat="45.64579" lon="6.22415">
        <ele>949.43920898438</ele>
        <time>2011-12-23T14:11:01Z</time>
      </trkpt>
      <trkpt lat="45.64577" lon="6.22402">
        <ele>947.99731445312</ele>
        <time>2011-12-23T14:11:08Z</time>
      </trkpt>
      <trkpt lat="45.64574" lon="6.22392">
        <ele>944.15209960938</ele>
        <time>2011-12-23T14:11:13Z</time>
      </trkpt>
      <trkpt lat="45.64569" lon="6.22384">
        <ele>941.26806640625</ele>
        <time>2011-12-23T14:11:17Z</time>
      </trkpt>
      <trkpt lat="45.64566" lon="6.22376">
        <ele>941.26806640625</ele>
        <time>2011-12-23T14:11:22Z</time>
      </trkpt>
      <trkpt lat="45.64565" lon="6.22365">
        <ele>941.74877929688</ele>
        <time>2011-12-23T14:11:28Z</time>
      </trkpt>
      <trkpt lat="45.64562" lon="6.22355">
        <ele>938.86474609375</ele>
        <time>2011-12-23T14:11:35Z</time>
      </trkpt>
      <trkpt lat="45.64561" lon="6.2235">
        <ele>938.86474609375</ele>
        <time>2011-12-23T14:11:38Z</time>
      </trkpt>
      <trkpt lat="45.64562" lon="6.22342">
        <ele>942.2294921875</ele>
        <time>2011-12-23T14:11:43Z</time>
      </trkpt>
      <trkpt lat="45.64559" lon="6.22331">
        <ele>943.19067382812</ele>
        <time>2011-12-23T14:11:50Z</time>
      </trkpt>
      <trkpt lat="45.64558" lon="6.22323">
        <ele>946.07470703125</ele>
        <time>2011-12-23T14:11:55Z</time>
      </trkpt>
      <trkpt lat="45.64553" lon="6.22314">
        <ele>943.67138671875</ele>
        <time>2011-12-23T14:12:02Z</time>
      </trkpt>
      <trkpt lat="45.64551" lon="6.22309">
        <ele>944.63256835938</ele>
        <time>2011-12-23T14:12:06Z</time>
      </trkpt>
      <trkpt lat="45.64544" lon="6.22299">
        <ele>941.74877929688</ele>
        <time>2011-12-23T14:12:13Z</time>
      </trkpt>
      <trkpt lat="45.64538" lon="6.2229">
        <ele>939.82592773438</ele>
        <time>2011-12-23T14:12:19Z</time>
      </trkpt>
      <trkpt lat="45.64532" lon="6.2228">
        <ele>937.9033203125</ele>
        <time>2011-12-23T14:12:27Z</time>
      </trkpt>
      <trkpt lat="45.64526" lon="6.22273">
        <ele>936.46142578125</ele>
        <time>2011-12-23T14:12:33Z</time>
      </trkpt>
      <trkpt lat="45.64521" lon="6.22264">
        <ele>935.01953125</ele>
        <time>2011-12-23T14:12:41Z</time>
      </trkpt>
      <trkpt lat="45.6452" lon="6.2226">
        <ele>935.01953125</ele>
        <time>2011-12-23T14:12:44Z</time>
      </trkpt>
      <trkpt lat="45.6452" lon="6.22252">
        <ele>935.5</ele>
        <time>2011-12-23T14:12:49Z</time>
      </trkpt>
      <trkpt lat="45.6452" lon="6.22248">
        <ele>935.01953125</ele>
        <time>2011-12-23T14:12:51Z</time>
      </trkpt>
      <trkpt lat="45.64521" lon="6.22244">
        <ele>934.05810546875</ele>
        <time>2011-12-23T14:12:54Z</time>
      </trkpt>
      <trkpt lat="45.64523" lon="6.22233">
        <ele>934.53881835938</ele>
        <time>2011-12-23T14:13:01Z</time>
      </trkpt>
      <trkpt lat="45.64524" lon="6.22227">
        <ele>933.57739257812</ele>
        <time>2011-12-23T14:13:07Z</time>
      </trkpt>
      <trkpt lat="45.64524" lon="6.22217">
        <ele>932.13549804688</ele>
        <time>2011-12-23T14:13:14Z</time>
      </trkpt>
      <trkpt lat="45.64522" lon="6.22212">
        <ele>931.17431640625</ele>
        <time>2011-12-23T14:13:18Z</time>
      </trkpt>
      <trkpt lat="45.64519" lon="6.22202">
        <ele>930.69360351562</ele>
        <time>2011-12-23T14:13:26Z</time>
      </trkpt>
      <trkpt lat="45.64513" lon="6.22197">
        <ele>930.69360351562</ele>
        <time>2011-12-23T14:13:33Z</time>
      </trkpt>
      <trkpt lat="45.64511" lon="6.22194">
        <ele>931.17431640625</ele>
        <time>2011-12-23T14:13:35Z</time>
      </trkpt>
      <trkpt lat="45.6451" lon="6.22193">
        <ele>931.65478515625</ele>
        <time>2011-12-23T14:13:37Z</time>
      </trkpt>
      <trkpt lat="45.64501" lon="6.22184">
        <ele>933.57739257812</ele>
        <time>2011-12-23T14:13:45Z</time>
      </trkpt>
      <trkpt lat="45.64497" lon="6.2218">
        <ele>935.98071289062</ele>
        <time>2011-12-23T14:13:49Z</time>
      </trkpt>
      <trkpt lat="45.64492" lon="6.22174">
        <ele>939.34521484375</ele>
        <time>2011-12-23T14:13:54Z</time>
      </trkpt>
      <trkpt lat="45.64488" lon="6.22164">
        <ele>935.5</ele>
        <time>2011-12-23T14:14:01Z</time>
      </trkpt>
      <trkpt lat="45.64484" lon="6.22154">
        <ele>932.13549804688</ele>
        <time>2011-12-23T14:14:09Z</time>
      </trkpt>
      <trkpt lat="45.64482" lon="6.22154">
        <ele>936.94189453125</ele>
        <time>2011-12-23T14:14:19Z</time>
      </trkpt>
      <trkpt lat="45.64481" lon="6.22154">
        <ele>941.26806640625</ele>
        <time>2011-12-23T14:14:26Z</time>
      </trkpt>
      <trkpt lat="45.64482" lon="6.22149">
        <ele>938.86474609375</ele>
        <time>2011-12-23T14:14:38Z</time>
      </trkpt>
      <trkpt lat="45.64481" lon="6.22144">
        <ele>936.94189453125</ele>
        <time>2011-12-23T14:14:41Z</time>
      </trkpt>
      <trkpt lat="45.64479" lon="6.22138">
        <ele>937.42260742188</ele>
        <time>2011-12-23T14:14:46Z</time>
      </trkpt>
      <trkpt lat="45.64477" lon="6.22132">
        <ele>935.01953125</ele>
        <time>2011-12-23T14:14:51Z</time>
      </trkpt>
      <trkpt lat="45.64475" lon="6.22121">
        <ele>930.212890625</ele>
        <time>2011-12-23T14:14:59Z</time>
      </trkpt>
      <trkpt lat="45.64475" lon="6.22118">
        <ele>930.212890625</ele>
        <time>2011-12-23T14:15:01Z</time>
      </trkpt>
      <trkpt lat="45.64476" lon="6.2211">
        <ele>928.29028320312</ele>
        <time>2011-12-23T14:15:06Z</time>
      </trkpt>
      <trkpt lat="45.64474" lon="6.22099">
        <ele>929.73217773438</ele>
        <time>2011-12-23T14:15:11Z</time>
      </trkpt>
      <trkpt lat="45.64477" lon="6.2209">
        <ele>928.77099609375</ele>
        <time>2011-12-23T14:15:17Z</time>
      </trkpt>
      <trkpt lat="45.64479" lon="6.22075">
        <ele>929.73217773438</ele>
        <time>2011-12-23T14:15:26Z</time>
      </trkpt>
      <trkpt lat="45.6448" lon="6.22068">
        <ele>929.25146484375</ele>
        <time>2011-12-23T14:15:30Z</time>
      </trkpt>
      <trkpt lat="45.64484" lon="6.22054">
        <ele>930.69360351562</ele>
        <time>2011-12-23T14:15:38Z</time>
      </trkpt>
      <trkpt lat="45.64484" lon="6.22053">
        <ele>930.212890625</ele>
        <time>2011-12-23T14:15:39Z</time>
      </trkpt>
      <trkpt lat="45.64487" lon="6.22049">
        <ele>928.29028320312</ele>
        <time>2011-12-23T14:15:42Z</time>
      </trkpt>
      <trkpt lat="45.6449" lon="6.22043">
        <ele>926.84838867188</ele>
        <time>2011-12-23T14:15:46Z</time>
      </trkpt>
      <trkpt lat="45.64493" lon="6.22035">
        <ele>925.40625</ele>
        <time>2011-12-23T14:15:53Z</time>
      </trkpt>
      <trkpt lat="45.64494" lon="6.22026">
        <ele>923.96411132812</ele>
        <time>2011-12-23T14:15:58Z</time>
      </trkpt>
      <trkpt lat="45.64494" lon="6.2202">
        <ele>922.52221679688</ele>
        <time>2011-12-23T14:16:02Z</time>
      </trkpt>
      <trkpt lat="45.64493" lon="6.22013">
        <ele>923.96411132812</ele>
        <time>2011-12-23T14:16:07Z</time>
      </trkpt>
      <trkpt lat="45.6449" lon="6.22002">
        <ele>932.13549804688</ele>
        <time>2011-12-23T14:16:14Z</time>
      </trkpt>
      <trkpt lat="45.64487" lon="6.21994">
        <ele>936.94189453125</ele>
        <time>2011-12-23T14:16:18Z</time>
      </trkpt>
      <trkpt lat="45.64487" lon="6.2198">
        <ele>937.42260742188</ele>
        <time>2011-12-23T14:16:24Z</time>
      </trkpt>
      <trkpt lat="45.64484" lon="6.21969">
        <ele>942.2294921875</ele>
        <time>2011-12-23T14:16:30Z</time>
      </trkpt>
      <trkpt lat="45.64485" lon="6.21955">
        <ele>935.5</ele>
        <time>2011-12-23T14:16:37Z</time>
      </trkpt>
      <trkpt lat="45.64484" lon="6.21943">
        <ele>930.212890625</ele>
        <time>2011-12-23T14:16:43Z</time>
      </trkpt>
      <trkpt lat="45.64485" lon="6.21929">
        <ele>920.599609375</ele>
        <time>2011-12-23T14:16:50Z</time>
      </trkpt>
      <trkpt lat="45.64483" lon="6.21917">
        <ele>920.11889648438</ele>
        <time>2011-12-23T14:16:55Z</time>
      </trkpt>
      <trkpt lat="45.64482" lon="6.21904">
        <ele>919.15771484375</ele>
        <time>2011-12-23T14:17:01Z</time>
      </trkpt>
      <trkpt lat="45.64482" lon="6.21897">
        <ele>919.15771484375</ele>
        <time>2011-12-23T14:17:05Z</time>
      </trkpt>
      <trkpt lat="45.64479" lon="6.21889">
        <ele>924.44506835938</ele>
        <time>2011-12-23T14:17:09Z</time>
      </trkpt>
      <trkpt lat="45.64476" lon="6.21882">
        <ele>927.3291015625</ele>
        <time>2011-12-23T14:17:14Z</time>
      </trkpt>
      <trkpt lat="45.64475" lon="6.21876">
        <ele>927.3291015625</ele>
        <time>2011-12-23T14:17:18Z</time>
      </trkpt>
      <trkpt lat="45.64475" lon="6.21864">
        <ele>923.0029296875</ele>
        <time>2011-12-23T14:17:25Z</time>
      </trkpt>
      <trkpt lat="45.64473" lon="6.21855">
        <ele>920.11889648438</ele>
        <time>2011-12-23T14:17:31Z</time>
      </trkpt>
      <trkpt lat="45.64473" lon="6.21852">
        <ele>919.15771484375</ele>
        <time>2011-12-23T14:17:33Z</time>
      </trkpt>
      <trkpt lat="45.64471" lon="6.2184">
        <ele>910.505859375</ele>
        <time>2011-12-23T14:17:40Z</time>
      </trkpt>
      <trkpt lat="45.6447" lon="6.2183">
        <ele>913.38989257812</ele>
        <time>2011-12-23T14:17:45Z</time>
      </trkpt>
      <trkpt lat="45.64468" lon="6.21824">
        <ele>913.38989257812</ele>
        <time>2011-12-23T14:17:48Z</time>
      </trkpt>
      <trkpt lat="45.64465" lon="6.21812">
        <ele>911.94799804688</ele>
        <time>2011-12-23T14:17:54Z</time>
      </trkpt>
      <trkpt lat="45.64462" lon="6.21806">
        <ele>908.10278320312</ele>
        <time>2011-12-23T14:17:58Z</time>
      </trkpt>
      <trkpt lat="45.6446" lon="6.21802">
        <ele>907.62182617188</ele>
        <time>2011-12-23T14:18:01Z</time>
      </trkpt>
      <trkpt lat="45.64459" lon="6.21797">
        <ele>907.14111328125</ele>
        <time>2011-12-23T14:18:04Z</time>
      </trkpt>
      <trkpt lat="45.64456" lon="6.21783">
        <ele>907.14111328125</ele>
        <time>2011-12-23T14:18:10Z</time>
      </trkpt>
      <trkpt lat="45.64453" lon="6.21772">
        <ele>907.62182617188</ele>
        <time>2011-12-23T14:18:16Z</time>
      </trkpt>
      <trkpt lat="45.64449" lon="6.2176">
        <ele>912.42846679688</ele>
        <time>2011-12-23T14:18:22Z</time>
      </trkpt>
      <trkpt lat="45.64448" lon="6.21745">
        <ele>913.38989257812</ele>
        <time>2011-12-23T14:18:30Z</time>
      </trkpt>
      <trkpt lat="45.64446" lon="6.21731">
        <ele>912.9091796875</ele>
        <time>2011-12-23T14:18:37Z</time>
      </trkpt>
      <trkpt lat="45.64444" lon="6.21717">
        <ele>913.87036132812</ele>
        <time>2011-12-23T14:18:44Z</time>
      </trkpt>
      <trkpt lat="45.64445" lon="6.21708">
        <ele>911.46728515625</ele>
        <time>2011-12-23T14:18:49Z</time>
      </trkpt>
      <trkpt lat="45.64445" lon="6.21692">
        <ele>910.505859375</ele>
        <time>2011-12-23T14:18:56Z</time>
      </trkpt>
      <trkpt lat="45.64445" lon="6.21677">
        <ele>908.58325195312</ele>
        <time>2011-12-23T14:19:04Z</time>
      </trkpt>
      <trkpt lat="45.64443" lon="6.21663">
        <ele>908.58325195312</ele>
        <time>2011-12-23T14:19:12Z</time>
      </trkpt>
      <trkpt lat="45.64436" lon="6.21655">
        <ele>913.38989257812</ele>
        <time>2011-12-23T14:19:19Z</time>
      </trkpt>
      <trkpt lat="45.64429" lon="6.21644">
        <ele>912.42846679688</ele>
        <time>2011-12-23T14:19:27Z</time>
      </trkpt>
      <trkpt lat="45.64421" lon="6.21639">
        <ele>918.67700195312</ele>
        <time>2011-12-23T14:19:33Z</time>
      </trkpt>
      <trkpt lat="45.64411" lon="6.21632">
        <ele>928.29028320312</ele>
        <time>2011-12-23T14:19:40Z</time>
      </trkpt>
      <trkpt lat="45.64407" lon="6.21631">
        <ele>932.6162109375</ele>
        <time>2011-12-23T14:19:45Z</time>
      </trkpt>
      <trkpt lat="45.64407" lon="6.21627">
        <ele>935.5</ele>
        <time>2011-12-23T14:19:51Z</time>
      </trkpt>
      <trkpt lat="45.64407" lon="6.21625">
        <ele>936.94189453125</ele>
        <time>2011-12-23T14:19:53Z</time>
      </trkpt>
      <trkpt lat="45.64407" lon="6.21625">
        <ele>936.94189453125</ele>
        <time>2011-12-23T14:19:54Z</time>
      </trkpt>
      <trkpt lat="45.64407" lon="6.21624">
        <ele>937.42260742188</ele>
        <time>2011-12-23T14:19:55Z</time>
      </trkpt>
      <trkpt lat="45.64405" lon="6.21626">
        <ele>945.59399414062</ele>
        <time>2011-12-23T14:20:01Z</time>
      </trkpt>
      <trkpt lat="45.64404" lon="6.2163">
        <ele>947.03588867188</ele>
        <time>2011-12-23T14:20:07Z</time>
      </trkpt>
      <trkpt lat="45.64405" lon="6.2163">
        <ele>945.11328125</ele>
        <time>2011-12-23T14:20:13Z</time>
      </trkpt>
      <trkpt lat="45.64404" lon="6.21632">
        <ele>946.07470703125</ele>
        <time>2011-12-23T14:20:14Z</time>
      </trkpt>
      <trkpt lat="45.64404" lon="6.21635">
        <ele>941.74877929688</ele>
        <time>2011-12-23T14:20:22Z</time>
      </trkpt>
      <trkpt lat="45.64406" lon="6.21634">
        <ele>935.98071289062</ele>
        <time>2011-12-23T14:20:26Z</time>
      </trkpt>
      <trkpt lat="45.64406" lon="6.21634">
        <ele>934.53881835938</ele>
        <time>2011-12-23T14:20:28Z</time>
      </trkpt>
      <trkpt lat="45.64406" lon="6.21635">
        <ele>932.6162109375</ele>
        <time>2011-12-23T14:20:38Z</time>
      </trkpt>
      <trkpt lat="45.64407" lon="6.21638">
        <ele>934.53881835938</ele>
        <time>2011-12-23T14:20:45Z</time>
      </trkpt>
      <trkpt lat="45.6441" lon="6.21639">
        <ele>925.40625</ele>
        <time>2011-12-23T14:20:57Z</time>
      </trkpt>
      <trkpt lat="45.64411" lon="6.21637">
        <ele>924.44506835938</ele>
        <time>2011-12-23T14:21:04Z</time>
      </trkpt>
      <trkpt lat="45.64413" lon="6.21633">
        <ele>920.11889648438</ele>
        <time>2011-12-23T14:21:12Z</time>
      </trkpt>
      <trkpt lat="45.64415" lon="6.21631">
        <ele>918.1962890625</ele>
        <time>2011-12-23T14:21:21Z</time>
      </trkpt>
      <trkpt lat="45.64415" lon="6.21628">
        <ele>915.3125</ele>
        <time>2011-12-23T14:21:28Z</time>
      </trkpt>
      <trkpt lat="45.64416" lon="6.21622">
        <ele>915.79321289062</ele>
        <time>2011-12-23T14:21:40Z</time>
      </trkpt>
      <trkpt lat="45.64418" lon="6.21618">
        <ele>910.02514648438</ele>
        <time>2011-12-23T14:21:49Z</time>
      </trkpt>
      <trkpt lat="45.64421" lon="6.21619">
        <ele>910.98657226562</ele>
        <time>2011-12-23T14:21:55Z</time>
      </trkpt>
      <trkpt lat="45.64418" lon="6.2162">
        <ele>916.75439453125</ele>
        <time>2011-12-23T14:22:00Z</time>
      </trkpt>
      <trkpt lat="45.64419" lon="6.21617">
        <ele>918.67700195312</ele>
        <time>2011-12-23T14:22:05Z</time>
      </trkpt>
      <trkpt lat="45.64417" lon="6.2162">
        <ele>927.3291015625</ele>
        <time>2011-12-23T14:22:14Z</time>
      </trkpt>
      <trkpt lat="45.64415" lon="6.2162">
        <ele>930.69360351562</ele>
        <time>2011-12-23T14:22:28Z</time>
      </trkpt>
      <trkpt lat="45.64412" lon="6.21616">
        <ele>923.48364257812</ele>
        <time>2011-12-23T14:22:34Z</time>
      </trkpt>
      <trkpt lat="45.64409" lon="6.21612">
        <ele>920.599609375</ele>
        <time>2011-12-23T14:22:38Z</time>
      </trkpt>
      <trkpt lat="45.64403" lon="6.21604">
        <ele>918.67700195312</ele>
        <time>2011-12-23T14:22:45Z</time>
      </trkpt>
      <trkpt lat="45.64397" lon="6.21595">
        <ele>920.599609375</ele>
        <time>2011-12-23T14:22:50Z</time>
      </trkpt>
      <trkpt lat="45.64392" lon="6.21587">
        <ele>921.08032226562</ele>
        <time>2011-12-23T14:22:56Z</time>
      </trkpt>
      <trkpt lat="45.64388" lon="6.21577">
        <ele>913.87036132812</ele>
        <time>2011-12-23T14:23:04Z</time>
      </trkpt>
      <trkpt lat="45.64384" lon="6.21565">
        <ele>908.58325195312</ele>
        <time>2011-12-23T14:23:12Z</time>
      </trkpt>
      <trkpt lat="45.64383" lon="6.21558">
        <ele>906.66040039062</ele>
        <time>2011-12-23T14:23:19Z</time>
      </trkpt>
      <trkpt lat="45.64383" lon="6.21557">
        <ele>906.1796875</ele>
        <time>2011-12-23T14:23:28Z</time>
      </trkpt>
      <trkpt lat="45.64381" lon="6.21552">
        <ele>905.69921875</ele>
        <time>2011-12-23T14:23:35Z</time>
      </trkpt>
      <trkpt lat="45.64378" lon="6.21545">
        <ele>905.21850585938</ele>
        <time>2011-12-23T14:23:41Z</time>
      </trkpt>
      <trkpt lat="45.64377" lon="6.21539">
        <ele>904.25732421875</ele>
        <time>2011-12-23T14:23:46Z</time>
      </trkpt>
      <trkpt lat="45.64375" lon="6.21531">
        <ele>903.2958984375</ele>
        <time>2011-12-23T14:23:51Z</time>
      </trkpt>
      <trkpt lat="45.6437" lon="6.2152">
        <ele>901.37329101562</ele>
        <time>2011-12-23T14:23:58Z</time>
      </trkpt>
      <trkpt lat="45.64366" lon="6.21509">
        <ele>897.52807617188</ele>
        <time>2011-12-23T14:24:05Z</time>
      </trkpt>
      <trkpt lat="45.64364" lon="6.21501">
        <ele>894.16357421875</ele>
        <time>2011-12-23T14:24:10Z</time>
      </trkpt>
      <trkpt lat="45.6436" lon="6.21493">
        <ele>893.68286132812</ele>
        <time>2011-12-23T14:24:15Z</time>
      </trkpt>
      <trkpt lat="45.64355" lon="6.21486">
        <ele>896.56689453125</ele>
        <time>2011-12-23T14:24:20Z</time>
      </trkpt>
      <trkpt lat="45.64351" lon="6.21478">
        <ele>897.04736328125</ele>
        <time>2011-12-23T14:24:25Z</time>
      </trkpt>
      <trkpt lat="45.64348" lon="6.21473">
        <ele>897.04736328125</ele>
        <time>2011-12-23T14:24:29Z</time>
      </trkpt>
      <trkpt lat="45.64343" lon="6.21462">
        <ele>897.52807617188</ele>
        <time>2011-12-23T14:24:36Z</time>
      </trkpt>
      <trkpt lat="45.64338" lon="6.21457">
        <ele>900.892578125</ele>
        <time>2011-12-23T14:24:40Z</time>
      </trkpt>
      <trkpt lat="45.64334" lon="6.21453">
        <ele>898.4892578125</ele>
        <time>2011-12-23T14:24:46Z</time>
      </trkpt>
      <trkpt lat="45.64333" lon="6.21452">
        <ele>898.4892578125</ele>
        <time>2011-12-23T14:24:47Z</time>
      </trkpt>
      <trkpt lat="45.64326" lon="6.21448">
        <ele>898.0087890625</ele>
        <time>2011-12-23T14:24:54Z</time>
      </trkpt>
      <trkpt lat="45.64317" lon="6.21441">
        <ele>897.04736328125</ele>
        <time>2011-12-23T14:25:02Z</time>
      </trkpt>
      <trkpt lat="45.6431" lon="6.21437">
        <ele>899.93139648438</ele>
        <time>2011-12-23T14:25:09Z</time>
      </trkpt>
      <trkpt lat="45.64303" lon="6.21431">
        <ele>898.96997070312</ele>
        <time>2011-12-23T14:25:16Z</time>
      </trkpt>
      <trkpt lat="45.64298" lon="6.21423">
        <ele>896.08618164062</ele>
        <time>2011-12-23T14:25:22Z</time>
      </trkpt>
      <trkpt lat="45.64293" lon="6.21417">
        <ele>892.7216796875</ele>
        <time>2011-12-23T14:25:27Z</time>
      </trkpt>
      <trkpt lat="45.64288" lon="6.2141">
        <ele>890.79858398438</ele>
        <time>2011-12-23T14:25:34Z</time>
      </trkpt>
      <trkpt lat="45.64285" lon="6.21399">
        <ele>889.83740234375</ele>
        <time>2011-12-23T14:25:41Z</time>
      </trkpt>
      <trkpt lat="45.64282" lon="6.21389">
        <ele>888.3955078125</ele>
        <time>2011-12-23T14:25:50Z</time>
      </trkpt>
      <trkpt lat="45.64281" lon="6.21388">
        <ele>889.35668945312</ele>
        <time>2011-12-23T14:25:59Z</time>
      </trkpt>
      <trkpt lat="45.64281" lon="6.21386">
        <ele>889.83740234375</ele>
        <time>2011-12-23T14:26:06Z</time>
      </trkpt>
      <trkpt lat="45.64279" lon="6.21384">
        <ele>902.33447265625</ele>
        <time>2011-12-23T14:26:25Z</time>
      </trkpt>
      <trkpt lat="45.6428" lon="6.21383">
        <ele>898.0087890625</ele>
        <time>2011-12-23T14:26:35Z</time>
      </trkpt>
      <trkpt lat="45.64277" lon="6.21374">
        <ele>895.12475585938</ele>
        <time>2011-12-23T14:26:41Z</time>
      </trkpt>
      <trkpt lat="45.64275" lon="6.21362">
        <ele>892.7216796875</ele>
        <time>2011-12-23T14:26:48Z</time>
      </trkpt>
      <trkpt lat="45.64271" lon="6.21349">
        <ele>892.24096679688</ele>
        <time>2011-12-23T14:26:56Z</time>
      </trkpt>
      <trkpt lat="45.6427" lon="6.21338">
        <ele>891.279296875</ele>
        <time>2011-12-23T14:27:02Z</time>
      </trkpt>
      <trkpt lat="45.6427" lon="6.21329">
        <ele>890.31811523438</ele>
        <time>2011-12-23T14:27:07Z</time>
      </trkpt>
      <trkpt lat="45.64271" lon="6.21315">
        <ele>893.2021484375</ele>
        <time>2011-12-23T14:27:14Z</time>
      </trkpt>
      <trkpt lat="45.64272" lon="6.21312">
        <ele>893.2021484375</ele>
        <time>2011-12-23T14:27:16Z</time>
      </trkpt>
      <trkpt lat="45.64273" lon="6.21303">
        <ele>892.7216796875</ele>
        <time>2011-12-23T14:27:21Z</time>
      </trkpt>
      <trkpt lat="45.64274" lon="6.21291">
        <ele>889.35668945312</ele>
        <time>2011-12-23T14:27:28Z</time>
      </trkpt>
      <trkpt lat="45.64274" lon="6.21278">
        <ele>890.31811523438</ele>
        <time>2011-12-23T14:27:34Z</time>
      </trkpt>
      <trkpt lat="45.64274" lon="6.21263">
        <ele>885.9921875</ele>
        <time>2011-12-23T14:27:41Z</time>
      </trkpt>
      <trkpt lat="45.64274" lon="6.2125">
        <ele>884.55029296875</ele>
        <time>2011-12-23T14:27:48Z</time>
      </trkpt>
      <trkpt lat="45.64272" lon="6.21238">
        <ele>887.91479492188</ele>
        <time>2011-12-23T14:27:54Z</time>
      </trkpt>
      <trkpt lat="45.6427" lon="6.21225">
        <ele>884.55029296875</ele>
        <time>2011-12-23T14:28:01Z</time>
      </trkpt>
      <trkpt lat="45.64267" lon="6.21213">
        <ele>883.5888671875</ele>
        <time>2011-12-23T14:28:08Z</time>
      </trkpt>
      <trkpt lat="45.64265" lon="6.21201">
        <ele>885.9921875</ele>
        <time>2011-12-23T14:28:14Z</time>
      </trkpt>
      <trkpt lat="45.64262" lon="6.21191">
        <ele>886.95336914062</ele>
        <time>2011-12-23T14:28:20Z</time>
      </trkpt>
      <trkpt lat="45.64258" lon="6.21178">
        <ele>886.95336914062</ele>
        <time>2011-12-23T14:28:27Z</time>
      </trkpt>
      <trkpt lat="45.64254" lon="6.21167">
        <ele>887.43408203125</ele>
        <time>2011-12-23T14:28:33Z</time>
      </trkpt>
      <trkpt lat="45.64249" lon="6.21153">
        <ele>885.9921875</ele>
        <time>2011-12-23T14:28:41Z</time>
      </trkpt>
      <trkpt lat="45.64246" lon="6.21141">
        <ele>884.55029296875</ele>
        <time>2011-12-23T14:28:47Z</time>
      </trkpt>
      <trkpt lat="45.64243" lon="6.2113">
        <ele>884.06958007812</ele>
        <time>2011-12-23T14:28:52Z</time>
      </trkpt>
      <trkpt lat="45.64238" lon="6.21125">
        <ele>887.91479492188</ele>
        <time>2011-12-23T14:28:56Z</time>
      </trkpt>
      <trkpt lat="45.64236" lon="6.21113">
        <ele>886.95336914062</ele>
        <time>2011-12-23T14:29:01Z</time>
      </trkpt>
      <trkpt lat="45.64233" lon="6.21103">
        <ele>886.95336914062</ele>
        <time>2011-12-23T14:29:06Z</time>
      </trkpt>
      <trkpt lat="45.64232" lon="6.21097">
        <ele>886.47290039062</ele>
        <time>2011-12-23T14:29:09Z</time>
      </trkpt>
      <trkpt lat="45.64231" lon="6.21086">
        <ele>884.55029296875</ele>
        <time>2011-12-23T14:29:15Z</time>
      </trkpt>
      <trkpt lat="45.6423" lon="6.21076">
        <ele>883.10815429688</ele>
        <time>2011-12-23T14:29:22Z</time>
      </trkpt>
      <trkpt lat="45.64228" lon="6.21067">
        <ele>884.06958007812</ele>
        <time>2011-12-23T14:29:28Z</time>
      </trkpt>
      <trkpt lat="45.64224" lon="6.21056">
        <ele>885.51147460938</ele>
        <time>2011-12-23T14:29:35Z</time>
      </trkpt>
      <trkpt lat="45.64222" lon="6.21039">
        <ele>887.43408203125</ele>
        <time>2011-12-23T14:29:43Z</time>
      </trkpt>
      <trkpt lat="45.64219" lon="6.21026">
        <ele>886.47290039062</ele>
        <time>2011-12-23T14:29:50Z</time>
      </trkpt>
      <trkpt lat="45.64217" lon="6.21012">
        <ele>886.47290039062</ele>
        <time>2011-12-23T14:29:58Z</time>
      </trkpt>
      <trkpt lat="45.64214" lon="6.20996">
        <ele>885.9921875</ele>
        <time>2011-12-23T14:30:07Z</time>
      </trkpt>
      <trkpt lat="45.64213" lon="6.20995">
        <ele>885.9921875</ele>
        <time>2011-12-23T14:30:08Z</time>
      </trkpt>
      <trkpt lat="45.64207" lon="6.2098">
        <ele>885.51147460938</ele>
        <time>2011-12-23T14:30:17Z</time>
      </trkpt>
      <trkpt lat="45.64205" lon="6.20977">
        <ele>885.51147460938</ele>
        <time>2011-12-23T14:30:20Z</time>
      </trkpt>
      <trkpt lat="45.64201" lon="6.20967">
        <ele>885.51147460938</ele>
        <time>2011-12-23T14:30:26Z</time>
      </trkpt>
      <trkpt lat="45.64199" lon="6.20964">
        <ele>885.9921875</ele>
        <time>2011-12-23T14:30:28Z</time>
      </trkpt>
      <trkpt lat="45.64191" lon="6.20952">
        <ele>888.3955078125</ele>
        <time>2011-12-23T14:30:36Z</time>
      </trkpt>
      <trkpt lat="45.64185" lon="6.20944">
        <ele>890.79858398438</ele>
        <time>2011-12-23T14:30:42Z</time>
      </trkpt>
      <trkpt lat="45.64183" lon="6.20933">
        <ele>886.95336914062</ele>
        <time>2011-12-23T14:30:48Z</time>
      </trkpt>
      <trkpt lat="45.64179" lon="6.2092">
        <ele>883.5888671875</ele>
        <time>2011-12-23T14:30:54Z</time>
      </trkpt>
      <trkpt lat="45.64174" lon="6.20909">
        <ele>880.22436523438</ele>
        <time>2011-12-23T14:31:01Z</time>
      </trkpt>
      <trkpt lat="45.6417" lon="6.20901">
        <ele>878.3017578125</ele>
        <time>2011-12-23T14:31:06Z</time>
      </trkpt>
      <trkpt lat="45.64164" lon="6.20889">
        <ele>876.85986328125</ele>
        <time>2011-12-23T14:31:13Z</time>
      </trkpt>
      <trkpt lat="45.64156" lon="6.20882">
        <ele>876.85986328125</ele>
        <time>2011-12-23T14:31:19Z</time>
      </trkpt>
      <trkpt lat="45.6415" lon="6.20872">
        <ele>874.45629882812</ele>
        <time>2011-12-23T14:31:26Z</time>
      </trkpt>
      <trkpt lat="45.64144" lon="6.2086">
        <ele>873.9755859375</ele>
        <time>2011-12-23T14:31:33Z</time>
      </trkpt>
      <trkpt lat="45.64138" lon="6.20848">
        <ele>872.05297851562</ele>
        <time>2011-12-23T14:31:40Z</time>
      </trkpt>
      <trkpt lat="45.64134" lon="6.20838">
        <ele>867.24658203125</ele>
        <time>2011-12-23T14:31:45Z</time>
      </trkpt>
      <trkpt lat="45.64129" lon="6.20827">
        <ele>864.84326171875</ele>
        <time>2011-12-23T14:31:51Z</time>
      </trkpt>
      <trkpt lat="45.64127" lon="6.20824">
        <ele>865.32397460938</ele>
        <time>2011-12-23T14:31:53Z</time>
      </trkpt>
      <trkpt lat="45.64122" lon="6.20815">
        <ele>864.36254882812</ele>
        <time>2011-12-23T14:31:59Z</time>
      </trkpt>
      <trkpt lat="45.64115" lon="6.20807">
        <ele>861.95947265625</ele>
        <time>2011-12-23T14:32:06Z</time>
      </trkpt>
      <trkpt lat="45.64106" lon="6.208">
        <ele>861.47875976562</ele>
        <time>2011-12-23T14:32:13Z</time>
      </trkpt>
      <trkpt lat="45.64098" lon="6.20795">
        <ele>863.8818359375</ele>
        <time>2011-12-23T14:32:19Z</time>
      </trkpt>
      <trkpt lat="45.64092" lon="6.20792">
        <ele>864.84326171875</ele>
        <time>2011-12-23T14:32:23Z</time>
      </trkpt>
      <trkpt lat="45.64084" lon="6.20787">
        <ele>863.4013671875</ele>
        <time>2011-12-23T14:32:29Z</time>
      </trkpt>
      <trkpt lat="45.6408" lon="6.20782">
        <ele>862.92065429688</ele>
        <time>2011-12-23T14:32:33Z</time>
      </trkpt>
      <trkpt lat="45.64076" lon="6.20775">
        <ele>862.43994140625</ele>
        <time>2011-12-23T14:32:37Z</time>
      </trkpt>
      <trkpt lat="45.64074" lon="6.20767">
        <ele>860.998046875</ele>
        <time>2011-12-23T14:32:42Z</time>
      </trkpt>
      <trkpt lat="45.64072" lon="6.20762">
        <ele>861.47875976562</ele>
        <time>2011-12-23T14:32:45Z</time>
      </trkpt>
      <trkpt lat="45.64069" lon="6.20744">
        <ele>864.36254882812</ele>
        <time>2011-12-23T14:32:54Z</time>
      </trkpt>
      <trkpt lat="45.64066" lon="6.20734">
        <ele>862.92065429688</ele>
        <time>2011-12-23T14:33:00Z</time>
      </trkpt>
      <trkpt lat="45.64064" lon="6.2073">
        <ele>863.4013671875</ele>
        <time>2011-12-23T14:33:02Z</time>
      </trkpt>
      <trkpt lat="45.64063" lon="6.20725">
        <ele>863.4013671875</ele>
        <time>2011-12-23T14:33:05Z</time>
      </trkpt>
      <trkpt lat="45.64056" lon="6.20713">
        <ele>864.36254882812</ele>
        <time>2011-12-23T14:33:14Z</time>
      </trkpt>
      <trkpt lat="45.64052" lon="6.20707">
        <ele>863.8818359375</ele>
        <time>2011-12-23T14:33:18Z</time>
      </trkpt>
      <trkpt lat="45.64049" lon="6.20703">
        <ele>864.36254882812</ele>
        <time>2011-12-23T14:33:22Z</time>
      </trkpt>
      <trkpt lat="45.64039" lon="6.20694">
        <ele>865.32397460938</ele>
        <time>2011-12-23T14:33:30Z</time>
      </trkpt>
      <trkpt lat="45.64032" lon="6.20689">
        <ele>865.32397460938</ele>
        <time>2011-12-23T14:33:37Z</time>
      </trkpt>
      <trkpt lat="45.64024" lon="6.2068">
        <ele>865.32397460938</ele>
        <time>2011-12-23T14:33:47Z</time>
      </trkpt>
      <trkpt lat="45.6402" lon="6.20674">
        <ele>863.4013671875</ele>
        <time>2011-12-23T14:33:53Z</time>
      </trkpt>
      <trkpt lat="45.64017" lon="6.20668">
        <ele>865.32397460938</ele>
        <time>2011-12-23T14:33:58Z</time>
      </trkpt>
      <trkpt lat="45.64012" lon="6.2066">
        <ele>870.13037109375</ele>
        <time>2011-12-23T14:34:06Z</time>
      </trkpt>
      <trkpt lat="45.64006" lon="6.20652">
        <ele>869.64990234375</ele>
        <time>2011-12-23T14:34:13Z</time>
      </trkpt>
      <trkpt lat="45.64003" lon="6.20645">
        <ele>867.24658203125</ele>
        <time>2011-12-23T14:34:18Z</time>
      </trkpt>
      <trkpt lat="45.64002" lon="6.20642">
        <ele>865.8046875</ele>
        <time>2011-12-23T14:34:20Z</time>
      </trkpt>
      <trkpt lat="45.63995" lon="6.2063">
        <ele>866.76586914062</ele>
        <time>2011-12-23T14:34:29Z</time>
      </trkpt>
      <trkpt lat="45.63993" lon="6.20626">
        <ele>865.8046875</ele>
        <time>2011-12-23T14:34:32Z</time>
      </trkpt>
      <trkpt lat="45.63988" lon="6.2062">
        <ele>866.28515625</ele>
        <time>2011-12-23T14:34:38Z</time>
      </trkpt>
      <trkpt lat="45.63984" lon="6.20613">
        <ele>865.8046875</ele>
        <time>2011-12-23T14:34:42Z</time>
      </trkpt>
      <trkpt lat="45.6398" lon="6.20606">
        <ele>863.8818359375</ele>
        <time>2011-12-23T14:34:49Z</time>
      </trkpt>
      <trkpt lat="45.63976" lon="6.206">
        <ele>863.8818359375</ele>
        <time>2011-12-23T14:34:54Z</time>
      </trkpt>
      <trkpt lat="45.63972" lon="6.20593">
        <ele>864.84326171875</ele>
        <time>2011-12-23T14:35:00Z</time>
      </trkpt>
      <trkpt lat="45.63966" lon="6.2058">
        <ele>865.32397460938</ele>
        <time>2011-12-23T14:35:09Z</time>
      </trkpt>
      <trkpt lat="45.63961" lon="6.20571">
        <ele>864.84326171875</ele>
        <time>2011-12-23T14:35:16Z</time>
      </trkpt>
      <trkpt lat="45.63955" lon="6.20563">
        <ele>865.32397460938</ele>
        <time>2011-12-23T14:35:23Z</time>
      </trkpt>
      <trkpt lat="45.63953" lon="6.2056">
        <ele>865.32397460938</ele>
        <time>2011-12-23T14:35:25Z</time>
      </trkpt>
      <trkpt lat="45.6395" lon="6.20557">
        <ele>866.28515625</ele>
        <time>2011-12-23T14:35:29Z</time>
      </trkpt>
      <trkpt lat="45.63947" lon="6.20553">
        <ele>867.24658203125</ele>
        <time>2011-12-23T14:35:32Z</time>
      </trkpt>
      <trkpt lat="45.63939" lon="6.20545">
        <ele>869.64990234375</ele>
        <time>2011-12-23T14:35:41Z</time>
      </trkpt>
      <trkpt lat="45.63935" lon="6.20544">
        <ele>870.61108398438</ele>
        <time>2011-12-23T14:35:44Z</time>
      </trkpt>
      <trkpt lat="45.63925" lon="6.20533">
        <ele>871.091796875</ele>
        <time>2011-12-23T14:35:54Z</time>
      </trkpt>
      <trkpt lat="45.63917" lon="6.20523">
        <ele>867.72705078125</ele>
        <time>2011-12-23T14:36:02Z</time>
      </trkpt>
      <trkpt lat="45.63912" lon="6.20516">
        <ele>865.8046875</ele>
        <time>2011-12-23T14:36:08Z</time>
      </trkpt>
      <trkpt lat="45.63906" lon="6.20506">
        <ele>863.8818359375</ele>
        <time>2011-12-23T14:36:16Z</time>
      </trkpt>
      <trkpt lat="45.63902" lon="6.20497">
        <ele>861.95947265625</ele>
        <time>2011-12-23T14:36:24Z</time>
      </trkpt>
      <trkpt lat="45.63899" lon="6.2049">
        <ele>866.28515625</ele>
        <time>2011-12-23T14:36:39Z</time>
      </trkpt>
      <trkpt lat="45.63896" lon="6.20481">
        <ele>863.4013671875</ele>
        <time>2011-12-23T14:36:46Z</time>
      </trkpt>
      <trkpt lat="45.63896" lon="6.20481">
        <ele>862.43994140625</ele>
        <time>2011-12-23T14:36:54Z</time>
      </trkpt>
      <trkpt lat="45.63899" lon="6.20481">
        <ele>863.8818359375</ele>
        <time>2011-12-23T14:37:04Z</time>
      </trkpt>
      <trkpt lat="45.63898" lon="6.20482">
        <ele>867.24658203125</ele>
        <time>2011-12-23T14:37:19Z</time>
      </trkpt>
      <trkpt lat="45.63897" lon="6.20481">
        <ele>870.61108398438</ele>
        <time>2011-12-23T14:37:27Z</time>
      </trkpt>
      <trkpt lat="45.63895" lon="6.20478">
        <ele>872.05297851562</ele>
        <time>2011-12-23T14:37:32Z</time>
      </trkpt>
      <trkpt lat="45.63891" lon="6.2047">
        <ele>871.572265625</ele>
        <time>2011-12-23T14:37:39Z</time>
      </trkpt>
      <trkpt lat="45.63886" lon="6.2046">
        <ele>868.6884765625</ele>
        <time>2011-12-23T14:37:46Z</time>
      </trkpt>
      <trkpt lat="45.63882" lon="6.20446">
        <ele>864.84326171875</ele>
        <time>2011-12-23T14:37:55Z</time>
      </trkpt>
      <trkpt lat="45.63878" lon="6.20437">
        <ele>861.95947265625</ele>
        <time>2011-12-23T14:38:01Z</time>
      </trkpt>
      <trkpt lat="45.63874" lon="6.20426">
        <ele>859.0751953125</ele>
        <time>2011-12-23T14:38:08Z</time>
      </trkpt>
      <trkpt lat="45.63869" lon="6.20417">
        <ele>859.0751953125</ele>
        <time>2011-12-23T14:38:14Z</time>
      </trkpt>
      <trkpt lat="45.63864" lon="6.20405">
        <ele>856.671875</ele>
        <time>2011-12-23T14:38:21Z</time>
      </trkpt>
      <trkpt lat="45.63858" lon="6.20395">
        <ele>854.74926757812</ele>
        <time>2011-12-23T14:38:28Z</time>
      </trkpt>
      <trkpt lat="45.63853" lon="6.20387">
        <ele>851.86547851562</ele>
        <time>2011-12-23T14:38:34Z</time>
      </trkpt>
      <trkpt lat="45.6385" lon="6.20378">
        <ele>849.46215820312</ele>
        <time>2011-12-23T14:38:40Z</time>
      </trkpt>
      <trkpt lat="45.63848" lon="6.20372">
        <ele>848.50073242188</ele>
        <time>2011-12-23T14:38:44Z</time>
      </trkpt>
      <trkpt lat="45.63844" lon="6.20359">
        <ele>846.57836914062</ele>
        <time>2011-12-23T14:38:52Z</time>
      </trkpt>
      <trkpt lat="45.6384" lon="6.20343">
        <ele>842.73291015625</ele>
        <time>2011-12-23T14:39:00Z</time>
      </trkpt>
      <trkpt lat="45.63836" lon="6.2033">
        <ele>841.771484375</ele>
        <time>2011-12-23T14:39:07Z</time>
      </trkpt>
      <trkpt lat="45.63834" lon="6.2032">
        <ele>846.57836914062</ele>
        <time>2011-12-23T14:39:12Z</time>
      </trkpt>
      <trkpt lat="45.63831" lon="6.20305">
        <ele>846.09765625</ele>
        <time>2011-12-23T14:39:20Z</time>
      </trkpt>
      <trkpt lat="45.6383" lon="6.20299">
        <ele>846.09765625</ele>
        <time>2011-12-23T14:39:23Z</time>
      </trkpt>
      <trkpt lat="45.63827" lon="6.20287">
        <ele>848.50073242188</ele>
        <time>2011-12-23T14:39:29Z</time>
      </trkpt>
      <trkpt lat="45.63825" lon="6.20283">
        <ele>849.46215820312</ele>
        <time>2011-12-23T14:39:32Z</time>
      </trkpt>
      <trkpt lat="45.63824" lon="6.20274">
        <ele>850.42358398438</ele>
        <time>2011-12-23T14:39:37Z</time>
      </trkpt>
      <trkpt lat="45.63824" lon="6.2027">
        <ele>851.384765625</ele>
        <time>2011-12-23T14:39:39Z</time>
      </trkpt>
      <trkpt lat="45.63821" lon="6.20262">
        <ele>851.86547851562</ele>
        <time>2011-12-23T14:39:44Z</time>
      </trkpt>
      <trkpt lat="45.63819" lon="6.20255">
        <ele>850.42358398438</ele>
        <time>2011-12-23T14:39:48Z</time>
      </trkpt>
      <trkpt lat="45.63815" lon="6.20251">
        <ele>850.90405273438</ele>
        <time>2011-12-23T14:39:51Z</time>
      </trkpt>
      <trkpt lat="45.63813" lon="6.20244">
        <ele>850.42358398438</ele>
        <time>2011-12-23T14:39:55Z</time>
      </trkpt>
      <trkpt lat="45.6381" lon="6.20231">
        <ele>850.42358398438</ele>
        <time>2011-12-23T14:40:02Z</time>
      </trkpt>
      <trkpt lat="45.63808" lon="6.20218">
        <ele>847.05883789062</ele>
        <time>2011-12-23T14:40:09Z</time>
      </trkpt>
      <trkpt lat="45.63805" lon="6.2021">
        <ele>844.17504882812</ele>
        <time>2011-12-23T14:40:14Z</time>
      </trkpt>
      <trkpt lat="45.63803" lon="6.20207">
        <ele>843.69409179688</ele>
        <time>2011-12-23T14:40:16Z</time>
      </trkpt>
      <trkpt lat="45.63796" lon="6.20192">
        <ele>840.81005859375</ele>
        <time>2011-12-23T14:40:25Z</time>
      </trkpt>
      <trkpt lat="45.63792" lon="6.2018">
        <ele>838.8876953125</ele>
        <time>2011-12-23T14:40:32Z</time>
      </trkpt>
      <trkpt lat="45.63788" lon="6.20169">
        <ele>838.40698242188</ele>
        <time>2011-12-23T14:40:39Z</time>
      </trkpt>
      <trkpt lat="45.63784" lon="6.20156">
        <ele>838.40698242188</ele>
        <time>2011-12-23T14:40:46Z</time>
      </trkpt>
      <trkpt lat="45.63778" lon="6.20143">
        <ele>838.40698242188</ele>
        <time>2011-12-23T14:40:54Z</time>
      </trkpt>
      <trkpt lat="45.63777" lon="6.20136">
        <ele>838.8876953125</ele>
        <time>2011-12-23T14:40:58Z</time>
      </trkpt>
      <trkpt lat="45.63773" lon="6.20127">
        <ele>839.3681640625</ele>
        <time>2011-12-23T14:41:04Z</time>
      </trkpt>
      <trkpt lat="45.63772" lon="6.20124">
        <ele>838.8876953125</ele>
        <time>2011-12-23T14:41:06Z</time>
      </trkpt>
      <trkpt lat="45.63769" lon="6.20117">
        <ele>837.44555664062</ele>
        <time>2011-12-23T14:41:10Z</time>
      </trkpt>
      <trkpt lat="45.63764" lon="6.20104">
        <ele>832.63916015625</ele>
        <time>2011-12-23T14:41:18Z</time>
      </trkpt>
      <trkpt lat="45.63758" lon="6.20093">
        <ele>830.23583984375</ele>
        <time>2011-12-23T14:41:25Z</time>
      </trkpt>
      <trkpt lat="45.63756" lon="6.20086">
        <ele>832.63916015625</ele>
        <time>2011-12-23T14:41:29Z</time>
      </trkpt>
      <trkpt lat="45.6375" lon="6.20074">
        <ele>835.52294921875</ele>
        <time>2011-12-23T14:41:36Z</time>
      </trkpt>
      <trkpt lat="45.6375" lon="6.20073">
        <ele>835.52294921875</ele>
        <time>2011-12-23T14:41:37Z</time>
      </trkpt>
      <trkpt lat="45.63744" lon="6.20061">
        <ele>841.771484375</ele>
        <time>2011-12-23T14:41:44Z</time>
      </trkpt>
      <trkpt lat="45.63741" lon="6.20055">
        <ele>841.771484375</ele>
        <time>2011-12-23T14:41:48Z</time>
      </trkpt>
      <trkpt lat="45.63734" lon="6.20044">
        <ele>844.65551757812</ele>
        <time>2011-12-23T14:41:56Z</time>
      </trkpt>
      <trkpt lat="45.63729" lon="6.20033">
        <ele>843.21337890625</ele>
        <time>2011-12-23T14:42:04Z</time>
      </trkpt>
      <trkpt lat="45.63725" lon="6.20023">
        <ele>839.3681640625</ele>
        <time>2011-12-23T14:42:11Z</time>
      </trkpt>
      <trkpt lat="45.63719" lon="6.20013">
        <ele>837.92626953125</ele>
        <time>2011-12-23T14:42:19Z</time>
      </trkpt>
      <trkpt lat="45.63715" lon="6.20004">
        <ele>837.92626953125</ele>
        <time>2011-12-23T14:42:24Z</time>
      </trkpt>
      <trkpt lat="45.63711" lon="6.19994">
        <ele>834.0810546875</ele>
        <time>2011-12-23T14:42:30Z</time>
      </trkpt>
      <trkpt lat="45.63706" lon="6.19986">
        <ele>830.23583984375</ele>
        <time>2011-12-23T14:42:37Z</time>
      </trkpt>
      <trkpt lat="45.63705" lon="6.19984">
        <ele>830.71655273438</ele>
        <time>2011-12-23T14:42:38Z</time>
      </trkpt>
      <trkpt lat="45.63702" lon="6.19976">
        <ele>829.2744140625</ele>
        <time>2011-12-23T14:42:43Z</time>
      </trkpt>
      <trkpt lat="45.63697" lon="6.19962">
        <ele>827.83227539062</ele>
        <time>2011-12-23T14:42:50Z</time>
      </trkpt>
      <trkpt lat="45.63696" lon="6.19961">
        <ele>827.35180664062</ele>
        <time>2011-12-23T14:42:51Z</time>
      </trkpt>
      <trkpt lat="45.63695" lon="6.19948">
        <ele>827.83227539062</ele>
        <time>2011-12-23T14:42:58Z</time>
      </trkpt>
      <trkpt lat="45.63694" lon="6.19944">
        <ele>827.83227539062</ele>
        <time>2011-12-23T14:43:00Z</time>
      </trkpt>
      <trkpt lat="45.6369" lon="6.1993">
        <ele>824.94848632812</ele>
        <time>2011-12-23T14:43:07Z</time>
      </trkpt>
      <trkpt lat="45.63686" lon="6.1992">
        <ele>826.87109375</ele>
        <time>2011-12-23T14:43:12Z</time>
      </trkpt>
      <trkpt lat="45.63684" lon="6.1991">
        <ele>825.90966796875</ele>
        <time>2011-12-23T14:43:17Z</time>
      </trkpt>
      <trkpt lat="45.63682" lon="6.19901">
        <ele>826.39038085938</ele>
        <time>2011-12-23T14:43:22Z</time>
      </trkpt>
      <trkpt lat="45.63678" lon="6.19892">
        <ele>826.39038085938</ele>
        <time>2011-12-23T14:43:27Z</time>
      </trkpt>
      <trkpt lat="45.63673" lon="6.19882">
        <ele>827.83227539062</ele>
        <time>2011-12-23T14:43:34Z</time>
      </trkpt>
      <trkpt lat="45.63668" lon="6.19875">
        <ele>827.35180664062</ele>
        <time>2011-12-23T14:43:39Z</time>
      </trkpt>
      <trkpt lat="45.6366" lon="6.19864">
        <ele>825.90966796875</ele>
        <time>2011-12-23T14:43:45Z</time>
      </trkpt>
      <trkpt lat="45.63651" lon="6.19853">
        <ele>823.98706054688</ele>
        <time>2011-12-23T14:43:51Z</time>
      </trkpt>
      <trkpt lat="45.63645" lon="6.19839">
        <ele>822.54516601562</ele>
        <time>2011-12-23T14:43:56Z</time>
      </trkpt>
      <trkpt lat="45.6364" lon="6.19822">
        <ele>821.58374023438</ele>
        <time>2011-12-23T14:44:03Z</time>
      </trkpt>
      <trkpt lat="45.63638" lon="6.19807">
        <ele>818.69995117188</ele>
        <time>2011-12-23T14:44:10Z</time>
      </trkpt>
      <trkpt lat="45.63639" lon="6.19794">
        <ele>813.41284179688</ele>
        <time>2011-12-23T14:44:17Z</time>
      </trkpt>
      <trkpt lat="45.63641" lon="6.19787">
        <ele>811.00927734375</ele>
        <time>2011-12-23T14:44:21Z</time>
      </trkpt>
      <trkpt lat="45.63642" lon="6.1978">
        <ele>815.81616210938</ele>
        <time>2011-12-23T14:44:26Z</time>
      </trkpt>
      <trkpt lat="45.63643" lon="6.19776">
        <ele>818.21923828125</ele>
        <time>2011-12-23T14:44:31Z</time>
      </trkpt>
      <trkpt lat="45.63644" lon="6.19767">
        <ele>820.14184570312</ele>
        <time>2011-12-23T14:44:36Z</time>
      </trkpt>
      <trkpt lat="45.63646" lon="6.19761">
        <ele>820.62255859375</ele>
        <time>2011-12-23T14:44:41Z</time>
      </trkpt>
      <trkpt lat="45.63652" lon="6.19748">
        <ele>816.29663085938</ele>
        <time>2011-12-23T14:44:48Z</time>
      </trkpt>
      <trkpt lat="45.63655" lon="6.19743">
        <ele>812.93212890625</ele>
        <time>2011-12-23T14:44:51Z</time>
      </trkpt>
      <trkpt lat="45.63656" lon="6.19739">
        <ele>810.52856445312</ele>
        <time>2011-12-23T14:44:53Z</time>
      </trkpt>
      <trkpt lat="45.6366" lon="6.19727">
        <ele>810.0478515625</ele>
        <time>2011-12-23T14:44:59Z</time>
      </trkpt>
      <trkpt lat="45.63662" lon="6.19713">
        <ele>804.7607421875</ele>
        <time>2011-12-23T14:45:07Z</time>
      </trkpt>
      <trkpt lat="45.63662" lon="6.1971">
        <ele>805.24145507812</ele>
        <time>2011-12-23T14:45:08Z</time>
      </trkpt>
      <trkpt lat="45.63663" lon="6.19704">
        <ele>806.68334960938</ele>
        <time>2011-12-23T14:45:11Z</time>
      </trkpt>
      <trkpt lat="45.63666" lon="6.19695">
        <ele>804.2802734375</ele>
        <time>2011-12-23T14:45:16Z</time>
      </trkpt>
      <trkpt lat="45.63666" lon="6.19693">
        <ele>803.79956054688</ele>
        <time>2011-12-23T14:45:17Z</time>
      </trkpt>
      <trkpt lat="45.63666" lon="6.1969">
        <ele>803.79956054688</ele>
        <time>2011-12-23T14:45:19Z</time>
      </trkpt>
      <trkpt lat="45.63666" lon="6.19679">
        <ele>804.2802734375</ele>
        <time>2011-12-23T14:45:24Z</time>
      </trkpt>
      <trkpt lat="45.63666" lon="6.19669">
        <ele>804.2802734375</ele>
        <time>2011-12-23T14:45:29Z</time>
      </trkpt>
      <trkpt lat="45.63666" lon="6.19663">
        <ele>801.876953125</ele>
        <time>2011-12-23T14:45:32Z</time>
      </trkpt>
      <trkpt lat="45.63666" lon="6.19653">
        <ele>800.91552734375</ele>
        <time>2011-12-23T14:45:37Z</time>
      </trkpt>
      <trkpt lat="45.63667" lon="6.1964">
        <ele>798.99291992188</ele>
        <time>2011-12-23T14:45:43Z</time>
      </trkpt>
      <trkpt lat="45.6367" lon="6.19619">
        <ele>802.357421875</ele>
        <time>2011-12-23T14:45:53Z</time>
      </trkpt>
      <trkpt lat="45.63676" lon="6.19605">
        <ele>798.03173828125</ele>
        <time>2011-12-23T14:46:01Z</time>
      </trkpt>
      <trkpt lat="45.63679" lon="6.19604">
        <ele>797.55102539062</ele>
        <time>2011-12-23T14:46:02Z</time>
      </trkpt>
      <trkpt lat="45.63682" lon="6.19595">
        <ele>795.62817382812</ele>
        <time>2011-12-23T14:46:07Z</time>
      </trkpt>
      <trkpt lat="45.63681" lon="6.19582">
        <ele>798.51220703125</ele>
        <time>2011-12-23T14:46:13Z</time>
      </trkpt>
      <trkpt lat="45.63677" lon="6.19574">
        <ele>798.99291992188</ele>
        <time>2011-12-23T14:46:17Z</time>
      </trkpt>
      <trkpt lat="45.63676" lon="6.19572">
        <ele>798.99291992188</ele>
        <time>2011-12-23T14:46:18Z</time>
      </trkpt>
      <trkpt lat="45.63668" lon="6.19561">
        <ele>798.99291992188</ele>
        <time>2011-12-23T14:46:25Z</time>
      </trkpt>
      <trkpt lat="45.63666" lon="6.19556">
        <ele>799.4736328125</ele>
        <time>2011-12-23T14:46:28Z</time>
      </trkpt>
      <trkpt lat="45.63663" lon="6.19541">
        <ele>797.0703125</ele>
        <time>2011-12-23T14:46:36Z</time>
      </trkpt>
      <trkpt lat="45.63663" lon="6.19534">
        <ele>796.58984375</ele>
        <time>2011-12-23T14:46:39Z</time>
      </trkpt>
      <trkpt lat="45.63662" lon="6.19524">
        <ele>797.55102539062</ele>
        <time>2011-12-23T14:46:44Z</time>
      </trkpt>
      <trkpt lat="45.63662" lon="6.19513">
        <ele>798.03173828125</ele>
        <time>2011-12-23T14:46:50Z</time>
      </trkpt>
      <trkpt lat="45.63664" lon="6.19507">
        <ele>799.4736328125</ele>
        <time>2011-12-23T14:46:53Z</time>
      </trkpt>
      <trkpt lat="45.63665" lon="6.19495">
        <ele>801.876953125</ele>
        <time>2011-12-23T14:47:00Z</time>
      </trkpt>
      <trkpt lat="45.63667" lon="6.1949">
        <ele>805.24145507812</ele>
        <time>2011-12-23T14:47:05Z</time>
      </trkpt>
      <trkpt lat="45.63668" lon="6.19489">
        <ele>806.20263671875</ele>
        <time>2011-12-23T14:47:06Z</time>
      </trkpt>
      <trkpt lat="45.63671" lon="6.1948">
        <ele>811.970703125</ele>
        <time>2011-12-23T14:47:12Z</time>
      </trkpt>
      <trkpt lat="45.63676" lon="6.19466">
        <ele>814.85473632812</ele>
        <time>2011-12-23T14:47:19Z</time>
      </trkpt>
      <trkpt lat="45.63681" lon="6.1946">
        <ele>820.14184570312</ele>
        <time>2011-12-23T14:47:25Z</time>
      </trkpt>
      <trkpt lat="45.63684" lon="6.19457">
        <ele>823.50659179688</ele>
        <time>2011-12-23T14:47:30Z</time>
      </trkpt>
      <trkpt lat="45.63687" lon="6.1945">
        <ele>821.58374023438</ele>
        <time>2011-12-23T14:47:36Z</time>
      </trkpt>
      <trkpt lat="45.63688" lon="6.19447">
        <ele>826.39038085938</ele>
        <time>2011-12-23T14:47:44Z</time>
      </trkpt>
      <trkpt lat="45.63689" lon="6.19447">
        <ele>840.32958984375</ele>
        <time>2011-12-23T14:47:50Z</time>
      </trkpt>
      <trkpt lat="45.63686" lon="6.19451">
        <ele>853.30737304688</ele>
        <time>2011-12-23T14:47:58Z</time>
      </trkpt>
      <trkpt lat="45.63685" lon="6.19448">
        <ele>857.15258789062</ele>
        <time>2011-12-23T14:48:04Z</time>
      </trkpt>
      <trkpt lat="45.63686" lon="6.19447">
        <ele>849.94287109375</ele>
        <time>2011-12-23T14:48:07Z</time>
      </trkpt>
      <trkpt lat="45.63688" lon="6.19445">
        <ele>846.09765625</ele>
        <time>2011-12-23T14:48:09Z</time>
      </trkpt>
      <trkpt lat="45.63693" lon="6.19442">
        <ele>838.8876953125</ele>
        <time>2011-12-23T14:48:13Z</time>
      </trkpt>
      <trkpt lat="45.63699" lon="6.19433">
        <ele>830.71655273438</ele>
        <time>2011-12-23T14:48:20Z</time>
      </trkpt>
      <trkpt lat="45.63704" lon="6.19427">
        <ele>828.7939453125</ele>
        <time>2011-12-23T14:48:25Z</time>
      </trkpt>
      <trkpt lat="45.6371" lon="6.1942">
        <ele>822.064453125</ele>
        <time>2011-12-23T14:48:31Z</time>
      </trkpt>
      <trkpt lat="45.63715" lon="6.19415">
        <ele>819.66137695312</ele>
        <time>2011-12-23T14:48:36Z</time>
      </trkpt>
      <trkpt lat="45.6372" lon="6.19409">
        <ele>818.21923828125</ele>
        <time>2011-12-23T14:48:42Z</time>
      </trkpt>
      <trkpt lat="45.63724" lon="6.19407">
        <ele>817.73852539062</ele>
        <time>2011-12-23T14:48:47Z</time>
      </trkpt>
      <trkpt lat="45.63733" lon="6.19397">
        <ele>816.29663085938</ele>
        <time>2011-12-23T14:48:54Z</time>
      </trkpt>
      <trkpt lat="45.63736" lon="6.19389">
        <ele>817.25805664062</ele>
        <time>2011-12-23T14:48:57Z</time>
      </trkpt>
      <trkpt lat="45.63742" lon="6.1938">
        <ele>814.85473632812</ele>
        <time>2011-12-23T14:49:04Z</time>
      </trkpt>
      <trkpt lat="45.63748" lon="6.19375">
        <ele>817.25805664062</ele>
        <time>2011-12-23T14:49:10Z</time>
      </trkpt>
      <trkpt lat="45.6375" lon="6.19367">
        <ele>820.14184570312</ele>
        <time>2011-12-23T14:49:14Z</time>
      </trkpt>
      <trkpt lat="45.63755" lon="6.19354">
        <ele>818.69995117188</ele>
        <time>2011-12-23T14:49:21Z</time>
      </trkpt>
      <trkpt lat="45.63761" lon="6.19347">
        <ele>819.66137695312</ele>
        <time>2011-12-23T14:49:25Z</time>
      </trkpt>
      <trkpt lat="45.63766" lon="6.1934">
        <ele>814.3740234375</ele>
        <time>2011-12-23T14:49:30Z</time>
      </trkpt>
      <trkpt lat="45.63767" lon="6.19339">
        <ele>816.77734375</ele>
        <time>2011-12-23T14:49:36Z</time>
      </trkpt>
      <trkpt lat="45.63767" lon="6.19341">
        <ele>821.10327148438</ele>
        <time>2011-12-23T14:49:40Z</time>
      </trkpt>
      <trkpt lat="45.63765" lon="6.19353">
        <ele>830.23583984375</ele>
        <time>2011-12-23T14:50:20Z</time>
      </trkpt>
      <trkpt lat="45.63783" lon="6.1933">
        <ele>811.970703125</ele>
        <time>2011-12-23T14:50:49Z</time>
      </trkpt>
      <trkpt lat="45.63783" lon="6.19334">
        <ele>814.85473632812</ele>
        <time>2011-12-23T14:50:53Z</time>
      </trkpt>
      <trkpt lat="45.63783" lon="6.19331">
        <ele>815.81616210938</ele>
        <time>2011-12-23T14:50:58Z</time>
      </trkpt>
      <trkpt lat="45.63781" lon="6.19326">
        <ele>816.77734375</ele>
        <time>2011-12-23T14:51:02Z</time>
      </trkpt>
      <trkpt lat="45.63782" lon="6.1932">
        <ele>815.33544921875</ele>
        <time>2011-12-23T14:51:06Z</time>
      </trkpt>
      <trkpt lat="45.63783" lon="6.19319">
        <ele>813.41284179688</ele>
        <time>2011-12-23T14:51:07Z</time>
      </trkpt>
      <trkpt lat="45.63783" lon="6.19317">
        <ele>815.81616210938</ele>
        <time>2011-12-23T14:51:09Z</time>
      </trkpt>
      <trkpt lat="45.63785" lon="6.19316">
        <ele>818.21923828125</ele>
        <time>2011-12-23T14:51:12Z</time>
      </trkpt>
      <trkpt lat="45.63787" lon="6.19313">
        <ele>820.14184570312</ele>
        <time>2011-12-23T14:51:16Z</time>
      </trkpt>
      <trkpt lat="45.63792" lon="6.19307">
        <ele>819.66137695312</ele>
        <time>2011-12-23T14:51:22Z</time>
      </trkpt>
      <trkpt lat="45.63796" lon="6.19297">
        <ele>818.21923828125</ele>
        <time>2011-12-23T14:51:27Z</time>
      </trkpt>
      <trkpt lat="45.638" lon="6.19295">
        <ele>816.77734375</ele>
        <time>2011-12-23T14:51:31Z</time>
      </trkpt>
      <trkpt lat="45.63801" lon="6.1929">
        <ele>813.41284179688</ele>
        <time>2011-12-23T14:51:35Z</time>
      </trkpt>
      <trkpt lat="45.63806" lon="6.19283">
        <ele>813.89331054688</ele>
        <time>2011-12-23T14:51:40Z</time>
      </trkpt>
      <trkpt lat="45.6381" lon="6.19281">
        <ele>813.89331054688</ele>
        <time>2011-12-23T14:51:43Z</time>
      </trkpt>
      <trkpt lat="45.63815" lon="6.19273">
        <ele>820.62255859375</ele>
        <time>2011-12-23T14:51:49Z</time>
      </trkpt>
      <trkpt lat="45.63818" lon="6.19268">
        <ele>817.73852539062</ele>
        <time>2011-12-23T14:51:54Z</time>
      </trkpt>
      <trkpt lat="45.63825" lon="6.19261">
        <ele>816.77734375</ele>
        <time>2011-12-23T14:52:01Z</time>
      </trkpt>
      <trkpt lat="45.63828" lon="6.19261">
        <ele>813.41284179688</ele>
        <time>2011-12-23T14:52:03Z</time>
      </trkpt>
      <trkpt lat="45.63833" lon="6.19257">
        <ele>811.970703125</ele>
        <time>2011-12-23T14:52:07Z</time>
      </trkpt>
      <trkpt lat="45.6384" lon="6.19251">
        <ele>809.5673828125</ele>
        <time>2011-12-23T14:52:14Z</time>
      </trkpt>
      <trkpt lat="45.63848" lon="6.19246">
        <ele>810.52856445312</ele>
        <time>2011-12-23T14:52:20Z</time>
      </trkpt>
      <trkpt lat="45.63853" lon="6.19244">
        <ele>813.41284179688</ele>
        <time>2011-12-23T14:52:26Z</time>
      </trkpt>
      <trkpt lat="45.63857" lon="6.19233">
        <ele>815.33544921875</ele>
        <time>2011-12-23T14:52:33Z</time>
      </trkpt>
      <trkpt lat="45.63865" lon="6.19225">
        <ele>811.970703125</ele>
        <time>2011-12-23T14:52:40Z</time>
      </trkpt>
      <trkpt lat="45.63875" lon="6.1922">
        <ele>803.79956054688</ele>
        <time>2011-12-23T14:52:48Z</time>
      </trkpt>
      <trkpt lat="45.63882" lon="6.19216">
        <ele>799.95434570312</ele>
        <time>2011-12-23T14:52:54Z</time>
      </trkpt>
      <trkpt lat="45.63888" lon="6.19212">
        <ele>798.03173828125</ele>
        <time>2011-12-23T14:53:01Z</time>
      </trkpt>
      <trkpt lat="45.63894" lon="6.19206">
        <ele>798.03173828125</ele>
        <time>2011-12-23T14:53:08Z</time>
      </trkpt>
      <trkpt lat="45.63898" lon="6.19201">
        <ele>795.1474609375</ele>
        <time>2011-12-23T14:53:14Z</time>
      </trkpt>
      <trkpt lat="45.63901" lon="6.19199">
        <ele>795.62817382812</ele>
        <time>2011-12-23T14:53:18Z</time>
      </trkpt>
      <trkpt lat="45.63906" lon="6.19195">
        <ele>801.876953125</ele>
        <time>2011-12-23T14:53:22Z</time>
      </trkpt>
      <trkpt lat="45.63913" lon="6.19188">
        <ele>805.72216796875</ele>
        <time>2011-12-23T14:53:29Z</time>
      </trkpt>
      <trkpt lat="45.63918" lon="6.19189">
        <ele>802.357421875</ele>
        <time>2011-12-23T14:53:35Z</time>
      </trkpt>
      <trkpt lat="45.63921" lon="6.19192">
        <ele>801.39624023438</ele>
        <time>2011-12-23T14:53:40Z</time>
      </trkpt>
      <trkpt lat="45.63921" lon="6.19199">
        <ele>804.2802734375</ele>
        <time>2011-12-23T14:53:48Z</time>
      </trkpt>
      <trkpt lat="45.6392" lon="6.19205">
        <ele>809.08666992188</ele>
        <time>2011-12-23T14:53:57Z</time>
      </trkpt>
      <trkpt lat="45.63923" lon="6.19204">
        <ele>805.24145507812</ele>
        <time>2011-12-23T14:54:03Z</time>
      </trkpt>
      <trkpt lat="45.63923" lon="6.19199">
        <ele>804.2802734375</ele>
        <time>2011-12-23T14:54:11Z</time>
      </trkpt>
      <trkpt lat="45.63923" lon="6.19195">
        <ele>798.03173828125</ele>
        <time>2011-12-23T14:54:22Z</time>
      </trkpt>
      <trkpt lat="45.63923" lon="6.19198">
        <ele>801.39624023438</ele>
        <time>2011-12-23T14:54:31Z</time>
      </trkpt>
      <trkpt lat="45.6392" lon="6.19195">
        <ele>801.39624023438</ele>
        <time>2011-12-23T14:54:36Z</time>
      </trkpt>
      <trkpt lat="45.63916" lon="6.19189">
        <ele>801.39624023438</ele>
        <time>2011-12-23T14:54:43Z</time>
      </trkpt>
      <trkpt lat="45.63912" lon="6.19189">
        <ele>805.24145507812</ele>
        <time>2011-12-23T14:54:47Z</time>
      </trkpt>
      <trkpt lat="45.63911" lon="6.19194">
        <ele>807.64477539062</ele>
        <time>2011-12-23T14:54:53Z</time>
      </trkpt>
      <trkpt lat="45.63907" lon="6.19196">
        <ele>813.89331054688</ele>
        <time>2011-12-23T14:55:09Z</time>
      </trkpt>
      <trkpt lat="45.63907" lon="6.192">
        <ele>816.29663085938</ele>
        <time>2011-12-23T14:55:18Z</time>
      </trkpt>
      <trkpt lat="45.63908" lon="6.19206">
        <ele>820.14184570312</ele>
        <time>2011-12-23T14:55:22Z</time>
      </trkpt>
      <trkpt lat="45.63914" lon="6.19203">
        <ele>815.81616210938</ele>
        <time>2011-12-23T14:55:27Z</time>
      </trkpt>
      <trkpt lat="45.63918" lon="6.19201">
        <ele>811.00927734375</ele>
        <time>2011-12-23T14:55:31Z</time>
      </trkpt>
      <trkpt lat="45.63918" lon="6.19198">
        <ele>811.00927734375</ele>
        <time>2011-12-23T14:55:34Z</time>
      </trkpt>
      <trkpt lat="45.63918" lon="6.19195">
        <ele>805.24145507812</ele>
        <time>2011-12-23T14:55:41Z</time>
      </trkpt>
      <trkpt lat="45.63922" lon="6.19194">
        <ele>801.39624023438</ele>
        <time>2011-12-23T14:55:47Z</time>
      </trkpt>
      <trkpt lat="45.63921" lon="6.1919">
        <ele>793.22485351562</ele>
        <time>2011-12-23T14:56:04Z</time>
      </trkpt>
      <trkpt lat="45.63922" lon="6.1919">
        <ele>791.78295898438</ele>
        <time>2011-12-23T14:56:06Z</time>
      </trkpt>
      <trkpt lat="45.63924" lon="6.19189">
        <ele>791.30224609375</ele>
        <time>2011-12-23T14:56:13Z</time>
      </trkpt>
      <trkpt lat="45.63925" lon="6.19189">
        <ele>790.82153320312</ele>
        <time>2011-12-23T14:56:17Z</time>
      </trkpt>
      <trkpt lat="45.63924" lon="6.19189">
        <ele>792.74438476562</ele>
        <time>2011-12-23T14:56:23Z</time>
      </trkpt>
      <trkpt lat="45.63924" lon="6.19192">
        <ele>795.1474609375</ele>
        <time>2011-12-23T14:56:38Z</time>
      </trkpt>
      <trkpt lat="45.63923" lon="6.19189">
        <ele>792.74438476562</ele>
        <time>2011-12-23T14:56:46Z</time>
      </trkpt>
      <trkpt lat="45.63923" lon="6.1919">
        <ele>791.78295898438</ele>
        <time>2011-12-23T14:56:49Z</time>
      </trkpt>
      <trkpt lat="45.63926" lon="6.19193">
        <ele>792.74438476562</ele>
        <time>2011-12-23T14:56:54Z</time>
      </trkpt>
      <trkpt lat="45.63926" lon="6.19196">
        <ele>796.10913085938</ele>
        <time>2011-12-23T14:57:03Z</time>
      </trkpt>
      <trkpt lat="45.63925" lon="6.19203">
        <ele>802.83813476562</ele>
        <time>2011-12-23T14:57:09Z</time>
      </trkpt>
      <trkpt lat="45.63925" lon="6.19204">
        <ele>804.7607421875</ele>
        <time>2011-12-23T14:57:11Z</time>
      </trkpt>
      <trkpt lat="45.63922" lon="6.19204">
        <ele>806.20263671875</ele>
        <time>2011-12-23T14:57:16Z</time>
      </trkpt>
      <trkpt lat="45.63921" lon="6.19202">
        <ele>804.2802734375</ele>
        <time>2011-12-23T14:57:22Z</time>
      </trkpt>
      <trkpt lat="45.63921" lon="6.19204">
        <ele>804.7607421875</ele>
        <time>2011-12-23T14:57:28Z</time>
      </trkpt>
      <trkpt lat="45.6392" lon="6.19207">
        <ele>808.12548828125</ele>
        <time>2011-12-23T14:57:42Z</time>
      </trkpt>
      <trkpt lat="45.63922" lon="6.19202">
        <ele>803.79956054688</ele>
        <time>2011-12-23T14:57:47Z</time>
      </trkpt>
      <trkpt lat="45.6392" lon="6.19204">
        <ele>805.24145507812</ele>
        <time>2011-12-23T14:57:59Z</time>
      </trkpt>
      <trkpt lat="45.63921" lon="6.19206">
        <ele>804.2802734375</ele>
        <time>2011-12-23T14:58:06Z</time>
      </trkpt>
      <trkpt lat="45.63921" lon="6.19201">
        <ele>803.79956054688</ele>
        <time>2011-12-23T14:58:17Z</time>
      </trkpt>
      <trkpt lat="45.63921" lon="6.19198">
        <ele>800.91552734375</ele>
        <time>2011-12-23T14:58:20Z</time>
      </trkpt>
      <trkpt lat="45.63921" lon="6.19198">
        <ele>800.43505859375</ele>
        <time>2011-12-23T14:58:21Z</time>
      </trkpt>
      <trkpt lat="45.63921" lon="6.19198">
        <ele>799.95434570312</ele>
        <time>2011-12-23T14:58:22Z</time>
      </trkpt>
    </trkseg>
  </trk>
</gpx>